# Wetter Temperatur Luftdruck Luftfeuchtigkeit Sichtweite Windgeschwindigkeit Windrichtung Zeit
1 Clouds 16 1034 37 10000 2.6 0 19:56 02.04.2020
2 Clouds 15 1035 36 10000 2.1 170 19:37 02.04.2020
3 Clouds 15 1035 36 10000 2.1 170 19:19 02.04.2020
4 Clouds 14 1036 48 10000 2.1 90 18:42 02.04.2020
5 Clouds 14 1036 48 10000 2.1 90 18:21 02.04.2020
6 Clouds 13 1037 51 10000 1.5 90 17:59 02.04.2020
7 Clouds 13 1037 51 10000 1.5 90 17:59 02.04.2020
8 Clouds 13 1037 51 10000 1.5 90 17:40 02.04.2020
9 Clouds 13 1037 51 10000 2.6 90 17:22 02.04.2020
10 Clouds 13 1037 51 10000 0.5 0 16:57 02.04.2020
11 Clouds 13 1037 51 10000 0.5 0 16:39 02.04.2020
12 Clouds 13 1037 51 10000 0.5 0 16:39 02.04.2020
13 Clouds 15 1038 51 10000 1 0 16:21 02.04.2020
14 Clouds 11 1038 58 10000 1 0 15:56 02.04.2020
15 Clouds 9 1037 62 10000 1 70 15:38 02.04.2020
16 Clouds 12 1037 62 10000 1 70 15:18 02.04.2020
17 Clouds 11 1037 66 10000 0.5 0 14:41 02.04.2020
18 Clouds 10 1024 26 0 0.37 125 14:21 02.04.2020
19 Clouds 10 1024 26 0 0.91 103 13:59 02.04.2020
20 Clouds 10 1024 26 0 0.91 103 13:40 02.04.2020
21 Clouds 10 1024 26 0 0.91 103 13:21 02.04.2020
22 Clouds 10 1024 26 0 0.91 103 12:57 02.04.2020
23 Clouds 10 1024 26 0 0.91 103 12:39 02.04.2020
24 Clouds 7 1022 28 0 0.92 65 12:19 02.04.2020
25 Clouds 7 1022 28 0 0.92 65 11:57 02.04.2020
26 Clouds 7 1022 28 0 0.92 65 11:38 02.04.2020
27 Clouds 7 1022 28 0 0.92 65 11:19 02.04.2020
28 Clouds 7 1022 28 0 0.92 65 10:55 02.04.2020
29 Clouds 7 1022 28 0 0.92 65 10:37 02.04.2020
30 Clouds 7 1022 28 0 0.92 65 10:19 02.04.2020
31 Clouds 7 1022 28 0 0.92 65 09:55 02.04.2020
32 Clouds 7 1022 28 0 0.92 65 09:37 02.04.2020
33 Clouds 7 1022 27 0 0.89 27 09:18 02.04.2020
34 Clouds 7 1022 27 0 0.89 27 08:45 02.04.2020
35 Clouds 7 1022 27 0 0.89 27 08:26 02.04.2020
36 Clouds 2 1018 94 0 0.89 27 07:45 02.04.2020
37 Clouds 2 1018 94 0 0.89 27 07:20 02.04.2020
38 Clouds 3 1018 93 0 0.89 27 06:58 02.04.2020
39 Clouds 3 1018 93 0 0.89 27 06:21 02.04.2020
40 Clear 4 1018 92 0 1.75 28 05:45 02.04.2020
41 Clear 6 1018 92 0 1.75 28 04:35 02.04.2020
42 Rain 9 1017 78 0 2.54 39 01:51 02.04.2020
43 Rain 10 1016 66 0 2.54 39 00:48 02.04.2020
44 Rain 11 1016 66 0 2.54 39 00:27 02.04.2020
45 Rain 11 1015 67 0 3.9 26 23:55 01.04.2020
46 Rain 16 1012 21 0 3.9 26 23:37 01.04.2020
47 Clouds 14 1029 32 10000 5.7 20 23:18 01.04.2020
48 Clouds 19 1029 32 10000 5.7 20 22:41 01.04.2020
49 Clouds 19 1029 32 10000 5.7 20 22:22 01.04.2020
50 Clouds 15 1029 34 10000 5.7 20 21:57 01.04.2020
51 Clouds 20 1029 34 10000 5.7 20 21:38 01.04.2020
52 Clouds 19 1030 34 10000 5.7 10 21:18 01.04.2020
53 Clouds 19 1030 34 10000 5.7 20 20:55 01.04.2020
54 Clouds 19 1030 34 10000 5.7 20 20:37 01.04.2020
55 Clouds 18 1031 36 10000 5.7 20 20:18 01.04.2020
56 Clouds 19 1032 34 10000 7.2 20 19:43 01.04.2020
57 Clouds 17 1033 42 10000 5.7 20 19:22 01.04.2020
58 Clouds 17 1033 42 10000 1.5 150 18:59 01.04.2020
59 Clouds 17 1033 42 10000 1.5 150 18:40 01.04.2020
60 Clouds 17 1033 45 10000 2.1 80 18:21 01.04.2020
61 Clouds 17 1034 42 10000 1 100 17:55 01.04.2020
62 Clouds 16 1034 48 10000 1 100 17:36 01.04.2020
63 Clouds 16 1034 48 10000 1 100 17:18 01.04.2020
64 Clouds 16 1034 48 10000 1 100 17:18 01.04.2020
65 Clouds 15 1035 54 10000 1 360 16:42 01.04.2020
66 Clouds 12 1035 66 10000 1.5 80 16:24 01.04.2020
67 Clouds 9 1035 71 10000 2.1 90 15:59 01.04.2020
68 Clouds 8 1035 71 10000 2.1 90 15:41 01.04.2020
69 Clouds 8 1035 71 10000 2.1 120 15:21 01.04.2020
70 Clouds 8 1034 71 10000 2.1 100 14:57 01.04.2020
71 Clouds 8 1034 71 10000 2.1 100 14:38 01.04.2020
72 Clouds 8 1034 71 10000 2.1 100 14:38 01.04.2020
73 Clouds 8 1034 76 10000 2.1 110 14:19 01.04.2020
74 Rain 5 1013 90 0 1.51 111 13:58 01.04.2020
75 Rain 5 1012 92 0 1.51 111 13:38 01.04.2020
76 Rain 5 1012 93 0 1.51 111 13:19 01.04.2020
77 Rain 5 1012 93 0 1.51 111 12:56 01.04.2020
78 Rain 5 1012 93 0 1.51 111 12:36 01.04.2020
79 Rain 5 1012 93 0 1.52 62 12:18 01.04.2020
80 Rain 5 1011 92 0 1.52 62 11:44 01.04.2020
81 Rain 5 1011 93 0 1.52 62 11:24 01.04.2020
82 Rain 5 1011 93 0 1.52 62 10:59 01.04.2020
83 Rain 5 1011 92 0 1.52 62 10:38 01.04.2020
84 Rain 5 1011 93 0 1.52 62 10:19 01.04.2020
85 Rain 5 1010 92 0 1.52 62 09:57 01.04.2020
86 Rain 5 1010 93 0 1.52 62 09:39 01.04.2020
87 Clouds 6 1010 92 0 1.19 50 09:18 01.04.2020
88 Clouds 6 1010 93 0 1.13 47 08:42 01.04.2020
89 Clouds 6 1010 93 0 1.13 47 08:18 01.04.2020
90 Clouds 6 1011 94 0 1.13 47 07:46 01.04.2020
91 Clouds 6 1011 94 0 1.13 47 07:21 01.04.2020
92 Clouds 6 1011 94 0 1.13 47 06:52 01.04.2020
93 Clouds 6 1011 94 0 1.97 35 06:27 01.04.2020
94 Clouds 6 1011 95 0 1.97 35 05:58 01.04.2020
95 Clouds 6 1010 95 0 1.97 35 04:33 01.04.2020
96 Clouds 6 1010 95 0 1.97 35 03:32 01.04.2020
97 Rain 7 1009 94 0 2.35 26 02:56 01.04.2020
98 Rain 7 1009 94 0 2.3 27 01:59 01.04.2020
99 Rain 7 1008 94 0 2.3 27 01:39 01.04.2020
100 Rain 7 1008 94 0 2.3 27 01:18 01.04.2020
101 Rain 8 1007 94 0 2.3 27 00:46 01.04.2020
102 Rain 11 1016 23 0 2.3 27 00:21 01.04.2020
103 Rain 17 1012 19 0 3.94 19 23:48 31.03.2020
104 Clouds 20 1028 37 10000 5.7 20 23:27 31.03.2020
105 Clouds 20 1028 37 10000 5.7 20 22:58 31.03.2020
106 Clouds 20 1028 37 10000 5.7 20 22:37 31.03.2020
107 Clouds 20 1028 37 10000 5.7 20 22:19 31.03.2020
108 Clouds 20 1028 37 10000 5.7 20 21:56 31.03.2020
109 Clouds 20 1029 40 10000 3.1 360 21:38 31.03.2020
110 Rain 14 1029 40 10000 3.1 360 21:19 31.03.2020
111 Clouds 13 1031 42 10000 1 0 20:55 31.03.2020
112 Clouds 13 1031 42 10000 1 0 20:36 31.03.2020
113 Clouds 13 1031 42 10000 1 0 20:18 31.03.2020
114 Clouds 13 1032 52 10000 2.6 360 19:42 31.03.2020
115 Clouds 13 1032 52 10000 2.6 360 19:42 31.03.2020
116 Clouds 13 1032 52 10000 2.6 360 19:23 31.03.2020
117 Rain 12 1033 48 10000 0.5 0 18:58 31.03.2020
118 Clouds 17 1033 48 10000 0.5 0 18:39 31.03.2020
119 Clouds 14 1034 58 10000 1.5 350 18:18 31.03.2020
120 Clouds 14 1034 58 10000 1.5 350 17:55 31.03.2020
121 Clouds 14 1034 58 10000 1.5 350 17:55 31.03.2020
122 Clouds 13 1035 62 10000 2.6 90 17:37 31.03.2020
123 Rain 10 1035 62 10000 2.6 90 17:18 31.03.2020
124 Rain 10 1035 58 10000 1.5 80 16:40 31.03.2020
125 Rain 10 1035 62 10000 0.78 318 16:19 31.03.2020
126 Rain 10 1035 66 10000 0.78 318 15:57 31.03.2020
127 Rain 10 1035 66 10000 0.78 318 15:39 31.03.2020
128 Rain 9 1034 76 10000 0.5 0 15:21 31.03.2020
129 Rain 9 1034 76 10000 1 0 14:57 31.03.2020
130 Rain 10 1034 76 10000 1 0 14:38 31.03.2020
131 Rain 9 1034 81 10000 1.5 90 14:20 31.03.2020
132 Rain 10 1021 28 0 0.93 349 13:43 31.03.2020
133 Rain 10 1021 28 0 0.93 349 13:20 31.03.2020
134 Rain 10 1021 28 0 0.93 349 12:57 31.03.2020
135 Rain 10 1021 28 0 0.93 349 12:39 31.03.2020
136 Rain 9 1018 30 0 2.07 354 12:19 31.03.2020
137 Rain 9 1018 30 0 2.07 354 11:40 31.03.2020
138 Rain 9 1018 30 0 2.07 354 11:20 31.03.2020
139 Rain 9 1018 30 0 2.07 354 10:58 31.03.2020
140 Rain 9 1018 30 0 2.07 354 10:58 31.03.2020
141 Rain 9 1018 30 0 2.07 354 10:40 31.03.2020
142 Rain 9 1018 30 0 2.07 354 10:21 31.03.2020
143 Rain 9 1018 30 0 2.07 354 09:57 31.03.2020
144 Rain 9 1018 30 0 2.07 354 09:39 31.03.2020
145 Rain 10 1019 28 0 0.54 177 09:21 31.03.2020
146 Rain 10 1019 28 0 0.54 177 08:57 31.03.2020
147 Rain 10 1019 28 0 0.54 177 08:38 31.03.2020
148 Rain 10 1015 72 0 0.54 177 08:19 31.03.2020
149 Rain 10 1014 76 0 0.54 177 07:55 31.03.2020
150 Rain 10 1014 76 0 0.54 177 07:55 31.03.2020
151 Rain 10 1015 76 0 0.54 177 07:37 31.03.2020
152 Rain 10 1019 28 0 0.54 177 07:18 31.03.2020
153 Rain 10 1015 76 0 0.54 177 06:42 31.03.2020
154 Clouds 10 1020 28 0 1.73 28 05:57 31.03.2020
155 Clouds 10 1020 28 0 1.73 28 05:38 31.03.2020
156 Clouds 10 1020 28 0 1.73 28 03:27 31.03.2020
157 Rain 12 1016 26 0 2.3 24 01:52 31.03.2020
158 Rain 12 1016 26 0 2.3 24 01:33 31.03.2020
159 Rain 12 1016 26 0 2.3 24 00:46 31.03.2020
160 Rain 12 1016 26 0 2.3 24 00:24 31.03.2020
161 Rain 17 1011 20 0 3.18 11 23:41 30.03.2020
162 Clouds 17 1030 48 10000 3.1 260 23:20 30.03.2020
163 Clouds 17 1030 48 10000 3.1 260 22:58 30.03.2020
164 Clouds 17 1030 48 10000 3.1 260 22:39 30.03.2020
165 Clouds 17 1030 48 10000 3.1 260 22:20 30.03.2020
166 Clouds 17 1030 48 10000 2.1 210 21:58 30.03.2020
167 Clouds 17 1030 48 10000 2.1 210 21:39 30.03.2020
168 Clouds 17 1030 48 10000 2.1 210 21:39 30.03.2020
169 Clouds 18 1031 52 10000 2.6 270 21:20 30.03.2020
170 Clouds 16 1031 55 10000 1.5 290 20:59 30.03.2020
171 Clouds 16 1031 55 10000 1.5 290 20:39 30.03.2020
172 Clouds 16 1031 55 10000 1.5 290 20:39 30.03.2020
173 Clouds 13 1033 62 10000 1.5 290 20:20 30.03.2020
174 Clouds 13 1033 62 10000 1.5 290 20:20 30.03.2020
175 Drizzle 13 1033 66 10000 2.6 130 19:56 30.03.2020
176 Drizzle 13 1033 66 10000 2.6 130 19:38 30.03.2020
177 Drizzle 13 1034 66 10000 6.2 120 19:20 30.03.2020
178 Rain 15 1034 62 10000 2.6 120 18:43 30.03.2020
179 Rain 15 1034 58 10000 3.1 110 18:25 30.03.2020
180 Rain 15 1034 54 10000 1.5 140 17:58 30.03.2020
181 Clouds 16 1034 48 10000 1 180 17:39 30.03.2020
182 Clouds 16 1034 48 10000 1 180 17:20 30.03.2020
183 Clouds 15 1034 54 10000 0.5 0 16:58 30.03.2020
184 Clouds 14 1034 58 10000 2.1 80 16:39 30.03.2020
185 Clouds 15 1034 58 10000 2.1 80 16:20 30.03.2020
186 Clouds 15 1034 62 10000 2.6 100 15:55 30.03.2020
187 Clouds 14 1034 62 10000 2.6 100 15:37 30.03.2020
188 Clouds 13 1034 66 10000 1 140 15:19 30.03.2020
189 Clouds 13 1034 66 10000 1 140 15:19 30.03.2020
190 Clouds 11 1034 71 10000 0.5 120 14:56 30.03.2020
191 Clouds 9 1033 81 10000 1 100 14:37 30.03.2020
192 Clouds 9 1033 81 10000 1 100 14:18 30.03.2020
193 Clouds 6 1022 91 0 1.09 85 13:55 30.03.2020
194 Clouds 6 1022 90 0 1.09 85 13:37 30.03.2020
195 Clouds 6 1022 89 0 1.09 85 13:19 30.03.2020
196 Clouds 7 1021 88 0 1.09 85 12:44 30.03.2020
197 Clouds 7 1021 88 0 1.09 85 12:21 30.03.2020
198 Rain 7 1021 86 0 0.94 56 11:57 30.03.2020
199 Rain 8 1021 84 0 0.94 56 11:39 30.03.2020
200 Rain 8 1021 84 0 0.94 56 11:21 30.03.2020
201 Rain 9 1021 81 0 0.94 56 10:41 30.03.2020
202 Rain 9 1021 79 0 0.94 56 10:23 30.03.2020
203 Rain 10 1020 77 0 0.94 56 09:59 30.03.2020
204 Rain 11 1020 75 0 0.94 56 09:40 30.03.2020
205 Rain 11 1020 30 0 1.39 17 09:19 30.03.2020
206 Rain 10 1020 30 0 1.17 11 08:47 30.03.2020
207 Rain 10 1020 30 0 1.17 11 08:28 30.03.2020
208 Rain 10 1020 30 0 1.17 11 08:28 30.03.2020
209 Rain 10 1020 30 0 1.17 11 07:58 30.03.2020
210 Rain 10 1020 30 0 1.17 11 07:39 30.03.2020
211 Rain 10 1020 30 0 1.17 11 07:18 30.03.2020
212 Rain 10 1020 30 0 1.17 11 06:37 30.03.2020
213 Rain 10 1021 29 0 2.1 18 06:18 30.03.2020
214 Rain 10 1021 29 0 2.1 18 05:38 30.03.2020
215 Rain 10 1021 29 0 2.1 18 04:27 30.03.2020
216 Rain 10 1021 29 0 2.1 18 03:50 30.03.2020
217 Rain 11 1017 29 0 2.27 16 02:43 30.03.2020
218 Rain 11 1017 28 0 2.12 20 01:54 30.03.2020
219 Rain 11 1017 28 0 2.12 20 00:56 30.03.2020
220 Rain 11 1017 28 0 2.12 20 00:25 30.03.2020
221 Rain 11 1017 28 0 2.12 20 00:25 30.03.2020
222 Rain 16 1012 23 0 3.17 20 23:55 29.03.2020
223 Rain 16 1012 23 0 3.17 20 23:36 29.03.2020
224 Clouds 18 1028 45 10000 1 0 23:18 29.03.2020
225 Clouds 18 1028 45 10000 1 0 22:39 29.03.2020
226 Clouds 18 1028 45 10000 1 0 22:39 29.03.2020
227 Clouds 18 1028 45 10000 1 0 22:20 29.03.2020
228 Clouds 18 1029 45 10000 1.5 70 21:59 29.03.2020
229 Clouds 18 1029 45 10000 1.5 70 21:37 29.03.2020
230 Clouds 18 1029 48 10000 4.1 120 21:19 29.03.2020
231 Clouds 17 1030 48 10000 3.1 130 20:55 29.03.2020
232 Clouds 16 1030 51 10000 4.1 120 20:37 29.03.2020
233 Clouds 16 1030 51 10000 4.1 120 20:37 29.03.2020
234 Clouds 16 1030 51 10000 4.1 120 20:18 29.03.2020
235 Clouds 17 1031 48 10000 4.1 170 19:55 29.03.2020
236 Clouds 17 1031 48 10000 4.1 170 19:55 29.03.2020
237 Clouds 17 1031 48 10000 4.1 170 19:37 29.03.2020
238 Clouds 16 1032 51 10000 4.1 130 19:18 29.03.2020
239 Clouds 16 1032 51 10000 4.1 130 18:55 29.03.2020
240 Clouds 15 1032 62 10000 1.5 80 18:36 29.03.2020
241 Clouds 15 1033 58 10000 1.5 100 18:18 29.03.2020
242 Clouds 14 1033 62 10000 2.6 110 17:42 29.03.2020
243 Clouds 14 1033 62 10000 2.6 110 17:23 29.03.2020
244 Clouds 14 1033 58 10000 1.07 4 16:59 29.03.2020
245 Clouds 14 1033 58 10000 1.07 4 16:40 29.03.2020
246 Clouds 13 1033 66 10000 1 0 16:21 29.03.2020
247 Clouds 12 1033 76 10000 1 110 15:58 29.03.2020
248 Clouds 12 1033 76 10000 1 110 15:40 29.03.2020
249 Clouds 11 1033 81 10000 1 90 15:20 29.03.2020
250 Fog 11 1032 81 10000 0.5 90 14:56 29.03.2020
251 Clouds 10 1032 87 10000 1 110 14:37 29.03.2020
252 Clouds 10 1032 87 10000 1 110 14:19 29.03.2020
253 Clouds 10 1019 28 0 0.71 1 13:55 29.03.2020
254 Clouds 10 1019 28 0 0.71 1 13:37 29.03.2020
255 Clouds 10 1019 28 0 0.71 1 13:18 29.03.2020
256 Clouds 10 1019 28 0 0.71 1 12:54 29.03.2020
257 Clouds 10 1019 28 0 0.71 1 12:54 29.03.2020
258 Clouds 10 1019 28 0 0.71 1 12:36 29.03.2020
259 Rain 10 1017 29 0 0.61 14 12:18 29.03.2020
260 Rain 10 1017 29 0 0.61 14 11:38 29.03.2020
261 Rain 10 1017 29 0 0.61 14 11:20 29.03.2020
262 Rain 10 1017 29 0 0.61 14 10:40 29.03.2020
263 Rain 10 1017 29 0 0.61 14 10:21 29.03.2020
264 Rain 10 1017 29 0 0.61 14 09:59 29.03.2020
265 Rain 10 1017 29 0 0.61 14 09:38 29.03.2020
266 Rain 11 1018 29 0 1.01 6 09:19 29.03.2020
267 Rain 11 1018 29 0 1.01 6 08:48 29.03.2020
268 Rain 11 1018 29 0 1.01 6 08:27 29.03.2020
269 Rain 11 1018 29 0 1.01 6 07:56 29.03.2020
270 Rain 11 1018 29 0 1.01 6 07:37 29.03.2020
271 Rain 11 1018 29 0 1.01 6 07:19 29.03.2020
272 Clouds 10 1018 29 0 1.67 0 04:58 29.03.2020
273 Clouds 10 1018 29 0 1.67 0 03:42 29.03.2020
274 Clouds 10 1018 29 0 1.67 0 03:23 29.03.2020
275 Rain 12 1015 27 0 1.73 27 01:50 29.03.2020
276 Clouds 11 1029 76 10000 4.6 290 01:23 29.03.2020
277 Clouds 11 1029 76 10000 4.6 290 00:48 29.03.2020
278 Clouds 11 1029 76 10000 4.6 290 00:29 29.03.2020
279 Rain 12 1028 76 10000 4.6 280 23:41 28.03.2020
280 Rain 12 1028 76 10000 4.6 280 23:41 28.03.2020
281 Rain 12 1028 76 10000 4.6 280 23:23 28.03.2020
282 Rain 12 1028 71 10000 5.7 290 22:56 28.03.2020
283 Rain 14 1027 58 10000 6.7 290 22:37 28.03.2020
284 Rain 14 1027 58 10000 6.7 290 22:18 28.03.2020
285 Clouds 16 1027 51 10000 3.6 310 21:41 28.03.2020
286 Clouds 15 1027 47 10000 5.1 20 21:23 28.03.2020
287 Clouds 16 1027 51 10000 6.7 10 20:58 28.03.2020
288 Clouds 16 1027 51 10000 6.7 10 20:39 28.03.2020
289 Clouds 17 1027 45 10000 2.1 90 20:20 28.03.2020
290 Clouds 16 1027 44 10000 3.6 120 19:56 28.03.2020
291 Thunderstorm 16 1029 51 10000 6.2 110 19:36 28.03.2020
292 Thunderstorm 16 1029 51 10000 6.2 110 19:18 28.03.2020
293 Rain 19 1027 42 10000 4.1 100 18:47 28.03.2020
294 Clouds 20 1028 37 10000 2.1 0 18:22 28.03.2020
295 Clouds 18 1029 42 10000 2.1 270 17:58 28.03.2020
296 Clouds 18 1029 42 10000 2.1 270 17:38 28.03.2020
297 Clouds 18 1030 52 10000 2.1 270 17:18 28.03.2020
298 Clouds 16 1030 55 10000 2.1 160 16:42 28.03.2020
299 Clouds 16 1030 55 10000 2.1 160 16:20 28.03.2020
300 Clouds 15 1030 58 10000 2.1 60 15:56 28.03.2020
301 Clouds 14 1031 67 10000 3.1 100 15:37 28.03.2020
302 Clouds 14 1031 67 10000 3.1 100 15:18 28.03.2020
303 Clouds 13 1031 76 10000 2.6 100 14:42 28.03.2020
304 Clouds 12 1031 76 10000 1.5 90 14:22 28.03.2020
305 Clouds 10 1030 87 10000 1 110 13:55 28.03.2020
306 Clouds 11 1016 27 0 0.93 285 13:36 28.03.2020
307 Clouds 11 1016 27 0 0.93 285 13:18 28.03.2020
308 Clouds 10 1016 27 0 0.81 288 12:37 28.03.2020
309 Clouds 10 1016 27 0 0.81 288 12:19 28.03.2020
310 Clouds 10 1016 27 0 0.81 288 11:42 28.03.2020
311 Clouds 10 1016 27 0 0.81 288 11:21 28.03.2020
312 Clouds 9 1014 29 0 0.91 304 10:43 28.03.2020
313 Clouds 9 1014 29 0 0.91 304 10:24 28.03.2020
314 Clouds 9 1014 29 0 0.91 304 09:59 28.03.2020
315 Clouds 9 1014 29 0 0.91 304 09:39 28.03.2020
316 Clouds 9 1014 29 0 0.91 304 09:21 28.03.2020
317 Clouds 9 1015 29 0 1.2 325 08:42 28.03.2020
318 Clouds 9 1014 29 0 0.91 304 08:24 28.03.2020
319 Clouds 9 1015 29 0 1.17 311 07:52 28.03.2020
320 Clouds 9 1015 29 0 1.17 311 07:34 28.03.2020
321 Clouds 9 1015 29 0 1.17 311 06:45 28.03.2020
322 Clouds 9 1015 29 0 1.17 311 06:20 28.03.2020
323 Clouds 9 1015 29 0 1.17 311 05:24 28.03.2020
324 Clouds 10 1016 29 0 1.05 348 04:48 28.03.2020
325 Clouds 10 1016 29 0 1.05 348 04:28 28.03.2020
326 Clouds 10 1016 29 0 1.05 348 02:46 28.03.2020
327 Rain 12 1012 27 0 1.2 14 01:46 28.03.2020
328 Clouds 15 1025 62 10000 4.1 110 01:20 28.03.2020
329 Clouds 15 1025 62 10000 4.1 110 00:47 28.03.2020
330 Clouds 15 1025 62 10000 4.1 110 00:20 28.03.2020
331 Clouds 18 1024 45 10000 2.1 170 23:43 27.03.2020
332 Clouds 18 1024 45 10000 2.1 170 23:24 27.03.2020
333 Clouds 19 1024 39 10000 0.5 0 22:56 27.03.2020
334 Clouds 19 1024 39 10000 2.1 230 22:38 27.03.2020
335 Clouds 19 1024 39 10000 2.1 230 22:20 27.03.2020
336 Clouds 19 1024 42 10000 2.1 260 21:56 27.03.2020
337 Clouds 18 1025 39 10000 2.1 310 21:38 27.03.2020
338 Clouds 18 1025 39 10000 2.1 310 21:20 27.03.2020
339 Clouds 18 1026 52 10000 4.6 340 20:43 27.03.2020
340 Rain 18 1026 52 10000 3.1 280 20:22 27.03.2020
341 Rain 19 1027 42 10000 2.1 90 19:59 27.03.2020
342 Rain 19 1027 42 10000 2.1 90 19:41 27.03.2020
343 Clouds 18 1027 48 10000 4.6 110 19:22 27.03.2020
344 Clouds 18 1028 52 10000 6.7 110 18:56 27.03.2020
345 Clouds 20 1028 42 10000 0.5 0 18:38 27.03.2020
346 Clouds 20 1028 42 10000 0.5 0 18:19 27.03.2020
347 Clouds 17 1030 55 10000 1 0 17:40 27.03.2020
348 Clouds 17 1030 55 10000 1 0 17:20 27.03.2020
349 Clouds 16 1030 55 10000 1.5 130 16:54 27.03.2020
350 Clouds 15 1030 58 10000 2.6 80 16:36 27.03.2020
351 Clouds 15 1030 58 10000 2.6 80 16:36 27.03.2020
352 Clouds 15 1030 58 10000 2.6 80 16:18 27.03.2020
353 Clouds 14 1031 67 10000 1.5 110 15:41 27.03.2020
354 Clouds 14 1031 67 10000 1.5 110 15:22 27.03.2020
355 Clouds 13 1031 66 10000 1.5 120 14:46 27.03.2020
356 Clouds 11 1030 81 9000 0.5 0 14:25 27.03.2020
357 Clouds 11 1030 81 9000 0.5 0 14:25 27.03.2020
358 Mist 10 1030 81 9000 1.5 100 13:56 27.03.2020
359 Rain 9 1030 87 9000 2.1 120 13:37 27.03.2020
360 Rain 11 1016 28 0 0.12 16 13:18 27.03.2020
361 Rain 11 1016 28 0 0.12 16 12:49 27.03.2020
362 Rain 11 1016 28 0 0.12 16 12:21 27.03.2020
363 Rain 11 1016 28 0 0.12 16 11:59 27.03.2020
364 Rain 11 1016 28 0 0.12 16 11:59 27.03.2020
365 Rain 11 1016 28 0 0.12 16 11:41 27.03.2020
366 Rain 11 1016 28 0 0.12 16 11:22 27.03.2020
367 Rain 10 1014 29 0 0.71 312 10:54 27.03.2020
368 Rain 10 1014 29 0 0.71 312 10:36 27.03.2020
369 Rain 10 1014 29 0 0.71 312 10:18 27.03.2020
370 Rain 10 1014 29 0 0.71 312 09:55 27.03.2020
371 Rain 10 1014 29 0 0.71 312 09:36 27.03.2020
372 Rain 10 1014 29 0 0.71 312 09:18 27.03.2020
373 Rain 10 1014 29 0 0.71 312 08:54 27.03.2020
374 Rain 10 1014 29 0 0.71 312 08:36 27.03.2020
375 Rain 10 1015 29 0 0.82 18 08:18 27.03.2020
376 Rain 10 1015 29 0 0.87 39 07:43 27.03.2020
377 Rain 10 1015 29 0 0.87 39 07:21 27.03.2020
378 Rain 10 1015 29 0 0.87 39 06:41 27.03.2020
379 Rain 10 1015 29 0 0.87 39 06:18 27.03.2020
380 Rain 11 1016 28 0 1.78 28 03:42 27.03.2020
381 Rain 13 1013 26 0 2.38 18 02:19 27.03.2020
382 Clouds 16 1026 48 10000 5.1 290 01:21 27.03.2020
383 Clouds 16 1026 48 10000 5.1 290 00:45 27.03.2020
384 Clouds 16 1026 48 10000 5.1 290 00:21 27.03.2020
385 Clouds 18 1025 42 10000 2.1 360 23:42 26.03.2020
386 Clouds 19 1025 37 10000 4.6 20 23:19 26.03.2020
387 Clouds 19 1025 37 10000 4.6 20 22:57 26.03.2020
388 Clouds 21 1024 32 10000 4.6 20 22:37 26.03.2020
389 Clouds 21 1024 32 10000 4.6 20 22:18 26.03.2020
390 Clouds 21 1024 35 10000 6.7 20 21:40 26.03.2020
391 Clouds 22 1025 33 10000 4.1 110 21:22 26.03.2020
392 Clouds 21 1025 35 10000 3.1 100 20:59 26.03.2020
393 Clouds 21 1025 35 10000 3.1 100 20:40 26.03.2020
394 Clouds 22 1026 28 10000 1.5 0 20:22 26.03.2020
395 Clouds 22 1027 30 10000 2.1 190 19:58 26.03.2020
396 Clouds 21 1028 37 10000 3.1 100 19:40 26.03.2020
397 Clouds 22 1029 35 10000 3.6 100 19:21 26.03.2020
398 Clouds 22 1029 35 10000 3.6 100 18:58 26.03.2020
399 Clouds 22 1029 35 10000 3.6 100 18:40 26.03.2020
400 Clouds 22 1029 35 10000 3.6 100 18:22 26.03.2020
401 Clouds 18 1031 48 10000 4.1 120 17:45 26.03.2020
402 Clouds 18 1031 45 10000 1 30 17:20 26.03.2020
403 Clouds 18 1031 45 10000 1 30 16:57 26.03.2020
404 Clouds 18 1031 45 10000 1 30 16:57 26.03.2020
405 Clouds 17 1031 55 10000 1.5 0 16:38 26.03.2020
406 Clouds 17 1031 55 10000 1.5 0 16:19 26.03.2020
407 Clouds 16 1032 55 10000 0.5 0 15:56 26.03.2020
408 Clouds 15 1032 58 10000 1.5 350 15:38 26.03.2020
409 Clouds 15 1032 58 10000 1.5 350 15:18 26.03.2020
410 Clouds 12 1032 71 10000 1.5 160 14:43 26.03.2020
411 Clouds 11 1032 76 10000 1.5 100 14:24 26.03.2020
412 Clouds 10 1031 81 10000 0.5 80 13:56 26.03.2020
413 Clouds 10 1031 81 10000 0.5 80 13:56 26.03.2020
414 Clouds 10 1031 81 10000 0.5 80 13:38 26.03.2020
415 Clouds 11 1017 26 0 0.23 242 13:20 26.03.2020
416 Clouds 11 1017 26 0 0.23 242 12:39 26.03.2020
417 Clouds 11 1017 26 0 0.23 242 12:20 26.03.2020
418 Clouds 11 1017 26 0 0.23 242 11:55 26.03.2020
419 Clouds 11 1017 26 0 0.23 242 11:36 26.03.2020
420 Clouds 9 1015 28 0 0.43 254 11:18 26.03.2020
421 Clouds 9 1015 28 0 0.43 254 10:42 26.03.2020
422 Clouds 9 1015 28 0 0.43 254 10:20 26.03.2020
423 Clouds 9 1015 28 0 0.43 254 10:20 26.03.2020
424 Clouds 9 1015 28 0 0.43 254 09:45 26.03.2020
425 Clouds 9 1015 28 0 0.43 254 09:24 26.03.2020
426 Clouds 9 1015 28 0 0.43 254 08:57 26.03.2020
427 Clouds 9 1015 28 0 0.43 254 08:39 26.03.2020
428 Clouds 10 1016 27 0 0.73 327 08:20 26.03.2020
429 Rain 10 1016 28 0 0.47 303 07:46 26.03.2020
430 Rain 10 1016 28 0 0.47 303 07:24 26.03.2020
431 Rain 10 1016 28 0 0.47 303 06:59 26.03.2020
432 Rain 10 1016 28 0 0.47 303 06:32 26.03.2020
433 Rain 10 1016 28 0 0.47 303 05:29 26.03.2020
434 Rain 10 1017 28 0 0.41 247 03:45 26.03.2020
435 Rain 10 1017 28 0 0.41 247 02:57 26.03.2020
436 Rain 13 1014 28 0 1.12 272 01:51 26.03.2020
437 Clouds 16 1028 48 10000 2.6 80 01:18 26.03.2020
438 Clouds 16 1028 48 10000 2.6 80 00:30 26.03.2020
439 Clouds 17 1028 48 10000 3.1 110 23:42 25.03.2020
440 Clouds 17 1028 48 10000 3.1 110 23:24 25.03.2020
441 Clouds 17 1027 45 10000 3.6 20 22:42 25.03.2020
442 Clouds 19 1027 42 10000 4.1 40 22:22 25.03.2020
443 Clouds 19 1027 42 10000 2.1 30 21:59 25.03.2020
444 Clouds 19 1027 42 10000 2.1 30 21:40 25.03.2020
445 Clouds 17 1027 51 10000 4.1 360 21:22 25.03.2020
446 Rain 17 1028 48 10000 4.1 10 20:57 25.03.2020
447 Clouds 19 1028 39 10000 4.1 80 20:37 25.03.2020
448 Clouds 19 1028 39 10000 4.1 80 20:18 25.03.2020
449 Clouds 20 1029 40 10000 2.6 360 19:43 25.03.2020
450 Clouds 20 1029 40 10000 2.6 360 19:24 25.03.2020
451 Clouds 19 1030 39 10000 0.5 0 18:59 25.03.2020
452 Clouds 19 1030 39 10000 0.5 0 18:40 25.03.2020
453 Rain 18 1032 48 10000 2.1 350 18:22 25.03.2020
454 Rain 18 1032 48 10000 2.1 350 17:57 25.03.2020
455 Clouds 18 1033 45 10000 1.5 210 17:39 25.03.2020
456 Clouds 18 1033 45 10000 1.5 210 17:21 25.03.2020
457 Clouds 16 1033 59 10000 1.5 0 16:55 25.03.2020
458 Clouds 17 1034 51 10000 1.5 30 16:36 25.03.2020
459 Clouds 17 1034 51 10000 1.5 30 16:18 25.03.2020
460 Clouds 16 1034 51 10000 1.5 20 15:41 25.03.2020
461 Clouds 15 1034 62 10000 1 40 15:20 25.03.2020
462 Clouds 14 1034 67 10000 2.1 80 14:56 25.03.2020
463 Clouds 12 1034 76 10000 2.1 110 14:37 25.03.2020
464 Clouds 12 1034 76 10000 2.1 110 14:19 25.03.2020
465 Clouds 11 1034 81 10000 2.6 110 13:42 25.03.2020
466 Clouds 11 1018 27 0 0.92 154 13:22 25.03.2020
467 Clouds 11 1019 28 0 0.99 172 12:38 25.03.2020
468 Clouds 11 1019 28 0 0.99 172 12:20 25.03.2020
469 Clouds 11 1018 27 0 0.92 154 11:57 25.03.2020
470 Clouds 11 1019 28 0 0.99 172 11:39 25.03.2020
471 Rain 10 1018 29 0 0.8 226 11:20 25.03.2020
472 Rain 10 1018 29 0 0.8 226 10:57 25.03.2020
473 Rain 10 1018 29 0 0.8 226 10:39 25.03.2020
474 Rain 10 1018 29 0 0.8 226 10:18 25.03.2020
475 Rain 10 1018 29 0 0.8 226 09:43 25.03.2020
476 Rain 10 1018 29 0 0.8 226 09:25 25.03.2020
477 Rain 10 1018 29 0 0.8 226 08:58 25.03.2020
478 Rain 10 1018 29 0 0.8 226 08:58 25.03.2020
479 Rain 10 1018 29 0 0.8 226 08:39 25.03.2020
480 Rain 10 1019 29 0 1.11 180 08:19 25.03.2020
481 Rain 10 1019 29 0 1.11 180 07:41 25.03.2020
482 Rain 10 1019 29 0 1.11 180 07:41 25.03.2020
483 Rain 10 1019 29 0 1.11 180 07:23 25.03.2020
484 Rain 10 1019 29 0 1.11 180 06:50 25.03.2020
485 Rain 10 1019 29 0 1.11 180 06:29 25.03.2020
486 Rain 10 1019 29 0 1.11 180 05:58 25.03.2020
487 Rain 10 1019 29 0 1.11 180 05:37 25.03.2020
488 Rain 11 1019 28 0 1.04 24 04:41 25.03.2020
489 Rain 11 1019 28 0 1.04 24 03:52 25.03.2020
490 Rain 11 1019 28 0 1.04 24 03:29 25.03.2020
491 Rain 13 1008 96 0 1.56 43 01:31 25.03.2020
492 Clouds 15 1029 48 10000 6.7 290 00:49 25.03.2020
493 Rain 15 1029 48 10000 6.7 290 00:26 25.03.2020
494 Rain 15 1029 48 10000 7.2 290 23:50 24.03.2020
495 Clouds 15 1029 48 10000 7.7 300 23:28 24.03.2020
496 Clouds 19 1029 39 10000 3.1 350 22:57 24.03.2020
497 Clouds 19 1029 39 10000 4.6 360 22:38 24.03.2020
498 Clouds 19 1029 39 10000 4.6 360 22:19 24.03.2020
499 Clouds 19 1029 39 10000 4.6 360 22:19 24.03.2020
500 Clouds 20 1029 34 10000 6.7 20 21:57 24.03.2020
501 Clouds 20 1029 34 10000 6.7 20 21:38 24.03.2020
502 Clouds 20 1029 40 10000 3.1 20 21:18 24.03.2020
503 Clouds 20 1029 40 10000 3.1 20 21:18 24.03.2020
504 Clouds 19 1030 42 10000 4.1 50 20:57 24.03.2020
505 Rain 15 1030 42 10000 4.1 50 20:39 24.03.2020
506 Clouds 18 1030 45 10000 2.6 20 20:21 24.03.2020
507 Clouds 18 1030 45 10000 1.5 0 19:45 24.03.2020
508 Rain 14 1031 41 10000 2.6 0 19:19 24.03.2020
509 Drizzle 15 1032 62 10000 5.7 30 18:56 24.03.2020
510 Drizzle 15 1032 62 10000 5.7 30 18:37 24.03.2020
511 Drizzle 15 1032 62 10000 5.7 30 18:37 24.03.2020
512 Rain 16 1033 40 10000 1.5 0 18:19 24.03.2020
513 Clouds 16 1033 40 10000 1.5 0 17:43 24.03.2020
514 Rain 16 1033 40 10000 1.5 0 17:24 24.03.2020
515 Rain 16 1034 52 10000 1.5 0 16:59 24.03.2020
516 Rain 16 1034 52 10000 1.5 0 16:41 24.03.2020
517 Rain 16 1034 52 10000 1.5 0 16:41 24.03.2020
518 Clouds 15 1035 48 10000 0.5 0 16:23 24.03.2020
519 Clouds 15 1035 55 10000 1 0 15:59 24.03.2020
520 Clouds 15 1035 55 10000 1 0 15:40 24.03.2020
521 Clouds 13 1035 58 10000 1.5 90 15:22 24.03.2020
522 Clouds 13 1035 62 10000 2.1 150 14:43 24.03.2020
523 Clouds 13 1035 62 10000 2.1 150 14:43 24.03.2020
524 Clouds 11 1035 71 10000 0.5 270 14:22 24.03.2020
525 Clouds 11 1035 76 10000 1 50 13:56 24.03.2020
526 Clouds 10 1018 97 0 1.09 30 13:38 24.03.2020
527 Clouds 10 1017 97 0 0.77 31 13:20 24.03.2020
528 Clouds 10 1018 97 0 0.77 31 12:42 24.03.2020
529 Clouds 10 1018 96 0 0.77 31 12:23 24.03.2020
530 Clouds 10 1018 96 0 0.77 31 11:41 24.03.2020
531 Clouds 10 1018 96 0 0.82 30 11:21 24.03.2020
532 Clouds 7 1020 82 0 0.92 345 10:59 24.03.2020
533 Clouds 7 1020 82 0 0.92 345 10:40 24.03.2020
534 Clouds 7 1020 82 0 0.92 345 10:40 24.03.2020
535 Clouds 7 1020 82 0 0.92 345 10:18 24.03.2020
536 Clouds 7 1020 82 0 0.92 345 09:44 24.03.2020
537 Clouds 7 1020 82 0 0.92 345 09:25 24.03.2020
538 Clouds 7 1020 82 0 0.92 345 08:57 24.03.2020
539 Clouds 7 1020 82 0 0.92 345 08:37 24.03.2020
540 Clouds 6 1020 84 0 1.43 357 08:18 24.03.2020
541 Clouds 5 1021 85 0 1.19 14 07:44 24.03.2020
542 Clouds 5 1021 85 0 1.19 14 07:22 24.03.2020
543 Clouds 5 1021 85 0 1.19 14 07:22 24.03.2020
544 Clouds 5 1021 85 0 1.19 14 06:38 24.03.2020
545 Clouds 5 1021 85 0 1.19 14 05:42 24.03.2020
546 Clouds 7 1021 81 0 1.72 15 04:51 24.03.2020
547 Clouds 7 1021 81 0 1.72 15 03:22 24.03.2020
548 Clouds 7 1021 81 0 1.72 15 02:41 24.03.2020
549 Clouds 16 1031 48 10000 3.6 360 00:54 24.03.2020
550 Clouds 16 1031 48 10000 3.6 360 00:27 24.03.2020
551 Clouds 16 1030 48 10000 4.1 10 23:56 23.03.2020
552 Clouds 17 1030 45 10000 2.6 330 23:37 23.03.2020
553 Clouds 17 1030 45 10000 2.6 330 23:19 23.03.2020
554 Clouds 18 1030 39 10000 3.6 340 22:44 23.03.2020
555 Clouds 18 1030 39 10000 3.1 350 22:23 23.03.2020
556 Clouds 18 1030 39 10000 3.1 70 21:55 23.03.2020
557 Clouds 20 1031 37 10000 5.1 90 21:37 23.03.2020
558 Clouds 20 1031 37 10000 5.1 90 21:18 23.03.2020
559 Clouds 19 1031 42 10000 5.1 80 20:44 23.03.2020
560 Clouds 20 1032 34 10000 4.1 90 20:26 23.03.2020
561 Clouds 20 1032 34 10000 2.1 0 19:59 23.03.2020
562 Clouds 19 1033 48 10000 2.6 20 19:41 23.03.2020
563 Clouds 19 1033 48 10000 2.6 20 19:22 23.03.2020
564 Clouds 18 1033 42 10000 2.6 90 18:54 23.03.2020
565 Clouds 18 1033 42 10000 2.6 90 18:36 23.03.2020
566 Clouds 19 1034 48 10000 1.5 80 18:18 23.03.2020
567 Clouds 18 1034 48 10000 2.1 70 17:41 23.03.2020
568 Rain 17 1035 55 10000 1 0 17:20 23.03.2020
569 Clouds 15 1035 58 10000 1.58 83 16:44 23.03.2020
570 Clouds 15 1035 58 10000 1.58 83 16:26 23.03.2020
571 Clouds 14 1036 62 10000 1.58 83 15:59 23.03.2020
572 Clouds 14 1036 62 10000 1.58 83 15:39 23.03.2020
573 Clouds 14 1036 67 10000 0.5 0 15:19 23.03.2020
574 Rain 12 1035 76 10000 1.58 83 14:37 23.03.2020
575 Rain 12 1035 76 10000 1.7 121 14:19 23.03.2020
576 Clouds 12 1035 76 10000 1.7 121 13:57 23.03.2020
577 Rain 8 1021 86 0 1.7 121 13:38 23.03.2020
578 Clouds 8 1021 82 0 0.97 128 13:20 23.03.2020
579 Clouds 8 1021 82 0 0.97 128 12:43 23.03.2020
580 Clouds 8 1021 82 0 0.97 128 12:23 23.03.2020
581 Clouds 8 1021 82 0 0.97 128 11:56 23.03.2020
582 Clouds 8 1021 82 0 0.97 128 11:37 23.03.2020
583 Rain 7 1019 85 0 0.86 99 11:19 23.03.2020
584 Rain 7 1019 85 0 0.86 99 10:56 23.03.2020
585 Rain 7 1019 85 0 0.86 99 10:36 23.03.2020
586 Rain 7 1019 85 0 0.86 99 10:18 23.03.2020
587 Rain 7 1019 85 0 0.86 99 09:42 23.03.2020
588 Rain 7 1019 85 0 0.86 99 09:20 23.03.2020
589 Rain 7 1019 85 0 0.86 99 08:38 23.03.2020
590 Rain 8 1020 85 0 1.02 135 08:20 23.03.2020
591 Rain 8 1020 85 0 1.02 135 07:54 23.03.2020
592 Rain 8 1020 85 0 1.02 135 07:34 23.03.2020
593 Rain 8 1020 85 0 1.02 135 06:58 23.03.2020
594 Rain 8 1020 85 0 1.02 135 06:40 23.03.2020
595 Rain 8 1020 85 0 1.02 135 05:44 23.03.2020
596 Clouds 7 1020 81 0 1.71 26 04:41 23.03.2020
597 Clouds 7 1020 81 0 1.71 26 02:59 23.03.2020
598 Rain 9 1016 77 0 2.78 32 01:50 23.03.2020
599 Clouds 16 1029 48 10000 4.1 20 00:50 23.03.2020
600 Clouds 16 1029 48 10000 4.1 20 00:31 23.03.2020
601 Clouds 16 1028 48 10000 2.6 80 23:45 22.03.2020
602 Clouds 16 1028 48 10000 2.6 80 23:25 22.03.2020
603 Clouds 19 1027 42 10000 6.2 10 22:44 22.03.2020
604 Clouds 19 1027 42 10000 6.2 10 22:22 22.03.2020
605 Clouds 20 1027 40 10000 4.6 20 21:55 22.03.2020
606 Clouds 20 1027 34 10000 6.7 20 21:36 22.03.2020
607 Clouds 20 1027 34 10000 6.7 20 21:18 22.03.2020
608 Clouds 20 1027 40 10000 5.7 20 20:45 22.03.2020
609 Clouds 20 1027 37 10000 8.7 30 20:24 22.03.2020
610 Clouds 20 1028 37 10000 6.7 10 19:57 22.03.2020
611 Clouds 20 1028 37 10000 6.7 10 19:39 22.03.2020
612 Clouds 20 1028 42 10000 2.6 220 19:20 22.03.2020
613 Clouds 20 1029 37 10000 2.1 120 18:58 22.03.2020
614 Clouds 18 1029 45 10000 0.5 0 18:40 22.03.2020
615 Clouds 18 1029 45 10000 0.5 0 18:21 22.03.2020
616 Clouds 17 1030 51 10000 1.5 100 17:57 22.03.2020
617 Clouds 17 1031 48 10000 1.5 80 17:38 22.03.2020
618 Clouds 17 1031 48 10000 1.5 80 17:20 22.03.2020
619 Clouds 17 1031 48 10000 1 70 16:57 22.03.2020
620 Clouds 16 1032 51 10000 2.1 20 16:39 22.03.2020
621 Clouds 16 1032 51 10000 2.1 20 16:21 22.03.2020
622 Clouds 16 1032 51 10000 2.1 20 16:21 22.03.2020
623 Clouds 15 1032 58 10000 0.5 120 15:40 22.03.2020
624 Clouds 15 1032 58 10000 1 40 15:21 22.03.2020
625 Clouds 14 1032 58 10000 1 210 14:46 22.03.2020
626 Clouds 12 1032 76 10000 0.5 360 14:19 22.03.2020
627 Clouds 11 1032 81 10000 1 90 13:44 22.03.2020
628 Clouds 6 1019 84 0 1.6 167 13:21 22.03.2020
629 Clouds 6 1019 84 0 1.6 167 12:59 22.03.2020
630 Clouds 6 1019 84 0 1.6 167 12:41 22.03.2020
631 Clouds 6 1019 84 0 1.6 167 12:19 22.03.2020
632 Clouds 6 1019 84 0 1.6 167 11:43 22.03.2020
633 Clouds 6 1019 84 0 1.6 167 11:25 22.03.2020
634 Rain 6 1017 88 0 2.09 195 10:58 22.03.2020
635 Rain 6 1017 88 0 2.09 195 10:40 22.03.2020
636 Rain 6 1017 88 0 2.09 195 10:22 22.03.2020
637 Rain 6 1017 88 0 2.09 195 10:22 22.03.2020
638 Rain 6 1017 88 0 2.09 195 09:47 22.03.2020
639 Rain 6 1017 88 0 2.09 195 09:28 22.03.2020
640 Rain 6 1017 88 0 2.09 195 08:51 22.03.2020
641 Rain 6 1017 88 0 2.09 195 08:32 22.03.2020
642 Rain 6 1017 88 0 2.09 195 08:32 22.03.2020
643 Rain 8 1019 83 0 1.14 224 07:56 22.03.2020
644 Rain 8 1019 83 0 1.14 224 07:38 22.03.2020
645 Rain 8 1019 83 0 1.14 224 06:48 22.03.2020
646 Rain 8 1019 83 0 1.14 224 05:52 22.03.2020
647 Clouds 8 1019 81 0 1.61 357 04:39 22.03.2020
648 Rain 9 1016 79 0 2.61 8 01:49 22.03.2020
649 Clouds 14 1027 67 10000 2.6 90 00:51 22.03.2020
650 Clouds 14 1027 67 10000 2.6 90 00:32 22.03.2020
651 Clouds 14 1026 62 10000 1.5 110 23:47 21.03.2020
652 Clouds 14 1026 62 10000 1.5 110 23:23 21.03.2020
653 Clouds 15 1026 54 10000 2.1 150 22:59 21.03.2020
654 Rain 15 1026 62 10000 2.6 90 22:38 21.03.2020
655 Rain 15 1026 62 10000 2.6 90 22:20 21.03.2020
656 Rain 16 1026 55 10000 4.6 110 21:59 21.03.2020
657 Rain 16 1026 55 10000 4.6 110 21:39 21.03.2020
658 Rain 16 1027 51 10000 2.1 120 21:20 21.03.2020
659 Rain 16 1027 51 10000 2.1 120 21:20 21.03.2020
660 Clouds 16 1028 55 10000 1 50 20:44 21.03.2020
661 Clouds 16 1028 55 10000 1 50 20:22 21.03.2020
662 Clouds 16 1028 55 10000 0.76 231 19:56 21.03.2020
663 Clouds 16 1028 55 10000 0.76 231 19:38 21.03.2020
664 Clouds 16 1029 51 10000 1.5 150 19:18 21.03.2020
665 Clouds 14 1030 62 10000 1 80 18:41 21.03.2020
666 Clouds 14 1030 62 10000 1 80 18:21 21.03.2020
667 Clouds 14 1030 62 10000 1 80 17:59 21.03.2020
668 Clouds 14 1031 54 10000 2.1 100 17:41 21.03.2020
669 Clouds 14 1031 54 10000 2.6 90 17:22 21.03.2020
670 Clouds 15 1032 54 10000 1 40 16:43 21.03.2020
671 Clouds 15 1032 54 10000 1 40 16:24 21.03.2020
672 Clouds 15 1032 54 10000 1 40 16:24 21.03.2020
673 Clouds 13 1032 58 10000 1 70 15:59 21.03.2020
674 Clouds 12 1032 62 10000 1 250 15:40 21.03.2020
675 Clouds 12 1032 62 10000 1 250 15:22 21.03.2020
676 Clouds 11 1032 76 10000 0.47 266 14:57 21.03.2020
677 Clouds 11 1032 76 10000 0.47 266 14:39 21.03.2020
678 Clouds 10 1032 76 10000 1 300 14:20 21.03.2020
679 Clouds 9 1032 81 10000 1 260 13:58 21.03.2020
680 Clouds 9 1032 81 10000 1 260 13:39 21.03.2020
681 Rain 6 1018 87 0 1.43 113 13:21 21.03.2020
682 Rain 6 1019 84 0 1.66 118 12:57 21.03.2020
683 Rain 6 1019 84 0 1.66 118 12:37 21.03.2020
684 Rain 6 1019 84 0 1.66 118 12:19 21.03.2020
685 Rain 6 1019 84 0 1.66 118 11:55 21.03.2020
686 Rain 6 1019 84 0 1.66 118 11:37 21.03.2020
687 Rain 5 1016 90 0 2.54 146 11:18 21.03.2020
688 Rain 5 1016 90 0 2.54 146 10:56 21.03.2020
689 Rain 5 1016 90 0 2.54 146 10:38 21.03.2020
690 Rain 5 1016 90 0 2.54 146 10:18 21.03.2020
691 Rain 5 1016 90 0 2.54 146 09:40 21.03.2020
692 Rain 5 1016 90 0 2.54 146 09:21 21.03.2020
693 Rain 5 1016 90 0 2.54 146 08:58 21.03.2020
694 Rain 5 1016 90 0 2.54 146 08:39 21.03.2020
695 Rain 6 1016 89 0 2.36 164 08:21 21.03.2020
696 Rain 8 1017 85 0 0.78 253 07:39 21.03.2020
697 Rain 8 1017 85 0 0.78 253 07:20 21.03.2020
698 Rain 8 1017 85 0 0.78 253 06:45 21.03.2020
699 Rain 8 1017 85 0 0.78 253 06:26 21.03.2020
700 Rain 8 1017 85 0 0.78 253 05:41 21.03.2020
701 Rain 9 1018 79 0 1.28 38 04:34 21.03.2020
702 Rain 9 1018 79 0 1.28 38 02:39 21.03.2020
703 Rain 10 1015 77 0 1.06 67 01:54 21.03.2020
704 Clouds 15 1027 54 10000 2.1 350 01:28 21.03.2020
705 Clouds 15 1027 54 10000 2.1 350 00:43 21.03.2020
706 Clouds 15 1027 54 10000 2.1 350 00:24 21.03.2020
707 Clouds 16 1026 44 10000 2.1 330 23:46 20.03.2020
708 Clouds 16 1026 44 10000 2.1 330 23:24 20.03.2020
709 Clouds 16 1026 51 10000 4.6 280 22:44 20.03.2020
710 Clouds 18 1026 42 10000 5.1 20 22:25 20.03.2020
711 -273 0 0 0 0 0 21:59 20.03.2020
712 Clouds 20 1026 37 10000 2.1 320 21:41 20.03.2020
713 Clouds 19 1027 34 10000 1.5 0 21:20 20.03.2020
714 Rain 17 1027 45 10000 3.1 280 20:59 20.03.2020
715 Rain 17 1027 45 10000 3.1 280 20:41 20.03.2020
716 Rain 16 1029 51 10000 6.2 280 20:21 20.03.2020
717 Rain 16 1029 51 10000 3.1 350 19:58 20.03.2020
718 Clouds 18 1029 45 10000 3.1 100 19:39 20.03.2020
719 Clouds 18 1029 45 10000 3.1 100 19:18 20.03.2020
720 Rain 17 1030 51 10000 2.1 90 18:39 20.03.2020
721 Rain 17 1030 51 10000 2.1 90 18:39 20.03.2020
722 Rain 17 1030 51 10000 2.1 90 18:20 20.03.2020
723 Rain 17 1031 48 10000 1.5 100 17:57 20.03.2020
724 Rain 17 1031 48 10000 1.5 100 17:39 20.03.2020
725 Clouds 17 1032 48 10000 0.5 50 17:20 20.03.2020
726 Clouds 17 1032 48 10000 0.5 50 16:43 20.03.2020
727 Clouds 17 1032 48 10000 0.5 50 16:21 20.03.2020
728 Clouds 17 1032 48 10000 0.5 50 15:59 20.03.2020
729 Clouds 17 1032 48 10000 0.5 50 15:41 20.03.2020
730 Clouds 14 1033 67 10000 0.5 0 15:20 20.03.2020
731 Clouds 14 1033 67 10000 0.5 0 14:42 20.03.2020
732 Clouds 10 1033 76 10000 1 100 14:21 20.03.2020
733 Clouds 10 1033 76 10000 1 100 13:55 20.03.2020
734 Rain 8 1019 82 0 1.52 165 13:37 20.03.2020
735 Rain 8 1019 82 0 1.52 165 13:19 20.03.2020
736 Rain 8 1019 84 0 1.27 180 12:39 20.03.2020
737 Rain 8 1019 84 0 1.27 180 12:20 20.03.2020
738 Rain 8 1019 84 0 1.27 180 11:54 20.03.2020
739 Rain 8 1019 84 0 1.27 180 11:36 20.03.2020
740 Rain 7 1017 85 0 0.32 86 11:18 20.03.2020
741 Rain 7 1017 85 0 0.32 86 10:41 20.03.2020
742 -273 0 0 0 0 0 10:20 20.03.2020
743 Rain 7 1017 85 0 0.32 86 10:20 20.03.2020
744 Rain 7 1017 85 0 0.32 86 09:55 20.03.2020
745 Rain 7 1017 85 0 0.32 86 09:37 20.03.2020
746 Rain 7 1017 85 0 0.32 86 09:18 20.03.2020
747 Rain 7 1017 85 0 0.32 86 08:41 20.03.2020
748 Rain 7 1017 85 0 1.19 97 08:22 20.03.2020
749 Rain 8 1019 84 0 1.17 14 07:48 20.03.2020
750 Rain 8 1019 84 0 1.17 14 07:26 20.03.2020
751 -273 0 0 0 0 0 06:51 20.03.2020
752 Rain 8 1019 84 0 1.17 14 06:32 20.03.2020
753 Rain 8 1019 83 0 1.26 2 04:51 20.03.2020
754 Rain 8 1019 83 0 1.26 2 03:20 20.03.2020
755 Rain 10 1015 76 0 1.95 28 01:51 20.03.2020
756 Clouds 17 1028 42 10000 1 0 00:51 20.03.2020
757 Clouds 17 1028 42 10000 1 0 00:29 20.03.2020
758 Clouds 18 1028 39 10000 2.6 360 23:47 19.03.2020
759 Clouds 18 1028 39 10000 2.6 360 23:26 19.03.2020
760 Clouds 18 1027 45 10000 4.6 270 22:56 19.03.2020
761 Clouds 20 1027 40 10000 2.1 270 22:38 19.03.2020
762 Clouds 20 1027 40 10000 2.1 270 22:18 19.03.2020
763 Clouds 18 1027 45 10000 1.5 0 21:42 19.03.2020
764 Clouds 18 1027 45 10000 4.6 180 21:20 19.03.2020
765 Clouds 18 1027 45 10000 5.1 170 20:59 19.03.2020
766 Clouds 18 1027 45 10000 5.1 170 20:41 19.03.2020
767 Clouds 22 1028 37 10000 6.2 90 20:22 19.03.2020
768 Clouds 22 1028 33 10000 3.6 360 19:55 19.03.2020
769 Clouds 21 1029 37 10000 3.1 30 19:37 19.03.2020
770 Clouds 21 1029 37 10000 3.1 30 19:19 19.03.2020
771 Clouds 19 1030 42 10000 1 0 18:42 19.03.2020
772 Clouds 19 1030 42 10000 1 0 18:22 19.03.2020
773 Clouds 20 1031 37 10000 0.5 180 17:58 19.03.2020
774 Clouds 18 1031 45 10000 1 0 17:40 19.03.2020
775 Clouds 16 1033 51 10000 2.6 70 17:19 19.03.2020
776 Clouds 17 1034 48 10000 0.5 80 16:43 19.03.2020
777 Clouds 17 1034 48 10000 0.5 80 16:23 19.03.2020
778 Clouds 15 1034 54 10000 0.5 0 15:45 19.03.2020
779 Clouds 15 1034 54 10000 1 310 15:27 19.03.2020
780 Clouds 14 1034 62 10000 1 0 14:55 19.03.2020
781 Clouds 11 1034 71 10000 0.5 0 14:37 19.03.2020
782 Clouds 11 1034 71 10000 0.5 0 14:19 19.03.2020
783 Clouds 11 1034 71 10000 0.5 0 14:19 19.03.2020
784 Clouds 9 1034 81 10000 0.24 119 13:40 19.03.2020
785 Clouds 9 1034 81 10000 0.24 119 13:19 19.03.2020
786 Clouds 7 1020 78 0 0.26 109 12:55 19.03.2020
787 Clouds 7 1020 78 0 0.26 109 12:37 19.03.2020
788 Clouds 7 1020 78 0 0.26 109 12:18 19.03.2020
789 Clouds 7 1020 78 0 0.26 109 11:41 19.03.2020
790 Clouds 5 1019 84 0 0.28 85 11:23 19.03.2020
791 Clouds 5 1019 84 0 0.28 85 10:56 19.03.2020
792 Clouds 5 1019 84 0 0.28 85 10:36 19.03.2020
793 Clouds 5 1019 84 0 0.28 85 10:18 19.03.2020
794 Clouds 5 1019 84 0 0.28 85 09:44 19.03.2020
795 Clouds 5 1019 84 0 0.28 85 09:25 19.03.2020
796 Clouds 5 1019 84 0 0.28 85 08:48 19.03.2020
797 Clouds 5 1019 84 0 0.28 85 08:23 19.03.2020
798 Clouds 6 1020 81 0 1.08 36 07:59 19.03.2020
799 Clouds 6 1020 81 0 1.08 36 07:38 19.03.2020
800 Clouds 6 1020 81 0 1.08 36 07:19 19.03.2020
801 Clouds 6 1020 81 0 1.08 36 06:27 19.03.2020
802 Clouds 6 1020 81 0 1.08 36 05:25 19.03.2020
803 Clouds 7 1020 81 0 1.66 30 04:47 19.03.2020
804 Clouds 7 1020 81 0 1.66 30 03:55 19.03.2020
805 Rain 9 1016 77 0 1.75 39 01:46 19.03.2020
806 Rain 14 1029 58 10000 3.6 110 00:42 19.03.2020
807 Clouds 15 1029 54 10000 4.1 120 00:19 19.03.2020
808 Clouds 15 1029 54 10000 4.1 110 23:42 18.03.2020
809 Clouds 15 1029 54 10000 4.1 110 23:22 18.03.2020
810 Clouds 17 1029 48 10000 2.1 50 22:43 18.03.2020
811 Clouds 17 1029 48 10000 2.1 50 22:23 18.03.2020
812 Clouds 17 1029 45 10000 3.6 50 21:57 18.03.2020
813 Clouds 17 1029 45 10000 3.6 50 21:39 18.03.2020
814 Clouds 17 1029 45 10000 4.6 60 21:20 18.03.2020
815 Clouds 19 1029 42 10000 4.1 100 20:55 18.03.2020
816 Clouds 18 1030 52 10000 2.6 140 20:37 18.03.2020
817 Clouds 18 1030 52 10000 2.6 140 20:19 18.03.2020
818 Clouds 16 1030 59 10000 3.1 110 19:41 18.03.2020
819 Clouds 15 1031 62 10000 2.6 110 19:21 18.03.2020
820 Clouds 15 1031 62 10000 2.6 110 19:21 18.03.2020
821 Rain 17 1032 51 10000 3.1 130 18:58 18.03.2020
822 Rain 17 1032 51 10000 3.1 130 18:58 18.03.2020
823 Rain 17 1032 51 10000 3.1 130 18:39 18.03.2020
824 Rain 16 1032 51 10000 2.1 90 18:19 18.03.2020
825 Rain 16 1032 51 10000 2.1 90 17:55 18.03.2020
826 Clouds 15 1033 54 10000 1 140 17:37 18.03.2020
827 Clouds 15 1033 51 10000 1.63 67 17:19 18.03.2020
828 Clouds 15 1033 51 10000 1.63 67 16:42 18.03.2020
829 Clouds 15 1034 58 10000 1.63 67 16:20 18.03.2020
830 Clouds 14 1034 62 10000 1.63 67 15:57 18.03.2020
831 Clouds 14 1034 58 10000 1.63 67 15:38 18.03.2020
832 Clouds 14 1034 58 10000 1.63 67 15:20 18.03.2020
833 Clouds 13 1034 54 10000 1 330 14:42 18.03.2020
834 Clouds 11 1033 71 10000 1.63 67 14:21 18.03.2020
835 Clouds 10 1033 76 10000 1 170 13:42 18.03.2020
836 Clouds 10 1033 76 10000 1 170 13:19 18.03.2020
837 Mist 9 1032 81 10000 1 0 12:55 18.03.2020
838 Mist 9 1032 81 10000 1 0 12:37 18.03.2020
839 Mist 8 1031 81 10000 1 290 12:18 18.03.2020
840 Mist 8 1031 81 10000 1 290 11:38 18.03.2020
841 Clouds 8 1031 81 10000 1 90 11:19 18.03.2020
842 Clouds 8 1031 81 10000 1 90 10:57 18.03.2020
843 Clouds 8 1031 81 10000 1 90 10:37 18.03.2020
844 Clouds 8 1031 81 10000 1 90 10:19 18.03.2020
845 Clouds 9 1031 81 10000 1.5 100 09:42 18.03.2020
846 Clouds 9 1031 81 10000 1.5 100 09:23 18.03.2020
847 Clouds 9 1031 81 10000 0.5 110 08:55 18.03.2020
848 Clouds 9 1031 81 10000 0.5 110 08:37 18.03.2020
849 Clouds 9 1031 81 10000 0.5 110 08:19 18.03.2020
850 Clouds 10 1031 76 10000 1 0 07:41 18.03.2020
851 Clouds 10 1031 76 10000 1 0 07:23 18.03.2020
852 Clouds 9 1032 76 10000 0.9 23 06:43 18.03.2020
853 Clouds 9 1032 76 10000 0.9 23 05:53 18.03.2020
854 Clouds 8 1032 75 10000 2.6 290 05:33 18.03.2020
855 Clouds 10 1031 71 10000 0.5 0 03:56 18.03.2020
856 Clouds 11 1031 66 10000 0.5 120 02:40 18.03.2020
857 Clouds 14 1029 54 10000 1.5 260 01:46 18.03.2020
858 Clouds 15 1029 41 10000 1 260 01:21 18.03.2020
859 Clouds 16 1028 41 10000 5.7 20 00:23 18.03.2020
860 Clouds 17 1027 36 10000 5.7 20 23:47 17.03.2020
861 Clouds 18 1027 36 10000 4.6 20 23:26 17.03.2020
862 Clouds 19 1027 34 10000 4.1 10 22:47 17.03.2020
863 Clouds 17 1027 34 10000 4.1 10 22:29 17.03.2020
864 Clouds 17 1028 39 10000 0.5 80 21:59 17.03.2020
865 Clouds 17 1028 39 10000 1 0 21:37 17.03.2020
866 Clouds 19 1028 39 10000 1 0 21:19 17.03.2020
867 Clouds 19 1029 39 10000 2.6 130 20:38 17.03.2020
868 Clouds 18 1029 34 10000 3.1 110 20:20 17.03.2020
869 Clouds 18 1030 39 10000 1.5 140 19:54 17.03.2020
870 Clouds 18 1030 39 10000 1.5 140 19:36 17.03.2020
871 Clouds 17 1032 42 10000 2.6 100 19:18 17.03.2020
872 Clouds 17 1032 42 10000 2.6 100 18:54 17.03.2020
873 Clouds 16 1032 51 10000 2.6 0 18:36 17.03.2020
874 Clouds 16 1033 55 10000 1.5 80 18:18 17.03.2020
875 Clouds 16 1033 55 10000 1.5 80 18:18 17.03.2020
876 Clouds 15 1034 51 10000 1 0 17:40 17.03.2020
877 Clouds 15 1034 51 10000 1 0 17:20 17.03.2020
878 Clouds 14 1034 58 10000 1.5 0 16:44 17.03.2020
879 Clouds 13 1035 66 10000 1 120 16:20 17.03.2020
880 Clouds 12 1035 66 10000 0.5 170 15:56 17.03.2020
881 Clouds 12 1035 66 10000 0.5 170 15:56 17.03.2020
882 Clouds 12 1035 66 10000 0.5 170 15:38 17.03.2020
883 Clouds 11 1035 66 10000 0.5 60 15:18 17.03.2020
884 Clouds 9 1033 70 10000 1.5 70 14:41 17.03.2020
885 Clouds 9 1035 70 10000 0.64 105 14:18 17.03.2020
886 Mist 8 1034 75 10000 0.5 140 13:43 17.03.2020
887 Clouds 7 1034 81 10000 1.5 110 13:24 17.03.2020
888 Mist 7 1033 81 10000 0.56 131 12:48 17.03.2020
889 Mist 7 1033 81 10000 0.56 131 12:26 17.03.2020
890 Mist 6 1033 87 10000 2.1 100 11:59 17.03.2020
891 Clouds 6 1033 87 9000 3.1 110 11:40 17.03.2020
892 Clouds 6 1033 87 9000 3.1 110 11:22 17.03.2020
893 Clouds 6 1032 87 9000 3.6 110 10:56 17.03.2020
894 Clouds 6 1032 87 9000 3.6 110 10:37 17.03.2020
895 Clouds 6 1032 87 9000 3.6 110 10:18 17.03.2020
896 Rain 6 1032 87 7000 3.1 110 09:46 17.03.2020
897 Rain 6 1032 87 7000 3.1 110 09:20 17.03.2020
898 Rain 7 1033 87 6000 5.7 100 08:58 17.03.2020
899 Rain 7 1033 87 6000 5.7 100 08:40 17.03.2020
900 Rain 7 1033 87 6000 5.7 100 08:18 17.03.2020
901 Rain 8 1033 87 6000 6.2 110 07:49 17.03.2020
902 -273 0 0 0 0 0 07:21 17.03.2020
903 Rain 12 1032 76 9000 2.6 30 06:49 17.03.2020
904 Rain 12 1032 76 9000 2.6 30 06:25 17.03.2020
905 Clouds 12 1032 66 10000 0.5 30 05:26 17.03.2020
906 Clouds 12 1031 71 10000 1.5 30 03:31 17.03.2020
907 Clouds 13 1030 71 10000 3.1 280 01:50 17.03.2020
908 Clouds 13 1030 66 10000 1.5 280 01:31 17.03.2020
909 Clouds 13 1029 66 10000 2.61 30 00:53 17.03.2020
910 Clouds 16 1028 51 10000 1.5 0 00:18 17.03.2020
911 Clouds 16 1028 48 10000 1 100 23:34 16.03.2020
912 Clouds 17 1028 42 10000 1.5 100 22:58 16.03.2020
913 Clouds 17 1028 45 10000 0.5 300 22:38 16.03.2020
914 Clouds 17 1028 45 10000 0.5 300 22:19 16.03.2020
915 Clouds 17 1029 51 10000 0.5 0 21:44 16.03.2020
916 Clouds 16 1029 55 10000 1 0 21:25 16.03.2020
917 Clouds 16 1030 55 10000 0.5 130 20:58 16.03.2020
918 Clouds 14 1031 58 0 1 0 20:39 16.03.2020
919 Clouds 14 1031 58 0 1 0 20:20 16.03.2020
920 Clouds 14 1032 54 10000 0.5 0 19:46 16.03.2020
921 Clouds 13 1033 62 0 2.6 110 19:23 16.03.2020
922 Clouds 13 1033 62 10000 2.6 100 18:57 16.03.2020
923 Clouds 13 1033 62 10000 2.6 100 18:39 16.03.2020
924 Drizzle 12 1034 66 10000 4.6 110 18:19 16.03.2020
925 Drizzle 12 1034 66 10000 4.6 110 17:46 16.03.2020
926 Drizzle 11 1035 81 9000 4.1 90 17:25 16.03.2020
927 Drizzle 11 1035 76 9000 3.6 110 16:54 16.03.2020
928 Drizzle 10 1035 76 9000 3.6 120 16:36 16.03.2020
929 Drizzle 10 1035 76 9000 3.6 120 16:18 16.03.2020
930 Rain 10 1035 81 9000 4.1 110 15:42 16.03.2020
931 Rain 10 1035 81 8000 4.1 120 15:22 16.03.2020
932 Rain 10 1035 81 6000 4.6 110 14:45 16.03.2020
933 Rain 10 1034 87 6000 3.1 100 14:20 16.03.2020
934 Drizzle 10 1034 87 6000 2.1 100 13:45 16.03.2020
935 Drizzle 10 1034 87 6000 2.6 100 13:26 16.03.2020
936 Drizzle 10 1033 87 9000 1.5 100 12:56 16.03.2020
937 Clouds 10 1033 87 10000 1.5 90 12:37 16.03.2020
938 Clouds 10 1033 87 10000 1.5 90 12:19 16.03.2020
939 Clouds 10 1032 87 10000 1.5 100 11:42 16.03.2020
940 Clouds 6 1019 75 0 0.04 46 11:20 16.03.2020
941 Clouds 6 1019 75 0 0.04 46 10:43 16.03.2020
942 Clouds 11 1032 76 10000 1.5 100 10:24 16.03.2020
943 Clouds 11 1032 76 10000 1.5 100 09:47 16.03.2020
944 Clouds 11 1032 76 10000 1.5 100 09:28 16.03.2020
945 Clouds 11 1032 76 10000 1 110 08:59 16.03.2020
946 Clouds 11 1032 76 10000 1 110 08:36 16.03.2020
947 Clouds 9 1032 76 10000 1 110 08:18 16.03.2020
948 Clouds 8 1033 71 10000 1 90 07:40 16.03.2020
949 Clouds 9 1033 71 10000 1 90 07:18 16.03.2020
950 Clouds 8 1033 66 10000 2.1 100 06:28 16.03.2020
951 Clouds 9 1034 62 10000 2.1 0 05:54 16.03.2020
952 Clouds 10 1033 58 10000 2.6 90 03:36 16.03.2020
953 Thunderstorm 16 1029 41 10000 5.1 340 01:29 16.03.2020
954 Clouds 17 1028 45 10000 5.1 20 00:43 16.03.2020
955 Clouds 19 1027 42 10000 3.6 10 23:56 15.03.2020
956 Clouds 20 1027 37 10000 3.1 350 23:37 15.03.2020
957 Clouds 20 1027 37 10000 3.1 350 23:18 15.03.2020
958 Clouds 19 1027 45 10000 1.5 290 22:41 15.03.2020
959 Clouds 20 1027 37 10000 2.1 110 22:20 15.03.2020
960 Clouds 21 1028 37 10000 1 220 21:39 15.03.2020
961 Clouds 21 1028 37 10000 2.6 310 21:21 15.03.2020
962 Clouds 21 1029 40 10000 1.5 0 20:55 15.03.2020
963 Clouds 20 1030 37 10000 1.5 0 20:36 15.03.2020
964 Clouds 20 1030 37 10000 1.5 0 20:18 15.03.2020
965 Clouds 19 1031 39 10000 3.1 10 19:42 15.03.2020
966 Clouds 19 1032 39 10000 2.1 0 19:24 15.03.2020
967 Clouds 19 1032 42 10000 1.5 0 18:59 15.03.2020
968 Clouds 18 1034 45 10000 1.94 28 18:39 15.03.2020
969 Clouds 18 1034 45 10000 1.94 28 18:21 15.03.2020
970 Clouds 17 1034 51 10000 1 0 17:57 15.03.2020
971 Clouds 16 1035 59 10000 1 0 17:38 15.03.2020
972 Clouds 16 1035 59 10000 1 0 17:18 15.03.2020
973 Clouds 16 1035 59 10000 0.42 285 16:43 15.03.2020
974 Clouds 15 1036 54 10000 1.5 50 16:25 15.03.2020
975 Clouds 14 1036 62 10000 1 90 15:58 15.03.2020
976 Clouds 14 1036 62 10000 1 90 15:40 15.03.2020
977 Clouds 13 1036 66 10000 1 0 15:19 15.03.2020
978 Clouds 11 1036 71 10000 1 320 14:46 15.03.2020
979 Clouds 10 1035 87 10000 1 0 14:24 15.03.2020
980 Clouds 9 1035 87 9000 2.07 177 13:57 15.03.2020
981 Drizzle 9 1035 87 7000 2.07 177 13:38 15.03.2020
982 Drizzle 9 1035 87 7000 2.07 177 13:38 15.03.2020
983 Drizzle 9 1035 87 7000 2.07 177 13:20 15.03.2020
984 Rain 9 1035 87 5000 1.5 90 12:44 15.03.2020
985 Rain 9 1035 87 5000 2.15 167 12:25 15.03.2020
986 Rain 9 1034 87 5000 1 100 11:54 15.03.2020
987 Rain 9 1034 87 5000 2.6 100 11:36 15.03.2020
988 Rain 9 1034 87 5000 1.5 100 11:18 15.03.2020
989 Rain 9 1034 87 5000 1.5 100 10:55 15.03.2020
990 Rain 9 1034 87 5000 1.5 100 10:36 15.03.2020
991 Rain 9 1034 87 5000 1.5 100 10:18 15.03.2020
992 Rain 9 1034 87 6000 2.1 90 09:39 15.03.2020
993 Rain 9 1034 87 6000 2.1 90 09:20 15.03.2020
994 Rain 9 1034 81 7000 1 70 08:42 15.03.2020
995 Rain 9 1034 81 7000 1 70 08:20 15.03.2020
996 Rain 9 1035 87 7000 2.1 120 07:50 15.03.2020
997 Rain 9 1035 87 7000 2.1 120 07:23 15.03.2020
998 Rain 10 1034 81 8000 5.7 80 06:45 15.03.2020
999 Clouds 14 1034 62 10000 5.7 290 05:50 15.03.2020
1000 Clouds 12 1034 58 10000 3.6 300 04:58 15.03.2020
1001 Clouds 12 1034 58 10000 3.6 300 04:40 15.03.2020
1002 Clouds 12 1034 58 10000 3.6 300 04:21 15.03.2020
1003 Clouds 12 1033 58 10000 1 110 03:30 15.03.2020
1004 Clouds 12 1032 58 10000 3.6 280 02:37 15.03.2020
1005 Clouds 12 1031 54 10000 4.1 280 01:20 15.03.2020
1006 Clouds 12 1030 54 10000 3.6 280 00:42 15.03.2020
1007 Clouds 12 1030 51 10000 5.7 280 00:21 15.03.2020
1008 Clouds 14 1029 42 10000 2.1 90 23:41 14.03.2020
1009 Clouds 18 1029 42 10000 2.1 90 23:21 14.03.2020
1010 Clouds 18 1029 42 10000 1.5 50 22:58 14.03.2020
1011 Clouds 18 1029 42 10000 1.5 50 22:40 14.03.2020
1012 Clouds 18 1029 36 10000 1.5 0 22:22 14.03.2020
1013 Clouds 18 1029 34 10000 4.6 40 21:56 14.03.2020
1014 Clouds 19 1029 34 10000 7.2 20 21:36 14.03.2020
1015 Clouds 19 1029 34 10000 7.2 20 21:18 14.03.2020
1016 Clouds 20 1029 32 10000 5.7 30 20:58 14.03.2020
1017 Clouds 20 1029 32 10000 5.7 30 20:40 14.03.2020
1018 Clouds 20 1030 34 10000 1 50 20:19 14.03.2020
1019 Clouds 21 1032 32 10000 2.1 0 19:43 14.03.2020
1020 Clouds 21 1032 32 10000 2.1 0 19:25 14.03.2020
1021 Clouds 18 1034 42 10000 2.6 0 18:41 14.03.2020
1022 Clouds 18 1034 42 10000 2.6 0 18:23 14.03.2020
1023 Clouds 18 1034 45 10000 2.6 0 17:56 14.03.2020
1024 Clouds 18 1034 45 10000 2.6 0 17:38 14.03.2020
1025 Clouds 18 1035 39 10000 3.1 0 17:20 14.03.2020
1026 Clouds 17 1036 51 10000 1.5 300 16:41 14.03.2020
1027 Clouds 17 1036 51 10000 1.5 300 16:23 14.03.2020
1028 Clouds 15 1036 48 10000 1.5 90 15:58 14.03.2020
1029 Clouds 13 1036 54 10000 1.5 0 15:27 14.03.2020
1030 Clouds 13 1036 54 10000 1.5 0 14:58 14.03.2020
1031 Clouds 12 1036 62 10000 1 90 14:36 14.03.2020
1032 Clouds 12 1036 62 10000 1 90 14:18 14.03.2020
1033 Clouds 10 1035 81 10000 1.5 100 13:42 14.03.2020
1034 Clouds 9 1035 81 10000 1.5 100 13:23 14.03.2020
1035 Clouds 9 1035 81 10000 1 100 12:47 14.03.2020
1036 Clouds 9 1035 81 10000 1 100 12:27 14.03.2020
1037 Clouds 9 1034 76 10000 0.5 0 11:59 14.03.2020
1038 Clouds 9 1034 81 10000 1.5 110 11:39 14.03.2020
1039 Clouds 9 1034 76 10000 3.6 280 11:20 14.03.2020
1040 Clouds 9 1034 76 10000 3.6 280 10:45 14.03.2020
1041 Clouds 9 1034 76 10000 3.6 280 10:27 14.03.2020
1042 Clouds 9 1034 75 10000 1 90 09:57 14.03.2020
1043 Clouds 9 1034 75 10000 1 90 09:39 14.03.2020
1044 Clouds 9 1034 75 10000 1 90 09:19 14.03.2020
1045 Clouds 9 1034 76 10000 3.6 110 08:45 14.03.2020
1046 Clouds 9 1034 76 10000 3.6 110 08:22 14.03.2020
1047 Clouds 10 1035 71 10000 1.5 90 07:39 14.03.2020
1048 Clouds 10 1035 71 10000 1.5 90 07:20 14.03.2020
1049 Clouds 10 1035 71 10000 1.5 110 06:41 14.03.2020
1050 Clouds 10 1035 71 10000 1.5 100 05:49 14.03.2020
1051 Clouds 11 1035 66 10000 2.1 110 04:43 14.03.2020
1052 Clouds 12 1034 62 10000 1 90 03:24 14.03.2020
1053 Clouds 12 1033 62 10000 1.75 42 02:28 14.03.2020
1054 Clouds 14 1031 54 10000 2.6 120 01:20 14.03.2020
1055 Clouds 15 1031 51 10000 3.1 110 00:20 14.03.2020
1056 Clouds 16 1029 41 10000 2.1 100 23:32 13.03.2020
1057 Clouds 17 1029 39 10000 3.1 130 22:57 13.03.2020
1058 Clouds 17 1029 42 10000 3.6 110 22:38 13.03.2020
1059 Clouds 17 1029 42 10000 3.6 110 22:19 13.03.2020
1060 Clouds 18 1030 45 10000 4.6 110 21:39 13.03.2020
1061 Clouds 18 1030 45 10000 4.6 110 21:18 13.03.2020
1062 Clouds 18 1030 45 10000 3.6 100 20:41 13.03.2020
1063 Clouds 18 1030 39 10000 2.1 0 20:22 13.03.2020
1064 Clouds 18 1031 45 10000 3.6 350 19:49 13.03.2020
1065 Clouds 17 1032 48 10000 3.6 360 19:31 13.03.2020
1066 Rain 17 1033 48 10000 2.1 80 18:55 13.03.2020
1067 Rain 17 1033 48 10000 2.1 80 18:36 13.03.2020
1068 Clouds 16 1033 48 10000 2.1 80 18:18 13.03.2020
1069 Clouds 16 1033 48 10000 2.1 80 17:41 13.03.2020
1070 Clouds 16 1033 48 10000 2.1 80 17:21 13.03.2020
1071 Clouds 16 1034 44 10000 3.1 100 16:55 13.03.2020
1072 Clouds 16 1034 48 10000 1.5 300 16:36 13.03.2020
1073 Clouds 16 1034 48 10000 1.5 300 16:18 13.03.2020
1074 Clouds 17 1034 45 10000 1.5 40 15:41 13.03.2020
1075 -273 0 0 0 0 0 15:21 13.03.2020
1076 Clouds 14 1034 58 10000 0.57 193 14:44 13.03.2020
1077 Clouds 14 1034 58 10000 0.57 193 14:23 13.03.2020
1078 Clouds 13 1034 62 10000 0.26 42 13:58 13.03.2020
1079 Mist 10 1033 71 10000 1 120 13:40 13.03.2020
1080 Clouds 8 1033 81 10000 1 350 13:20 13.03.2020
1081 Clouds 8 1033 81 10000 1 350 12:56 13.03.2020
1082 Clouds 8 1033 81 10000 1 350 12:38 13.03.2020
1083 Mist 8 1033 81 10000 1.5 100 12:19 13.03.2020
1084 Clouds 8 1033 81 10000 2.6 100 11:45 13.03.2020
1085 Clouds 8 1033 81 10000 2.6 100 11:26 13.03.2020
1086 Clouds 9 1032 81 10000 1 100 10:58 13.03.2020
1087 Clouds 9 1032 81 10000 1 100 10:39 13.03.2020
1088 Clouds 9 1032 81 10000 1 100 10:21 13.03.2020
1089 Clouds 9 1032 76 10000 0.5 0 09:44 13.03.2020
1090 Clouds 9 1032 76 10000 0.5 0 09:25 13.03.2020
1091 Clouds 10 1032 76 10000 1 0 08:48 13.03.2020
1092 Clouds 10 1032 76 10000 1 0 08:24 13.03.2020
1093 Clouds 11 1032 71 10000 2.1 90 07:59 13.03.2020
1094 Clouds 11 1032 71 10000 2.1 90 07:38 13.03.2020
1095 Clouds 11 1032 71 10000 2.1 90 07:20 13.03.2020
1096 Clouds 11 1033 71 10000 1 110 06:45 13.03.2020
1097 Clouds 11 1033 71 10000 1 110 06:19 13.03.2020
1098 Clouds 11 1033 71 10000 1.05 38 05:43 13.03.2020
1099 Clouds 11 1032 71 10000 1 0 04:39 13.03.2020
1100 Clouds 11 1032 66 10000 1.5 280 03:50 13.03.2020
1101 Clouds 14 1030 54 10000 1.5 320 01:49 13.03.2020
1102 Clouds 14 1029 54 10000 3.1 270 01:19 13.03.2020
1103 Clouds 15 1029 51 10000 5.1 270 00:56 13.03.2020
1104 Clouds 15 1029 51 10000 5.1 270 00:38 13.03.2020
1105 Clouds 15 1028 47 10000 3.6 350 00:18 13.03.2020
1106 Clouds 16 1028 38 10000 5.7 350 23:37 12.03.2020
1107 Clouds 17 1027 39 10000 4.1 350 23:18 12.03.2020
1108 Clouds 17 1027 39 10000 4.1 350 22:44 12.03.2020
1109 Clouds 18 1027 39 10000 5.1 10 22:25 12.03.2020
1110 Clouds 19 1027 34 10000 5.7 20 21:54 12.03.2020
1111 Clouds 19 1027 32 10000 5.1 10 21:36 12.03.2020
1112 Clouds 19 1027 32 10000 5.1 10 21:18 12.03.2020
1113 Rain 21 1027 30 10000 5.1 20 20:42 12.03.2020
1114 Clouds 21 1028 32 10000 2.6 30 20:19 12.03.2020
1115 Clouds 21 1029 32 10000 2.6 200 19:42 12.03.2020
1116 Clouds 21 1029 32 10000 2.6 200 19:21 12.03.2020
1117 Clouds 21 1029 32 10000 2.6 200 19:21 12.03.2020
1118 Clouds 19 1030 32 10000 1 100 18:45 12.03.2020
1119 Clouds 19 1030 32 10000 1 100 18:25 12.03.2020
1120 Clouds 19 1031 37 10000 0.5 130 17:58 12.03.2020
1121 Clouds 18 1031 45 10000 1 0 17:40 12.03.2020
1122 Clouds 18 1031 45 10000 1 0 17:21 12.03.2020
1123 Clouds 18 1032 45 10000 1 170 16:58 12.03.2020
1124 Clouds 15 1032 51 10000 1 0 16:39 12.03.2020
1125 Clouds 15 1032 51 10000 1 0 16:20 12.03.2020
1126 Clouds 15 1033 51 10000 0.5 0 15:47 12.03.2020
1127 Clouds 14 1032 54 10000 1 300 15:27 12.03.2020
1128 Clouds 14 1032 62 10000 0.5 0 14:54 12.03.2020
1129 Clouds 14 1032 62 10000 0.5 0 14:54 12.03.2020
1130 Clouds 12 1032 66 10000 0.5 130 14:36 12.03.2020
1131 Clouds 12 1032 66 10000 0.53 49 14:18 12.03.2020
1132 Clouds 11 1031 71 10000 1 0 13:38 12.03.2020
1133 Clouds 11 1031 71 10000 1 0 13:20 12.03.2020
1134 Clouds 10 1031 76 10000 0.5 0 12:43 12.03.2020
1135 Clouds 10 1031 76 10000 0.5 0 12:23 12.03.2020
1136 Clouds 10 1030 81 10000 1.5 100 11:59 12.03.2020
1137 Clouds 11 1030 71 10000 1 100 11:39 12.03.2020
1138 Clouds 11 1030 71 10000 1 100 11:21 12.03.2020
1139 Clouds 11 1030 71 10000 1 100 11:21 12.03.2020
1140 Clouds 11 1029 76 10000 0.64 19 10:59 12.03.2020
1141 Clouds 11 1029 76 10000 0.64 19 10:41 12.03.2020
1142 Clouds 11 1029 76 10000 0.64 19 10:22 12.03.2020
1143 Clouds 11 1029 76 10000 0.64 19 10:22 12.03.2020
1144 Clouds 11 1030 71 10000 0.64 19 09:49 12.03.2020
1145 Clouds 11 1030 71 10000 0.64 19 09:29 12.03.2020
1146 Clouds 11 1030 71 10000 0.64 19 08:55 12.03.2020
1147 Clouds 11 1030 71 10000 0.64 19 08:37 12.03.2020
1148 Clouds 11 1030 71 10000 1.37 12 08:18 12.03.2020
1149 Clouds 11 1031 76 10000 1.08 9 07:46 12.03.2020
1150 Clouds 11 1031 76 10000 1.08 9 07:21 12.03.2020
1151 Clouds 10 1031 66 10000 1.08 9 06:18 12.03.2020
1152 Clouds 10 1031 66 10000 1.5 140 05:33 12.03.2020
1153 Clouds 9 1029 76 10000 1 0 02:54 12.03.2020
1154 Clouds 11 1028 66 10000 1 90 01:43 12.03.2020
1155 Clouds 13 1028 62 10000 4.1 110 01:21 12.03.2020
1156 Clouds 17 1027 45 10000 0.5 270 00:41 12.03.2020
1157 Rain 16 1027 48 10000 3.1 280 23:57 11.03.2020
1158 Rain 16 1027 48 10000 3.1 280 23:28 11.03.2020
1159 Clouds 16 1027 48 10000 5.7 270 22:59 11.03.2020
1160 Clouds 19 1027 34 10000 5.1 290 22:39 11.03.2020
1161 Clouds 19 1027 34 10000 5.1 290 22:21 11.03.2020
1162 Clouds 19 1027 37 10000 5.7 280 21:56 11.03.2020
1163 Clouds 19 1028 37 10000 4.6 290 21:37 11.03.2020
1164 Clouds 19 1028 37 10000 4.6 290 21:19 11.03.2020
1165 Rain 18 1028 39 10000 3.1 360 20:55 11.03.2020
1166 Clouds 18 1029 42 10000 0.5 10 20:36 11.03.2020
1167 Clouds 18 1029 42 10000 0.5 10 20:18 11.03.2020
1168 Rain 17 1030 48 10000 4.1 10 19:42 11.03.2020
1169 Clouds 17 1030 48 10000 1.5 40 19:24 11.03.2020
1170 Clouds 17 1031 48 10000 1.5 40 18:56 11.03.2020
1171 Clouds 18 1031 39 10000 2.1 260 18:37 11.03.2020
1172 Clouds 18 1031 39 10000 2.1 260 18:18 11.03.2020
1173 Clouds 18 1032 48 10000 2.6 210 17:54 11.03.2020
1174 Clouds 17 1033 44 10000 2.1 80 17:36 11.03.2020
1175 Clouds 16 1033 44 10000 0.5 100 17:18 11.03.2020
1176 Clouds 16 1033 44 10000 0.5 100 16:41 11.03.2020
1177 Clouds 13 1034 62 10000 2.6 0 16:19 11.03.2020
1178 Clouds 13 1034 62 10000 3.6 90 15:42 11.03.2020
1179 Clouds 12 1034 62 10000 1.5 0 15:23 11.03.2020
1180 Clouds 13 1034 58 10000 1.78 186 14:46 11.03.2020
1181 Clouds 9 1034 76 10000 1.78 186 14:24 11.03.2020
1182 Clouds 8 1034 81 10000 1 0 13:59 11.03.2020
1183 Clouds 8 1034 81 10000 1 0 13:40 11.03.2020
1184 Mist 8 1034 81 10000 2.6 110 13:22 11.03.2020
1185 Mist 7 1034 81 10000 2.1 100 12:55 11.03.2020
1186 Clouds 7 1034 81 10000 0.5 360 12:37 11.03.2020
1187 Clouds 7 1034 81 10000 0.5 360 12:18 11.03.2020
1188 Clouds 7 1033 87 10000 2.6 110 11:40 11.03.2020
1189 Clouds 7 1033 87 10000 2.6 110 11:20 11.03.2020
1190 Clouds 7 1033 81 10000 1.5 110 10:47 11.03.2020
1191 Clouds 7 1033 81 10000 1.5 110 10:20 11.03.2020
1192 Rain 7 1033 81 10000 0.5 120 09:58 11.03.2020
1193 Rain 7 1033 81 10000 0.5 120 09:38 11.03.2020
1194 Rain 7 1033 81 10000 0.5 120 09:19 11.03.2020
1195 Rain 7 1034 81 10000 1.5 70 08:42 11.03.2020
1196 Rain 7 1034 81 10000 1.5 70 08:23 11.03.2020
1197 Rain 7 1035 81 8000 2.6 300 07:47 11.03.2020
1198 Rain 7 1035 81 8000 2.6 300 07:20 11.03.2020
1199 Rain 8 1035 87 8000 1 100 06:49 11.03.2020
1200 Rain 8 1035 87 8000 1 100 06:30 11.03.2020
1201 Rain 10 1035 81 10000 2.1 290 05:32 11.03.2020
1202 Clouds 13 1032 62 10000 0.5 330 02:43 11.03.2020
1203 Clouds 13 1031 66 10000 2.1 350 01:51 11.03.2020
1204 Rain 13 1030 62 10000 1.5 40 01:23 11.03.2020
1205 Clouds 16 1029 48 10000 3.6 10 00:32 11.03.2020
1206 Clouds 15 1029 48 10000 4.6 90 23:49 10.03.2020
1207 Clouds 16 1028 42 10000 4.6 10 23:26 10.03.2020
1208 Rain 16 1028 45 10000 5.1 10 22:56 10.03.2020
1209 Rain 16 1028 42 10000 5.7 20 22:37 10.03.2020
1210 Clouds 19 1028 42 10000 5.7 20 22:19 10.03.2020
1211 Clouds 19 1028 37 10000 5.1 20 21:56 10.03.2020
1212 Clouds 21 1029 30 10000 2.6 210 21:37 10.03.2020
1213 Clouds 21 1029 30 10000 2.6 210 21:18 10.03.2020
1214 Clouds 20 1029 28 10000 1.5 0 20:42 10.03.2020
1215 Clouds 21 1031 30 10000 2.1 0 20:19 10.03.2020
1216 Clouds 21 1031 32 10000 1.5 0 19:58 10.03.2020
1217 Clouds 20 1033 40 10000 1.5 0 19:40 10.03.2020
1218 Clouds 20 1033 40 10000 1.5 0 19:22 10.03.2020
1219 Clouds 19 1033 34 10000 1 0 18:55 10.03.2020
1220 Clouds 18 1034 42 10000 1.5 60 18:37 10.03.2020
1221 Clouds 18 1034 42 10000 1.5 60 18:18 10.03.2020
1222 Clouds 17 1035 48 10000 1 110 17:41 10.03.2020
1223 Clouds 17 1035 48 10000 1 110 17:22 10.03.2020
1224 Clouds 16 1036 38 10000 0.69 195 16:57 10.03.2020
1225 Clouds 14 1036 54 10000 1.5 0 16:37 10.03.2020
1226 Clouds 14 1036 54 10000 1.5 0 16:18 10.03.2020
1227 Rain 13 1036 58 10000 2.1 0 15:41 10.03.2020
1228 Rain 12 1037 58 10000 0.69 195 15:20 10.03.2020
1229 Rain 11 1037 66 10000 1.5 0 14:58 10.03.2020
1230 Clouds 11 1037 66 10000 1 0 14:40 10.03.2020
1231 Clouds 11 1037 66 10000 1 0 14:19 10.03.2020
1232 Clouds 9 1037 70 10000 1 110 13:43 10.03.2020
1233 Clouds 7 1036 87 10000 1 100 13:25 10.03.2020
1234 Clouds 7 1036 81 10000 2.6 100 12:55 10.03.2020
1235 Clouds 6 1036 87 10000 0.62 186 12:37 10.03.2020
1236 Clouds 6 1036 87 10000 0.62 186 12:18 10.03.2020
1237 Clouds 7 1035 81 10000 1.5 120 11:42 10.03.2020
1238 Clouds 7 1035 81 10000 1.5 120 11:24 10.03.2020
1239 -273 0 0 0 0 0 10:56 10.03.2020
1240 Clouds 8 1035 75 10000 1 260 10:38 10.03.2020
1241 Clouds 8 1035 75 10000 1 260 10:19 10.03.2020
1242 Clouds 8 1035 75 10000 1 290 09:45 10.03.2020
1243 Clouds 8 1035 75 10000 1 290 09:20 10.03.2020
1244 Clouds 8 1036 75 10000 1 140 08:56 10.03.2020
1245 Clouds 8 1036 75 10000 1 140 08:36 10.03.2020
1246 Clouds 8 1036 75 10000 1 140 08:18 10.03.2020
1247 Drizzle 7 1037 87 8000 2.6 90 07:40 10.03.2020
1248 Drizzle 7 1037 87 8000 2.6 90 07:21 10.03.2020
1249 Drizzle 7 1037 87 8000 2.6 90 07:21 10.03.2020
1250 Rain 8 1038 81 7000 4.6 110 06:38 10.03.2020
1251 Rain 9 1038 76 9000 1.5 130 05:55 10.03.2020
1252 Rain 9 1038 76 9000 1.5 130 05:35 10.03.2020
1253 Rain 9 1037 70 9000 2.6 200 04:30 10.03.2020
1254 Clouds 12 1033 62 10000 1.5 270 02:58 10.03.2020
1255 Clouds 15 1031 51 10000 2.1 260 01:33 10.03.2020
1256 Clouds 15 1030 54 10000 3.1 260 00:51 10.03.2020
1257 Clouds 15 1030 54 10000 3.1 260 00:28 10.03.2020
1258 Clouds 17 1029 42 10000 5.1 20 23:43 09.03.2020
1259 Clouds 17 1029 42 10000 5.1 20 23:22 09.03.2020
1260 Clouds 19 1029 37 10000 5.7 20 22:57 09.03.2020
1261 Clouds 21 1029 32 10000 3.1 360 22:38 09.03.2020
1262 Clouds 21 1029 32 10000 3.1 360 22:19 09.03.2020
1263 Clouds 21 1029 30 10000 2.6 350 21:44 09.03.2020
1264 Clouds 20 1030 32 10000 5.7 20 21:22 09.03.2020
1265 Clouds 20 1030 32 10000 5.7 20 21:22 09.03.2020
1266 Clouds 18 1030 36 10000 5.7 20 20:58 09.03.2020
1267 Clouds 20 1031 34 10000 3.1 10 20:40 09.03.2020
1268 Clouds 18 1030 36 10000 5.7 20 20:40 09.03.2020
1269 Clouds 20 1031 34 10000 3.1 10 20:21 09.03.2020
1270 Clouds 20 1031 30 10000 2.6 250 19:56 09.03.2020
1271 Clouds 19 1032 32 10000 3.6 20 19:38 09.03.2020
1272 Clouds 18 1032 32 10000 3.6 20 19:18 09.03.2020
1273 Clouds 18 1033 36 10000 4.6 50 18:55 09.03.2020
1274 Clouds 18 1033 37 10000 1 160 18:37 09.03.2020
1275 Clouds 18 1033 37 10000 1 160 18:18 09.03.2020
1276 Clouds 18 1034 37 10000 0.5 0 17:55 09.03.2020
1277 Clouds 18 1034 37 10000 0.5 0 17:55 09.03.2020
1278 Clouds 20 1034 37 10000 0.5 0 17:36 09.03.2020
1279 Clouds 16 1035 42 10000 1.5 270 17:18 09.03.2020
1280 Clouds 15 1035 45 10000 1.5 40 16:42 09.03.2020
1281 Clouds 14 1035 45 10000 1.5 40 16:22 09.03.2020
1282 Clouds 14 1035 45 10000 1.5 40 15:59 09.03.2020
1283 Clouds 13 1036 51 10000 0.5 20 15:40 09.03.2020
1284 Clouds 16 1036 51 10000 0.5 20 15:21 09.03.2020
1285 Clouds 16 1036 51 10000 0.5 20 15:21 09.03.2020
1286 Clouds 15 1036 51 10000 1 0 14:59 09.03.2020
1287 Clouds 14 1036 62 10000 1 70 14:38 09.03.2020
1288 Clouds 14 1036 62 10000 1 70 14:20 09.03.2020
1289 Clouds 13 1036 62 10000 0.5 0 13:58 09.03.2020
1290 Clouds 10 1035 76 10000 1 0 13:39 09.03.2020
1291 Clouds 10 1035 76 10000 1 0 13:20 09.03.2020
1292 Clouds 9 1035 81 10000 2.1 100 12:44 09.03.2020
1293 Clouds 8 1034 81 10000 0.31 317 12:24 09.03.2020
1294 Clouds 9 1034 76 10000 0.31 317 11:58 09.03.2020
1295 Clouds 8 1033 81 10000 1.5 80 11:40 09.03.2020
1296 Clouds 8 1033 81 10000 1.5 80 11:20 09.03.2020
1297 Clouds 9 1033 81 10000 1.5 100 10:55 09.03.2020
1298 Clouds 9 1033 81 10000 1.5 100 10:37 09.03.2020
1299 Clouds 9 1033 81 10000 1.5 100 10:18 09.03.2020
1300 Clouds 9 1033 81 10000 1 110 09:42 09.03.2020
1301 Clouds 9 1033 81 10000 1 110 09:23 09.03.2020
1302 Clouds 9 1034 76 10000 1 90 08:45 09.03.2020
1303 Clouds 9 1034 76 10000 1 90 08:27 09.03.2020
1304 Clouds 9 1034 76 10000 1.5 100 07:45 09.03.2020
1305 Clouds 9 1034 76 10000 1.5 100 07:45 09.03.2020
1306 Clouds 9 1034 76 10000 1.5 100 07:23 09.03.2020
1307 Clouds 10 1034 71 10000 0.5 0 06:59 09.03.2020
1308 Clouds 10 1034 71 10000 0.5 0 06:39 09.03.2020
1309 Clouds 10 1034 71 10000 0.5 0 06:21 09.03.2020
1310 Clouds 9 1034 76 10000 1.5 300 05:41 09.03.2020
1311 Clouds 10 1034 66 10000 1.5 90 04:56 09.03.2020
1312 Clouds 10 1034 66 10000 1.5 90 04:37 09.03.2020
1313 Clouds 10 1034 66 10000 1.5 90 04:37 09.03.2020
1314 Clouds 10 1034 66 10000 1.5 90 04:18 09.03.2020
1315 Clouds 9 1033 58 10000 2.6 280 02:50 09.03.2020
1316 Clouds 14 1029 41 10000 3.1 50 00:42 09.03.2020
1317 Clouds 14 1029 41 10000 4.1 20 00:24 09.03.2020
1318 Clouds 16 1029 42 10000 4.1 20 23:58 08.03.2020
1319 Clouds 16 1029 42 10000 4.1 20 23:58 08.03.2020
1320 Clouds 16 1029 36 10000 3.6 40 23:29 08.03.2020
1321 Clouds 17 1029 39 10000 4.1 20 22:59 08.03.2020
1322 Clouds 17 1029 36 10000 3.1 60 22:40 08.03.2020
1323 Clouds 17 1029 36 10000 3.1 60 22:22 08.03.2020
1324 Clouds 17 1029 36 10000 4.6 40 21:59 08.03.2020
1325 Clouds 17 1028 36 10000 6.2 20 21:40 08.03.2020
1326 Clouds 17 1028 36 10000 6.2 20 21:20 08.03.2020
1327 Clouds 17 1028 31 10000 5.7 20 20:56 08.03.2020
1328 Clouds 18 1029 34 10000 2.6 100 20:37 08.03.2020
1329 Clouds 18 1029 34 10000 2.6 100 20:19 08.03.2020
1330 Clouds 18 1029 32 10000 3.1 100 19:40 08.03.2020
1331 Clouds 18 1030 32 10000 2.1 0 19:19 08.03.2020
1332 Clouds 17 1031 32 10000 2.6 90 18:55 08.03.2020
1333 Clouds 16 1032 39 10000 2.1 110 18:37 08.03.2020
1334 Clouds 16 1032 39 10000 2.1 110 18:18 08.03.2020
1335 Clouds 18 1034 45 10000 1 140 17:39 08.03.2020
1336 Clouds 14 1034 45 10000 1 140 17:20 08.03.2020
1337 Clouds 14 1034 45 10000 1 140 16:57 08.03.2020
1338 Clouds 14 1034 45 10000 1 140 16:39 08.03.2020
1339 Clouds 13 1034 45 10000 2.1 70 16:20 08.03.2020
1340 Clouds 16 1034 48 10000 1.5 120 15:41 08.03.2020
1341 Clouds 15 1034 47 10000 2.6 80 15:21 08.03.2020
1342 Clouds 14 1034 54 10000 1 30 14:56 08.03.2020
1343 Clouds 14 1034 54 10000 1 30 14:37 08.03.2020
1344 Clouds 14 1034 54 10000 1 30 14:37 08.03.2020
1345 Clouds 13 1034 58 10000 2.6 270 14:19 08.03.2020
1346 Clouds 12 1034 62 10000 1.5 260 13:41 08.03.2020
1347 Clouds 12 1034 62 10000 1.5 60 13:20 08.03.2020
1348 Clouds 11 1034 66 10000 1 140 12:46 08.03.2020
1349 Clouds 10 1033 71 10000 1 290 12:28 08.03.2020
1350 Clouds 10 1033 66 10000 1.89 148 11:58 08.03.2020
1351 Clouds 10 1033 66 10000 1.89 148 11:58 08.03.2020
1352 Clouds 5 1021 84 0 1.89 148 11:40 08.03.2020
1353 Clouds 5 1019 88 0 2.22 145 11:21 08.03.2020
1354 Clouds 5 1019 88 0 2.22 145 10:42 08.03.2020
1355 Clouds 10 1033 71 10000 2.6 280 10:23 08.03.2020
1356 Clouds 10 1033 71 10000 2.6 280 09:59 08.03.2020
1357 Clouds 10 1033 71 10000 2.6 280 09:37 08.03.2020
1358 Clouds 10 1033 71 10000 2.6 280 09:18 08.03.2020
1359 Rain 10 1033 76 10000 1.5 310 08:41 08.03.2020
1360 Rain 10 1033 76 10000 1.5 310 08:20 08.03.2020
1361 Drizzle 12 1034 62 10000 2.1 200 07:45 08.03.2020
1362 Drizzle 12 1034 62 10000 2.1 200 07:25 08.03.2020
1363 Clouds 12 1034 62 10000 2.1 190 06:43 08.03.2020
1364 Clouds 12 1034 62 10000 2.1 190 06:23 08.03.2020
1365 Clouds 6 1020 84 0 0.79 79 05:41 08.03.2020
1366 Clouds 13 1033 66 10000 1.5 0 03:52 08.03.2020
1367 Clouds 13 1031 58 10000 5.1 300 02:38 08.03.2020
1368 Clouds 14 1029 58 10000 5.7 270 01:34 08.03.2020
1369 Drizzle 14 1029 58 10000 6.7 270 00:55 08.03.2020
1370 Rain 12 1027 42 10000 4.1 10 00:28 08.03.2020
1371 Rain 14 1027 42 10000 4.1 10 23:47 07.03.2020
1372 Clouds 18 1026 42 10000 3.1 20 23:24 07.03.2020
1373 Clouds 19 1026 39 10000 4.1 20 22:55 07.03.2020
1374 Clouds 18 1027 39 10000 4.1 20 22:36 07.03.2020
1375 Clouds 15 1027 39 10000 4.1 20 22:18 07.03.2020
1376 Rain 19 1027 34 10000 5.1 20 21:43 07.03.2020
1377 Rain 19 1027 34 10000 5.1 20 21:19 07.03.2020
1378 Clouds 20 1028 40 10000 2.6 60 20:39 07.03.2020
1379 Clouds 20 1028 40 10000 2.6 60 20:20 07.03.2020
1380 Clouds 21 1029 35 10000 2.1 50 19:41 07.03.2020
1381 Clouds 20 1030 40 10000 1.5 130 19:22 07.03.2020
1382 Clouds 19 1031 39 10000 1 160 18:47 07.03.2020
1383 Clouds 18 1032 45 10000 1.5 80 18:29 07.03.2020
1384 Clouds 18 1032 36 10000 1.5 150 17:59 07.03.2020
1385 Clouds 18 1033 39 10000 1.5 320 17:41 07.03.2020
1386 Clouds 18 1033 39 10000 1.5 320 17:19 07.03.2020
1387 Clouds 16 1033 44 10000 2.1 90 16:56 07.03.2020
1388 Clouds 15 1033 51 10000 2.1 100 16:38 07.03.2020
1389 Clouds 15 1033 51 10000 2.1 100 16:19 07.03.2020
1390 Clouds 15 1034 51 10000 1 50 15:41 07.03.2020
1391 Clouds 14 1034 58 10000 2.6 100 15:22 07.03.2020
1392 Clouds 11 1034 76 10000 2.1 90 14:59 07.03.2020
1393 Clouds 11 1034 76 10000 2.1 90 14:41 07.03.2020
1394 Clouds 11 1034 76 10000 2.1 90 14:23 07.03.2020
1395 Clouds 10 1034 76 10000 2.1 100 13:42 07.03.2020
1396 Clouds 9 1033 81 10000 2.1 100 13:21 07.03.2020
1397 Clouds 8 1033 81 10000 1.05 84 12:58 07.03.2020
1398 Clouds 8 1033 81 10000 1.05 84 12:37 07.03.2020
1399 Clouds 8 1033 81 10000 1.05 84 12:18 07.03.2020
1400 Clouds 8 1033 81 10000 1.05 84 11:42 07.03.2020
1401 Clouds 9 1033 81 10000 0.87 20 11:24 07.03.2020
1402 Mist 9 1032 81 10000 0.87 20 10:57 07.03.2020
1403 Mist 9 1032 81 10000 0.87 20 10:38 07.03.2020
1404 Mist 9 1032 81 10000 0.87 20 10:18 07.03.2020
1405 Clouds 9 1032 76 10000 1.5 110 09:40 07.03.2020
1406 Clouds 9 1032 76 10000 1.5 110 09:20 07.03.2020
1407 Clouds 9 1032 76 10000 1.5 110 09:20 07.03.2020
1408 Clouds 9 1033 81 10000 2.1 90 08:57 07.03.2020
1409 Clouds 9 1033 81 10000 2.1 90 08:39 07.03.2020
1410 Clouds 9 1033 81 10000 2.1 90 08:20 07.03.2020
1411 Clouds 9 1033 76 10000 3.1 100 07:46 07.03.2020
1412 Clouds 6 1020 84 0 1.72 14 07:21 07.03.2020
1413 Clouds 6 1020 84 0 1.72 14 06:42 07.03.2020
1414 Clouds 6 1020 84 0 1.72 14 06:23 07.03.2020
1415 Clouds 6 1020 84 0 1.72 14 05:40 07.03.2020
1416 Clouds 13 1034 58 10000 1.5 0 03:47 07.03.2020
1417 Clouds 14 1032 54 10000 1 90 02:44 07.03.2020
1418 Clouds 14 1032 54 10000 1 90 01:56 07.03.2020
1419 Clouds 15 1031 47 10000 2.27 24 01:18 07.03.2020
1420 Clouds 16 1029 44 10000 1.5 350 00:24 07.03.2020
1421 Clouds 16 1029 44 10000 3.1 10 23:59 06.03.2020
1422 Clouds 16 1029 44 10000 3.1 10 23:40 06.03.2020
1423 Clouds 16 1029 44 10000 3.1 10 23:22 06.03.2020
1424 Rain 16 1029 48 10000 5.7 20 22:46 06.03.2020
1425 Rain 16 1029 48 10000 5.7 20 22:20 06.03.2020
1426 Rain 17 1029 45 10000 5.7 20 21:47 06.03.2020
1427 Rain 17 1029 45 10000 5.7 20 21:21 06.03.2020
1428 Clouds 18 1029 42 10000 3.1 100 20:45 06.03.2020
1429 Clouds 18 1029 42 10000 3.1 100 20:23 06.03.2020
1430 Clouds 22 1030 35 10000 1.5 0 19:58 06.03.2020
1431 Clouds 22 1030 35 10000 1.5 0 19:40 06.03.2020
1432 Clouds 22 1030 35 10000 1.5 0 19:21 06.03.2020
1433 Clouds 20 1032 40 10000 1 0 18:42 06.03.2020
1434 Clouds 20 1032 40 10000 1 0 18:20 06.03.2020
1435 Clouds 20 1032 34 10000 2.1 0 17:56 06.03.2020
1436 Clouds 19 1033 45 10000 2.6 270 17:38 06.03.2020
1437 Clouds 17 1035 48 10000 1 0 17:20 06.03.2020
1438 Clouds 17 1035 48 10000 1 0 16:54 06.03.2020
1439 Clouds 17 1035 48 10000 1 0 16:36 06.03.2020
1440 Clouds 17 1035 48 10000 1 0 16:36 06.03.2020
1441 Clouds 17 1035 48 10000 1 0 16:18 06.03.2020
1442 Clouds 16 1035 55 10000 2.1 110 15:41 06.03.2020
1443 Clouds 15 1035 58 10000 1.5 110 15:22 06.03.2020
1444 Clouds 12 1035 71 10000 2.1 280 14:40 06.03.2020
1445 Clouds 12 1035 71 10000 2.1 280 14:22 06.03.2020
1446 Clouds 9 1035 71 10000 2.1 280 13:55 06.03.2020
1447 Clouds 8 1034 76 10000 0.5 0 13:36 06.03.2020
1448 Clouds 8 1034 76 10000 0.5 0 13:18 06.03.2020
1449 Clouds 8 1034 81 10000 0.5 0 12:40 06.03.2020
1450 Clouds 8 1034 81 10000 0.5 0 12:20 06.03.2020
1451 Clouds 8 1034 76 10000 0.5 80 11:59 06.03.2020
1452 Clouds 7 1034 71 10000 0.5 360 11:40 06.03.2020
1453 Clouds 8 1034 71 10000 0.5 360 11:20 06.03.2020
1454 Clouds 8 1033 76 10000 1 110 10:42 06.03.2020
1455 Clouds 9 1033 76 10000 1 110 10:21 06.03.2020
1456 Clouds 8 1033 76 10000 1 240 09:59 06.03.2020
1457 Clouds 8 1033 76 10000 1 240 09:40 06.03.2020
1458 Clouds 8 1033 76 10000 1 240 09:22 06.03.2020
1459 Clouds 11 1034 71 10000 2.1 310 08:48 06.03.2020
1460 Clouds 11 1034 71 10000 2.1 310 08:30 06.03.2020
1461 Clouds 11 1034 71 10000 4.1 300 07:59 06.03.2020
1462 Clouds 11 1034 71 10000 4.1 300 07:40 06.03.2020
1463 Clouds 11 1034 71 10000 4.1 300 07:20 06.03.2020
1464 Clouds 11 1035 71 10000 4.6 290 06:41 06.03.2020
1465 Clouds 12 1036 66 10000 1.5 320 05:52 06.03.2020
1466 Clouds 12 1036 66 10000 1.5 320 05:31 06.03.2020
1467 Clouds 13 1036 62 10000 0.5 0 04:59 06.03.2020
1468 Clouds 13 1035 62 10000 2.1 50 03:58 06.03.2020
1469 Clouds 14 1033 58 10000 2.1 80 01:43 06.03.2020
1470 Clouds 14 1032 62 10000 3.1 120 01:25 06.03.2020
1471 Clouds 14 1031 62 10000 3.6 90 00:48 06.03.2020
1472 Clouds 15 1030 62 10000 4.1 100 00:20 06.03.2020
1473 Clouds 16 1030 51 10000 2.1 50 23:43 05.03.2020
1474 Clouds 16 1030 51 10000 2.6 360 23:24 05.03.2020
1475 Clouds 15 1030 58 10000 2.6 80 22:55 05.03.2020
1476 Rain 16 1030 55 10000 6.7 110 22:36 05.03.2020
1477 Rain 16 1030 55 10000 6.7 110 22:18 05.03.2020
1478 Drizzle 16 1030 59 10000 6.7 110 21:54 05.03.2020
1479 Clouds 20 1029 40 10000 4.1 20 21:36 05.03.2020
1480 Clouds 20 1029 40 10000 4.1 20 21:18 05.03.2020
1481 Clouds 20 1029 37 10000 2.1 330 20:41 05.03.2020
1482 Clouds 21 1031 32 10000 1.5 0 20:20 05.03.2020
1483 Clouds 21 1031 37 10000 3.1 300 19:59 05.03.2020
1484 Clouds 20 1032 42 10000 3.1 50 19:39 05.03.2020
1485 Clouds 20 1032 42 10000 3.1 50 19:20 05.03.2020
1486 Clouds 19 1033 42 10000 2.1 0 18:58 05.03.2020
1487 Clouds 17 1035 48 10000 1.5 0 18:37 05.03.2020
1488 Clouds 17 1035 48 10000 1.5 0 18:18 05.03.2020
1489 Clouds 17 1035 45 10000 1 0 17:55 05.03.2020
1490 Clouds 16 1035 48 10000 1 0 17:37 05.03.2020
1491 Clouds 16 1035 48 10000 1 0 17:18 05.03.2020
1492 Clouds 16 1035 48 10000 1.5 0 16:41 05.03.2020
1493 Clouds 15 1036 54 10000 1.5 0 16:22 05.03.2020
1494 Clouds 15 1037 58 10000 1.5 0 15:57 05.03.2020
1495 Clouds 13 1037 66 10000 1.5 0 15:37 05.03.2020
1496 Clouds 13 1037 66 10000 1.5 0 15:19 05.03.2020
1497 Clouds 13 1037 66 10000 2.1 90 14:41 05.03.2020
1498 Clouds 12 1036 66 10000 0.5 0 14:22 05.03.2020
1499 Clouds 11 1036 76 10000 0.5 0 13:58 05.03.2020
1500 Clouds 10 1036 76 10000 1 0 13:39 05.03.2020
1501 Clouds 10 1036 76 10000 1 0 13:20 05.03.2020
1502 Clouds 10 1035 76 10000 1 360 12:55 05.03.2020
1503 Mist 9 1034 81 10000 1.5 100 12:36 05.03.2020
1504 Mist 9 1034 81 10000 1.5 100 12:18 05.03.2020
1505 Clouds 9 1034 81 10000 1.5 300 11:55 05.03.2020
1506 Clouds 10 1034 76 10000 1.74 302 11:36 05.03.2020
1507 Clouds 10 1034 76 10000 0.8 200 11:18 05.03.2020
1508 Clouds 10 1034 76 10000 0.8 200 10:55 05.03.2020
1509 Clouds 10 1034 76 10000 0.8 200 10:37 05.03.2020
1510 Clouds 10 1034 76 10000 0.8 200 10:19 05.03.2020
1511 Clouds 10 1034 76 10000 1 290 09:40 05.03.2020
1512 Clouds 10 1034 76 10000 1 290 09:22 05.03.2020
1513 Clouds 11 1034 71 10000 5.1 280 08:43 05.03.2020
1514 Clouds 11 1034 71 10000 5.1 280 08:24 05.03.2020
1515 Clouds 10 1035 76 10000 2.1 290 07:45 05.03.2020
1516 Clouds 10 1035 76 10000 2.1 290 07:22 05.03.2020
1517 Clouds 11 1035 71 10000 3.1 290 06:46 05.03.2020
1518 Clouds 11 1035 71 10000 3.1 290 06:21 05.03.2020
1519 Clouds 12 1036 66 10000 1.5 270 05:38 05.03.2020
1520 Drizzle 12 1035 71 9000 3.1 330 04:25 05.03.2020
1521 Rain 12 1035 71 9000 1.5 240 03:59 05.03.2020
1522 Rain 13 1034 62 9000 2.6 100 03:18 05.03.2020
1523 Clouds 14 1032 58 10000 2.1 130 01:28 05.03.2020
1524 Clouds 14 1031 54 10000 3.1 10 00:58 05.03.2020
1525 Clouds 15 1029 54 10000 3.1 350 23:59 04.03.2020
1526 Clouds 16 1029 55 10000 1.5 80 23:40 04.03.2020
1527 Clouds 16 1029 55 10000 1.5 80 23:22 04.03.2020
1528 Clouds 18 1029 48 10000 2.6 280 22:57 04.03.2020
1529 Clouds 18 1029 48 10000 6.2 20 22:38 04.03.2020
1530 Clouds 18 1029 48 10000 6.2 20 22:19 04.03.2020
1531 Clouds 17 1029 55 10000 6.2 20 21:56 04.03.2020
1532 Clouds 20 1029 37 10000 4.1 10 21:38 04.03.2020
1533 Clouds 20 1029 37 10000 4.1 10 21:38 04.03.2020
1534 Clouds 20 1029 37 10000 4.1 10 21:18 04.03.2020
1535 Clouds 21 1030 32 10000 1 0 20:41 04.03.2020
1536 Clouds 21 1030 32 10000 1 0 20:22 04.03.2020
1537 Clouds 21 1030 40 10000 4.1 110 19:58 04.03.2020
1538 Clouds 21 1031 35 10000 2.6 170 19:40 04.03.2020
1539 Clouds 21 1031 35 10000 2.6 170 19:22 04.03.2020
1540 Clouds 19 1032 39 10000 2.6 360 18:42 04.03.2020
1541 Clouds 20 1033 40 10000 2.6 350 18:24 04.03.2020
1542 Clouds 18 1033 48 10000 3.6 340 17:59 04.03.2020
1543 Clouds 17 1034 48 10000 2.1 280 17:39 04.03.2020
1544 Clouds 17 1034 48 10000 2.1 280 17:20 04.03.2020
1545 Clouds 18 1034 45 10000 1 120 16:57 04.03.2020
1546 Clouds 17 1035 51 10000 1.5 20 16:38 04.03.2020
1547 Clouds 17 1035 51 10000 1.5 20 16:19 04.03.2020
1548 Clouds 17 1035 51 10000 1.5 20 15:45 04.03.2020
1549 Clouds 15 1035 54 10000 2.6 110 15:27 04.03.2020
1550 Clouds 15 1035 54 10000 2.6 110 15:27 04.03.2020
1551 Clouds 14 1035 62 10000 2.6 100 14:59 04.03.2020
1552 Clouds 14 1035 62 10000 2.6 100 14:59 04.03.2020
1553 Clouds 13 1035 66 10000 0.5 0 14:40 04.03.2020
1554 Clouds 13 1035 66 10000 0.5 0 14:20 04.03.2020
1555 Clouds 12 1034 71 10000 1 0 13:58 04.03.2020
1556 Clouds 12 1034 71 10000 1 110 13:39 04.03.2020
1557 Clouds 12 1034 71 10000 1 110 13:20 04.03.2020
1558 Clouds 10 1037 81 10000 0.5 270 12:56 04.03.2020
1559 Clouds 10 1033 76 10000 1 80 12:37 04.03.2020
1560 Clouds 10 1033 76 10000 1 80 12:19 04.03.2020
1561 Clouds 10 1033 76 10000 1 100 11:42 04.03.2020
1562 Clouds 10 1033 76 10000 1 100 11:42 04.03.2020
1563 Clouds 10 1033 81 10000 2.6 90 11:23 04.03.2020
1564 Clouds 10 1033 76 10000 0.67 61 10:59 04.03.2020
1565 Clouds 10 1033 76 10000 0.67 61 10:41 04.03.2020
1566 Clouds 10 1033 76 10000 0.67 61 10:22 04.03.2020
1567 Clouds 9 1032 81 10000 1.5 300 09:44 04.03.2020
1568 Clouds 9 1032 81 10000 1.5 300 09:21 04.03.2020
1569 Clouds 11 1032 71 10000 1.5 300 08:56 04.03.2020
1570 Clouds 11 1032 71 10000 1.5 300 08:37 04.03.2020
1571 Clouds 11 1032 71 10000 1.5 300 08:19 04.03.2020
1572 Clouds 8 1032 62 10000 1.5 260 07:39 04.03.2020
1573 Clouds 8 1032 62 10000 1.5 260 07:20 04.03.2020
1574 Clouds 7 1034 71 10000 3.1 350 06:47 04.03.2020
1575 Clouds 8 1034 71 10000 3.1 350 06:24 04.03.2020
1576 Clouds 8 1034 71 10000 1.44 29 05:54 04.03.2020
1577 Clouds 9 1034 76 10000 2.1 100 04:34 04.03.2020
1578 Clouds 12 1032 71 10000 2.17 25 03:44 04.03.2020
1579 Clouds 12 1032 71 10000 2.17 25 03:25 04.03.2020
1580 Clouds 11 1031 76 10000 2.6 90 02:55 04.03.2020
1581 Clouds 13 1031 62 10000 2.1 280 02:21 04.03.2020
1582 Clouds 13 1030 62 10000 3.1 100 01:55 04.03.2020
1583 Clouds 14 1029 62 10000 4.1 90 00:53 04.03.2020
1584 Clouds 15 1029 58 10000 3.6 100 00:27 04.03.2020
1585 Clouds 15 1028 54 10000 3.6 110 23:48 03.03.2020
1586 Clouds 16 1028 55 10000 3.1 110 23:28 03.03.2020
1587 Clouds 16 1028 51 10000 1 280 22:59 03.03.2020
1588 Rain 16 1028 55 10000 0.5 320 22:40 03.03.2020
1589 Rain 16 1028 55 10000 0.5 320 22:20 03.03.2020
1590 Rain 15 1028 58 10000 2.6 90 21:58 03.03.2020
1591 Clouds 18 1028 48 10000 6.2 100 21:39 03.03.2020
1592 Clouds 18 1028 48 10000 6.2 100 21:20 03.03.2020
1593 Clouds 18 1028 45 10000 5.7 10 20:55 03.03.2020
1594 Clouds 20 1028 40 10000 2.6 340 20:37 03.03.2020
1595 Clouds 20 1028 40 10000 2.6 340 20:18 03.03.2020
1596 Clouds 20 1028 40 10000 2.6 340 20:18 03.03.2020
1597 Clouds 20 1028 40 10000 2.6 340 20:18 03.03.2020
1598 Clouds 21 1029 37 10000 2.1 30 19:54 03.03.2020
1599 Clouds 20 1030 37 10000 1 0 19:36 03.03.2020
1600 Clouds 20 1030 37 10000 1 0 19:18 03.03.2020
1601 Clouds 20 1031 40 10000 1.5 0 18:55 03.03.2020
1602 Clouds 20 1032 45 10000 2.1 300 18:36 03.03.2020
1603 Clouds 20 1032 45 10000 2.1 300 18:18 03.03.2020
1604 Clouds 19 1033 48 10000 1 250 17:40 03.03.2020
1605 Clouds 19 1033 48 10000 1 250 17:21 03.03.2020
1606 Clouds 19 1033 48 10000 1 250 17:21 03.03.2020
1607 Clouds 18 1033 48 10000 1 100 16:58 03.03.2020
1608 Clouds 17 1033 48 10000 2.1 130 16:38 03.03.2020
1609 Clouds 17 1033 48 10000 2.1 130 16:38 03.03.2020
1610 Clouds 17 1033 48 10000 2.1 130 16:38 03.03.2020
1611 Clouds 17 1033 48 10000 2.1 130 16:20 03.03.2020
1612 Clouds 16 1033 51 10000 1.5 330 15:57 03.03.2020
1613 Clouds 16 1033 51 10000 1.5 330 15:57 03.03.2020
1614 Clouds 15 1034 51 10000 1.5 80 15:38 03.03.2020
1615 Clouds 15 1034 51 10000 1.5 80 15:18 03.03.2020
1616 Clouds 14 1034 58 10000 1 260 14:41 03.03.2020
1617 Clouds 14 1034 58 10000 1 260 14:41 03.03.2020
1618 Clouds 13 1034 66 10000 1 100 14:19 03.03.2020
1619 Clouds 11 1034 81 10000 2.1 100 13:57 03.03.2020
1620 Clouds 10 1033 81 10000 1 270 13:39 03.03.2020
1621 Clouds 10 1033 81 10000 1 270 13:19 03.03.2020
1622 Clouds 10 1033 76 10000 1.2 142 12:47 03.03.2020
1623 Mist 9 1033 87 10000 1.2 142 12:26 03.03.2020
1624 Mist 10 1033 81 10000 1.2 142 11:57 03.03.2020
1625 Mist 10 1033 81 10000 2.6 100 11:37 03.03.2020
1626 Mist 10 1033 81 10000 2.6 100 11:37 03.03.2020
1627 Mist 10 1033 81 10000 2.6 100 11:18 03.03.2020
1628 Mist 10 1033 87 10000 4.1 110 10:55 03.03.2020
1629 Mist 10 1033 87 10000 4.1 110 10:37 03.03.2020
1630 Mist 10 1033 87 10000 4.1 110 10:18 03.03.2020
1631 Clouds 10 1033 87 10000 3.1 110 09:44 03.03.2020
1632 Clouds 10 1033 87 10000 3.1 110 09:22 03.03.2020
1633 Clouds 11 1033 76 10000 0.5 0 08:56 03.03.2020
1634 Clouds 11 1033 76 10000 0.5 0 08:37 03.03.2020
1635 Clouds 11 1033 76 10000 0.5 0 08:19 03.03.2020
1636 Drizzle 11 1034 76 10000 1 0 07:42 03.03.2020
1637 Drizzle 11 1034 76 10000 1 0 07:20 03.03.2020
1638 Rain 11 1034 81 9000 2.6 270 06:41 03.03.2020
1639 Rain 11 1034 81 9000 2.6 270 06:22 03.03.2020
1640 Thunderstorm 10 1035 76 9000 1 0 05:47 03.03.2020
1641 Thunderstorm 11 1035 76 9000 1 0 05:18 03.03.2020
1642 Clouds 11 1034 71 10000 4.1 100 04:24 03.03.2020
1643 Clouds 13 1030 51 10000 2.1 110 01:40 03.03.2020
1644 Clouds 14 1029 51 10000 1.5 0 00:49 03.03.2020
1645 Clouds 14 1028 48 10000 3.6 360 00:26 03.03.2020
1646 Clouds 14 1028 45 10000 3.6 10 23:57 02.03.2020
1647 Clouds 16 1027 37 10000 4.1 10 23:38 02.03.2020
1648 Clouds 16 1027 37 10000 4.1 10 23:19 02.03.2020
1649 Clouds 16 1027 37 10000 5.1 20 22:54 02.03.2020
1650 Clouds 17 1027 33 10000 5.7 300 22:36 02.03.2020
1651 Clouds 17 1027 33 10000 5.7 300 22:18 02.03.2020
1652 Clouds 17 1027 32 10000 2.6 10 21:41 02.03.2020
1653 Clouds 16 1028 34 10000 2.1 70 21:23 02.03.2020
1654 Clouds 18 1028 25 10000 1.5 300 20:58 02.03.2020
1655 Clouds 17 1029 28 10000 1.5 320 20:39 02.03.2020
1656 Clouds 22 1029 28 10000 1.5 320 20:20 02.03.2020
1657 Clouds 21 1030 35 10000 2.6 110 19:56 02.03.2020
1658 Clouds 21 1030 35 10000 2.6 110 19:56 02.03.2020
1659 Clouds 21 1031 37 10000 1.5 360 19:37 02.03.2020
1660 Clouds 21 1031 37 10000 1.5 360 19:19 02.03.2020
1661 Clouds 21 1031 32 10000 2.6 260 18:45 02.03.2020
1662 Clouds 20 1032 32 10000 1.5 20 18:20 02.03.2020
1663 Clouds 19 1033 32 10000 1.5 90 17:59 02.03.2020
1664 Clouds 19 1033 32 10000 1.5 90 17:59 02.03.2020
1665 -273 0 0 0 0 0 17:41 02.03.2020
1666 Clouds 19 1033 34 10000 0.5 0 17:21 02.03.2020
1667 Clouds 19 1033 34 10000 0.5 0 17:21 02.03.2020
1668 Clouds 19 1033 34 10000 0.5 0 17:21 02.03.2020
1669 Clouds 18 1034 39 10000 2.1 30 16:55 02.03.2020
1670 Clouds 18 1034 45 10000 2.1 300 16:37 02.03.2020
1671 Clouds 18 1034 45 10000 2.1 300 16:19 02.03.2020
1672 Clouds 17 1034 48 10000 1 290 15:43 02.03.2020
1673 Clouds 16 1035 55 10000 2.1 100 15:20 02.03.2020
1674 Clouds 14 1035 58 10000 0.5 40 14:42 02.03.2020
1675 Rain 9 1035 66 10000 1 130 14:20 02.03.2020
1676 Rain 9 1034 66 10000 2.1 100 13:59 02.03.2020
1677 Rain 9 1034 71 10000 1.5 130 13:39 02.03.2020
1678 Clouds 9 1034 71 10000 1.5 130 13:18 02.03.2020
1679 Clouds 9 1034 71 10000 1 120 12:44 02.03.2020
1680 Clouds 9 1034 71 10000 1.5 90 12:20 02.03.2020
1681 Clouds 11 1033 71 10000 1.5 120 11:56 02.03.2020
1682 Clouds 11 1033 71 10000 3.1 110 11:37 02.03.2020
1683 Clouds 11 1033 71 10000 3.1 110 11:18 02.03.2020
1684 Clouds 11 1033 71 10000 1.5 100 10:43 02.03.2020
1685 Clouds 11 1033 71 10000 1.5 100 10:21 02.03.2020
1686 Clouds 11 1033 76 10000 1.5 90 09:59 02.03.2020
1687 Clouds 11 1033 76 10000 1.5 90 09:59 02.03.2020
1688 Clouds 11 1033 76 10000 1.5 90 09:40 02.03.2020
1689 Clouds 11 1033 76 10000 1.5 90 09:22 02.03.2020
1690 Clouds 5 1020 79 0 1.08 52 08:43 02.03.2020
1691 Clouds 7 1033 71 10000 1 260 08:22 02.03.2020
1692 Clouds 8 1033 71 10000 1 260 07:42 02.03.2020
1693 Clouds 9 1033 71 10000 1 260 07:20 02.03.2020
1694 Clouds 9 1034 66 10000 2.6 100 06:45 02.03.2020
1695 Clouds 9 1034 62 10000 1 100 05:53 02.03.2020
1696 Clouds 10 1034 62 10000 3.6 300 04:25 02.03.2020
1697 Clouds 14 1033 62 10000 5.1 290 03:22 02.03.2020
1698 Clouds 14 1033 62 10000 6.7 300 02:46 02.03.2020
1699 Clouds 15 1032 58 10000 1.5 20 01:49 02.03.2020
1700 Clouds 15 1031 62 10000 5.7 290 01:30 02.03.2020
1701 Clouds 17 1030 55 10000 1.5 100 00:23 02.03.2020
1702 Clouds 18 1029 45 10000 2.1 160 23:57 01.03.2020
1703 Clouds 20 1029 42 10000 2.6 60 23:39 01.03.2020
1704 Clouds 20 1029 42 10000 2.6 60 23:19 01.03.2020
1705 Clouds 20 1029 37 10000 5.1 280 22:43 01.03.2020
1706 Clouds 20 1029 40 10000 7.2 270 22:20 01.03.2020
1707 Clouds 19 1029 45 10000 8.7 290 21:56 01.03.2020
1708 Clouds 20 1030 45 10000 6.2 290 21:38 01.03.2020
1709 Clouds 20 1030 45 10000 6.2 290 21:19 01.03.2020
1710 Clouds 22 1030 43 10000 1.5 280 20:43 01.03.2020
1711 Clouds 21 1031 37 10000 1.5 250 20:25 01.03.2020
1712 Clouds 19 1032 45 10000 1 200 19:55 01.03.2020
1713 Clouds 19 1033 45 10000 1 290 19:36 01.03.2020
1714 Clouds 19 1033 45 10000 1 290 19:18 01.03.2020
1715 Clouds 17 1034 51 10000 3.1 110 18:40 01.03.2020
1716 Clouds 17 1034 51 10000 3.1 110 18:20 01.03.2020
1717 Clouds 17 1034 51 10000 3.6 90 17:58 01.03.2020
1718 Clouds 16 1035 59 10000 4.1 80 17:40 01.03.2020
1719 Clouds 16 1035 59 10000 4.1 80 17:21 01.03.2020
1720 Clouds 17 1035 51 10000 1 120 16:57 01.03.2020
1721 Rain 15 1036 58 10000 2.1 80 16:39 01.03.2020
1722 Rain 15 1036 58 10000 2.1 80 16:18 01.03.2020
1723 Clouds 15 1036 58 10000 2.6 100 15:57 01.03.2020
1724 Clouds 14 1036 62 10000 2.1 120 15:38 01.03.2020
1725 Clouds 14 1036 62 10000 2.1 120 15:20 01.03.2020
1726 Clouds 14 1036 62 10000 0.98 61 14:57 01.03.2020
1727 Clouds 13 1036 66 10000 0.98 61 14:38 01.03.2020
1728 Clouds 13 1036 66 10000 0.59 64 14:20 01.03.2020
1729 Clouds 12 1036 71 10000 1.5 80 13:55 01.03.2020
1730 Clouds 11 1035 76 10000 1.5 90 13:37 01.03.2020
1731 Clouds 11 1035 76 10000 1.5 90 13:18 01.03.2020
1732 Clouds 10 1035 81 10000 1 110 12:42 01.03.2020
1733 Clouds 10 1035 81 10000 1 110 12:42 01.03.2020
1734 Clouds 10 1035 81 10000 1 110 12:21 01.03.2020
1735 Clouds 10 1034 81 10000 1 110 11:43 01.03.2020
1736 Clouds 10 1034 81 10000 1.5 120 11:25 01.03.2020
1737 Clouds 10 1034 81 10000 2.6 340 10:58 01.03.2020
1738 Clouds 10 1034 81 10000 2.6 340 10:38 01.03.2020
1739 Clouds 10 1034 81 10000 2.6 340 10:20 01.03.2020
1740 Clouds 10 1034 81 10000 2.1 260 09:59 01.03.2020
1741 Clouds 10 1034 81 10000 2.1 260 09:41 01.03.2020
1742 Clouds 10 1034 81 10000 2.1 260 09:21 01.03.2020
1743 Clouds 12 1034 66 10000 1.5 200 08:43 01.03.2020
1744 Clouds 12 1034 66 10000 1.5 200 08:25 01.03.2020
1745 Clouds 12 1035 76 10000 0.5 350 07:43 01.03.2020
1746 Clouds 12 1035 76 10000 0.5 350 07:24 01.03.2020
1747 Clouds 11 1035 81 10000 3.1 290 06:58 01.03.2020
1748 Clouds 11 1035 81 10000 3.1 290 06:39 01.03.2020
1749 Clouds 13 1035 66 10000 1.81 31 04:39 01.03.2020
1750 Clouds 15 1034 58 10000 2.1 50 02:58 01.03.2020
1751 Clouds 15 1032 54 10000 4.6 360 01:54 01.03.2020
1752 Clouds 15 1031 58 10000 4.1 360 01:34 01.03.2020
1753 Clouds 15 1031 58 10000 5.1 280 00:47 01.03.2020
1754 Clouds 16 1030 51 10000 4.1 20 00:23 01.03.2020
1755 Rain 11 1029 48 10000 3.6 30 23:54 29.02.2020
1756 Clouds 11 1029 42 10000 4.6 30 23:35 29.02.2020
1757 Clouds 20 1029 37 10000 4.6 20 22:45 29.02.2020
1758 Clouds 21 1029 35 10000 3.6 20 22:26 29.02.2020
1759 Clouds 20 1029 32 10000 4.1 10 21:47 29.02.2020
1760 Clouds 21 1029 37 10000 5.7 10 21:27 29.02.2020
1761 Clouds 20 1030 40 10000 5.7 360 20:59 29.02.2020
1762 Clouds 19 1030 52 10000 5.7 300 20:40 29.02.2020
1763 Clouds 19 1030 52 10000 5.7 300 20:20 29.02.2020
1764 Rain 20 1031 42 10000 4.1 360 19:41 29.02.2020
1765 Clouds 20 1032 45 10000 3.1 110 19:22 29.02.2020
1766 Clouds 19 1033 48 10000 2.6 330 18:57 29.02.2020
1767 Clouds 19 1034 42 10000 3.1 360 18:39 29.02.2020
1768 Clouds 19 1034 42 10000 3.1 360 18:19 29.02.2020
1769 Clouds 19 1034 48 10000 2.6 350 17:55 29.02.2020
1770 Clouds 16 1035 51 10000 1.5 0 17:36 29.02.2020
1771 Clouds 16 1035 51 10000 1.5 0 17:36 29.02.2020
1772 Clouds 16 1035 51 10000 1.5 0 17:18 29.02.2020
1773 Rain 16 1035 55 10000 2.1 90 16:42 29.02.2020
1774 Clouds 15 1036 62 10000 2.1 0 16:19 29.02.2020
1775 Clouds 15 1036 62 10000 0.34 49 15:43 29.02.2020
1776 Clouds 14 1036 71 10000 1.5 110 15:24 29.02.2020
1777 Clouds 14 1036 67 10000 0.34 49 14:57 29.02.2020
1778 Clouds 13 1036 71 10000 0.34 49 14:38 29.02.2020
1779 Clouds 13 1036 71 10000 1.25 26 14:20 29.02.2020
1780 Clouds 11 1035 81 10000 1.25 26 13:44 29.02.2020
1781 Clouds 11 1035 81 10000 1.25 26 13:25 29.02.2020
1782 Clouds 10 1034 87 10000 1.5 300 12:55 29.02.2020
1783 Clouds 9 1034 87 10000 1 90 12:36 29.02.2020
1784 Clouds 9 1034 87 10000 1 90 12:18 29.02.2020
1785 Clouds 10 1034 87 10000 1.5 120 11:44 29.02.2020
1786 Drizzle 10 1034 87 9000 0.87 28 11:25 29.02.2020
1787 Drizzle 10 1033 87 9000 1.19 353 10:50 29.02.2020
1788 Drizzle 10 1033 87 9000 1.19 353 10:29 29.02.2020
1789 Drizzle 11 1033 81 9000 1 150 09:52 29.02.2020
1790 Drizzle 11 1033 81 9000 1 150 09:28 29.02.2020
1791 Drizzle 11 1034 81 9000 2.1 110 08:58 29.02.2020
1792 Drizzle 11 1034 81 9000 2.1 110 08:38 29.02.2020
1793 Drizzle 11 1034 81 9000 2.1 110 08:19 29.02.2020
1794 Rain 13 1034 71 9000 1.2 339 07:46 29.02.2020
1795 Rain 13 1034 71 9000 1.2 339 07:21 29.02.2020
1796 Clouds 13 1034 76 10000 2.1 100 06:54 29.02.2020
1797 Clouds 13 1034 76 10000 2.1 100 06:27 29.02.2020
1798 Clouds 13 1034 71 10000 1 100 05:49 29.02.2020
1799 Clouds 13 1034 71 10000 1 100 05:29 29.02.2020
1800 Clouds 13 1034 71 10000 1.5 110 03:46 29.02.2020
1801 Clouds 13 1033 71 10000 1 90 03:23 29.02.2020
1802 Clouds 13 1033 71 10000 2.1 100 02:47 29.02.2020
1803 Clouds 14 1032 62 10000 1 200 01:49 29.02.2020
1804 Clouds 15 1030 58 10000 3.6 350 00:46 29.02.2020
1805 Clouds 15 1030 58 10000 3.6 350 00:26 29.02.2020
1806 Rain 16 1030 55 10000 4.1 300 23:39 28.02.2020
1807 Rain 16 1030 55 10000 4.1 300 23:20 28.02.2020
1808 Drizzle 16 1029 59 10000 6.2 290 22:42 28.02.2020
1809 Drizzle 16 1029 59 10000 6.2 290 22:22 28.02.2020
1810 Rain 17 1029 59 10000 6.2 300 21:42 28.02.2020
1811 Clouds 18 1029 48 10000 3.6 100 21:21 28.02.2020
1812 Clouds 19 1030 45 10000 4.1 40 20:57 28.02.2020
1813 Clouds 19 1030 42 10000 4.1 10 20:38 28.02.2020
1814 Clouds 19 1030 42 10000 4.1 10 20:20 28.02.2020
1815 Rain 18 1031 48 10000 3.6 360 19:56 28.02.2020
1816 Rain 18 1032 48 10000 3.6 110 19:38 28.02.2020
1817 Rain 18 1032 48 10000 3.6 110 19:19 28.02.2020
1818 Clouds 19 1032 48 10000 2.6 80 18:46 28.02.2020
1819 Clouds 19 1032 48 10000 2.6 80 18:24 28.02.2020
1820 Clouds 18 1033 42 10000 0.5 0 17:41 28.02.2020
1821 Clouds 18 1033 42 10000 0.5 0 17:23 28.02.2020
1822 Clouds 18 1033 42 10000 0.5 0 17:23 28.02.2020
1823 Clouds 18 1034 48 10000 1.5 150 16:57 28.02.2020
1824 Clouds 17 1034 48 10000 1 260 16:38 28.02.2020
1825 Clouds 17 1034 48 10000 1 260 16:19 28.02.2020
1826 Clouds 15 1034 54 10000 0.5 70 15:55 28.02.2020
1827 Clouds 14 1035 62 10000 1.5 280 15:37 28.02.2020
1828 Clouds 14 1035 62 10000 1.5 280 15:18 28.02.2020
1829 Clouds 13 1035 66 10000 0.5 80 14:42 28.02.2020
1830 Clouds 13 1034 66 10000 0.5 80 14:19 28.02.2020
1831 Clouds 12 1034 71 10000 0.5 360 13:58 28.02.2020
1832 Clouds 11 1034 81 10000 1 290 13:40 28.02.2020
1833 Clouds 11 1034 81 10000 1 290 13:19 28.02.2020
1834 Clouds 10 1033 81 10000 1.5 280 12:44 28.02.2020
1835 Clouds 11 1033 76 10000 2.1 300 12:26 28.02.2020
1836 Clouds 10 1033 81 10000 1.5 260 11:56 28.02.2020
1837 Drizzle 10 1033 87 10000 2.6 290 11:37 28.02.2020
1838 Drizzle 10 1033 87 10000 2.6 290 11:18 28.02.2020
1839 Clouds 11 1032 76 10000 3.1 340 10:43 28.02.2020
1840 Clouds 11 1032 76 10000 3.1 340 10:23 28.02.2020
1841 Clouds 11 1031 76 10000 2.1 290 09:47 28.02.2020
1842 Clouds 11 1031 76 10000 2.1 290 09:22 28.02.2020
1843 Rain 12 1033 71 10000 1 200 08:58 28.02.2020
1844 Rain 12 1033 71 10000 1 200 08:40 28.02.2020
1845 Rain 12 1033 71 10000 1 200 08:20 28.02.2020
1846 Clouds 13 1033 66 10000 1 130 07:42 28.02.2020
1847 Clouds 13 1033 66 10000 1 130 07:24 28.02.2020
1848 Clouds 13 1033 66 10000 1.5 100 06:47 28.02.2020
1849 Clouds 13 1033 66 10000 1.5 100 06:26 28.02.2020
1850 Clouds 13 1033 66 10000 2.6 110 04:47 28.02.2020
1851 Clouds 13 1033 66 10000 2.6 110 04:19 28.02.2020
1852 Clouds 13 1032 71 10000 2.6 90 02:47 28.02.2020
1853 Clouds 14 1031 67 10000 2.6 120 02:28 28.02.2020
1854 Clouds 14 1031 62 10000 1.5 110 01:26 28.02.2020
1855 Clouds 14 1030 67 10000 2.6 280 00:30 28.02.2020
1856 Rain 15 1029 58 10000 2.6 100 23:42 27.02.2020
1857 Clouds 16 1029 51 10000 1 290 23:21 27.02.2020
1858 Clouds 16 1029 51 10000 1.5 360 22:46 27.02.2020
1859 Clouds 16 1029 55 10000 4.1 280 22:27 27.02.2020
1860 Clouds 15 1029 58 10000 5.1 290 21:59 27.02.2020
1861 Clouds 15 1029 58 10000 9.3 290 21:41 27.02.2020
1862 Clouds 15 1029 58 10000 9.3 290 21:19 27.02.2020
1863 Clouds 19 1029 45 10000 3.6 300 20:57 27.02.2020
1864 Clouds 19 1029 45 10000 4.1 10 20:39 27.02.2020
1865 Clouds 19 1029 45 10000 4.1 10 20:20 27.02.2020
1866 Clouds 19 1029 45 10000 4.1 10 20:20 27.02.2020
1867 Clouds 16 1030 55 10000 3.6 20 19:56 27.02.2020
1868 Clouds 18 1031 52 10000 3.6 10 19:37 27.02.2020
1869 Clouds 18 1031 52 10000 3.6 10 19:18 27.02.2020
1870 Clouds 19 1032 52 10000 2.6 120 18:40 27.02.2020
1871 Clouds 19 1032 52 10000 2.6 120 18:22 27.02.2020
1872 Clouds 18 1032 52 10000 2.1 100 17:58 27.02.2020
1873 Clouds 16 1033 55 10000 1 50 17:40 27.02.2020
1874 Clouds 16 1033 55 10000 1 50 17:19 27.02.2020
1875 Clouds 16 1033 55 10000 0.75 217 16:56 27.02.2020
1876 Clouds 17 1033 48 10000 1 280 16:38 27.02.2020
1877 Clouds 17 1033 48 10000 1 280 16:18 27.02.2020
1878 Clouds 16 1034 55 10000 1.5 290 15:56 27.02.2020
1879 Clouds 15 1034 67 10000 0.75 217 15:36 27.02.2020
1880 Clouds 15 1034 67 10000 0.75 217 15:18 27.02.2020
1881 Clouds 12 1034 76 10000 0.75 217 14:42 27.02.2020
1882 Clouds 12 1034 76 10000 0.75 217 14:23 27.02.2020
1883 Clouds 12 1034 76 10000 0.75 217 14:23 27.02.2020
1884 Mist 11 1034 81 9000 0.49 182 13:57 27.02.2020
1885 Clouds 8 1020 77 0 0.49 182 13:39 27.02.2020
1886 Clouds 8 1020 76 0 0.24 218 13:20 27.02.2020
1887 Drizzle 10 1033 87 7000 2.1 280 12:45 27.02.2020
1888 Drizzle 10 1033 87 9000 1.5 270 12:45 27.02.2020
1889 Drizzle 10 1033 87 9000 1.5 270 12:23 27.02.2020
1890 Clouds 10 1032 87 9000 1.5 290 11:57 27.02.2020
1891 Drizzle 10 1032 87 8000 0.5 150 11:38 27.02.2020
1892 Drizzle 10 1032 87 8000 0.5 150 11:20 27.02.2020
1893 Rain 10 1032 87 6000 2.6 120 10:42 27.02.2020
1894 Rain 10 1032 87 6000 2.6 120 10:20 27.02.2020
1895 Rain 10 1032 87 8000 1.5 100 09:46 27.02.2020
1896 Rain 10 1032 87 8000 1.5 100 09:28 27.02.2020
1897 Rain 11 1032 81 10000 1 120 08:56 27.02.2020
1898 Rain 11 1032 81 10000 1 120 08:56 27.02.2020
1899 Rain 11 1032 81 10000 1 120 08:38 27.02.2020
1900 Rain 11 1032 81 10000 1 120 08:18 27.02.2020
1901 Clouds 11 1033 81 10000 2.6 80 07:42 27.02.2020
1902 Clouds 11 1033 81 10000 2.6 80 07:24 27.02.2020
1903 Drizzle 12 1033 71 10000 1.5 340 06:31 27.02.2020
1904 Clouds 12 1034 71 10000 1 100 05:24 27.02.2020
1905 Clouds 12 1032 66 10000 3.1 280 03:21 27.02.2020
1906 Clouds 14 1030 62 10000 5.1 280 01:39 27.02.2020
1907 Clouds 15 1030 58 10000 5.1 280 00:43 27.02.2020
1908 Clouds 16 1029 51 10000 6.2 290 00:19 27.02.2020
1909 Clouds 17 1028 39 10000 3.6 320 23:38 26.02.2020
1910 Clouds 17 1028 39 10000 3.6 320 23:18 26.02.2020
1911 Clouds 19 1028 34 10000 2.6 320 22:55 26.02.2020
1912 Clouds 19 1028 39 10000 3.6 290 22:37 26.02.2020
1913 Clouds 19 1028 39 10000 3.6 290 22:18 26.02.2020
1914 Clouds 19 1029 45 10000 2.1 340 21:39 26.02.2020
1915 Clouds 19 1029 45 10000 2.1 340 21:20 26.02.2020
1916 Clouds 18 1030 42 10000 3.1 20 20:56 26.02.2020
1917 Clouds 18 1030 45 10000 1.5 160 20:38 26.02.2020
1918 Clouds 18 1030 45 10000 1.5 160 20:19 26.02.2020
1919 Clouds 17 1031 48 10000 2.1 160 19:56 26.02.2020
1920 Clouds 16 1032 48 10000 1.5 150 19:37 26.02.2020
1921 Clouds 16 1032 48 10000 1.5 150 19:19 26.02.2020
1922 Clouds 15 1032 54 10000 2.6 240 18:57 26.02.2020
1923 Rain 14 1033 54 10000 0.5 0 18:37 26.02.2020
1924 Rain 14 1033 54 10000 0.5 0 18:19 26.02.2020
1925 Clouds 14 1033 54 10000 5.7 20 17:41 26.02.2020
1926 Clouds 14 1033 54 10000 5.7 20 17:19 26.02.2020
1927 Clouds 14 1033 54 10000 5.7 20 17:19 26.02.2020
1928 Rain 15 1033 58 10000 1.5 360 16:57 26.02.2020
1929 Clouds 15 1033 58 10000 3.6 270 16:38 26.02.2020
1930 Clouds 15 1033 58 10000 3.6 270 16:20 26.02.2020
1931 Clouds 14 1033 62 10000 1.5 0 15:45 26.02.2020
1932 Clouds 14 1033 62 10000 1.5 0 15:45 26.02.2020
1933 Clouds 14 1033 62 10000 1.5 0 15:45 26.02.2020
1934 Clouds 14 1033 62 10000 1.5 0 15:27 26.02.2020
1935 Clouds 13 1033 66 10000 1 220 14:43 26.02.2020
1936 Clouds 12 1032 71 10000 3.1 300 14:24 26.02.2020
1937 Clouds 12 1032 71 10000 1 300 13:58 26.02.2020
1938 Clouds 11 1032 76 10000 1.5 290 13:39 26.02.2020
1939 Clouds 11 1032 76 10000 1.5 290 13:19 26.02.2020
1940 Clouds 11 1031 76 10000 1.32 182 12:39 26.02.2020
1941 Clouds 11 1031 76 10000 1.32 182 12:19 26.02.2020
1942 Clouds 11 1031 76 10000 1.5 280 11:56 26.02.2020
1943 Clouds 11 1030 76 10000 1.5 300 11:37 26.02.2020
1944 Clouds 11 1030 76 10000 1.5 300 11:19 26.02.2020
1945 Clouds 12 1030 71 10000 1.5 260 10:41 26.02.2020
1946 Clouds 12 1030 71 10000 1.5 260 10:22 26.02.2020
1947 Clouds 12 1030 71 10000 1.75 204 09:55 26.02.2020
1948 Clouds 12 1030 71 10000 1.75 204 09:37 26.02.2020
1949 Clouds 12 1030 71 10000 1.75 204 09:18 26.02.2020
1950 Clouds 13 1030 62 10000 1 240 08:38 26.02.2020
1951 Clouds 13 1030 62 10000 1 240 08:19 26.02.2020
1952 Clouds 12 1031 66 10000 2.1 200 07:48 26.02.2020
1953 Clouds 12 1031 66 10000 2.1 200 07:29 26.02.2020
1954 Clouds 13 1031 62 10000 3.1 250 06:54 26.02.2020
1955 Clouds 13 1031 62 10000 3.1 250 06:36 26.02.2020
1956 Clouds 13 1031 62 10000 3.1 250 06:18 26.02.2020
1957 Clouds 13 1031 71 10000 0.97 272 05:43 26.02.2020
1958 Clouds 12 1031 76 10000 0.68 72 04:49 26.02.2020
1959 Clouds 13 1030 71 10000 2.1 300 02:51 26.02.2020
1960 Clouds 14 1028 67 10000 1.5 310 01:49 26.02.2020
1961 Clouds 15 1028 62 10000 4.1 300 00:51 26.02.2020
1962 Clouds 16 1027 59 10000 2.1 270 00:27 26.02.2020
1963 Clouds 16 1027 55 10000 3.1 290 23:57 25.02.2020
1964 Clouds 16 1027 59 10000 3.6 280 23:38 25.02.2020
1965 Clouds 16 1027 59 10000 3.6 280 23:20 25.02.2020
1966 Rain 17 1027 48 10000 3.6 10 22:42 25.02.2020
1967 Rain 17 1027 48 10000 3.6 10 22:20 25.02.2020
1968 Clouds 19 1027 48 10000 4.6 310 21:58 25.02.2020
1969 Rain 19 1027 52 10000 5.7 290 21:37 25.02.2020
1970 Rain 18 1027 52 10000 5.7 290 21:18 25.02.2020
1971 Clouds 18 1027 45 10000 3.6 290 20:55 25.02.2020
1972 Rain 17 1028 48 10000 2.6 350 20:36 25.02.2020
1973 Rain 17 1028 48 10000 2.6 350 20:18 25.02.2020
1974 Rain 18 1029 40 10000 2.1 320 19:42 25.02.2020
1975 Rain 17 1029 40 10000 2.1 320 19:20 25.02.2020
1976 Clouds 17 1029 45 10000 1.5 340 18:58 25.02.2020
1977 Clouds 19 1030 52 10000 3.1 270 18:38 25.02.2020
1978 Clouds 17 1030 52 10000 3.1 270 18:19 25.02.2020
1979 Clouds 15 1031 52 10000 3.6 280 17:39 25.02.2020
1980 Clouds 15 1031 52 10000 3.6 280 17:20 25.02.2020
1981 Rain 14 1032 55 10000 2.6 250 16:59 25.02.2020
1982 Rain 13 1032 55 10000 1.5 280 16:41 25.02.2020
1983 Rain 13 1032 55 10000 1.5 280 16:22 25.02.2020
1984 Clouds 13 1032 55 10000 1.24 303 15:59 25.02.2020
1985 Clouds 13 1032 55 10000 1.24 303 15:59 25.02.2020
1986 Clouds 12 1032 54 10000 1.24 303 15:41 25.02.2020
1987 Clouds 12 1032 54 10000 1.24 303 15:20 25.02.2020
1988 Clouds 12 1032 55 10000 1 50 14:58 25.02.2020
1989 Mist 10 1032 81 10000 2.6 100 14:38 25.02.2020
1990 Rain 10 1032 81 10000 2.6 110 14:18 25.02.2020
1991 Rain 10 1032 81 10000 2.6 110 13:56 25.02.2020
1992 Rain 10 1031 81 10000 1.5 90 13:38 25.02.2020
1993 Rain 10 1031 81 10000 1.5 90 13:19 25.02.2020
1994 Rain 10 1031 81 10000 1.3 143 12:42 25.02.2020
1995 Rain 9 1031 81 10000 1.3 143 12:23 25.02.2020
1996 Rain 9 1031 81 10000 1.3 143 11:58 25.02.2020
1997 Clouds 9 1030 87 10000 1 100 11:39 25.02.2020
1998 Clouds 9 1030 87 10000 1 100 11:19 25.02.2020
1999 Rain 9 1030 87 7000 0.5 100 10:59 25.02.2020
2000 Rain 9 1030 87 7000 0.5 100 10:40 25.02.2020
2001 Rain 9 1030 87 7000 0.5 100 10:22 25.02.2020
2002 Rain 9 1030 87 7000 1.5 110 09:42 25.02.2020
2003 Rain 9 1030 87 7000 1.5 110 09:22 25.02.2020
2004 Rain 9 1030 81 10000 0.5 310 08:55 25.02.2020
2005 Rain 11 1030 81 10000 0.5 310 08:37 25.02.2020
2006 Rain 9 1030 81 10000 0.5 310 08:19 25.02.2020
2007 Rain 9 1031 81 5000 1 290 07:40 25.02.2020
2008 Rain 9 1031 81 5000 1 290 07:20 25.02.2020
2009 Rain 9 1033 81 5000 1.5 100 06:37 25.02.2020
2010 Rain 9 1032 81 10000 1 260 05:37 25.02.2020
2011 Rain 10 1030 71 10000 1 170 03:35 25.02.2020
2012 Clouds 13 1028 66 10000 1 0 01:36 25.02.2020
2013 Rain 10 1027 66 10000 2.1 110 00:48 25.02.2020
2014 Rain 11 1027 58 10000 2.1 150 00:29 25.02.2020
2015 Rain 11 1027 58 10000 3.6 120 23:43 24.02.2020
2016 Clouds 15 1027 58 10000 5.7 110 23:21 24.02.2020
2017 Clouds 16 1026 51 10000 3.1 360 22:43 24.02.2020
2018 Clouds 16 1027 51 10000 3.1 360 22:21 24.02.2020
2019 Rain 17 1027 48 10000 5.1 20 21:57 24.02.2020
2020 Rain 17 1027 48 10000 5.1 20 21:57 24.02.2020
2021 Rain 19 1027 45 10000 4.1 320 21:39 24.02.2020
2022 Rain 19 1027 45 10000 4.1 320 21:20 24.02.2020
2023 Clouds 19 1026 48 10000 3.6 280 20:58 24.02.2020
2024 Clouds 22 1027 33 10000 2.1 0 20:40 24.02.2020
2025 Clouds 22 1027 33 10000 2.1 0 20:19 24.02.2020
2026 Clouds 21 1028 37 10000 1.5 0 19:57 24.02.2020
2027 Clouds 21 1029 43 10000 1.5 310 19:39 24.02.2020
2028 Clouds 21 1029 43 10000 1.5 310 19:20 24.02.2020
2029 Clouds 20 1030 40 10000 1.5 0 18:55 24.02.2020
2030 Clouds 19 1031 48 10000 1 340 18:37 24.02.2020
2031 Clouds 19 1031 48 10000 1 340 18:18 24.02.2020
2032 Clouds 17 1032 51 10000 2.1 330 17:40 24.02.2020
2033 Clouds 17 1032 51 10000 2.1 330 17:20 24.02.2020
2034 Clouds 17 1032 51 10000 2.1 330 17:20 24.02.2020
2035 Clouds 17 1033 59 10000 2.1 320 16:58 24.02.2020
2036 Clouds 15 1033 62 10000 1 90 16:39 24.02.2020
2037 Clouds 15 1033 62 10000 1 90 16:20 24.02.2020
2038 Clouds 15 1034 62 10000 1.5 90 15:58 24.02.2020
2039 Clouds 14 1034 67 10000 1 0 15:40 24.02.2020
2040 Clouds 14 1034 67 10000 1 0 15:21 24.02.2020
2041 Clouds 12 1034 71 10000 0.5 0 14:58 24.02.2020
2042 Clouds 12 1034 71 10000 0.5 0 14:58 24.02.2020
2043 Clouds 11 1033 81 10000 1.5 100 14:39 24.02.2020
2044 Clouds 8 1033 81 10000 1.5 100 14:19 24.02.2020
2045 Rain 8 1033 87 10000 1 100 13:56 24.02.2020
2046 Drizzle 7 1033 87 8000 2.28 213 13:36 24.02.2020
2047 Drizzle 7 1033 87 8000 2.32 212 13:18 24.02.2020
2048 Rain 8 1033 81 6000 2.32 212 12:54 24.02.2020
2049 Rain 8 1032 81 8000 2.32 212 12:36 24.02.2020
2050 Rain 8 1032 81 8000 2.32 212 12:18 24.02.2020
2051 Rain 8 1031 87 8000 2.32 212 11:41 24.02.2020
2052 Rain 8 1031 87 8000 2.32 212 11:23 24.02.2020
2053 Rain 7 1031 81 8000 1.47 234 10:43 24.02.2020
2054 Rain 8 1031 81 8000 1.47 234 10:24 24.02.2020
2055 Rain 8 1031 81 9000 1.5 260 09:41 24.02.2020
2056 Rain 8 1031 81 9000 1.5 260 09:19 24.02.2020
2057 Drizzle 8 1032 81 9000 1.5 290 08:53 24.02.2020
2058 Drizzle 8 1032 81 9000 1.5 290 08:30 24.02.2020
2059 Rain 8 1033 87 8000 1.5 280 07:59 24.02.2020
2060 Rain 8 1033 87 8000 1.5 280 07:40 24.02.2020
2061 Rain 8 1033 87 8000 1.5 280 07:22 24.02.2020
2062 Rain 9 1033 81 7000 0.8 298 06:33 24.02.2020
2063 Drizzle 10 1033 58 9000 4.1 190 05:47 24.02.2020
2064 Drizzle 11 1033 58 9000 4.1 190 05:27 24.02.2020
2065 Clouds 11 1031 58 10000 1.5 100 03:18 24.02.2020
2066 Clouds 11 1030 58 10000 2.6 100 02:45 24.02.2020
2067 Clouds 12 1029 55 10000 2.6 20 01:40 24.02.2020
2068 Clouds 13 1028 55 10000 3.6 20 00:51 24.02.2020
2069 Clouds 14 1027 48 10000 3.6 330 00:21 24.02.2020
2070 Clouds 14 1027 45 10000 3.6 330 23:58 23.02.2020
2071 Clouds 15 1026 48 10000 4.1 290 23:38 23.02.2020
2072 Clouds 15 1026 48 10000 4.1 290 23:18 23.02.2020
2073 Rain 16 1026 40 10000 4.6 360 22:43 23.02.2020
2074 Rain 21 1027 35 10000 4.1 10 22:22 23.02.2020
2075 Rain 17 1027 35 10000 4.1 10 21:57 23.02.2020
2076 Clouds 16 1027 40 10000 1.5 0 21:39 23.02.2020
2077 Clouds 21 1027 40 10000 1.5 0 21:19 23.02.2020
2078 Clouds 21 1028 43 10000 1 0 20:55 23.02.2020
2079 Clouds 20 1028 42 10000 1.5 0 20:37 23.02.2020
2080 Clouds 20 1028 42 10000 1.5 0 20:18 23.02.2020
2081 Clouds 21 1029 35 10000 2.1 0 19:54 23.02.2020
2082 Rain 20 1030 37 10000 3.1 0 19:36 23.02.2020
2083 Rain 20 1030 37 10000 3.1 0 19:36 23.02.2020
2084 Rain 20 1030 37 10000 3.1 0 19:18 23.02.2020
2085 Rain 20 1030 37 10000 3.1 0 19:18 23.02.2020
2086 Clouds 18 1032 42 10000 1 100 18:41 23.02.2020
2087 Clouds 18 1032 42 10000 1 100 18:21 23.02.2020
2088 Clouds 18 1032 42 10000 1.5 360 17:58 23.02.2020
2089 Clouds 17 1033 51 10000 1.5 90 17:40 23.02.2020
2090 Clouds 17 1033 51 10000 1.5 90 17:21 23.02.2020
2091 Clouds 17 1033 51 10000 1.5 90 17:21 23.02.2020
2092 Clouds 17 1033 48 10000 1.5 80 16:57 23.02.2020
2093 Clouds 16 1033 51 10000 1 40 16:38 23.02.2020
2094 Clouds 16 1033 51 10000 1 40 16:20 23.02.2020
2095 Clouds 16 1034 55 10000 1 80 15:54 23.02.2020
2096 Clouds 15 1034 62 10000 1 330 15:36 23.02.2020
2097 Clouds 15 1034 62 10000 1 330 15:18 23.02.2020
2098 Clouds 14 1034 67 10000 1.5 330 14:55 23.02.2020
2099 Clouds 13 1034 66 10000 1 280 14:37 23.02.2020
2100 Clouds 13 1034 66 10000 1 280 14:37 23.02.2020
2101 Clouds 13 1034 66 10000 1 280 14:18 23.02.2020
2102 Clouds 14 1034 67 10000 1.23 227 13:54 23.02.2020
2103 Clouds 11 1033 81 10000 1 90 13:36 23.02.2020
2104 Clouds 11 1033 81 10000 1 90 13:18 23.02.2020
2105 Clouds 9 1033 87 10000 1.5 290 12:40 23.02.2020
2106 Clouds 9 1033 87 10000 1.5 290 12:20 23.02.2020
2107 Clouds 10 1032 81 10000 2.6 110 11:39 23.02.2020
2108 Clouds 10 1032 81 10000 2.6 110 11:20 23.02.2020
2109 Clouds 11 1032 76 10000 1.5 260 10:58 23.02.2020
2110 Clouds 11 1032 76 10000 1.5 260 10:40 23.02.2020
2111 Clouds 11 1032 76 10000 1.5 260 10:22 23.02.2020
2112 Clouds 12 1034 71 10000 0.76 270 09:56 23.02.2020
2113 Clouds 12 1034 71 10000 0.76 270 09:38 23.02.2020
2114 Clouds 12 1034 71 10000 0.76 270 09:18 23.02.2020
2115 Clouds 12 1034 71 10000 0.76 270 09:18 23.02.2020
2116 Rain 11 1032 76 10000 0.5 0 08:45 23.02.2020
2117 Rain 11 1032 76 10000 0.5 0 08:25 23.02.2020
2118 Clouds 12 1033 71 10000 2.1 110 07:45 23.02.2020
2119 Clouds 12 1033 71 10000 2.1 110 07:27 23.02.2020
2120 Clouds 12 1033 71 10000 2.1 110 06:24 23.02.2020
2121 Clouds 13 1034 62 10000 1.5 100 05:19 23.02.2020
2122 Clouds 13 1034 62 10000 2.6 110 04:23 23.02.2020
2123 Clouds 14 1032 50 10000 0.5 0 02:49 23.02.2020
2124 Clouds 15 1031 51 10000 3.1 20 01:39 23.02.2020
2125 Clouds 15 1031 51 10000 3.1 20 01:20 23.02.2020
2126 Clouds 15 1031 47 10000 3.1 20 00:43 23.02.2020
2127 Clouds 15 1030 51 10000 3.1 350 00:20 23.02.2020
2128 Clouds 15 1030 51 10000 2.6 350 23:43 22.02.2020
2129 Clouds 15 1030 51 10000 2.6 350 23:43 22.02.2020
2130 Clouds 16 1029 48 10000 3.1 10 23:22 22.02.2020
2131 Clouds 17 1029 48 10000 5.1 10 22:45 22.02.2020
2132 Clouds 18 1029 45 10000 4.6 20 22:20 22.02.2020
2133 Clouds 18 1029 48 10000 4.6 40 21:46 22.02.2020
2134 Clouds 19 1029 45 10000 3.1 0 21:28 22.02.2020
2135 Clouds 18 1029 45 10000 5.7 40 20:59 22.02.2020
2136 Clouds 18 1030 48 10000 3.6 10 20:40 22.02.2020
2137 Clouds 18 1030 48 10000 3.6 10 20:21 22.02.2020
2138 Clouds 17 1030 48 10000 4.6 360 19:43 22.02.2020
2139 Clouds 17 1031 55 10000 3.6 50 19:43 22.02.2020
2140 Clouds 17 1031 55 10000 3.6 50 19:24 22.02.2020
2141 Clouds 17 1032 51 10000 2.6 0 18:57 22.02.2020
2142 Clouds 17 1033 48 10000 1 150 18:38 22.02.2020
2143 Clouds 17 1033 48 10000 1 150 18:19 22.02.2020
2144 Clouds 16 1033 55 10000 2.47 346 17:54 22.02.2020
2145 Clouds 15 1034 58 10000 1 340 17:36 22.02.2020
2146 Clouds 15 1034 58 10000 1 340 17:18 22.02.2020
2147 Clouds 14 1034 58 10000 1.16 275 16:40 22.02.2020
2148 Clouds 14 1034 58 10000 1.16 275 16:20 22.02.2020
2149 Clouds 14 1034 58 10000 1.16 275 15:57 22.02.2020
2150 Clouds 13 1034 62 10000 1 50 15:39 22.02.2020
2151 Clouds 13 1034 62 10000 1 50 15:21 22.02.2020
2152 Clouds 13 1034 66 10000 1.5 120 14:42 22.02.2020
2153 Mist 12 1034 71 10000 1 130 14:22 22.02.2020
2154 Mist 12 1034 66 10000 0.59 256 13:44 22.02.2020
2155 Clouds 11 1033 76 10000 0.59 256 13:20 22.02.2020
2156 Clouds 10 1033 81 10000 0.95 233 12:59 22.02.2020
2157 Mist 10 1033 81 10000 1 0 12:40 22.02.2020
2158 Mist 10 1033 81 10000 1 0 12:21 22.02.2020
2159 Mist 10 1032 87 10000 1 90 11:44 22.02.2020
2160 Mist 10 1032 81 10000 1 120 11:26 22.02.2020
2161 Mist 10 1031 87 10000 0.86 235 10:56 22.02.2020
2162 Mist 10 1031 87 10000 0.86 235 10:37 22.02.2020
2163 Mist 10 1031 87 10000 0.86 235 10:18 22.02.2020
2164 Mist 10 1032 87 10000 1 90 09:55 22.02.2020
2165 Mist 10 1032 87 10000 1 90 09:37 22.02.2020
2166 Mist 10 1032 87 10000 1 90 09:18 22.02.2020
2167 Mist 10 1032 87 10000 0.86 235 08:44 22.02.2020
2168 Mist 10 1032 87 10000 0.86 235 08:25 22.02.2020
2169 Drizzle 10 1033 87 10000 0.5 0 07:43 22.02.2020
2170 Drizzle 10 1033 87 10000 0.5 0 07:18 22.02.2020
2171 Drizzle 10 1033 87 10000 0.5 0 06:45 22.02.2020
2172 Rain 11 1034 81 9000 0.89 65 04:54 22.02.2020
2173 Rain 11 1034 81 9000 0.89 65 04:28 22.02.2020
2174 Rain 11 1032 87 9000 1 0 02:43 22.02.2020
2175 Drizzle 11 1032 81 9000 0.5 0 01:53 22.02.2020
2176 Drizzle 12 1031 76 10000 2.1 110 01:30 22.02.2020
2177 Clouds 12 1031 76 10000 2.6 100 00:58 22.02.2020
2178 Clouds 13 1030 66 10000 2.1 110 00:36 22.02.2020
2179 Clouds 13 1030 66 10000 2.1 110 00:18 22.02.2020
2180 Clouds 8 1030 67 10000 2.6 100 23:38 21.02.2020
2181 Clouds 14 1030 67 10000 2.6 100 23:20 21.02.2020
2182 Clouds 14 1029 67 10000 2.6 90 22:42 21.02.2020
2183 Clouds 14 1030 67 10000 2.41 149 22:24 21.02.2020
2184 Clouds 13 1030 71 10000 2.41 149 21:56 21.02.2020
2185 Drizzle 12 1031 76 8000 1 140 21:37 21.02.2020
2186 Drizzle 12 1031 76 8000 1 140 21:19 21.02.2020
2187 Rain 12 1031 81 8000 3.1 110 20:46 21.02.2020
2188 Rain 12 1032 71 9000 3.1 280 20:27 21.02.2020
2189 Rain 12 1032 71 9000 3.1 280 20:27 21.02.2020
2190 Rain 12 1032 76 9000 2.1 270 19:41 21.02.2020
2191 Rain 12 1032 76 9000 2.1 270 19:23 21.02.2020
2192 Rain 12 1033 71 9000 1.5 260 18:45 21.02.2020
2193 Rain 12 1033 71 8000 2.1 260 18:24 21.02.2020
2194 Rain 12 1033 71 8000 2.1 260 17:59 21.02.2020
2195 Rain 11 1033 81 5000 3.12 155 17:39 21.02.2020
2196 Rain 11 1033 81 5000 1.66 206 17:20 21.02.2020
2197 Rain 11 1033 81 5000 1.66 206 16:56 21.02.2020
2198 Rain 11 1033 81 5000 1.66 206 16:56 21.02.2020
2199 Rain 11 1033 87 5000 1.66 206 16:38 21.02.2020
2200 Rain 11 1033 87 5000 1.66 206 16:20 21.02.2020
2201 Rain 11 1033 76 5000 1.66 206 15:44 21.02.2020
2202 Rain 10 1033 87 5000 1.66 206 15:19 21.02.2020
2203 Rain 10 1033 87 5000 1.66 206 14:55 21.02.2020
2204 Rain 10 1032 87 5000 2.1 100 14:37 21.02.2020
2205 Rain 10 1032 87 5000 2.1 100 14:18 21.02.2020
2206 Rain 11 1032 81 8000 2.1 120 13:42 21.02.2020
2207 Drizzle 11 1031 81 8000 1 110 13:21 21.02.2020
2208 Drizzle 10 1031 87 9000 1 110 12:47 21.02.2020
2209 Drizzle 10 1030 87 9000 1.5 100 12:27 21.02.2020
2210 Rain 10 1030 87 9000 2.1 90 11:59 21.02.2020
2211 Clouds 10 1030 87 10000 1.5 90 11:38 21.02.2020
2212 Clouds 10 1030 87 10000 1.5 90 11:20 21.02.2020
2213 Rain 10 1029 87 10000 1.5 90 10:55 21.02.2020
2214 Rain 10 1029 87 10000 1.5 90 10:36 21.02.2020
2215 Rain 10 1029 87 10000 1.5 90 10:18 21.02.2020
2216 Clouds 11 1030 81 10000 2.6 100 09:42 21.02.2020
2217 Clouds 11 1030 81 10000 2.6 100 09:23 21.02.2020
2218 Clouds 11 1030 76 10000 1 90 08:56 21.02.2020
2219 Clouds 11 1030 76 10000 1 90 08:37 21.02.2020
2220 Clouds 11 1030 76 10000 1 90 08:19 21.02.2020
2221 Clouds 12 1030 71 10000 1 170 07:55 21.02.2020
2222 Clouds 12 1030 71 10000 1 170 07:36 21.02.2020
2223 Clouds 11 1031 76 10000 0.71 355 07:18 21.02.2020
2224 Clouds 11 1031 76 10000 0.71 355 06:39 21.02.2020
2225 Clouds 11 1031 76 10000 0.71 355 06:21 21.02.2020
2226 Clouds 12 1031 71 10000 1 210 05:35 21.02.2020
2227 Clouds 12 1032 71 10000 1 160 04:26 21.02.2020
2228 Clouds 11 1031 76 10000 1.5 90 03:52 21.02.2020
2229 Clouds 12 1030 66 10000 1.5 290 03:19 21.02.2020
2230 Clouds 13 1029 62 10000 1.5 340 01:45 21.02.2020
2231 Clouds 13 1029 62 10000 1.5 340 01:23 21.02.2020
2232 Clouds 15 1028 54 10000 3.6 300 00:39 21.02.2020
2233 Clouds 15 1028 54 10000 3.6 300 00:20 21.02.2020
2234 Clouds 16 1027 44 10000 5.7 350 23:42 20.02.2020
2235 Clouds 16 1027 44 10000 5.7 350 23:22 20.02.2020
2236 Rain 16 1027 44 10000 3.6 350 22:42 20.02.2020
2237 Clouds 16 1027 44 10000 3.1 20 22:24 20.02.2020
2238 Rain 18 1028 45 10000 3.1 10 21:58 20.02.2020
2239 Clouds 18 1029 45 10000 5.7 10 21:40 20.02.2020
2240 Rain 17 1029 45 10000 4.1 30 21:20 20.02.2020
2241 Rain 17 1029 45 10000 4.1 30 20:57 20.02.2020
2242 Clouds 17 1029 42 0 5.7 20 20:39 20.02.2020
2243 Clouds 17 1029 42 0 5.7 20 20:20 20.02.2020
2244 Rain 16 1030 48 10000 3.1 360 19:59 20.02.2020
2245 Rain 16 1030 48 10000 3.1 360 19:41 20.02.2020
2246 Rain 17 1030 45 10000 3.1 20 19:23 20.02.2020
2247 Rain 18 1030 42 10000 2.95 289 18:58 20.02.2020
2248 Clouds 19 1031 52 10000 1.5 0 18:37 20.02.2020
2249 Clouds 19 1031 52 10000 1.5 0 18:19 20.02.2020
2250 Clouds 17 1032 48 10000 1 0 17:39 20.02.2020
2251 Clouds 17 1032 55 10000 2.6 290 17:20 20.02.2020
2252 Clouds 17 1032 55 10000 2.6 290 16:58 20.02.2020
2253 Clouds 16 1033 55 10000 1 0 16:39 20.02.2020
2254 Clouds 16 1033 55 10000 1 0 16:19 20.02.2020
2255 Clouds 16 1033 55 10000 2.1 80 15:56 20.02.2020
2256 Clouds 14 1033 58 10000 1 0 15:37 20.02.2020
2257 Clouds 14 1033 58 10000 1 0 15:19 20.02.2020
2258 Clouds 13 1033 62 10000 1 0 14:44 20.02.2020
2259 Clouds 12 1033 66 10000 2.1 260 14:25 20.02.2020
2260 Clouds 12 1033 71 10000 0.5 0 13:59 20.02.2020
2261 Clouds 12 1033 71 10000 0.5 0 13:41 20.02.2020
2262 Clouds 11 1032 76 10000 1.54 291 13:19 20.02.2020
2263 Clouds 11 1032 76 10000 1.54 291 12:43 20.02.2020
2264 Clouds 10 1032 81 10000 1 240 12:21 20.02.2020
2265 Clouds 10 1031 81 10000 1.5 350 11:59 20.02.2020
2266 Clouds 10 1031 81 10000 1.5 350 11:41 20.02.2020
2267 Clouds 7 1031 81 10000 1.5 350 11:22 20.02.2020
2268 Drizzle 8 1030 71 10000 1.5 100 10:57 20.02.2020
2269 Drizzle 8 1030 71 10000 1.5 100 10:38 20.02.2020
2270 Drizzle 9 1030 71 10000 1.5 100 10:20 20.02.2020
2271 Clouds 8 1030 76 10000 1.5 90 09:42 20.02.2020
2272 Clouds 8 1030 76 10000 1.5 90 09:23 20.02.2020
2273 Clouds 11 1031 76 10000 2.6 100 08:57 20.02.2020
2274 Clouds 11 1031 76 10000 2.6 100 08:57 20.02.2020
2275 Clouds 11 1031 76 10000 2.6 100 08:37 20.02.2020
2276 Clouds 13 1031 71 10000 2.6 90 08:19 20.02.2020
2277 Clouds 13 1031 71 10000 2.6 90 07:44 20.02.2020
2278 Clouds 13 1031 71 10000 2.6 90 07:20 20.02.2020
2279 Clouds 13 1031 71 10000 2.1 100 06:44 20.02.2020
2280 Clouds 14 1032 62 10000 4.1 280 06:20 20.02.2020
2281 Clouds 14 1032 62 10000 4.1 280 05:43 20.02.2020
2282 Clouds 14 1032 62 10000 2.6 300 04:50 20.02.2020
2283 Clouds 14 1031 62 10000 3.6 280 03:47 20.02.2020
2284 Clouds 14 1030 62 10000 2.6 290 02:59 20.02.2020
2285 Clouds 16 1028 55 10000 6.7 280 01:34 20.02.2020
2286 Clouds 16 1028 55 10000 6.2 290 00:54 20.02.2020
2287 Clouds 17 1027 48 10000 6.2 280 00:25 20.02.2020
2288 Clouds 18 1027 45 10000 6.7 290 23:49 19.02.2020
2289 Clouds 19 1026 42 10000 7.7 280 23:22 19.02.2020
2290 Clouds 19 1026 39 10000 8.2 290 22:44 19.02.2020
2291 Clouds 21 1027 35 10000 2.6 0 22:25 19.02.2020
2292 Clouds 18 1028 42 10000 6.2 20 21:59 19.02.2020
2293 Clouds 18 1028 42 10000 6.2 20 21:40 19.02.2020
2294 Clouds 18 1028 42 10000 6.2 20 21:19 19.02.2020
2295 Clouds 18 1028 42 10000 6.2 20 20:58 19.02.2020
2296 Clouds 20 1029 40 10000 4.6 10 20:39 19.02.2020
2297 Clouds 20 1029 40 10000 4.6 10 20:20 19.02.2020
2298 Clouds 20 1029 40 10000 4.6 10 20:20 19.02.2020
2299 Clouds 20 1029 40 10000 4.6 10 20:20 19.02.2020
2300 Clouds 20 1029 40 10000 2.1 0 19:58 19.02.2020
2301 Clouds 19 1030 34 10000 5.1 30 19:38 19.02.2020
2302 Clouds 19 1030 34 10000 5.1 30 19:19 19.02.2020
2303 Clouds 20 1030 37 10000 3.6 20 18:58 19.02.2020
2304 Clouds 19 1032 37 10000 2.1 110 18:40 19.02.2020
2305 Clouds 19 1032 37 10000 2.1 110 18:21 19.02.2020
2306 Rain 20 1032 40 10000 2.1 110 17:55 19.02.2020
2307 Clouds 19 1033 45 10000 2.1 80 17:37 19.02.2020
2308 Clouds 19 1033 45 10000 2.1 80 17:18 19.02.2020
2309 Clouds 17 1034 48 10000 2.1 100 16:41 19.02.2020
2310 Clouds 17 1034 48 10000 2.1 100 16:18 19.02.2020
2311 Clouds 17 1034 48 10000 2.1 100 16:18 19.02.2020
2312 Clouds 17 1034 55 10000 1 80 15:54 19.02.2020
2313 Clouds 16 1034 63 10000 1 0 15:36 19.02.2020
2314 Clouds 16 1034 63 10000 1 0 15:36 19.02.2020
2315 Clouds 16 1034 63 10000 1 0 15:18 19.02.2020
2316 Clouds 13 1034 71 10000 0.24 75 14:40 19.02.2020
2317 Clouds 13 1034 71 10000 0.24 75 14:22 19.02.2020
2318 Clouds 10 1033 81 10000 1.5 290 13:43 19.02.2020
2319 Clouds 10 1033 81 10000 1.5 290 13:23 19.02.2020
2320 Clouds 9 1033 87 10000 0.98 158 12:58 19.02.2020
2321 Mist 7 1033 87 10000 1.5 90 12:37 19.02.2020
2322 Mist 7 1033 87 10000 1.5 90 12:18 19.02.2020
2323 Mist 7 1032 87 10000 1 360 11:39 19.02.2020
2324 Mist 7 1032 87 10000 1 360 11:20 19.02.2020
2325 Clouds 8 1032 87 10000 0.42 255 10:59 19.02.2020
2326 Clouds 8 1032 87 10000 0.42 255 10:38 19.02.2020
2327 Clouds 8 1032 87 10000 0.42 255 10:20 19.02.2020
2328 Clouds 9 1031 81 10000 1.5 100 09:59 19.02.2020
2329 Clouds 9 1031 81 10000 1.5 100 09:39 19.02.2020
2330 Clouds 9 1031 81 10000 1.5 100 09:39 19.02.2020
2331 Clouds 9 1031 81 10000 1.5 100 09:20 19.02.2020
2332 Clouds 9 1032 87 10000 0.42 255 08:48 19.02.2020
2333 Clouds 9 1032 87 10000 0.44 247 08:24 19.02.2020
2334 Clouds 9 1032 87 10000 1 110 07:54 19.02.2020
2335 Clouds 9 1032 87 10000 1 110 07:36 19.02.2020
2336 Clouds 9 1032 87 10000 1 110 07:18 19.02.2020
2337 Clouds 9 1033 87 10000 0.77 323 06:36 19.02.2020
2338 Rain 9 1033 81 10000 1 130 04:59 19.02.2020
2339 Clouds 10 1032 81 10000 1 90 03:52 19.02.2020
2340 Rain 11 1031 76 10000 2.1 290 02:35 19.02.2020
2341 Rain 12 1030 71 10000 1.5 120 01:38 19.02.2020
2342 Rain 12 1030 71 10000 1.5 120 01:20 19.02.2020
2343 Clouds 13 1029 62 10000 2.11 335 00:39 19.02.2020
2344 Clouds 13 1029 58 10000 2.11 335 23:59 18.02.2020
2345 Clouds 13 1029 58 10000 1 90 23:39 18.02.2020
2346 Clouds 13 1029 58 10000 1 90 23:19 18.02.2020
2347 Clouds 13 1029 58 10000 1 90 23:19 18.02.2020
2348 Clouds 13 1029 58 10000 1 90 23:19 18.02.2020
2349 Clouds 13 1029 58 10000 2.1 190 23:19 18.02.2020
2350 Clouds 13 1029 58 10000 2.1 190 22:55 18.02.2020
2351 Clouds 13 1029 67 10000 3.1 120 22:36 18.02.2020
2352 Rain 13 1029 67 10000 3.1 120 22:18 18.02.2020
2353 Drizzle 13 1030 67 10000 4.6 110 21:38 18.02.2020
2354 Drizzle 13 1030 67 10000 4.6 110 21:38 18.02.2020
2355 Drizzle 13 1030 67 10000 4.6 110 21:20 18.02.2020
2356 Drizzle 13 1030 58 10000 5.7 110 21:00 18.02.2020
2357 Rain 14 1030 55 10000 5.1 290 20:40 18.02.2020
2358 Rain 14 1030 55 10000 5.1 290 20:22 18.02.2020
2359 Rain 14 1030 45 10000 2.1 120 19:58 18.02.2020
2360 Rain 14 1030 59 10000 4.6 80 19:40 18.02.2020
2361 Rain 14 1030 59 10000 4.6 80 19:19 18.02.2020
2362 Rain 15 1031 48 10000 4.6 30 18:42 18.02.2020
2363 Rain 16 1032 42 10000 1 110 18:21 18.02.2020
2364 Rain 15 1032 48 10000 1 0 17:58 18.02.2020
2365 Rain 14 1033 45 10000 3.1 30 17:40 18.02.2020
2366 Rain 14 1033 45 10000 3.1 30 17:19 18.02.2020
2367 Rain 13 1034 58 10000 2.1 90 16:40 18.02.2020
2368 Rain 13 1034 58 10000 2.1 90 16:40 18.02.2020
2369 Clouds 12 1034 62 10000 2.6 110 16:21 18.02.2020
2370 Clouds 12 1034 62 10000 2.6 110 15:55 18.02.2020
2371 Clouds 11 1034 71 10000 3.1 90 15:36 18.02.2020
2372 Clouds 11 1034 71 10000 3.1 90 15:18 18.02.2020
2373 Rain 11 1034 71 10000 1.5 110 14:54 18.02.2020
2374 Rain 10 1034 76 10000 1.5 120 14:36 18.02.2020
2375 Rain 10 1034 76 10000 1.5 120 14:18 18.02.2020
2376 Rain 9 1034 81 10000 2.1 100 13:41 18.02.2020
2377 Rain 9 1034 81 10000 2.1 100 13:21 18.02.2020
2378 Rain 9 1033 81 10000 0.36 300 12:47 18.02.2020
2379 Rain 9 1033 81 10000 0.36 300 12:29 18.02.2020
2380 Clouds 10 1032 76 10000 2.6 280 11:59 18.02.2020
2381 Clouds 10 1032 76 10000 2.6 280 11:59 18.02.2020
2382 Clouds 10 1032 71 10000 4.1 290 11:41 18.02.2020
2383 Clouds 10 1032 71 10000 4.1 290 11:22 18.02.2020
2384 Clouds 8 1031 76 10000 4.6 300 10:44 18.02.2020
2385 Clouds 8 1031 76 10000 4.6 300 10:24 18.02.2020
2386 Rain 8 1031 76 10000 1.5 250 09:57 18.02.2020
2387 Rain 9 1031 76 10000 1.5 250 09:39 18.02.2020
2388 Rain 8 1031 76 10000 1.5 250 09:39 18.02.2020
2389 Rain 9 1031 76 10000 1.5 250 09:39 18.02.2020
2390 Rain 8 1031 76 10000 1.5 250 09:20 18.02.2020
2391 Rain 8 1031 76 10000 1.5 250 09:20 18.02.2020
2392 Rain 8 1032 71 10000 1 260 08:58 18.02.2020
2393 Rain 8 1032 71 10000 1 260 08:39 18.02.2020
2394 Rain 11 1032 71 10000 1 260 08:19 18.02.2020
2395 Clouds 13 1032 66 10000 1.5 120 07:51 18.02.2020
2396 Clouds 13 1032 66 10000 1.5 120 07:26 18.02.2020
2397 Clouds 13 1032 66 10000 1.5 120 06:55 18.02.2020
2398 Clouds 8 1032 66 10000 1.5 120 06:29 18.02.2020
2399 Clouds 8 1032 71 10000 1.5 270 05:49 18.02.2020
2400 Clouds 12 1032 71 10000 1.5 270 05:22 18.02.2020
2401 Clouds 9 1031 66 10000 1.5 100 03:54 18.02.2020
2402 Clouds 10 1031 58 10000 1.5 110 02:58 18.02.2020
2403 Clouds 12 1028 62 10000 1.5 110 01:27 18.02.2020
2404 Clouds 13 1027 55 10000 2.6 90 00:43 18.02.2020
2405 Clouds 15 1027 48 10000 2.1 10 00:18 18.02.2020
2406 Clouds 17 1026 45 10000 2.1 130 23:40 17.02.2020
2407 Clouds 17 1026 45 10000 2.1 130 23:21 17.02.2020
2408 Clouds 18 1026 42 10000 1.5 0 22:58 17.02.2020
2409 Clouds 18 1026 42 10000 1.5 0 22:58 17.02.2020
2410 Clouds 18 1026 39 10000 4.1 10 22:40 17.02.2020
2411 Clouds 18 1026 39 10000 4.1 10 22:19 17.02.2020
2412 Clouds 20 1026 37 10000 3.6 330 21:39 17.02.2020
2413 Clouds 20 1026 37 10000 3.6 330 21:39 17.02.2020
2414 Clouds 20 1026 37 10000 3.6 330 21:19 17.02.2020
2415 Rain 18 1027 40 10000 3.6 10 20:57 17.02.2020
2416 Rain 18 1027 40 10000 3.6 100 20:38 17.02.2020
2417 Rain 18 1027 40 10000 3.6 100 20:19 17.02.2020
2418 Clouds 19 1028 28 10000 1.5 0 19:43 17.02.2020
2419 Clouds 19 1028 28 10000 1.5 0 19:22 17.02.2020
2420 Clouds 18 1029 35 10000 2.6 70 18:58 17.02.2020
2421 Clouds 18 1030 43 10000 2.1 140 18:37 17.02.2020
2422 Clouds 21 1030 43 10000 2.1 140 18:18 17.02.2020
2423 Clouds 21 1031 32 10000 2.6 80 17:54 17.02.2020
2424 Clouds 19 1031 42 10000 1.5 70 17:36 17.02.2020
2425 Clouds 15 1031 42 10000 1.5 70 17:18 17.02.2020
2426 Clouds 15 1031 42 10000 1.5 70 17:18 17.02.2020
2427 Clouds 18 1032 45 10000 2.1 20 16:42 17.02.2020
2428 Clouds 16 1032 51 10000 1 360 16:22 17.02.2020
2429 Clouds 16 1033 51 10000 1.5 90 15:57 17.02.2020
2430 Clouds 14 1033 67 10000 1.5 100 15:39 17.02.2020
2431 Clouds 14 1033 67 10000 1.5 100 15:39 17.02.2020
2432 Clouds 14 1033 67 10000 1.5 100 15:21 17.02.2020
2433 Clouds 13 1033 66 10000 2.1 100 14:44 17.02.2020
2434 Clouds 12 1033 71 10000 1 120 14:25 17.02.2020
2435 Clouds 11 1033 81 10000 1 110 13:58 17.02.2020
2436 Mist 9 1032 87 10000 0.94 110 13:39 17.02.2020
2437 Mist 9 1032 87 10000 0.9 87 13:19 17.02.2020
2438 Clouds 8 1032 87 10000 0.9 87 12:47 17.02.2020
2439 Clouds 8 1032 87 10000 0.9 87 12:47 17.02.2020
2440 Mist 8 1031 87 10000 1 120 12:26 17.02.2020
2441 Mist 8 1031 87 10000 1 110 11:59 17.02.2020
2442 Mist 8 1030 87 10000 1 120 11:40 17.02.2020
2443 Mist 8 1030 87 10000 1 120 11:21 17.02.2020
2444 Clouds 9 1030 81 10000 0.5 90 10:55 17.02.2020
2445 Clouds 9 1030 81 10000 0.5 90 10:37 17.02.2020
2446 Clouds 9 1030 81 10000 0.5 90 10:19 17.02.2020
2447 Clouds 9 1030 81 10000 0.5 0 09:42 17.02.2020
2448 Clouds 9 1030 81 10000 0.5 0 09:23 17.02.2020
2449 Clouds 8 1030 87 10000 0.45 24 08:59 17.02.2020
2450 Clouds 8 1030 87 10000 0.45 24 08:41 17.02.2020
2451 Clouds 8 1030 87 10000 0.58 28 08:21 17.02.2020
2452 Clouds 8 1030 87 10000 1.27 6 07:54 17.02.2020
2453 Clouds 8 1030 87 10000 1.27 6 07:25 17.02.2020
2454 Clouds 9 1031 87 10000 1 110 06:53 17.02.2020
2455 Clouds 9 1031 87 10000 1 110 06:33 17.02.2020
2456 Clouds 6 1032 81 10000 1.5 300 05:59 17.02.2020
2457 Clouds 7 1032 81 10000 1.5 300 05:38 17.02.2020
2458 Clouds 9 1030 76 10000 1 0 03:22 17.02.2020
2459 Rain 10 1029 71 10000 2.1 290 01:59 17.02.2020
2460 Clouds 12 1028 62 10000 1 0 00:51 17.02.2020
2461 Clouds 14 1027 45 10000 1 200 00:22 17.02.2020
2462 Clouds 15 1027 45 10000 1 260 23:54 16.02.2020
2463 Clouds 14 1028 51 10000 3.1 300 23:33 16.02.2020
2464 Clouds 14 1028 55 10000 3.6 290 22:58 16.02.2020
2465 Clouds 14 1028 55 10000 3.6 290 22:58 16.02.2020
2466 Clouds 14 1028 55 10000 5.7 280 22:39 16.02.2020
2467 Clouds 14 1028 55 10000 5.7 280 22:21 16.02.2020
2468 Clouds 14 1029 51 10000 4.6 280 21:59 16.02.2020
2469 Rain 14 1029 51 10000 4.1 270 21:40 16.02.2020
2470 Rain 14 1029 51 10000 4.1 270 21:22 16.02.2020
2471 Rain 14 1029 48 10000 2.6 330 20:58 16.02.2020
2472 Rain 14 1029 48 10000 2.6 330 20:58 16.02.2020
2473 Rain 15 1029 42 10000 6.7 50 20:40 16.02.2020
2474 Rain 19 1029 42 10000 6.7 50 20:21 16.02.2020
2475 Rain 20 1029 42 10000 2.6 30 19:58 16.02.2020
2476 Clouds 19 1030 42 10000 5.7 10 19:39 16.02.2020
2477 Clouds 19 1030 42 10000 5.7 10 19:19 16.02.2020
2478 Clouds 19 1030 45 10000 1.5 130 18:45 16.02.2020
2479 Rain 19 1031 39 10000 2.1 120 18:26 16.02.2020
2480 Clouds 19 1032 39 10000 2.1 70 17:59 16.02.2020
2481 Clouds 18 1032 42 10000 1 230 17:40 16.02.2020
2482 Clouds 18 1032 42 10000 1 230 17:20 16.02.2020
2483 Clouds 17 1032 48 10000 1.5 120 16:56 16.02.2020
2484 Clouds 16 1033 59 10000 1.5 90 16:38 16.02.2020
2485 Clouds 16 1033 59 10000 1.5 90 16:19 16.02.2020
2486 Clouds 15 1033 51 10000 1 50 15:41 16.02.2020
2487 Clouds 15 1033 51 10000 1 50 15:41 16.02.2020
2488 Clouds 15 1034 58 10000 1 80 15:22 16.02.2020
2489 Clouds 13 1034 71 10000 1 90 14:57 16.02.2020
2490 Rain 11 1034 76 8000 1 40 14:38 16.02.2020
2491 Rain 11 1034 76 8000 1 40 14:19 16.02.2020
2492 Rain 10 1034 87 7000 1 90 13:45 16.02.2020
2493 Rain 10 1033 81 6000 2.1 110 13:23 16.02.2020
2494 Mist 10 1033 81 6000 2.6 120 12:42 16.02.2020
2495 Clouds 10 1032 87 8000 2.6 110 12:20 16.02.2020
2496 Rain 10 1032 87 9000 2.6 100 11:59 16.02.2020
2497 Clouds 10 1032 87 10000 2.1 90 11:37 16.02.2020
2498 Clouds 10 1032 87 10000 2.1 90 11:18 16.02.2020
2499 Clouds 10 1031 87 10000 4.1 80 10:56 16.02.2020
2500 Clouds 10 1031 87 10000 4.1 80 10:37 16.02.2020
2501 Clouds 10 1031 87 10000 4.1 80 10:37 16.02.2020
2502 Clouds 10 1031 87 10000 4.1 80 10:19 16.02.2020
2503 Clouds 10 1031 81 10000 0.45 318 09:39 16.02.2020
2504 Clouds 10 1031 81 10000 0.45 318 09:21 16.02.2020
2505 Drizzle 11 1031 76 10000 4.1 280 08:59 16.02.2020
2506 Drizzle 11 1031 76 10000 4.1 280 08:40 16.02.2020
2507 Drizzle 11 1031 76 10000 4.1 280 08:20 16.02.2020
2508 Drizzle 11 1031 76 10000 4.1 280 08:20 16.02.2020
2509 Clouds 12 1031 71 10000 1.5 250 07:44 16.02.2020
2510 Clouds 12 1031 71 10000 1.5 250 07:25 16.02.2020
2511 Clouds 12 1032 76 10000 1 200 06:32 16.02.2020
2512 Clouds 13 1032 66 10000 3.1 90 04:38 16.02.2020
2513 Clouds 14 1031 62 10000 1.5 150 03:24 16.02.2020
2514 Clouds 14 1030 62 10000 1.5 110 02:27 16.02.2020
2515 Clouds 14 1030 62 10000 2.6 100 01:42 16.02.2020
2516 Clouds 15 1029 58 10000 3.1 100 01:21 16.02.2020
2517 Clouds 15 1029 58 10000 4.1 160 00:51 16.02.2020
2518 Clouds 16 1028 59 10000 3.6 110 00:28 16.02.2020
2519 Clouds 17 1027 51 10000 3.1 130 23:46 15.02.2020
2520 Clouds 18 1027 48 10000 2.6 100 23:26 15.02.2020
2521 Clouds 18 1027 45 10000 2.6 60 22:59 15.02.2020
2522 Clouds 19 1028 45 10000 3.1 20 22:41 15.02.2020
2523 Clouds 19 1028 45 10000 3.1 20 22:21 15.02.2020
2524 Clouds 18 1028 52 10000 3.6 30 21:58 15.02.2020
2525 Clouds 19 1029 45 10000 5.1 20 21:39 15.02.2020
2526 Clouds 19 1029 45 10000 5.1 20 21:20 15.02.2020
2527 Rain 19 1029 42 10000 5.1 80 20:39 15.02.2020
2528 Rain 19 1029 42 10000 5.1 80 20:21 15.02.2020
2529 Rain 18 1030 48 10000 5.1 30 19:44 15.02.2020
2530 Clouds 20 1031 52 9000 1 0 19:22 15.02.2020
2531 Clouds 19 1031 48 10000 2.6 80 18:45 15.02.2020
2532 Clouds 19 1032 52 10000 3.1 90 18:25 15.02.2020
2533 Clouds 18 1033 55 10000 1.5 200 17:59 15.02.2020
2534 Clouds 18 1034 55 10000 3.1 100 17:41 15.02.2020
2535 Clouds 18 1034 55 10000 3.1 100 17:22 15.02.2020
2536 Clouds 17 1034 48 10000 1.5 130 16:55 15.02.2020
2537 Clouds 16 1034 59 10000 2.6 80 16:36 15.02.2020
2538 Clouds 16 1034 59 10000 2.6 80 16:18 15.02.2020
2539 Clouds 13 1035 76 10000 1.5 80 15:41 15.02.2020
2540 Clouds 13 1035 76 10000 1.5 80 15:23 15.02.2020
2541 Mist 12 1034 81 10000 0.5 0 14:45 15.02.2020
2542 Drizzle 12 1034 81 10000 1 110 14:21 15.02.2020
2543 Mist 11 1034 81 10000 0.47 143 13:56 15.02.2020
2544 Mist 11 1033 81 9000 1.5 80 13:38 15.02.2020
2545 Mist 11 1033 81 9000 1.5 80 13:20 15.02.2020
2546 Mist 10 1033 87 10000 1.5 110 12:42 15.02.2020
2547 Clouds 10 1033 87 10000 1.5 90 12:24 15.02.2020
2548 Clouds 10 1032 87 10000 0.5 360 11:52 15.02.2020
2549 Clouds 10 1032 87 10000 0.5 100 11:33 15.02.2020
2550 Clouds 10 1031 87 10000 1.5 110 10:58 15.02.2020
2551 Clouds 10 1031 87 10000 1.5 110 10:58 15.02.2020
2552 Clouds 10 1031 87 10000 1.5 110 10:39 15.02.2020
2553 Clouds 10 1031 87 10000 1.5 110 10:39 15.02.2020
2554 Clouds 10 1031 87 10000 1.5 110 10:20 15.02.2020
2555 Rain 10 1031 87 10000 1 130 09:44 15.02.2020
2556 Rain 10 1031 87 10000 1 130 09:25 15.02.2020
2557 Rain 11 1032 81 10000 0.5 90 08:46 15.02.2020
2558 Rain 11 1032 81 10000 0.5 90 08:26 15.02.2020
2559 Clouds 10 1032 87 10000 1.32 343 07:59 15.02.2020
2560 Clouds 10 1032 87 10000 1.32 343 07:59 15.02.2020
2561 Clouds 10 1032 87 10000 1.32 343 07:39 15.02.2020
2562 Clouds 10 1032 87 10000 1.32 343 07:20 15.02.2020
2563 Clouds 9 1032 87 10000 1.32 343 06:37 15.02.2020
2564 Clouds 10 1032 87 10000 1.5 280 05:55 15.02.2020
2565 Clouds 11 1033 81 10000 1.62 8 04:49 15.02.2020
2566 Clouds 11 1033 81 10000 1.62 8 04:21 15.02.2020
2567 Clouds 12 1031 76 10000 0.5 360 02:58 15.02.2020
2568 Clouds 12 1031 76 10000 1 100 02:24 15.02.2020
2569 Rain 15 1030 67 10000 0.5 190 01:45 15.02.2020
2570 Clouds 15 1029 62 10000 1 120 00:58 15.02.2020
2571 Clouds 16 1028 59 10000 1.47 350 00:28 15.02.2020
2572 Clouds 17 1028 48 10000 1 0 23:45 14.02.2020
2573 Clouds 16 1028 63 10000 2.6 270 23:21 14.02.2020
2574 Rain 16 1028 63 10000 3.1 290 22:55 14.02.2020
2575 Rain 17 1029 51 10000 3.1 290 22:36 14.02.2020
2576 Rain 17 1029 51 10000 3.1 290 22:18 14.02.2020
2577 Clouds 14 1029 71 10000 3.1 100 21:41 14.02.2020
2578 Clouds 14 1029 71 10000 3.1 100 21:23 14.02.2020
2579 Rain 15 1030 62 10000 3.6 90 20:44 14.02.2020
2580 Rain 17 1030 59 10000 3.1 0 20:20 14.02.2020
2581 Clouds 16 1030 59 10000 4.1 110 19:58 14.02.2020
2582 Drizzle 14 1031 67 10000 1 0 19:40 14.02.2020
2583 Drizzle 14 1031 67 10000 1 0 19:40 14.02.2020
2584 Drizzle 14 1031 67 10000 1 0 19:20 14.02.2020
2585 Rain 13 1032 71 9000 4.1 340 18:56 14.02.2020
2586 Rain 18 1032 42 10000 1.5 110 18:38 14.02.2020
2587 Rain 18 1032 42 10000 1.5 110 18:19 14.02.2020
2588 Rain 17 1032 55 10000 1 0 17:42 14.02.2020
2589 Clouds 18 1033 48 10000 1 0 17:21 14.02.2020
2590 Clouds 17 1033 55 10000 1 0 16:58 14.02.2020
2591 Clouds 15 1034 54 10000 1 80 16:39 14.02.2020
2592 Clouds 15 1034 54 10000 1 80 16:21 14.02.2020
2593 Clouds 14 1034 62 10000 1 0 15:56 14.02.2020
2594 Clouds 14 1034 62 10000 0.82 350 15:37 14.02.2020
2595 Clouds 14 1034 62 10000 0.82 350 15:37 14.02.2020
2596 Clouds 14 1034 62 10000 0.82 350 15:37 14.02.2020
2597 Clouds 14 1034 62 10000 0.82 350 15:37 14.02.2020
2598 Clouds 14 1034 62 10000 0.82 350 15:19 14.02.2020
2599 Clouds 13 1034 66 10000 1 0 14:57 14.02.2020
2600 Clouds 12 1034 71 10000 0.82 350 14:38 14.02.2020
2601 Clouds 12 1034 71 10000 1.5 67 14:20 14.02.2020
2602 Mist 9 1033 81 10000 1.5 67 13:40 14.02.2020
2603 Mist 9 1033 81 10000 1.5 67 13:21 14.02.2020
2604 Mist 9 1033 81 10000 1.5 80 12:58 14.02.2020
2605 Clouds 9 1032 81 10000 1.78 63 12:40 14.02.2020
2606 Clouds 9 1032 81 10000 1.78 63 12:21 14.02.2020
2607 Clouds 9 1032 81 10000 1 120 11:58 14.02.2020
2608 Clouds 8 1032 87 10000 2.1 90 11:40 14.02.2020
2609 Clouds 8 1032 87 10000 2.1 90 11:20 14.02.2020
2610 Mist 9 1031 87 8000 4.1 110 10:55 14.02.2020
2611 Mist 9 1031 87 8000 4.1 110 10:37 14.02.2020
2612 Mist 9 1031 87 8000 4.1 110 10:19 14.02.2020
2613 Drizzle 9 1031 87 7000 3.1 110 09:40 14.02.2020
2614 Drizzle 9 1031 87 7000 3.1 110 09:20 14.02.2020
2615 Rain 10 1031 81 7000 2.6 110 08:43 14.02.2020
2616 Rain 10 1031 81 7000 2.6 110 08:25 14.02.2020
2617 Rain 11 1032 81 8000 1 90 07:56 14.02.2020
2618 Rain 11 1032 81 8000 1 90 07:38 14.02.2020
2619 Rain 11 1032 81 8000 1 90 07:18 14.02.2020
2620 Rain 12 1031 81 9000 1.5 280 06:29 14.02.2020
2621 Clouds 12 1031 76 10000 1.89 342 05:47 14.02.2020
2622 Clouds 13 1031 71 10000 1.5 120 04:28 14.02.2020
2623 Clouds 8 1030 76 10000 2.6 110 03:29 14.02.2020
2624 Clouds 8 1029 76 10000 2.1 100 02:29 14.02.2020
2625 Rain 13 1029 66 10000 1.5 280 01:25 14.02.2020
2626 Rain 9 1028 76 10000 2.1 290 00:43 14.02.2020
2627 Rain 10 1028 67 10000 3.6 270 00:23 14.02.2020
2628 Drizzle 10 1027 67 10000 2.1 270 23:43 13.02.2020
2629 Rain 14 1027 62 10000 1 290 23:21 13.02.2020
2630 Clouds 13 1027 66 10000 3.1 300 22:44 13.02.2020
2631 Rain 13 1027 71 9000 4.6 290 22:20 13.02.2020
2632 Rain 14 1027 67 9000 6.2 300 21:59 13.02.2020
2633 Rain 17 1027 59 10000 3.6 100 21:40 13.02.2020
2634 Rain 17 1027 59 10000 3.6 100 21:22 13.02.2020
2635 Rain 13 1028 59 10000 5.1 110 20:56 13.02.2020
2636 Rain 12 1028 48 10000 1.5 220 20:38 13.02.2020
2637 Rain 13 1028 48 10000 1.5 220 20:20 13.02.2020
2638 Rain 12 1029 72 10000 5.7 280 19:55 13.02.2020
2639 Rain 13 1030 63 10000 1.5 0 19:36 13.02.2020
2640 Rain 14 1030 63 10000 1.5 0 19:18 13.02.2020
2641 Rain 14 1030 63 10000 1 0 18:42 13.02.2020
2642 Drizzle 12 1031 66 10000 0.5 180 18:23 13.02.2020
2643 Rain 11 1031 76 10000 3.1 270 17:59 13.02.2020
2644 Rain 11 1031 71 10000 6.2 300 17:40 13.02.2020
2645 Rain 11 1031 71 10000 6.2 300 17:40 13.02.2020
2646 Rain 11 1031 71 10000 6.2 300 17:20 13.02.2020
2647 Clouds 14 1031 63 10000 1.5 0 16:58 13.02.2020
2648 Rain 14 1031 55 10000 0.5 0 16:37 13.02.2020
2649 Rain 15 1031 55 10000 0.5 0 16:19 13.02.2020
2650 Rain 14 1032 58 10000 1 50 15:56 13.02.2020
2651 Clouds 14 1032 62 10000 1 120 15:37 13.02.2020
2652 Clouds 14 1032 62 10000 1 120 15:19 13.02.2020
2653 Clouds 13 1032 71 10000 0.5 210 14:55 13.02.2020
2654 Clouds 12 1031 71 10000 0.5 350 14:37 13.02.2020
2655 Clouds 12 1031 71 10000 0.5 350 14:19 13.02.2020
2656 Clouds 12 1031 76 10000 2.1 80 13:42 13.02.2020
2657 Clouds 11 1031 81 10000 1.5 120 13:18 13.02.2020
2658 Clouds 11 1031 81 10000 1 110 12:54 13.02.2020
2659 Clouds 11 1031 81 10000 1 110 12:54 13.02.2020
2660 Clouds 11 1030 81 10000 1.5 100 12:36 13.02.2020
2661 Clouds 11 1030 81 10000 1.5 100 12:18 13.02.2020
2662 Clouds 10 1030 87 10000 4.1 100 11:43 13.02.2020
2663 Clouds 10 1030 87 10000 2.6 100 11:20 13.02.2020
2664 Clouds 10 1030 87 10000 2.6 100 11:20 13.02.2020
2665 Clouds 10 1030 76 10000 4.1 290 10:46 13.02.2020
2666 Clouds 10 1030 76 10000 4.1 290 10:27 13.02.2020
2667 Clouds 11 1030 76 10000 1.54 183 09:51 13.02.2020
2668 Clouds 11 1030 76 10000 1.54 183 09:28 13.02.2020
2669 Clouds 10 1030 76 10000 1 290 08:58 13.02.2020
2670 Clouds 10 1030 76 10000 1 290 08:37 13.02.2020
2671 Clouds 10 1030 76 10000 1 290 08:18 13.02.2020
2672 Clouds 11 1031 81 10000 1 110 07:39 13.02.2020
2673 Clouds 11 1031 81 10000 1 110 07:20 13.02.2020
2674 Rain 11 1031 71 10000 1 110 06:44 13.02.2020
2675 Rain 11 1031 71 10000 1 110 06:19 13.02.2020
2676 Rain 11 1032 81 10000 1.5 110 05:33 13.02.2020
2677 Rain 11 1032 76 10000 1.09 86 04:26 13.02.2020
2678 Rain 10 1031 81 10000 1 270 03:51 13.02.2020
2679 Clouds 10 1031 81 10000 1 270 03:20 13.02.2020
2680 Clouds 10 1031 76 10000 2.1 280 02:50 13.02.2020
2681 Clouds 10 1030 76 10000 1 0 02:19 13.02.2020
2682 Rain 10 1030 76 10000 2.1 290 01:32 13.02.2020
2683 Rain 10 1029 76 10000 2.6 280 00:39 13.02.2020
2684 Rain 10 1029 76 10000 2.6 280 00:21 13.02.2020
2685 Rain 11 1028 71 10000 3.1 280 23:40 12.02.2020
2686 Rain 11 1028 71 10000 3.1 280 23:40 12.02.2020
2687 Rain 13 1028 71 10000 3.1 280 23:21 12.02.2020
2688 Rain 13 1028 66 10000 3.6 260 22:45 12.02.2020
2689 Drizzle 12 1028 58 10000 4.6 300 22:26 12.02.2020
2690 Drizzle 12 1028 58 10000 3.1 320 21:58 12.02.2020
2691 Rain 12 1028 51 10000 3.1 30 21:40 12.02.2020
2692 Rain 12 1028 51 10000 3.1 30 21:19 12.02.2020
2693 Rain 12 1028 51 10000 3.6 30 20:57 12.02.2020
2694 Rain 12 1029 55 10000 3.1 10 20:39 12.02.2020
2695 Clouds 16 1029 55 10000 3.1 10 20:20 12.02.2020
2696 Clouds 17 1029 48 10000 1.5 20 19:55 12.02.2020
2697 Clouds 17 1030 48 10000 2.1 310 19:36 12.02.2020
2698 Clouds 17 1030 48 10000 2.1 310 19:36 12.02.2020
2699 Clouds 17 1030 48 10000 2.1 310 19:18 12.02.2020
2700 Clouds 16 1031 48 10000 2.6 330 18:45 12.02.2020
2701 Clouds 16 1032 51 10000 1.5 280 18:18 12.02.2020
2702 Clouds 15 1033 62 10000 2.1 330 17:43 12.02.2020
2703 Clouds 15 1033 58 10000 1.5 280 17:21 12.02.2020
2704 Clouds 14 1034 54 10000 1.5 260 16:59 12.02.2020
2705 Drizzle 12 1034 62 9000 2.1 270 16:39 12.02.2020
2706 Drizzle 12 1034 62 9000 2.1 270 16:19 12.02.2020
2707 Drizzle 12 1034 66 9000 2.1 300 15:43 12.02.2020
2708 Drizzle 11 1034 76 9000 1.5 300 15:24 12.02.2020
2709 Rain 11 1034 76 9000 1.5 270 14:57 12.02.2020
2710 Rain 8 1034 81 9000 1.5 280 14:39 12.02.2020
2711 Rain 8 1034 81 9000 1.5 280 14:20 12.02.2020
2712 Rain 8 1033 81 8000 1 30 13:57 12.02.2020
2713 Rain 7 1033 87 8000 0.49 249 13:39 12.02.2020
2714 Rain 7 1033 87 8000 0.71 16 13:20 12.02.2020
2715 Rain 7 1033 87 8000 0.71 16 12:57 12.02.2020
2716 Rain 7 1032 87 8000 0.5 0 12:38 12.02.2020
2717 Rain 7 1032 87 8000 0.5 0 12:18 12.02.2020
2718 Rain 7 1032 87 9000 0.71 16 11:57 12.02.2020
2719 Rain 7 1032 87 9000 0.71 16 11:38 12.02.2020
2720 Rain 7 1032 87 9000 1.05 5 11:20 12.02.2020
2721 Rain 7 1032 87 9000 1.5 100 10:55 12.02.2020
2722 Rain 7 1032 87 9000 1.5 100 10:36 12.02.2020
2723 Rain 7 1032 87 9000 1.5 100 10:18 12.02.2020
2724 Rain 7 1032 87 9000 1.5 100 10:18 12.02.2020
2725 Drizzle 8 1032 81 10000 1 0 09:42 12.02.2020
2726 Drizzle 8 1032 81 10000 1 0 09:22 12.02.2020
2727 Clouds 8 1032 76 10000 1.5 270 08:57 12.02.2020
2728 Clouds 8 1032 76 10000 1.5 270 08:37 12.02.2020
2729 Clouds 9 1032 76 10000 1.5 270 08:19 12.02.2020
2730 Drizzle 8 1032 76 10000 3.1 290 07:44 12.02.2020
2731 Drizzle 8 1032 76 10000 3.1 290 07:44 12.02.2020
2732 Drizzle 9 1032 76 10000 3.1 290 07:23 12.02.2020
2733 Drizzle 9 1033 76 10000 4.1 300 06:56 12.02.2020
2734 Drizzle 12 1033 76 10000 4.1 300 06:23 12.02.2020
2735 Rain 9 1033 81 9000 4.1 290 05:38 12.02.2020
2736 Rain 9 1033 81 9000 4.1 290 04:58 12.02.2020
2737 Rain 9 1033 81 9000 4.1 290 04:39 12.02.2020
2738 Rain 10 1032 76 9000 2.6 200 03:33 12.02.2020
2739 Rain 11 1031 62 10000 3.1 140 02:58 12.02.2020
2740 Clouds 11 1030 67 10000 2.1 90 02:30 12.02.2020
2741 Clouds 11 1030 67 10000 2.38 12 01:51 12.02.2020
2742 Clouds 12 1029 58 10000 3.6 340 00:46 12.02.2020
2743 Clouds 13 1029 55 10000 2.1 300 00:26 12.02.2020
2744 Clouds 13 1028 55 10000 4.1 280 23:57 11.02.2020
2745 Clouds 13 1028 55 10000 4.1 280 23:57 11.02.2020
2746 Clouds 13 1028 54 10000 7.2 280 23:39 11.02.2020
2747 Clouds 13 1028 54 10000 7.2 280 23:20 11.02.2020
2748 Clouds 14 1028 55 10000 7.7 280 22:55 11.02.2020
2749 Rain 14 1028 51 10000 7.2 270 22:37 11.02.2020
2750 Rain 15 1028 51 10000 7.2 270 22:18 11.02.2020
2751 Rain 15 1027 48 10000 8.7 280 21:56 11.02.2020
2752 Rain 16 1028 40 10000 3.6 360 21:37 11.02.2020
2753 Rain 16 1028 40 10000 3.6 360 21:18 11.02.2020
2754 Clouds 17 1028 40 10000 3.1 360 20:54 11.02.2020
2755 Clouds 17 1029 37 10000 3.6 360 20:36 11.02.2020
2756 Clouds 17 1029 37 10000 3.6 360 20:18 11.02.2020
2757 Clouds 16 1031 45 10000 2.6 110 19:42 11.02.2020
2758 Clouds 17 1031 45 10000 2.6 110 19:24 11.02.2020
2759 Clouds 16 1032 42 10000 3.6 120 18:56 11.02.2020
2760 Clouds 15 1032 55 10000 2.6 110 18:37 11.02.2020
2761 Clouds 16 1032 55 10000 2.6 110 18:19 11.02.2020
2762 Clouds 15 1033 45 10000 0.5 0 17:55 11.02.2020
2763 Clouds 14 1034 59 10000 3.1 90 17:36 11.02.2020
2764 Clouds 15 1034 59 10000 3.1 90 17:18 11.02.2020
2765 Rain 15 1034 59 10000 3.1 90 16:56 11.02.2020
2766 Rain 13 1034 51 10000 2.6 90 16:37 11.02.2020
2767 Rain 13 1034 51 10000 2.6 90 16:19 11.02.2020
2768 Rain 14 1034 55 10000 3.6 70 15:44 11.02.2020
2769 Rain 12 1034 58 10000 1.5 160 15:26 11.02.2020
2770 Rain 12 1034 62 10000 3.1 80 14:55 11.02.2020
2771 Rain 12 1034 58 10000 1.5 120 14:36 11.02.2020
2772 Rain 12 1034 58 10000 1.5 120 14:36 11.02.2020
2773 Rain 12 1034 58 10000 1.5 120 14:18 11.02.2020
2774 Rain 11 1034 66 10000 0.5 270 13:41 11.02.2020
2775 -273 0 0 0 0 0 13:21 11.02.2020
2776 Rain 11 1034 66 10000 0.5 270 13:21 11.02.2020
2777 Rain 10 1033 76 10000 0.5 120 12:58 11.02.2020
2778 Rain 10 1033 76 10000 2.1 100 12:40 11.02.2020
2779 Rain 10 1033 76 10000 2.1 100 12:20 11.02.2020
2780 Rain 10 1033 76 10000 2.1 120 11:55 11.02.2020
2781 Rain 10 1033 76 10000 1 20 11:36 11.02.2020
2782 Clouds 11 1033 76 10000 1 20 11:18 11.02.2020
2783 Clouds 11 1032 81 10000 0.42 37 10:39 11.02.2020
2784 Clouds 11 1032 81 10000 0.42 37 10:20 11.02.2020
2785 Clouds 11 1032 76 10000 0.42 37 09:56 11.02.2020
2786 Rain 10 1032 76 10000 0.42 37 09:38 11.02.2020
2787 Rain 10 1032 76 10000 0.42 37 09:20 11.02.2020
2788 Rain 9 1032 87 10000 2.6 80 08:46 11.02.2020
2789 Clouds 9 1032 87 10000 2.6 80 08:24 11.02.2020
2790 Clouds 10 1032 81 10000 1 360 07:48 11.02.2020
2791 Clouds 10 1032 81 10000 1 360 07:27 11.02.2020
2792 Clouds 10 1033 81 10000 1.5 110 06:45 11.02.2020
2793 Clouds 10 1033 81 10000 1.5 110 06:23 11.02.2020
2794 Clouds 10 1033 76 10000 2.1 90 05:58 11.02.2020
2795 Clouds 11 1033 76 10000 2.1 90 05:26 11.02.2020
2796 Clouds 10 1033 81 10000 2.6 290 04:52 11.02.2020
2797 Rain 11 1033 76 10000 1.5 110 03:26 11.02.2020
2798 Clouds 10 1032 81 10000 1.5 100 02:33 11.02.2020
2799 Clouds 10 1031 76 10000 2.1 350 01:38 11.02.2020
2800 Rain 11 1031 71 10000 1 280 00:42 11.02.2020
2801 Rain 11 1030 71 10000 2.6 350 00:22 11.02.2020
2802 Rain 14 1029 67 10000 4.6 250 23:39 10.02.2020
2803 Rain 11 1029 67 10000 4.6 250 23:20 10.02.2020
2804 Drizzle 12 1029 67 10000 5.1 100 22:42 10.02.2020
2805 Drizzle 12 1029 67 10000 5.1 100 22:21 10.02.2020
2806 Rain 13 1029 59 10000 5.1 110 21:57 10.02.2020
2807 Rain 13 1029 59 10000 5.1 110 21:57 10.02.2020
2808 Rain 12 1029 63 10000 3.6 110 21:39 10.02.2020
2809 Rain 12 1029 63 10000 3.6 110 21:39 10.02.2020
2810 Rain 12 1029 63 10000 3.6 110 21:20 10.02.2020
2811 Rain 12 1030 67 10000 4.1 110 20:54 10.02.2020
2812 Rain 12 1030 59 10000 3.1 330 20:36 10.02.2020
2813 Rain 12 1030 59 10000 3.1 330 20:18 10.02.2020
2814 Drizzle 12 1030 59 10000 2.1 270 19:54 10.02.2020
2815 Rain 12 1031 59 10000 1.5 110 19:36 10.02.2020
2816 Rain 12 1031 59 10000 1.5 110 19:36 10.02.2020
2817 Rain 12 1031 59 10000 1.5 110 19:18 10.02.2020
2818 Rain 11 1032 62 10000 2.6 100 18:41 10.02.2020
2819 Rain 11 1032 62 10000 2.6 100 18:22 10.02.2020
2820 Rain 12 1032 59 10000 1.5 0 17:59 10.02.2020
2821 Rain 10 1033 67 10000 3.1 120 17:39 10.02.2020
2822 Rain 11 1033 67 10000 3.1 120 17:21 10.02.2020
2823 Rain 11 1033 67 10000 3.1 110 16:59 10.02.2020
2824 Rain 10 1033 67 10000 1 0 16:40 10.02.2020
2825 Rain 10 1033 67 10000 1 0 16:20 10.02.2020
2826 Rain 10 1033 67 10000 1.5 120 15:58 10.02.2020
2827 Rain 10 1034 76 10000 2.1 90 15:39 10.02.2020
2828 Rain 10 1034 76 10000 2.1 90 15:21 10.02.2020
2829 Clouds 13 1034 76 9000 1.5 0 14:57 10.02.2020
2830 Mist 12 1033 81 9000 0.5 0 14:39 10.02.2020
2831 Rain 9 1033 81 9000 0.5 0 14:19 10.02.2020
2832 Mist 8 1033 87 9000 1 0 13:44 10.02.2020
2833 Mist 8 1033 87 9000 1 100 13:24 10.02.2020
2834 Mist 9 1032 87 9000 1 100 12:56 10.02.2020
2835 Clouds 8 1032 87 8000 1 100 12:38 10.02.2020
2836 Clouds 9 1032 87 10000 0.5 140 12:19 10.02.2020
2837 Clouds 9 1032 87 10000 0.5 140 11:45 10.02.2020
2838 Clouds 9 1031 87 10000 1 120 11:21 10.02.2020
2839 Clouds 8 1031 87 10000 1.5 90 10:48 10.02.2020
2840 Clouds 8 1031 87 10000 1.5 90 10:48 10.02.2020
2841 Clouds 8 1031 87 10000 1.5 90 10:30 10.02.2020
2842 Clouds 7 1031 87 10000 2.1 80 09:55 10.02.2020
2843 Clouds 8 1031 87 10000 2.1 80 09:36 10.02.2020
2844 Clouds 7 1031 87 10000 2.1 80 09:18 10.02.2020
2845 Clouds 7 1031 87 10000 1 120 08:38 10.02.2020
2846 Clouds 11 1031 87 10000 1 120 08:20 10.02.2020
2847 Clouds 11 1031 87 10000 1.5 100 07:52 10.02.2020
2848 Clouds 11 1031 87 10000 1.5 100 07:32 10.02.2020
2849 Clouds 6 1032 87 10000 0.5 90 06:49 10.02.2020
2850 Clouds 11 1033 87 10000 1 120 04:59 10.02.2020
2851 Clouds 11 1033 81 10000 1 90 03:54 10.02.2020
2852 Clouds 11 1032 81 10000 1.5 210 02:58 10.02.2020
2853 Clouds 11 1031 81 10000 1 290 02:40 10.02.2020
2854 Drizzle 11 1031 81 10000 0.5 270 01:21 10.02.2020
2855 Rain 8 1030 81 9000 3.6 290 00:37 10.02.2020
2856 Rain 9 1029 76 8000 2.6 320 00:19 10.02.2020
2857 Drizzle 11 1029 67 9000 0.5 0 23:41 09.02.2020
2858 Drizzle 12 1029 67 9000 0.5 0 23:23 09.02.2020
2859 Rain 14 1029 67 10000 2.1 290 22:44 09.02.2020
2860 Rain 13 1029 76 10000 0.5 0 22:22 09.02.2020
2861 Drizzle 13 1029 76 9000 1.5 210 21:55 09.02.2020
2862 Rain 12 1029 66 9000 2.6 0 21:36 09.02.2020
2863 Rain 12 1029 66 9000 2.6 0 21:36 09.02.2020
2864 Rain 12 1029 66 9000 2.6 0 21:18 09.02.2020
2865 Drizzle 13 1029 63 10000 3.1 120 20:44 09.02.2020
2866 Rain 15 1029 48 10000 3.6 290 20:21 09.02.2020
2867 Clouds 17 1029 55 10000 5.1 300 19:54 09.02.2020
2868 Clouds 19 1030 45 10000 2.1 260 19:36 09.02.2020
2869 Clouds 19 1030 45 10000 2.1 260 19:18 09.02.2020
2870 Clouds 18 1031 52 10000 1 0 18:41 09.02.2020
2871 Clouds 18 1031 52 10000 1 0 18:23 09.02.2020
2872 Clouds 17 1031 51 10000 1 0 17:44 09.02.2020
2873 Clouds 16 1032 59 10000 0.5 100 17:23 09.02.2020
2874 Clouds 16 1032 59 10000 1 0 16:59 09.02.2020
2875 Clouds 15 1032 62 10000 0.5 0 16:40 09.02.2020
2876 Clouds 15 1032 62 10000 0.5 0 16:21 09.02.2020
2877 Clouds 15 1032 62 10000 1.3 154 15:57 09.02.2020
2878 Clouds 14 1032 67 10000 1.5 80 15:39 09.02.2020
2879 Clouds 14 1032 67 10000 1.5 80 15:20 09.02.2020
2880 Clouds 14 1032 67 10000 1 0 14:55 09.02.2020
2881 Clouds 14 1032 67 9000 1 0 14:36 09.02.2020
2882 Clouds 8 1032 67 9000 1 0 14:18 09.02.2020
2883 Mist 11 1032 87 9000 1.5 120 13:41 09.02.2020
2884 Mist 11 1032 87 9000 1.5 120 13:21 09.02.2020
2885 Mist 11 1032 81 9000 0.5 0 12:54 09.02.2020
2886 Mist 11 1031 81 10000 1.5 90 12:36 09.02.2020
2887 Mist 11 1031 81 10000 1.5 90 12:18 09.02.2020
2888 Clouds 11 1030 81 10000 0.54 225 11:39 09.02.2020
2889 Clouds 6 1030 81 10000 0.69 36 11:19 09.02.2020
2890 Clouds 5 1030 81 10000 1 80 10:43 09.02.2020
2891 Clouds 6 1030 81 10000 1 80 10:23 09.02.2020
2892 Clouds 10 1030 87 10000 1 100 09:58 09.02.2020
2893 Clouds 5 1030 87 10000 1 100 09:39 09.02.2020
2894 Clouds 10 1030 87 10000 1 100 09:20 09.02.2020
2895 Clouds 11 1030 76 10000 1 250 08:41 09.02.2020
2896 Clouds 11 1030 76 10000 1 250 08:23 09.02.2020
2897 Clouds 11 1031 87 10000 2.1 290 07:52 09.02.2020
2898 Clouds 11 1031 87 10000 2.1 290 07:30 09.02.2020
2899 Clouds 11 1032 87 10000 1 200 06:38 09.02.2020
2900 Mist 11 1032 87 9000 1.5 90 05:55 09.02.2020
2901 Mist 11 1032 87 9000 1.5 90 05:34 09.02.2020
2902 Drizzle 12 1032 76 9000 1.5 80 04:49 09.02.2020
2903 Drizzle 8 1031 76 9000 2.1 290 02:58 09.02.2020
2904 Rain 8 1030 66 9000 2.6 270 02:38 09.02.2020
2905 Clouds 13 1029 76 10000 1 320 01:40 09.02.2020
2906 Clouds 13 1029 76 10000 1 320 01:19 09.02.2020
2907 Clouds 14 1029 67 10000 1 0 00:31 09.02.2020
2908 Clouds 14 1028 67 10000 1.5 130 23:50 08.02.2020
2909 Clouds 14 1028 67 10000 1.5 110 23:25 08.02.2020
2910 Clouds 14 1028 67 10000 0.5 0 22:59 08.02.2020
2911 Clouds 14 1029 67 10000 2.1 110 22:40 08.02.2020
2912 Clouds 14 1029 67 10000 2.1 110 22:20 08.02.2020
2913 Clouds 14 1029 71 10000 2.1 140 21:47 08.02.2020
2914 Clouds 14 1029 71 10000 2.6 100 21:29 08.02.2020
2915 Clouds 14 1029 76 10000 3.1 110 20:59 08.02.2020
2916 Drizzle 13 1030 76 9000 1.5 80 20:40 08.02.2020
2917 Drizzle 13 1030 76 9000 1.5 80 20:40 08.02.2020
2918 Drizzle 13 1030 76 9000 1.5 80 20:20 08.02.2020
2919 Drizzle 13 1030 76 9000 1.5 80 20:20 08.02.2020
2920 Drizzle 12 1030 81 9000 1.5 80 19:59 08.02.2020
2921 Rain 13 1031 71 9000 1.35 108 19:39 08.02.2020
2922 Rain 13 1031 71 9000 1.35 108 19:20 08.02.2020
2923 Drizzle 12 1031 81 9000 2.1 80 18:57 08.02.2020
2924 Drizzle 12 1032 81 9000 0.5 90 18:39 08.02.2020
2925 Drizzle 12 1032 81 9000 0.5 90 18:19 08.02.2020
2926 Rain 11 1032 87 4000 3.6 100 17:42 08.02.2020
2927 Rain 11 1032 87 4000 3.6 100 17:20 08.02.2020
2928 Clouds 13 1032 71 10000 2.6 110 16:42 08.02.2020
2929 Clouds 13 1032 71 10000 2.6 110 16:23 08.02.2020
2930 Clouds 13 1032 71 10000 1 170 15:59 08.02.2020
2931 Clouds 13 1032 71 10000 1.85 78 15:40 08.02.2020
2932 Clouds 13 1032 71 10000 1.85 78 15:18 08.02.2020
2933 Clouds 12 1032 76 10000 1 360 14:46 08.02.2020
2934 Clouds 11 1032 81 10000 1 20 14:24 08.02.2020
2935 Clouds 11 1032 81 10000 1 110 13:59 08.02.2020
2936 Clouds 10 1031 87 10000 0.5 360 13:41 08.02.2020
2937 Clouds 10 1031 87 10000 0.5 360 13:23 08.02.2020
2938 Clouds 10 1031 87 10000 1 80 12:49 08.02.2020
2939 Clouds 10 1031 87 10000 1.8 165 12:23 08.02.2020
2940 Clouds 10 1031 87 10000 1.8 165 12:23 08.02.2020
2941 Clouds 10 1030 87 10000 0.5 100 11:58 08.02.2020
2942 Rain 10 1030 87 10000 3.6 100 11:40 08.02.2020
2943 Rain 10 1030 87 10000 2.1 100 11:20 08.02.2020
2944 Rain 10 1030 87 10000 2.1 100 10:42 08.02.2020
2945 Rain 10 1030 87 10000 2.1 100 10:22 08.02.2020
2946 Rain 10 1030 87 10000 2.1 100 10:22 08.02.2020
2947 Rain 10 1030 87 10000 2.1 100 10:22 08.02.2020
2948 Clouds 10 1030 76 10000 5.1 100 09:53 08.02.2020
2949 Clouds 10 1030 76 10000 5.1 100 09:29 08.02.2020
2950 Rain 10 1030 81 10000 2.36 156 08:56 08.02.2020
2951 Rain 10 1030 81 10000 2.36 156 08:38 08.02.2020
2952 Rain 10 1030 81 10000 1.61 299 08:20 08.02.2020
2953 Rain 9 1031 87 10000 1 50 07:45 08.02.2020
2954 Rain 9 1031 87 10000 1 50 07:23 08.02.2020
2955 Thunderstorm 9 1032 87 5000 1.61 299 06:30 08.02.2020
2956 Thunderstorm 9 1032 87 5000 1.61 299 06:30 08.02.2020
2957 Rain 11 1032 81 10000 8.2 110 05:48 08.02.2020
2958 Rain 11 1032 81 10000 8.2 110 05:30 08.02.2020
2959 Clouds 14 1031 62 10000 4.6 270 04:49 08.02.2020
2960 Clouds 13 1031 66 10000 3.6 280 03:52 08.02.2020
2961 Clouds 13 1030 66 10000 3.6 280 02:52 08.02.2020
2962 Rain 15 1028 62 10000 1 80 01:55 08.02.2020
2963 Clouds 15 1028 62 10000 2.6 100 01:26 08.02.2020
2964 Rain 16 1028 59 10000 2.1 110 00:43 08.02.2020
2965 Clouds 16 1027 59 10000 3.1 100 00:22 08.02.2020
2966 Clouds 17 1027 51 10000 4.1 90 23:55 07.02.2020
2967 Clouds 18 1026 52 10000 3.6 110 23:37 07.02.2020
2968 Clouds 18 1026 52 10000 3.6 110 23:18 07.02.2020
2969 Clouds 19 1026 45 10000 5.7 110 22:39 07.02.2020
2970 Clouds 19 1026 45 10000 5.7 110 22:19 07.02.2020
2971 Clouds 20 1026 37 10000 1.5 200 21:43 07.02.2020
2972 Clouds 20 1027 37 10000 1.5 40 21:22 07.02.2020
2973 Clouds 21 1028 40 10000 1 0 20:57 07.02.2020
2974 Clouds 20 1029 37 10000 1 270 20:38 07.02.2020
2975 Clouds 20 1029 37 10000 1 270 20:18 07.02.2020
2976 Clouds 19 1030 45 10000 1 0 19:40 07.02.2020
2977 Clouds 19 1030 45 10000 1 0 19:22 07.02.2020
2978 Clouds 18 1031 45 10000 0.5 0 18:58 07.02.2020
2979 Clouds 18 1031 45 10000 0.5 0 18:58 07.02.2020
2980 Clouds 17 1032 45 10000 1 20 18:40 07.02.2020
2981 Clouds 17 1032 45 10000 1 20 18:20 07.02.2020
2982 Clouds 16 1032 51 10000 1 200 17:43 07.02.2020
2983 Clouds 14 1033 54 10000 0.44 197 17:22 07.02.2020
2984 Clouds 14 1034 54 10000 1 290 16:57 07.02.2020
2985 Clouds 12 1034 62 10000 1 150 16:38 07.02.2020
2986 Clouds 12 1034 62 10000 1 150 16:19 07.02.2020
2987 Clouds 12 1034 62 10000 1 200 15:47 07.02.2020
2988 Clouds 11 1034 66 10000 0.44 197 15:22 07.02.2020
2989 Clouds 11 1034 66 10000 0.44 197 14:44 07.02.2020
2990 Clouds 9 1034 81 10000 1 120 14:26 07.02.2020
2991 Clouds 9 1034 76 10000 1.5 100 13:58 07.02.2020
2992 Clouds 8 1034 87 10000 1.5 90 13:39 07.02.2020
2993 Clouds 8 1034 87 10000 1.5 90 13:21 07.02.2020
2994 Clouds 8 1034 87 10000 1.5 90 13:21 07.02.2020
2995 Drizzle 8 1033 87 10000 1.78 190 12:55 07.02.2020
2996 Drizzle 8 1033 81 9000 1.78 190 12:37 07.02.2020
2997 Drizzle 8 1033 81 9000 1.78 190 12:19 07.02.2020
2998 Drizzle 8 1033 87 9000 1 0 11:42 07.02.2020
2999 Rain 7 1033 87 8000 1.5 100 11:20 07.02.2020
3000 Rain 8 1033 81 8000 3.6 110 10:42 07.02.2020
3001 Rain 5 1033 81 8000 3.6 110 10:24 07.02.2020
3002 Rain 5 1032 87 8000 4.1 110 09:56 07.02.2020
3003 Rain 5 1032 87 8000 4.1 110 09:37 07.02.2020
3004 Rain 6 1032 87 8000 4.1 110 09:19 07.02.2020
3005 Rain 6 1032 87 8000 4.6 110 08:42 07.02.2020
3006 Rain 7 1032 87 8000 4.6 110 08:21 07.02.2020
3007 Rain 7 1033 87 8000 3.6 110 07:45 07.02.2020
3008 Rain 7 1033 87 8000 3.6 110 07:26 07.02.2020
3009 Rain 7 1033 87 8000 4.1 110 06:46 07.02.2020
3010 Rain 8 1033 87 8000 4.1 110 06:26 07.02.2020
3011 Rain 9 1032 81 8000 1.5 160 05:45 07.02.2020
3012 Rain 10 1032 76 10000 2.6 280 04:42 07.02.2020
3013 Clouds 11 1030 62 10000 3.6 300 02:50 07.02.2020
3014 Clouds 12 1030 62 10000 3.1 290 01:42 07.02.2020
3015 Clouds 13 1029 58 10000 3.6 300 00:48 07.02.2020
3016 Clouds 13 1028 62 10000 2.1 350 00:20 07.02.2020
3017 Clouds 13 1028 62 10000 2.1 350 00:20 07.02.2020
3018 Rain 17 1027 51 10000 3.6 20 23:37 06.02.2020
3019 Rain 14 1027 51 10000 3.6 20 23:19 06.02.2020
3020 Rain 15 1028 51 10000 3.6 50 22:44 06.02.2020
3021 Rain 15 1028 51 10000 4.6 20 22:25 06.02.2020
3022 Rain 15 1028 52 10000 3.6 360 21:38 06.02.2020
3023 Rain 15 1028 52 10000 3.6 360 21:20 06.02.2020
3024 Rain 14 1029 51 10000 3.6 20 20:58 06.02.2020
3025 Rain 13 1029 58 10000 5.7 20 20:39 06.02.2020
3026 Rain 13 1029 58 10000 5.7 20 20:19 06.02.2020
3027 Rain 14 1029 55 10000 5.1 360 19:59 06.02.2020
3028 Rain 15 1030 45 10000 2.1 50 19:41 06.02.2020
3029 Rain 15 1030 45 10000 2.1 50 19:22 06.02.2020
3030 Rain 15 1030 55 10000 2.6 100 18:58 06.02.2020
3031 Rain 15 1031 51 10000 2.6 110 18:40 06.02.2020
3032 Rain 15 1031 51 10000 2.6 110 18:40 06.02.2020
3033 Rain 16 1031 51 10000 2.6 110 18:21 06.02.2020
3034 Rain 15 1032 51 10000 2.1 60 17:45 06.02.2020
3035 Rain 15 1032 54 10000 0.5 10 17:21 06.02.2020
3036 Rain 15 1032 62 10000 1.5 280 16:59 06.02.2020
3037 Drizzle 15 1032 67 10000 1.5 280 16:40 06.02.2020
3038 Drizzle 14 1032 67 10000 1.5 280 16:22 06.02.2020
3039 Rain 14 1033 58 10000 1 100 15:42 06.02.2020
3040 Rain 14 1033 62 10000 1 0 15:42 06.02.2020
3041 Rain 14 1033 62 10000 1 0 15:22 06.02.2020
3042 Rain 13 1032 76 10000 1 70 14:50 06.02.2020
3043 Rain 12 1032 76 9000 1.5 90 14:28 06.02.2020
3044 Clouds 11 1032 81 9000 1.5 110 13:58 06.02.2020
3045 Clouds 10 1032 87 9000 1.5 110 13:40 06.02.2020
3046 Clouds 10 1032 87 9000 1.5 110 13:19 06.02.2020
3047 Clouds 9 1032 87 9000 1 100 12:44 06.02.2020
3048 Clouds 9 1031 87 9000 1 170 12:19 06.02.2020
3049 Clouds 9 1031 87 9000 2.1 110 11:57 06.02.2020
3050 Drizzle 9 1030 87 7000 1.5 100 11:39 06.02.2020
3051 Drizzle 9 1030 87 7000 1.5 100 11:19 06.02.2020
3052 Drizzle 9 1030 87 7000 1.5 90 10:56 06.02.2020
3053 Drizzle 9 1030 87 7000 1.5 90 10:38 06.02.2020
3054 Drizzle 9 1030 87 7000 1.5 90 10:18 06.02.2020
3055 Rain 9 1030 87 7000 2.1 90 09:44 06.02.2020
3056 Rain 9 1030 87 7000 2.1 90 09:21 06.02.2020
3057 Rain 9 1030 87 8000 1.84 175 08:47 06.02.2020
3058 Rain 9 1030 87 8000 2.08 172 08:27 06.02.2020
3059 Thunderstorm 9 1031 81 7000 1 80 07:59 06.02.2020
3060 Thunderstorm 9 1031 81 7000 1 80 07:39 06.02.2020
3061 Thunderstorm 9 1031 81 7000 1 80 07:21 06.02.2020
3062 Thunderstorm 10 1031 87 7000 6.2 80 06:21 06.02.2020
3063 Clouds 13 1030 66 10000 5.1 300 05:48 06.02.2020
3064 Clouds 13 1029 66 10000 2.1 270 04:20 06.02.2020
3065 Clouds 14 1029 62 10000 2.1 340 03:19 06.02.2020
3066 Clouds 15 1028 58 10000 4.6 290 02:27 06.02.2020
3067 Clouds 14 1027 54 10000 4.1 280 01:25 06.02.2020
3068 Rain 15 1026 51 10000 4.6 290 00:53 06.02.2020
3069 Clouds 17 1025 51 10000 5.7 290 00:23 06.02.2020
3070 Rain 16 1025 48 10000 5.7 290 23:43 05.02.2020
3071 Rain 16 1025 52 10000 5.7 280 23:24 05.02.2020
3072 Rain 16 1025 52 10000 6.2 290 22:57 05.02.2020
3073 Rain 16 1025 52 10000 5.7 290 22:38 05.02.2020
3074 Rain 16 1025 52 10000 5.7 290 22:20 05.02.2020
3075 Rain 16 1026 55 10000 7.2 300 21:41 05.02.2020
3076 Rain 16 1026 55 10000 7.2 300 21:23 05.02.2020
3077 Rain 16 1027 51 10000 5.7 290 20:55 05.02.2020
3078 Rain 16 1027 51 10000 7.7 300 20:37 05.02.2020
3079 Rain 16 1027 51 10000 7.7 300 20:18 05.02.2020
3080 Rain 16 1028 48 10000 8.2 290 19:55 05.02.2020
3081 Rain 17 1028 45 10000 8.7 280 19:36 05.02.2020
3082 Rain 17 1028 45 10000 8.7 280 19:18 05.02.2020
3083 Clouds 18 1030 52 10000 3.6 320 18:43 05.02.2020
3084 Clouds 18 1030 52 10000 3.6 320 18:21 05.02.2020
3085 Clouds 17 1030 55 10000 5.1 280 17:58 05.02.2020
3086 Rain 17 1031 59 10000 0.5 0 17:37 05.02.2020
3087 Clouds 16 1031 59 10000 2.1 270 17:18 05.02.2020
3088 Clouds 15 1031 62 10000 1 0 16:43 05.02.2020
3089 Clouds 15 1031 62 10000 1 0 16:25 05.02.2020
3090 Clouds 14 1031 67 10000 1 0 15:58 05.02.2020
3091 Clouds 13 1032 71 10000 1 170 15:38 05.02.2020
3092 Clouds 13 1032 71 10000 1 170 15:18 05.02.2020
3093 Clouds 12 1031 76 10000 1.86 246 14:42 05.02.2020
3094 Clouds 12 1031 76 10000 1.86 246 14:23 05.02.2020
3095 Clouds 12 1031 76 10000 1.43 222 13:58 05.02.2020
3096 Mist 11 1031 87 10000 1.5 110 13:38 05.02.2020
3097 Mist 11 1031 87 10000 1.5 110 13:19 05.02.2020
3098 Clouds 11 1030 87 10000 1 120 12:42 05.02.2020
3099 Clouds 11 1030 87 10000 1 120 12:22 05.02.2020
3100 Clouds 11 1030 81 10000 1.5 90 11:54 05.02.2020
3101 Clouds 11 1029 81 10000 0.5 270 11:36 05.02.2020
3102 Clouds 11 1029 81 10000 0.5 270 11:18 05.02.2020
3103 Clouds 11 1029 81 10000 1 110 10:42 05.02.2020
3104 Clouds 11 1029 81 10000 1 110 10:23 05.02.2020
3105 Clouds 11 1029 81 10000 1 110 10:23 05.02.2020
3106 Drizzle 11 1029 81 10000 1 360 09:44 05.02.2020
3107 Drizzle 11 1029 81 10000 1 360 09:23 05.02.2020
3108 Rain 10 1030 87 10000 1.5 270 08:59 05.02.2020
3109 Rain 10 1030 87 10000 1.5 270 08:41 05.02.2020
3110 Rain 10 1030 87 10000 1.5 270 08:22 05.02.2020
3111 Clouds 11 1031 81 10000 2.1 280 07:45 05.02.2020
3112 Clouds 11 1031 81 10000 2.1 280 07:26 05.02.2020
3113 Rain 12 1031 76 10000 1 90 06:43 05.02.2020
3114 Rain 12 1031 76 10000 1 90 06:22 05.02.2020
3115 Clouds 12 1031 71 10000 2.6 270 05:49 05.02.2020
3116 Clouds 12 1031 71 10000 2.6 270 05:18 05.02.2020
3117 Thunderstorm 12 1032 71 10000 4.1 290 04:44 05.02.2020
3118 Clouds 12 1031 76 10000 2.12 334 03:20 05.02.2020
3119 Clouds 13 1030 76 10000 3.6 100 02:23 05.02.2020
3120 Thunderstorm 14 1029 62 10000 1 110 01:35 05.02.2020
3121 Clouds 15 1028 63 10000 4.1 270 00:39 05.02.2020
3122 Clouds 16 1027 52 10000 5.7 290 23:42 04.02.2020
3123 Rain 16 1027 52 10000 5.7 290 23:23 04.02.2020
3124 Rain 16 1027 52 10000 5.7 280 22:58 04.02.2020
3125 Clouds 16 1027 42 10000 1 210 22:40 04.02.2020
3126 Clouds 17 1027 42 10000 1 210 22:21 04.02.2020
3127 Rain 17 1027 45 10000 0.5 240 21:57 04.02.2020
3128 Rain 16 1028 48 10000 1.5 0 21:39 04.02.2020
3129 Rain 17 1028 48 10000 1.5 0 21:19 04.02.2020
3130 Rain 16 1028 45 10000 2.1 180 20:57 04.02.2020
3131 Rain 16 1029 48 10000 1.5 0 20:38 04.02.2020
3132 Rain 16 1029 48 10000 1.5 0 20:19 04.02.2020
3133 Rain 16 1030 42 10000 2.1 40 19:55 04.02.2020
3134 Rain 15 1031 55 10000 1 120 19:36 04.02.2020
3135 Rain 16 1031 55 10000 1 120 19:18 04.02.2020
3136 Rain 14 1033 72 10000 1 0 18:41 04.02.2020
3137 Rain 14 1033 72 10000 1 0 18:22 04.02.2020
3138 Rain 14 1033 72 10000 1 0 18:22 04.02.2020
3139 Drizzle 13 1034 66 10000 1.5 0 17:58 04.02.2020
3140 Drizzle 13 1034 66 10000 3.1 260 17:40 04.02.2020
3141 Drizzle 13 1034 66 10000 3.1 260 17:20 04.02.2020
3142 Rain 13 1034 66 10000 1 0 16:39 04.02.2020
3143 Rain 13 1034 66 10000 1 0 16:21 04.02.2020
3144 Rain 13 1034 66 10000 1 0 16:21 04.02.2020
3145 Clouds 14 1034 62 9000 1.3 248 15:57 04.02.2020
3146 Clouds 13 1035 66 10000 1.5 110 15:39 04.02.2020
3147 Clouds 13 1035 66 10000 1.5 110 15:20 04.02.2020
3148 Clouds 12 1035 71 9000 2.1 110 14:56 04.02.2020
3149 Clouds 11 1034 76 8000 1.3 248 14:37 04.02.2020
3150 Clouds 11 1034 76 8000 1 236 14:19 04.02.2020
3151 Rain 10 1034 87 8000 1 236 13:41 04.02.2020
3152 Rain 10 1034 87 8000 0.74 265 13:23 04.02.2020
3153 Rain 10 1034 81 9000 0.74 265 12:57 04.02.2020
3154 Rain 10 1033 81 7000 0.74 265 12:38 04.02.2020
3155 Rain 10 1033 81 7000 0.74 265 12:19 04.02.2020
3156 Drizzle 10 1033 81 9000 0.74 265 11:55 04.02.2020
3157 Clouds 10 1032 81 10000 0.74 265 11:37 04.02.2020
3158 Clouds 10 1032 81 10000 1.51 312 11:18 04.02.2020
3159 Clouds 10 1032 76 10000 1 110 10:44 04.02.2020
3160 Clouds 10 1032 76 10000 1 110 10:25 04.02.2020
3161 Clouds 10 1032 81 10000 2.1 100 09:56 04.02.2020
3162 Clouds 10 1032 81 10000 2.1 100 09:37 04.02.2020
3163 Clouds 10 1032 81 10000 2.1 100 09:19 04.02.2020
3164 Clouds 10 1032 81 10000 2.6 110 08:44 04.02.2020
3165 Clouds 10 1032 81 10000 2.6 110 08:26 04.02.2020
3166 Rain 11 1033 81 10000 2.1 120 07:50 04.02.2020
3167 Rain 11 1033 81 10000 2.1 120 07:24 04.02.2020
3168 Clouds 11 1034 81 10000 1 130 06:45 04.02.2020
3169 Clouds 11 1034 81 10000 1 130 06:45 04.02.2020
3170 Clouds 11 1034 81 10000 1 130 06:26 04.02.2020
3171 Clouds 11 1034 87 10000 2.6 100 05:29 04.02.2020
3172 Drizzle 11 1033 87 9000 1.5 100 03:56 04.02.2020
3173 Rain 11 1033 87 9000 3.1 110 03:37 04.02.2020
3174 Rain 11 1033 87 9000 3.1 110 03:19 04.02.2020
3175 Rain 12 1032 81 9000 1.5 260 02:34 04.02.2020
3176 Rain 13 1032 81 9000 2.58 21 01:55 04.02.2020
3177 Drizzle 12 1031 81 9000 2.58 21 01:36 04.02.2020
3178 Rain 12 1031 81 8000 1 180 00:49 04.02.2020
3179 Rain 13 1031 81 9000 0.5 0 00:22 04.02.2020
3180 Rain 13 1031 81 9000 0.5 0 00:22 04.02.2020
3181 Thunderstorm 15 1029 62 9000 1 0 23:41 03.02.2020
3182 Thunderstorm 15 1029 62 9000 1 0 23:22 03.02.2020
3183 Rain 15 1029 62 9000 1.5 180 22:40 03.02.2020
3184 Rain 15 1029 62 9000 1.5 180 22:21 03.02.2020
3185 Rain 15 1029 58 9000 1 0 21:59 03.02.2020
3186 Drizzle 18 1029 45 10000 1 0 21:39 03.02.2020
3187 Drizzle 18 1029 45 10000 1 0 21:19 03.02.2020
3188 Clouds 20 1030 42 10000 1 270 20:42 03.02.2020
3189 Clouds 18 1031 55 10000 4.6 280 20:20 03.02.2020
3190 Rain 18 1031 55 10000 5.7 280 19:58 03.02.2020
3191 Rain 17 1032 48 10000 7.2 300 19:40 03.02.2020
3192 Rain 17 1032 48 10000 7.2 300 19:21 03.02.2020
3193 Rain 17 1032 55 10000 5.1 290 18:57 03.02.2020
3194 Clouds 17 1033 45 10000 1 140 18:38 03.02.2020
3195 Clouds 17 1033 45 10000 1 140 18:19 03.02.2020
3196 Clouds 15 1035 54 10000 1.5 120 17:40 03.02.2020
3197 Clouds 15 1035 54 10000 1.5 120 17:20 03.02.2020
3198 Clouds 16 1035 55 10000 1.5 160 16:59 03.02.2020
3199 Clouds 14 1035 58 10000 1 50 16:39 03.02.2020
3200 Clouds 14 1035 58 10000 1 50 16:20 03.02.2020
3201 Clouds 13 1036 62 10000 1 30 15:56 03.02.2020
3202 Clouds 12 1036 66 10000 2.1 100 15:37 03.02.2020
3203 Clouds 12 1036 66 10000 2.1 100 15:19 03.02.2020
3204 Drizzle 11 1036 76 9000 1.5 100 14:42 03.02.2020
3205 Drizzle 10 1036 81 8000 2.1 90 14:24 03.02.2020
3206 Drizzle 10 1036 81 8000 2.1 90 14:24 03.02.2020
3207 Rain 9 1036 87 8000 1.5 110 13:57 03.02.2020
3208 Rain 9 1036 81 8000 2.1 100 13:39 03.02.2020
3209 Rain 9 1036 81 8000 2.1 100 13:19 03.02.2020
3210 Rain 8 1035 87 8000 2.6 100 12:55 03.02.2020
3211 Rain 8 1035 87 10000 1.5 90 12:36 03.02.2020
3212 Rain 8 1035 87 10000 1.5 90 12:18 03.02.2020
3213 Rain 8 1034 87 10000 1.38 210 11:38 03.02.2020
3214 Rain 8 1034 87 10000 1.92 176 11:19 03.02.2020
3215 Rain 8 1034 87 10000 1.5 100 10:57 03.02.2020
3216 Rain 8 1034 87 10000 1.5 100 10:38 03.02.2020
3217 Rain 8 1034 87 10000 1.5 100 10:19 03.02.2020
3218 Rain 9 1034 87 10000 1.5 100 09:39 03.02.2020
3219 Rain 9 1034 87 10000 1.5 100 09:20 03.02.2020
3220 Rain 9 1034 87 10000 3.1 100 08:41 03.02.2020
3221 Rain 9 1034 87 10000 3.1 100 08:23 03.02.2020
3222 Rain 10 1034 81 10000 2.6 100 07:56 03.02.2020
3223 Rain 10 1034 81 10000 2.6 100 07:38 03.02.2020
3224 Rain 10 1034 81 10000 2.6 100 07:19 03.02.2020
3225 Rain 10 1035 81 10000 1.82 161 06:42 03.02.2020
3226 Rain 10 1035 81 10000 1.82 161 06:24 03.02.2020
3227 Rain 7 1034 81 10000 3.6 80 05:35 03.02.2020
3228 Clouds 9 1033 67 10000 3.1 100 04:50 03.02.2020
3229 Clouds 10 1032 67 10000 1.5 300 02:58 03.02.2020
3230 Clouds 11 1032 58 10000 2.1 280 02:32 03.02.2020
3231 Clouds 12 1030 58 10000 1 330 00:55 03.02.2020
3232 Rain 13 1030 55 10000 4.1 10 00:36 03.02.2020
3233 Rain 13 1030 55 10000 4.1 10 00:18 03.02.2020
3234 Rain 15 1029 55 10000 4.1 310 23:37 02.02.2020
3235 Rain 16 1029 55 10000 4.1 310 23:18 02.02.2020
3236 Clouds 17 1030 52 10000 2.1 300 22:40 02.02.2020
3237 Clouds 17 1030 52 10000 2.1 300 22:22 02.02.2020
3238 Rain 16 1030 51 10000 2.1 310 21:58 02.02.2020
3239 Rain 16 1031 58 10000 2.1 280 21:39 02.02.2020
3240 Rain 16 1031 58 10000 2.1 280 21:20 02.02.2020
3241 Rain 15 1031 62 10000 4.1 260 20:57 02.02.2020
3242 Rain 15 1032 58 10000 5.7 260 20:39 02.02.2020
3243 Rain 15 1032 58 10000 5.7 260 20:20 02.02.2020
3244 Rain 16 1031 51 10000 5.7 30 19:58 02.02.2020
3245 Rain 15 1032 44 10000 6.7 30 19:39 02.02.2020
3246 Rain 16 1032 44 10000 6.7 30 19:21 02.02.2020
3247 Rain 19 1031 48 10000 1.5 0 18:56 02.02.2020
3248 Clouds 19 1032 48 10000 1.5 90 18:37 02.02.2020
3249 Clouds 19 1032 48 10000 1.5 90 18:37 02.02.2020
3250 Clouds 19 1032 48 10000 1.5 90 18:19 02.02.2020
3251 Clouds 18 1033 48 10000 2.6 130 17:57 02.02.2020
3252 Clouds 17 1033 55 10000 1.5 350 17:37 02.02.2020
3253 Clouds 17 1033 55 10000 1.5 350 17:18 02.02.2020
3254 Clouds 17 1034 59 10000 1 360 16:57 02.02.2020
3255 Clouds 15 1035 58 10000 1.59 247 16:38 02.02.2020
3256 Clouds 15 1035 58 10000 1.59 247 16:18 02.02.2020
3257 Clouds 14 1035 62 10000 1 50 15:55 02.02.2020
3258 Clouds 13 1035 66 10000 1.5 150 15:36 02.02.2020
3259 Clouds 13 1035 66 10000 1.5 150 15:18 02.02.2020
3260 Clouds 12 1035 76 10000 2.6 110 14:43 02.02.2020
3261 Clouds 11 1035 81 10000 2.1 110 14:19 02.02.2020
3262 Clouds 11 1034 81 10000 2.1 110 13:59 02.02.2020
3263 Clouds 11 1034 81 10000 2.6 110 13:41 02.02.2020
3264 Clouds 11 1034 81 10000 2.6 110 13:20 02.02.2020
3265 Clouds 10 1034 87 10000 2.1 120 12:56 02.02.2020
3266 Mist 10 1033 87 9000 2.1 110 12:38 02.02.2020
3267 Mist 10 1033 87 10000 1.5 100 12:18 02.02.2020
3268 Mist 10 1033 87 10000 1 110 11:42 02.02.2020
3269 Mist 10 1033 87 10000 1 110 11:19 02.02.2020
3270 Mist 10 1032 87 10000 1.5 120 10:57 02.02.2020
3271 Mist 10 1032 87 10000 1.5 120 10:38 02.02.2020
3272 Mist 10 1032 87 10000 1.5 120 10:20 02.02.2020
3273 Drizzle 10 1032 81 10000 1.01 276 09:57 02.02.2020
3274 Drizzle 10 1032 81 10000 1.01 276 09:39 02.02.2020
3275 Drizzle 6 1032 81 10000 1.01 276 09:20 02.02.2020
3276 Rain 6 1032 87 9000 2.1 280 08:44 02.02.2020
3277 Rain 6 1032 87 9000 2.1 280 08:25 02.02.2020
3278 Rain 7 1033 81 9000 1.39 349 07:47 02.02.2020
3279 Rain 7 1033 81 9000 1.39 349 07:29 02.02.2020
3280 Clouds 7 1033 76 10000 2.1 300 06:46 02.02.2020
3281 Clouds 7 1033 76 10000 2.1 300 06:28 02.02.2020
3282 Clouds 7 1034 76 10000 0.5 0 05:49 02.02.2020
3283 Clouds 7 1034 81 10000 1.5 110 04:58 02.02.2020
3284 Rain 3 1015 94 0 1.85 8 03:40 02.02.2020
3285 Clouds 8 1032 76 10000 1.5 290 02:39 02.02.2020
3286 Clouds 12 1032 76 10000 1 0 01:56 02.02.2020
3287 Clouds 12 1031 76 10000 2.1 110 01:35 02.02.2020
3288 Rain 10 1031 62 10000 1.5 210 00:45 02.02.2020
3289 Rain 11 1031 62 10000 1.5 210 00:23 02.02.2020
3290 Rain 12 1030 59 10000 2.6 280 23:54 01.02.2020
3291 Rain 11 1030 67 10000 2.1 290 23:36 01.02.2020
3292 Clouds 15 1030 67 10000 2.1 290 23:18 01.02.2020
3293 Clouds 14 1031 67 10000 1 260 22:42 01.02.2020
3294 Drizzle 13 1031 76 9000 2.1 90 22:18 01.02.2020
3295 Rain 13 1031 71 8000 2.1 270 21:39 01.02.2020
3296 Rain 13 1031 71 8000 2.1 270 21:19 01.02.2020
3297 Drizzle 14 1032 67 9000 1 60 20:42 01.02.2020
3298 Clouds 13 1032 71 10000 3.1 90 20:21 01.02.2020
3299 Clouds 13 1033 71 10000 3.6 110 19:58 01.02.2020
3300 Rain 13 1034 66 10000 4.1 110 19:39 01.02.2020
3301 Rain 13 1034 66 10000 4.1 110 19:20 01.02.2020
3302 Rain 12 1034 76 10000 4.1 110 18:59 01.02.2020
3303 Rain 12 1034 71 8000 4.1 120 18:40 01.02.2020
3304 Rain 12 1034 71 8000 4.1 120 18:40 01.02.2020
3305 Rain 12 1034 71 8000 4.1 120 18:22 01.02.2020
3306 Rain 12 1034 71 8000 4.6 110 17:58 01.02.2020
3307 Clouds 13 1034 66 10000 5.1 120 17:40 01.02.2020
3308 Clouds 13 1034 66 10000 5.1 120 17:20 01.02.2020
3309 Clouds 13 1034 71 10000 5.1 110 16:56 01.02.2020
3310 Clouds 13 1035 62 10000 4.6 110 16:38 01.02.2020
3311 Clouds 13 1035 62 10000 4.6 110 16:38 01.02.2020
3312 Clouds 13 1035 62 10000 4.6 110 16:19 01.02.2020
3313 Clouds 12 1035 71 10000 1 0 15:41 01.02.2020
3314 Clouds 12 1035 71 10000 1 0 15:22 01.02.2020
3315 Clouds 12 1035 76 10000 0.5 0 14:54 01.02.2020
3316 Clouds 11 1034 76 10000 0.5 0 14:36 01.02.2020
3317 Clouds 11 1034 76 10000 0.5 0 14:18 01.02.2020
3318 Clouds 11 1034 76 10000 0.5 360 13:42 01.02.2020
3319 Clouds 10 1034 81 10000 0.5 0 13:18 01.02.2020
3320 Clouds 10 1034 81 10000 0.5 0 13:18 01.02.2020
3321 Clouds 9 1033 87 10000 1 0 12:43 01.02.2020
3322 Rain 9 1033 87 10000 2.6 110 12:24 01.02.2020
3323 Drizzle 9 1033 87 10000 3.1 110 11:55 01.02.2020
3324 Drizzle 9 1032 87 10000 3.6 110 11:37 01.02.2020
3325 Drizzle 9 1032 87 10000 3.6 110 11:18 01.02.2020
3326 Clouds 10 1032 87 10000 4.1 110 10:42 01.02.2020
3327 Clouds 10 1032 87 10000 4.1 110 10:24 01.02.2020
3328 Clouds 11 1033 87 10000 2.6 110 09:59 01.02.2020
3329 Clouds 11 1033 87 10000 2.6 110 09:41 01.02.2020
3330 -273 0 0 0 0 0 09:21 01.02.2020
3331 Drizzle 5 1033 81 10000 0.76 6 08:58 01.02.2020
3332 Drizzle 11 1033 81 10000 0.69 12 08:22 01.02.2020
3333 Rain 6 1033 81 10000 1.31 358 07:43 01.02.2020
3334 Rain 7 1033 81 10000 1.31 358 07:24 01.02.2020
3335 Clouds 7 1034 76 10000 2.1 290 06:44 01.02.2020
3336 Clouds 7 1034 81 10000 1.31 358 05:54 01.02.2020
3337 Clouds 7 1034 81 10000 1 80 04:32 01.02.2020
3338 Clouds 8 1033 81 10000 1.5 110 03:26 01.02.2020
3339 Clouds 9 1033 81 10000 1 90 02:58 01.02.2020
3340 Clouds 9 1032 76 10000 0.5 210 02:39 01.02.2020
3341 Clouds 10 1032 76 10000 0.5 210 02:19 01.02.2020
3342 Drizzle 9 1032 81 10000 1.5 90 01:40 01.02.2020
3343 Drizzle 10 1032 81 10000 1.5 90 01:19 01.02.2020
3344 Rain 11 1031 76 10000 1.5 100 00:23 01.02.2020
3345 Rain 13 1029 62 10000 1.5 0 23:41 31.01.2020
3346 Rain 15 1029 62 10000 1.5 0 23:18 31.01.2020
3347 Clouds 16 1029 51 10000 3.6 110 22:56 31.01.2020
3348 Clouds 14 1029 55 10000 4.6 110 22:38 31.01.2020
3349 Clouds 14 1029 55 10000 4.6 110 22:20 31.01.2020
3350 Clouds 16 1030 59 10000 2.1 90 21:40 31.01.2020
3351 Clouds 16 1030 59 10000 2.1 90 21:21 31.01.2020
3352 Clouds 14 1030 62 10000 2.6 0 20:58 31.01.2020
3353 Clouds 14 1030 62 10000 2.6 0 20:40 31.01.2020
3354 Rain 11 1032 81 10000 2.1 100 20:22 31.01.2020
3355 Rain 11 1032 81 10000 2.1 100 20:00 31.01.2020
3356 Rain 12 1032 66 8000 6.2 290 19:40 31.01.2020
3357 Rain 12 1032 66 8000 6.2 290 19:22 31.01.2020
3358 Rain 12 1032 66 8000 6.2 290 19:22 31.01.2020
3359 Rain 13 1032 42 10000 2.6 360 18:58 31.01.2020
3360 Clouds 14 1032 48 10000 0.5 240 18:36 31.01.2020
3361 Clouds 13 1032 42 10000 1.5 100 18:18 31.01.2020
3362 Clouds 18 1032 42 10000 1.5 100 17:43 31.01.2020
3363 Clouds 16 1033 51 10000 2.1 90 17:25 31.01.2020
3364 Clouds 16 1033 51 10000 2.1 100 16:57 31.01.2020
3365 Clouds 16 1034 59 10000 2.6 110 16:38 31.01.2020
3366 Clouds 16 1034 59 10000 2.6 110 16:19 31.01.2020
3367 Clouds 16 1034 51 10000 2.6 120 15:57 31.01.2020
3368 Clouds 14 1034 58 10000 1.5 0 15:39 31.01.2020
3369 Clouds 14 1034 58 10000 1.5 0 15:19 31.01.2020
3370 Clouds 14 1034 62 10000 2.6 90 14:42 31.01.2020
3371 Clouds 12 1034 71 10000 1 0 14:23 31.01.2020
3372 Clouds 11 1034 76 10000 1.5 90 13:54 31.01.2020
3373 Mist 10 1034 81 10000 1 0 13:34 31.01.2020
3374 Mist 10 1033 81 10000 0.32 301 12:59 31.01.2020
3375 Clouds 9 1033 87 10000 1 0 12:41 31.01.2020
3376 Clouds 9 1033 87 10000 1 0 12:22 31.01.2020
3377 Clouds 9 1032 81 10000 2.1 100 11:45 31.01.2020
3378 Clouds 9 1032 81 10000 2.1 100 11:26 31.01.2020
3379 Clouds 10 1032 93 10000 2.6 10 10:59 31.01.2020
3380 Clouds 10 1032 93 10000 2.6 10 10:41 31.01.2020
3381 Clouds 10 1032 93 10000 2.6 10 10:21 31.01.2020
3382 Rain 12 1032 71 10000 2.6 80 09:56 31.01.2020
3383 Rain 9 1032 71 10000 2.6 80 09:38 31.01.2020
3384 Rain 9 1032 71 10000 2.6 80 09:18 31.01.2020
3385 Clouds 8 1032 76 10000 2.1 120 08:50 31.01.2020
3386 Clouds 8 1032 76 10000 2.1 120 08:50 31.01.2020
3387 Clouds 8 1032 76 10000 2.1 120 08:50 31.01.2020
3388 Clouds 9 1032 76 10000 2.1 120 08:25 31.01.2020
3389 Clouds 8 1032 76 10000 2.6 80 07:53 31.01.2020
3390 Clouds 8 1032 76 10000 2.6 80 07:24 31.01.2020
3391 Clouds 9 1033 71 10000 3.1 290 06:43 31.01.2020
3392 Clouds 9 1033 71 10000 3.1 290 06:18 31.01.2020
3393 Clouds 9 1033 71 10000 2.6 290 05:43 31.01.2020
3394 Clouds 9 1033 71 10000 1.5 270 04:54 31.01.2020
3395 Clouds 9 1031 71 10000 2.1 290 02:58 31.01.2020
3396 Clouds 11 1029 62 10000 1.5 0 01:33 31.01.2020
3397 Clouds 11 1029 62 10000 0.5 90 00:44 31.01.2020
3398 Clouds 11 1029 58 10000 2.1 30 00:25 31.01.2020
3399 Rain 12 1028 62 10000 1 0 23:53 30.01.2020
3400 Rain 13 1028 59 10000 2.1 280 23:24 30.01.2020
3401 Rain 13 1028 67 10000 1.5 320 22:56 30.01.2020
3402 Rain 14 1028 55 10000 1 350 22:36 30.01.2020
3403 Clouds 14 1029 59 10000 1 0 22:18 30.01.2020
3404 Clouds 14 1029 59 10000 1 0 21:43 30.01.2020
3405 Rain 13 1029 67 10000 2.1 0 21:20 30.01.2020
3406 Rain 12 1030 76 10000 1.5 170 20:59 30.01.2020
3407 Rain 11 1031 76 9000 3.6 280 20:39 30.01.2020
3408 Rain 11 1031 76 9000 3.6 280 20:39 30.01.2020
3409 Rain 11 1031 76 9000 3.6 280 20:21 30.01.2020
3410 Rain 12 1031 66 9000 6.7 300 19:55 30.01.2020
3411 Rain 13 1031 54 10000 6.2 300 19:36 30.01.2020
3412 Rain 12 1031 54 10000 6.2 300 19:18 30.01.2020
3413 Rain 12 1032 51 10000 5.7 290 18:39 30.01.2020
3414 Rain 12 1032 51 10000 5.7 290 18:20 30.01.2020
3415 Rain 12 1032 51 10000 2.6 300 17:55 30.01.2020
3416 Clouds 12 1032 55 10000 2.6 310 17:36 30.01.2020
3417 Clouds 16 1032 55 10000 2.6 310 17:18 30.01.2020
3418 Clouds 16 1032 48 10000 1.5 0 16:56 30.01.2020
3419 Clouds 16 1032 51 10000 1.5 50 16:36 30.01.2020
3420 Clouds 16 1032 51 10000 1.5 50 16:18 30.01.2020
3421 Clouds 14 1033 62 10000 1 80 15:41 30.01.2020
3422 Clouds 14 1033 62 10000 1 80 15:19 30.01.2020
3423 Clouds 14 1033 62 10000 1 80 15:19 30.01.2020
3424 Clouds 12 1033 66 10000 1.5 280 14:44 30.01.2020
3425 Clouds 12 1033 66 10000 1.5 280 14:26 30.01.2020
3426 Clouds 10 1032 76 10000 1.13 329 13:43 30.01.2020
3427 Clouds 10 1032 76 10000 1.13 329 13:25 30.01.2020
3428 Clouds 9 1032 76 10000 1.02 342 12:59 30.01.2020
3429 Mist 7 1031 87 10000 1 80 12:40 30.01.2020
3430 Mist 7 1031 87 10000 1 80 12:22 30.01.2020
3431 Clouds 8 1031 81 10000 1 230 11:54 30.01.2020
3432 Clouds 8 1030 81 10000 1 100 11:36 30.01.2020
3433 Clouds 8 1030 81 10000 1 100 11:18 30.01.2020
3434 Clouds 8 1030 81 10000 1.5 90 10:41 30.01.2020
3435 Clouds 8 1030 81 10000 1.5 90 10:21 30.01.2020
3436 Clouds 10 1030 76 10000 1 90 09:47 30.01.2020
3437 Clouds 10 1030 76 10000 1 90 09:29 30.01.2020
3438 Clouds 10 1030 76 10000 1.5 80 08:58 30.01.2020
3439 Clouds 10 1030 76 10000 1.5 80 08:38 30.01.2020
3440 Clouds 10 1030 76 10000 1.5 80 08:19 30.01.2020
3441 Clouds 10 1031 81 10000 2.1 110 07:48 30.01.2020
3442 Clouds 10 1031 81 10000 2.1 110 07:22 30.01.2020
3443 Clouds 11 1031 71 10000 1 80 06:47 30.01.2020
3444 Clouds 11 1031 71 10000 1 80 06:47 30.01.2020
3445 Clouds 8 1031 71 10000 1 80 06:28 30.01.2020
3446 Clouds 8 1032 71 10000 1 110 05:44 30.01.2020
3447 Clouds 11 1032 71 10000 1 110 05:20 30.01.2020
3448 Rain 9 1031 62 10000 1 130 03:53 30.01.2020
3449 Rain 9 1031 66 10000 2.1 280 03:35 30.01.2020
3450 Clouds 14 1029 58 10000 3.6 280 02:19 30.01.2020
3451 Clouds 11 1028 54 10000 3.6 270 00:40 30.01.2020
3452 Clouds 11 1028 54 10000 3.6 270 00:20 30.01.2020
3453 Clouds 13 1027 48 10000 2.6 270 23:45 29.01.2020
3454 Clouds 13 1027 45 10000 2.1 230 23:21 29.01.2020
3455 Clouds 13 1027 45 10000 2.6 250 22:56 29.01.2020
3456 Clouds 13 1027 48 10000 1 0 22:38 29.01.2020
3457 Clouds 13 1027 48 10000 1 0 22:19 29.01.2020
3458 Clouds 13 1027 48 10000 1 0 22:19 29.01.2020
3459 Clouds 13 1027 48 10000 5.1 20 21:57 29.01.2020
3460 Clouds 13 1027 45 10000 6.2 20 21:38 29.01.2020
3461 Clouds 13 1027 45 10000 6.2 20 21:19 29.01.2020
3462 Clouds 15 1027 40 10000 5.1 10 20:57 29.01.2020
3463 Clouds 14 1027 45 10000 2.6 0 20:38 29.01.2020
3464 Clouds 19 1027 45 10000 2.6 0 20:19 29.01.2020
3465 Clouds 19 1028 39 10000 2.6 20 19:55 29.01.2020
3466 Clouds 20 1028 42 10000 3.1 290 19:37 29.01.2020
3467 Clouds 20 1028 42 10000 3.1 290 19:37 29.01.2020
3468 Clouds 20 1028 42 10000 3.1 290 19:18 29.01.2020
3469 Clouds 19 1029 42 10000 1 0 18:43 29.01.2020
3470 Clouds 17 1032 48 10000 2.6 120 18:19 29.01.2020
3471 Clouds 18 1030 48 10000 1.5 0 17:56 29.01.2020
3472 Clouds 17 1032 48 10000 2.6 120 17:37 29.01.2020
3473 Clouds 17 1032 48 10000 2.6 120 17:37 29.01.2020
3474 Clouds 17 1032 48 10000 2.6 120 17:19 29.01.2020
3475 Clouds 15 1032 51 10000 1.5 10 16:41 29.01.2020
3476 Clouds 15 1032 51 10000 1.5 10 16:22 29.01.2020
3477 Clouds 15 1032 62 10000 1.5 50 15:55 29.01.2020
3478 Clouds 14 1032 67 10000 0.5 40 15:36 29.01.2020
3479 Clouds 14 1032 67 10000 0.5 40 15:18 29.01.2020
3480 Clouds 12 1032 71 10000 0.5 0 14:41 29.01.2020
3481 Clouds 12 1032 71 10000 0.5 0 14:20 29.01.2020
3482 Clouds 10 1031 76 10000 1.1 130 13:41 29.01.2020
3483 Clouds 10 1031 76 10000 1.14 141 13:22 29.01.2020
3484 Clouds 10 1031 76 10000 1 90 12:59 29.01.2020
3485 Clouds 9 1030 87 10000 1.5 100 12:39 29.01.2020
3486 Clouds 9 1030 87 10000 1.5 100 12:21 29.01.2020
3487 Clouds 7 1030 93 10000 1.5 100 11:58 29.01.2020
3488 Clouds 10 1030 76 10000 1 120 11:39 29.01.2020
3489 Clouds 10 1030 76 10000 1 120 11:19 29.01.2020
3490 Clouds 9 1029 81 10000 2.1 120 10:46 29.01.2020
3491 Clouds 8 1030 87 10000 2.1 110 10:22 29.01.2020
3492 Clouds 8 1030 87 10000 2.1 110 09:57 29.01.2020
3493 Clouds 8 1030 87 10000 2.1 110 09:38 29.01.2020
3494 Clouds 8 1030 87 10000 2.1 110 09:18 29.01.2020
3495 Clouds 10 1030 76 10000 2.1 110 08:41 29.01.2020
3496 Clouds 10 1030 76 10000 2.1 110 08:22 29.01.2020
3497 Clouds 10 1030 76 10000 2.1 100 07:45 29.01.2020
3498 Clouds 10 1030 76 10000 2.1 100 07:45 29.01.2020
3499 Clouds 10 1030 76 10000 2.1 100 07:26 29.01.2020
3500 Clouds 11 1031 71 10000 2.1 70 06:56 29.01.2020
3501 Clouds 11 1031 71 10000 2.1 70 06:37 29.01.2020
3502 Clouds 11 1031 71 10000 2.1 70 06:19 29.01.2020
3503 Rain 10 1032 81 10000 2.1 80 05:49 29.01.2020
3504 Rain 10 1032 81 10000 2.1 80 05:30 29.01.2020
3505 Rain 12 1031 76 10000 1.5 0 04:38 29.01.2020
3506 Clouds 14 1030 62 10000 2.6 60 03:58 29.01.2020
3507 Rain 9 1028 58 10000 4.1 350 02:33 29.01.2020
3508 Clouds 16 1027 51 10000 5.7 290 00:59 29.01.2020
3509 Clouds 11 1026 45 10000 4.6 300 00:36 29.01.2020
3510 Clouds 11 1026 45 10000 4.6 300 00:18 29.01.2020
3511 Clouds 13 1025 39 10000 7.2 290 23:39 28.01.2020
3512 Clouds 18 1025 39 10000 7.2 290 23:19 28.01.2020
3513 Clouds 19 1026 45 10000 4.6 290 22:49 28.01.2020
3514 Clouds 19 1026 45 10000 4.6 290 22:27 28.01.2020
3515 Clouds 19 1026 45 10000 5.1 270 21:57 28.01.2020
3516 Clouds 15 1027 42 10000 5.1 290 21:38 28.01.2020
3517 Clouds 16 1027 42 10000 5.1 290 21:19 28.01.2020
3518 Clouds 15 1028 48 10000 1.5 340 20:45 28.01.2020
3519 Clouds 15 1028 48 10000 1.5 340 20:26 28.01.2020
3520 Clouds 19 1029 37 10000 1.5 320 19:55 28.01.2020
3521 Clouds 18 1029 48 10000 2.6 310 19:37 28.01.2020
3522 Clouds 18 1029 48 10000 2.6 310 19:19 28.01.2020
3523 Clouds 18 1029 48 10000 2.6 310 19:19 28.01.2020
3524 Clouds 18 1029 48 10000 2.6 310 19:19 28.01.2020
3525 Clouds 16 1031 55 10000 1 310 18:41 28.01.2020
3526 Clouds 16 1031 55 10000 1 310 18:23 28.01.2020
3527 Clouds 16 1032 51 10000 1 260 17:59 28.01.2020
3528 Clouds 16 1032 51 10000 1 260 17:59 28.01.2020
3529 Clouds 15 1033 51 10000 1 90 17:39 28.01.2020
3530 Clouds 15 1033 51 10000 1 90 17:21 28.01.2020
3531 Clouds 15 1033 54 10000 1 200 16:58 28.01.2020
3532 Clouds 14 1033 58 10000 1 270 16:40 28.01.2020
3533 Clouds 14 1033 58 10000 1 270 16:21 28.01.2020
3534 Clouds 15 1034 58 10000 1 290 15:47 28.01.2020
3535 Clouds 13 1034 66 10000 1 110 15:19 28.01.2020
3536 Clouds 12 1034 71 10000 1.5 100 14:59 28.01.2020
3537 Clouds 11 1034 76 10000 1 140 14:41 28.01.2020
3538 Clouds 11 1034 76 10000 1 140 14:18 28.01.2020
3539 Clouds 10 1034 81 10000 1.5 80 13:42 28.01.2020
3540 Mist 9 1034 87 10000 1 100 13:24 28.01.2020
3541 Mist 9 1034 81 10000 1 80 12:44 28.01.2020
3542 Mist 8 1033 87 10000 1.5 110 12:24 28.01.2020
3543 Mist 8 1033 81 10000 2.1 110 11:58 28.01.2020
3544 Mist 9 1033 81 10000 1.5 90 11:40 28.01.2020
3545 Mist 9 1033 81 10000 1.5 90 11:21 28.01.2020
3546 Clouds 9 1032 81 10000 1.5 270 10:43 28.01.2020
3547 Clouds 9 1032 81 10000 1.5 270 10:24 28.01.2020
3548 Drizzle 9 1033 81 10000 0.5 0 09:59 28.01.2020
3549 Drizzle 9 1033 81 10000 0.5 0 09:39 28.01.2020
3550 Drizzle 9 1033 81 10000 0.5 0 09:20 28.01.2020
3551 Drizzle 9 1034 81 10000 0.5 0 08:44 28.01.2020
3552 Drizzle 9 1034 81 10000 0.5 0 08:25 28.01.2020
3553 Drizzle 9 1034 81 10000 2.8 151 07:44 28.01.2020
3554 Drizzle 9 1034 81 10000 2.8 151 07:26 28.01.2020
3555 Rain 9 1035 81 9000 2.1 260 06:47 28.01.2020
3556 Rain 9 1035 81 9000 2.1 260 06:24 28.01.2020
3557 Rain 9 1036 81 8000 2.1 260 05:37 28.01.2020
3558 Rain 9 1036 81 8000 2.1 260 05:19 28.01.2020
3559 Thunderstorm 10 1035 76 8000 3.1 10 03:46 28.01.2020
3560 Clouds 16 1031 51 10000 2.1 70 02:44 28.01.2020
3561 Rain 14 1033 54 8000 5.1 220 02:44 28.01.2020
3562 Clouds 16 1031 51 10000 2.1 70 02:24 28.01.2020
3563 Clouds 16 1030 51 10000 2.6 40 01:52 28.01.2020
3564 Clouds 17 1029 42 10000 1.5 0 01:20 28.01.2020
3565 Clouds 12 1028 39 10000 4.1 10 00:41 28.01.2020
3566 Clouds 12 1028 39 10000 4.1 10 00:19 28.01.2020
3567 Clouds 14 1027 37 10000 3.6 20 23:42 27.01.2020
3568 Clouds 20 1028 30 10000 2.1 330 23:19 27.01.2020
3569 Clouds 20 1027 30 10000 4.1 10 22:44 27.01.2020
3570 Clouds 21 1027 26 10000 4.1 20 22:20 27.01.2020
3571 Clouds 21 1027 26 10000 4.1 20 22:20 27.01.2020
3572 Clouds 22 1027 28 10000 5.1 50 21:57 27.01.2020
3573 Clouds 23 1028 23 10000 3.6 30 21:38 27.01.2020
3574 Clouds 23 1028 23 10000 3.6 30 21:19 27.01.2020
3575 Clouds 23 1028 49 10000 4.6 20 20:56 27.01.2020
3576 Clouds 24 1029 49 10000 5.1 30 20:37 27.01.2020
3577 Clouds 24 1029 29 10000 5.1 30 20:19 27.01.2020
3578 Clouds 23 1030 27 10000 2.1 140 19:42 27.01.2020
3579 Clouds 23 1030 27 10000 2.1 140 19:23 27.01.2020
3580 Clouds 22 1030 30 10000 2.6 230 18:59 27.01.2020
3581 Clouds 22 1031 30 10000 2.1 260 18:39 27.01.2020
3582 Clouds 22 1031 30 10000 2.1 260 18:21 27.01.2020
3583 Clouds 22 1031 30 10000 2.1 260 18:21 27.01.2020
3584 Clouds 21 1032 30 10000 2.6 110 17:57 27.01.2020
3585 Clouds 19 1033 39 10000 1.5 250 17:37 27.01.2020
3586 Clouds 19 1033 39 10000 1.5 250 17:18 27.01.2020
3587 Clouds 17 1034 45 10000 1.5 250 16:42 27.01.2020
3588 Clouds 17 1034 45 10000 1.5 250 16:24 27.01.2020
3589 Clouds 17 1034 48 10000 1 200 15:59 27.01.2020
3590 Clouds 15 1034 58 10000 1 150 15:40 27.01.2020
3591 Clouds 15 1034 58 10000 1 150 15:19 27.01.2020
3592 Clouds 14 1034 58 10000 1 110 14:56 27.01.2020
3593 Clouds 12 1034 66 10000 1.5 90 14:37 27.01.2020
3594 Clouds 12 1034 66 10000 1.5 90 14:37 27.01.2020
3595 Clouds 12 1034 66 10000 1.5 90 14:19 27.01.2020
3596 Clouds 11 1034 71 10000 2.1 90 13:42 27.01.2020
3597 Clouds 9 1034 81 10000 2.6 100 13:21 27.01.2020
3598 Clouds 9 1034 76 10000 1.5 120 12:56 27.01.2020
3599 Clouds 7 1034 81 10000 0.5 300 12:38 27.01.2020
3600 Clouds 7 1034 81 10000 0.5 300 12:20 27.01.2020
3601 Clouds 8 1034 81 10000 0.5 240 11:42 27.01.2020
3602 Clouds 8 1033 75 10000 1 60 11:21 27.01.2020
3603 Clouds 9 1033 76 10000 0.41 130 10:55 27.01.2020
3604 Clouds 9 1033 76 10000 0.41 130 10:36 27.01.2020
3605 Clouds 9 1033 76 10000 0.41 130 10:18 27.01.2020
3606 Clouds 8 1033 81 10000 1 100 09:39 27.01.2020
3607 Rain 6 1033 81 10000 1 100 09:19 27.01.2020
3608 Clouds 6 1033 76 10000 0.41 130 08:48 27.01.2020
3609 Clouds 6 1033 76 10000 0.47 179 08:23 27.01.2020
3610 Clouds 6 1033 76 10000 0.5 0 07:55 27.01.2020
3611 Clouds 7 1033 76 10000 0.5 0 07:36 27.01.2020
3612 Clouds 10 1033 76 10000 0.5 0 07:18 27.01.2020
3613 Clouds 8 1034 66 10000 1 100 06:33 27.01.2020
3614 Clouds 7 1034 66 10000 3.1 110 05:37 27.01.2020
3615 Clouds 13 1034 62 10000 0.5 280 04:21 27.01.2020
3616 Clouds 14 1033 50 10000 0.5 0 03:27 27.01.2020
3617 Clouds 16 1031 44 10000 2.6 30 01:42 27.01.2020
3618 Clouds 17 1030 42 10000 3.6 360 01:22 27.01.2020
3619 Clouds 18 1028 39 10000 2.6 30 00:40 27.01.2020
3620 Clouds 18 1028 39 10000 2.6 30 00:19 27.01.2020
3621 Clouds 19 1028 37 10000 3.1 20 23:42 26.01.2020
3622 Clouds 20 1028 34 10000 4.6 20 23:20 26.01.2020
3623 Clouds 20 1028 34 10000 5.7 40 22:57 26.01.2020
3624 Clouds 22 1028 33 10000 6.2 30 22:37 26.01.2020
3625 Clouds 22 1028 33 10000 6.2 30 22:19 26.01.2020
3626 Clouds 22 1028 33 10000 5.7 30 21:57 26.01.2020
3627 Clouds 23 1028 25 10000 5.7 30 21:38 26.01.2020
3628 Clouds 23 1028 25 10000 5.7 30 21:20 26.01.2020
3629 Clouds 23 1029 27 10000 4.6 40 20:56 26.01.2020
3630 Clouds 22 1030 30 10000 3.1 20 20:38 26.01.2020
3631 Clouds 22 1030 30 10000 3.1 20 20:18 26.01.2020
3632 Clouds 23 1030 25 10000 1.5 220 19:57 26.01.2020
3633 Clouds 22 1031 30 10000 1.5 350 19:37 26.01.2020
3634 Clouds 22 1031 30 10000 1.5 350 19:18 26.01.2020
3635 Clouds 22 1032 33 10000 1.5 0 18:41 26.01.2020
3636 Clouds 22 1032 33 10000 1.5 0 18:22 26.01.2020
3637 Clouds 21 1033 32 10000 5.1 90 17:59 26.01.2020
3638 Clouds 21 1033 37 10000 0.5 130 17:40 26.01.2020
3639 Clouds 21 1033 37 10000 0.5 130 17:20 26.01.2020
3640 Clouds 21 1033 37 10000 0.5 130 17:20 26.01.2020
3641 Clouds 20 1034 37 10000 1 0 16:59 26.01.2020
3642 Clouds 18 1034 42 10000 1.5 0 16:40 26.01.2020
3643 Clouds 18 1034 42 10000 1.5 0 16:21 26.01.2020
3644 Rain 15 1017 45 0 0.97 90 15:58 26.01.2020
3645 Rain 15 1017 45 0 0.97 90 15:58 26.01.2020
3646 Rain 15 1017 45 0 0.97 90 15:40 26.01.2020
3647 Rain 15 1017 45 0 0.97 90 15:19 26.01.2020
3648 Rain 15 1017 45 0 0.97 90 14:41 26.01.2020
3649 Clouds 8 1020 78 0 0.75 76 14:23 26.01.2020
3650 Clouds 8 1020 78 0 0.75 76 13:57 26.01.2020
3651 Clouds 8 1020 78 0 0.75 76 13:38 26.01.2020
3652 Clouds 8 1020 78 0 0.75 76 13:18 26.01.2020
3653 Clouds 8 1020 82 0 0.07 207 12:42 26.01.2020
3654 Clouds 8 1020 82 0 0.07 207 12:24 26.01.2020
3655 Clouds 8 1020 82 0 0.07 207 11:58 26.01.2020
3656 Clouds 8 1020 82 0 0.07 207 11:40 26.01.2020
3657 Clouds 9 1032 81 10000 2.6 80 11:19 26.01.2020
3658 Clouds 9 1032 81 10000 2.6 80 10:59 26.01.2020
3659 Clouds 9 1032 81 10000 2.6 80 10:38 26.01.2020
3660 Clouds 9 1032 81 10000 2.6 80 10:20 26.01.2020
3661 Clouds 10 1032 76 10000 0.5 0 09:58 26.01.2020
3662 Clouds 10 1032 76 10000 0.5 0 09:40 26.01.2020
3663 Clouds 10 1032 76 10000 0.5 0 09:21 26.01.2020
3664 Clouds 7 1032 76 10000 0.45 256 08:44 26.01.2020
3665 Clouds 7 1032 76 10000 0.5 287 08:23 26.01.2020
3666 Clouds 6 1033 76 10000 2.1 100 07:58 26.01.2020
3667 Clouds 7 1033 76 10000 2.1 100 07:40 26.01.2020
3668 Clouds 7 1033 76 10000 2.1 100 07:21 26.01.2020
3669 Clouds 8 1033 66 10000 1.5 130 06:31 26.01.2020
3670 Clouds 8 1034 66 10000 1 130 05:32 26.01.2020
3671 Clouds 8 1020 79 0 1.56 352 04:45 26.01.2020
3672 Clouds 13 1032 62 10000 1.5 280 02:59 26.01.2020
3673 Clouds 14 1031 54 10000 2.1 100 01:57 26.01.2020
3674 Clouds 16 1031 44 10000 1 150 01:37 26.01.2020
3675 Clouds 16 1031 44 10000 1 150 01:18 26.01.2020
3676 Clouds 18 1029 39 10000 3.1 170 00:38 26.01.2020
3677 Clouds 18 1029 39 10000 3.1 170 00:20 26.01.2020
3678 Clouds 9 1016 73 0 1.57 310 23:37 25.01.2020
3679 Rain 12 1012 64 0 3.23 321 23:18 25.01.2020
3680 Rain 12 1012 64 0 3.23 321 22:41 25.01.2020
3681 Rain 12 1012 64 0 3.23 321 22:20 25.01.2020
3682 Rain 12 1012 64 0 3.23 321 21:57 25.01.2020
3683 Rain 12 1012 64 0 3.23 321 21:39 25.01.2020
3684 Rain 12 1012 64 0 3.23 321 21:20 25.01.2020
3685 Rain 12 1012 64 0 3.23 321 20:45 25.01.2020
3686 Rain 12 1012 64 0 3.23 321 20:26 25.01.2020
3687 Rain 13 1015 60 0 3.41 22 19:56 25.01.2020
3688 Rain 13 1015 60 0 3.41 22 19:37 25.01.2020
3689 Rain 15 1015 59 0 3.85 9 19:19 25.01.2020
3690 Rain 15 1015 59 0 3.85 9 18:44 25.01.2020
3691 Rain 15 1015 59 0 3.85 9 18:23 25.01.2020
3692 Rain 15 1015 59 0 3.85 9 17:59 25.01.2020
3693 Rain 15 1015 59 0 3.85 9 17:39 25.01.2020
3694 Rain 13 1018 60 0 0.74 336 17:19 25.01.2020
3695 Rain 13 1018 60 0 0.74 336 16:56 25.01.2020
3696 Rain 13 1018 60 0 0.74 336 16:36 25.01.2020
3697 Rain 13 1018 60 0 0.74 336 16:18 25.01.2020
3698 Rain 13 1018 60 0 0.74 336 15:42 25.01.2020
3699 Rain 13 1018 60 0 0.74 336 15:23 25.01.2020
3700 Rain 13 1018 60 0 0.74 336 14:44 25.01.2020
3701 Rain 9 1019 78 0 0.49 59 14:19 25.01.2020
3702 Rain 9 1019 78 0 0.49 59 13:56 25.01.2020
3703 Rain 9 1019 78 0 0.49 59 13:38 25.01.2020
3704 Rain 9 1019 78 0 0.49 59 13:18 25.01.2020
3705 Clouds 9 1032 81 10000 1 220 12:41 25.01.2020
3706 Clouds 9 1032 81 10000 1 220 12:20 25.01.2020
3707 Clouds 8 1032 81 10000 1.5 110 11:40 25.01.2020
3708 Clouds 8 1032 81 10000 1.5 110 11:21 25.01.2020
3709 Clouds 8 1031 87 10000 1 90 10:56 25.01.2020
3710 Clouds 8 1031 87 10000 1 90 10:38 25.01.2020
3711 Clouds 8 1031 87 10000 1 90 10:19 25.01.2020
3712 Clouds 9 1031 81 10000 1.5 80 09:40 25.01.2020
3713 Clouds 9 1031 81 10000 1.5 80 09:20 25.01.2020
3714 Clouds 10 1032 76 10000 1.5 100 08:43 25.01.2020
3715 Clouds 7 1032 76 10000 1.5 100 08:20 25.01.2020
3716 Clouds 7 1032 81 10000 0.9 35 07:40 25.01.2020
3717 Clouds 7 1032 76 10000 1.5 110 06:44 25.01.2020
3718 Clouds 8 1032 76 10000 1.5 110 06:24 25.01.2020
3719 Rain 8 1033 81 10000 2.1 90 05:44 25.01.2020
3720 Clouds 8 1032 71 10000 2.06 23 04:25 25.01.2020
3721 Clouds 8 1032 66 10000 1 70 03:50 25.01.2020
3722 Clouds 9 1030 58 10000 1.5 70 02:40 25.01.2020
3723 Clouds 15 1029 54 10000 2.6 60 01:58 25.01.2020
3724 Clouds 15 1029 54 10000 2.1 90 01:34 25.01.2020
3725 Clouds 11 1027 48 10000 4.1 120 00:41 25.01.2020
3726 Clouds 12 1027 48 10000 4.1 120 00:23 25.01.2020
3727 Clouds 13 1027 42 10000 4.6 30 23:42 24.01.2020
3728 Clouds 14 1027 37 10000 3.6 10 23:24 24.01.2020
3729 Clouds 19 1027 39 10000 3.6 10 22:47 24.01.2020
3730 Clouds 20 1027 34 10000 3.6 10 22:29 24.01.2020
3731 Clouds 20 1028 34 10000 3.6 360 21:59 24.01.2020
3732 Clouds 19 1028 39 10000 4.1 20 21:41 24.01.2020
3733 Clouds 19 1028 39 10000 4.1 20 21:19 24.01.2020
3734 Clouds 20 1029 37 10000 3.1 20 20:44 24.01.2020
3735 Clouds 19 1029 42 10000 4.6 10 20:23 24.01.2020
3736 Clouds 19 1030 39 10000 6.2 10 19:59 24.01.2020
3737 Clouds 19 1031 39 10000 4.6 10 19:40 24.01.2020
3738 Clouds 19 1031 39 10000 4.6 10 19:22 24.01.2020
3739 Clouds 18 1031 45 10000 2.6 20 18:57 24.01.2020
3740 Clouds 18 1032 48 10000 2.1 290 18:39 24.01.2020
3741 Clouds 18 1032 48 10000 2.1 290 18:21 24.01.2020
3742 Clouds 17 1032 55 10000 1 0 17:42 24.01.2020
3743 Clouds 15 1033 54 10000 2.1 110 17:21 24.01.2020
3744 Clouds 15 1033 54 10000 2.6 120 16:55 24.01.2020
3745 Clouds 15 1034 54 10000 2.1 80 16:36 24.01.2020
3746 Clouds 15 1034 54 10000 2.1 80 16:18 24.01.2020
3747 Clouds 15 1034 54 10000 2.1 80 16:18 24.01.2020
3748 Clouds 15 1034 58 10000 1.5 70 15:40 24.01.2020
3749 Clouds 15 1034 58 10000 1.5 70 15:20 24.01.2020
3750 Clouds 14 1034 62 10000 2.1 80 14:42 24.01.2020
3751 Clouds 13 1033 66 10000 0.48 174 14:23 24.01.2020
3752 Clouds 11 1033 81 10000 0.4 236 13:58 24.01.2020
3753 Clouds 10 1033 81 10000 2.1 90 13:40 24.01.2020
3754 Clouds 10 1033 81 10000 2.1 90 13:21 24.01.2020
3755 Clouds 10 1032 81 10000 2.1 90 12:42 24.01.2020
3756 Drizzle 10 1032 87 10000 1.5 110 12:19 24.01.2020
3757 Clouds 11 1031 81 10000 1 90 11:43 24.01.2020
3758 Rain 11 1031 81 10000 1.45 323 11:19 24.01.2020
3759 Rain 11 1030 81 10000 1.45 323 10:43 24.01.2020
3760 Rain 11 1030 81 10000 1.45 323 10:23 24.01.2020
3761 Rain 11 1030 81 10000 1.45 323 09:57 24.01.2020
3762 Rain 11 1030 81 10000 1.45 323 09:57 24.01.2020
3763 Rain 11 1030 81 10000 1.45 323 09:39 24.01.2020
3764 Rain 11 1030 81 10000 1.45 323 09:21 24.01.2020
3765 Rain 9 1030 81 10000 0.5 110 08:41 24.01.2020
3766 Rain 9 1030 81 10000 0.5 110 08:20 24.01.2020
3767 Rain 8 1031 81 10000 1 120 07:52 24.01.2020
3768 Rain 9 1031 81 10000 1 120 07:34 24.01.2020
3769 Rain 8 1031 81 10000 2.6 100 06:48 24.01.2020
3770 Rain 8 1031 81 10000 2.6 100 06:29 24.01.2020
3771 Rain 8 1031 71 10000 2.6 100 05:58 24.01.2020
3772 Rain 9 1031 66 10000 0.5 0 04:57 24.01.2020
3773 Clouds 13 1030 66 10000 2.1 90 02:53 24.01.2020
3774 Clouds 10 1030 58 10000 1 40 02:25 24.01.2020
3775 Clouds 15 1029 51 10000 3.1 30 01:45 24.01.2020
3776 Clouds 15 1028 51 10000 5.1 20 01:26 24.01.2020
3777 Clouds 11 1027 48 10000 4.6 20 00:23 24.01.2020
3778 Clouds 13 1026 45 10000 4.1 10 23:49 23.01.2020
3779 Clouds 12 1026 45 10000 4.6 20 23:31 23.01.2020
3780 Clouds 19 1026 45 10000 2.1 0 22:59 23.01.2020
3781 Clouds 18 1027 48 10000 0.5 0 22:38 23.01.2020
3782 Clouds 18 1027 48 10000 0.5 0 22:38 23.01.2020
3783 Clouds 18 1027 48 10000 0.5 0 22:19 23.01.2020
3784 Clouds 17 1027 48 10000 1.5 0 21:57 23.01.2020
3785 Rain 12 1028 55 10000 2.6 0 21:39 23.01.2020
3786 Rain 13 1028 55 10000 2.6 0 21:20 23.01.2020
3787 Rain 13 1028 45 10000 1.5 110 20:58 23.01.2020
3788 Rain 12 1029 48 10000 3.6 360 20:38 23.01.2020
3789 Rain 17 1029 48 10000 3.6 360 20:19 23.01.2020
3790 Rain 18 1029 48 10000 3.1 360 19:54 23.01.2020
3791 Rain 13 1031 55 10000 2.1 110 19:36 23.01.2020
3792 Rain 17 1031 55 10000 2.1 110 19:18 23.01.2020
3793 Rain 15 1032 51 10000 2.1 100 18:42 23.01.2020
3794 Rain 15 1032 51 10000 2.1 100 18:20 23.01.2020
3795 Rain 15 1032 51 10000 2.1 100 18:20 23.01.2020
3796 Clouds 15 1032 54 10000 3.1 90 17:58 23.01.2020
3797 Clouds 15 1032 58 10000 3.6 90 17:39 23.01.2020
3798 Clouds 15 1032 58 10000 3.6 90 17:19 23.01.2020
3799 Clouds 16 1033 59 10000 3.1 100 16:55 23.01.2020
3800 Clouds 14 1033 58 10000 1 100 16:36 23.01.2020
3801 Clouds 14 1033 58 10000 1 100 16:18 23.01.2020
3802 Clouds 13 1034 62 10000 1 60 15:54 23.01.2020
3803 Clouds 13 1034 62 10000 2.6 90 15:36 23.01.2020
3804 Clouds 12 1034 62 10000 2.1 90 15:18 23.01.2020
3805 Clouds 12 1034 62 10000 2.1 90 14:54 23.01.2020
3806 Clouds 10 1034 76 10000 2.1 90 14:36 23.01.2020
3807 Clouds 10 1034 76 10000 2.1 90 14:18 23.01.2020
3808 Rain 8 1033 87 7000 2.6 100 13:38 23.01.2020
3809 Rain 8 1033 87 7000 2.6 100 13:19 23.01.2020
3810 Rain 8 1033 87 5000 3.1 110 12:47 23.01.2020
3811 Rain 8 1032 81 5000 3.6 120 12:25 23.01.2020
3812 Rain 8 1032 81 5000 3.6 120 12:25 23.01.2020
3813 Rain 8 1031 87 8000 3.6 120 11:58 23.01.2020
3814 Rain 8 1031 87 9000 5.7 110 11:38 23.01.2020
3815 Rain 8 1031 87 9000 5.7 110 11:19 23.01.2020
3816 Rain 9 1031 87 7000 3.1 100 10:44 23.01.2020
3817 Rain 9 1031 87 7000 3.1 100 10:22 23.01.2020
3818 Rain 10 1030 81 10000 1 110 09:59 23.01.2020
3819 Rain 10 1030 81 10000 1 110 09:37 23.01.2020
3820 Rain 10 1030 81 10000 1 110 09:19 23.01.2020
3821 Drizzle 10 1031 81 10000 1.5 110 08:41 23.01.2020
3822 Drizzle 10 1031 81 10000 1.5 110 08:22 23.01.2020
3823 Clouds 10 1031 81 10000 2.1 100 07:45 23.01.2020
3824 Clouds 10 1031 81 10000 2.1 100 07:26 23.01.2020
3825 Clouds 11 1031 76 10000 2.6 130 06:53 23.01.2020
3826 Clouds 11 1031 76 10000 2.6 130 06:23 23.01.2020
3827 Clouds 11 1032 76 10000 5.1 110 05:57 23.01.2020
3828 Clouds 12 1031 76 10000 2.1 110 04:24 23.01.2020
3829 Clouds 13 1029 66 10000 2.6 110 02:34 23.01.2020
3830 Clouds 13 1028 71 10000 3.1 110 01:41 23.01.2020
3831 Clouds 14 1027 67 10000 1.5 110 00:28 23.01.2020
3832 Clouds 15 1027 58 10000 1 260 23:48 22.01.2020
3833 Clouds 14 1027 62 10000 1.5 300 23:30 22.01.2020
3834 Clouds 14 1027 62 10000 1.5 280 22:59 22.01.2020
3835 Rain 14 1027 62 10000 2.1 280 22:41 22.01.2020
3836 Rain 14 1027 62 10000 2.1 280 22:41 22.01.2020
3837 Rain 14 1027 62 10000 2.1 280 22:22 22.01.2020
3838 Rain 14 1027 62 9000 9.8 300 21:40 22.01.2020
3839 Rain 14 1027 62 9000 9.8 300 21:22 22.01.2020
3840 Clouds 15 1027 62 10000 10.3 290 20:58 22.01.2020
3841 Clouds 17 1027 59 10000 5.1 290 20:39 22.01.2020
3842 Clouds 17 1027 59 10000 5.1 290 20:21 22.01.2020
3843 Clouds 16 1028 63 10000 6.2 290 19:57 22.01.2020
3844 Rain 15 1028 62 9000 4.1 10 19:38 22.01.2020
3845 Rain 15 1028 62 9000 4.1 10 19:18 22.01.2020
3846 Rain 19 1028 42 10000 2.1 350 18:56 22.01.2020
3847 Clouds 18 1029 45 10000 2.1 170 18:38 22.01.2020
3848 Clouds 18 1029 45 10000 2.1 170 18:19 22.01.2020
3849 Clouds 17 1029 55 10000 5.1 120 17:54 22.01.2020
3850 Clouds 17 1030 51 10000 3.6 90 17:36 22.01.2020
3851 Clouds 17 1030 51 10000 3.6 90 17:18 22.01.2020
3852 Clouds 17 1030 51 10000 3.6 90 17:18 22.01.2020
3853 Clouds 16 1030 55 10000 2.6 120 16:43 22.01.2020
3854 Clouds 16 1031 59 10000 2.1 100 16:22 22.01.2020
3855 Clouds 15 1031 58 10000 2.1 80 15:58 22.01.2020
3856 Clouds 14 1032 62 10000 3.1 100 15:39 22.01.2020
3857 Clouds 14 1032 62 10000 3.1 100 15:21 22.01.2020
3858 Clouds 14 1032 62 10000 3.1 100 15:21 22.01.2020
3859 Clouds 13 1032 66 10000 0.5 110 14:54 22.01.2020
3860 Clouds 13 1032 66 10000 0.5 200 14:36 22.01.2020
3861 Clouds 13 1032 66 10000 0.5 200 14:36 22.01.2020
3862 Clouds 13 1032 66 10000 0.5 200 14:18 22.01.2020
3863 Clouds 12 1031 76 10000 1 360 13:54 22.01.2020
3864 Clouds 11 1031 81 10000 2.6 80 13:36 22.01.2020
3865 Clouds 11 1031 81 10000 2.6 80 13:18 22.01.2020
3866 Clouds 10 1031 87 10000 2.6 120 12:54 22.01.2020
3867 Clouds 10 1030 81 10000 1.5 90 12:36 22.01.2020
3868 Clouds 10 1030 81 10000 1.5 90 12:18 22.01.2020
3869 Clouds 10 1030 87 10000 1.5 110 11:54 22.01.2020
3870 Clouds 10 1029 81 10000 1 100 11:36 22.01.2020
3871 Clouds 10 1029 81 10000 1 100 11:18 22.01.2020
3872 Clouds 10 1029 81 9000 1.23 164 10:41 22.01.2020
3873 Clouds 10 1029 81 9000 1.23 164 10:19 22.01.2020
3874 Drizzle 9 1029 87 9000 1.23 164 09:43 22.01.2020
3875 Drizzle 9 1029 87 9000 1.23 164 09:24 22.01.2020
3876 Rain 10 1030 87 8000 1.23 164 08:57 22.01.2020
3877 Rain 10 1030 87 8000 1.23 164 08:39 22.01.2020
3878 Rain 10 1030 87 8000 1.75 168 08:20 22.01.2020
3879 Rain 10 1031 81 7000 1 280 07:47 22.01.2020
3880 Rain 10 1031 81 7000 1 280 07:29 22.01.2020
3881 Rain 11 1031 81 10000 2.6 280 06:46 22.01.2020
3882 Rain 11 1031 81 10000 2.6 280 06:26 22.01.2020
3883 Rain 13 1031 76 10000 3.1 280 05:26 22.01.2020
3884 Clouds 12 1030 81 10000 1 270 03:30 22.01.2020
3885 Clouds 12 1029 87 10000 1 290 02:57 22.01.2020
3886 Clouds 13 1029 71 10000 1 330 01:42 22.01.2020
3887 Clouds 13 1028 76 10000 1.87 158 00:44 22.01.2020
3888 Drizzle 13 1028 71 10000 1.5 230 00:26 22.01.2020
3889 Clouds 15 1027 58 10000 6.2 110 23:38 21.01.2020
3890 Clouds 16 1027 55 10000 5.1 120 23:20 21.01.2020
3891 Clouds 16 1027 55 10000 5.1 120 22:55 21.01.2020
3892 Clouds 16 1027 55 10000 5.1 120 22:55 21.01.2020
3893 Clouds 16 1027 55 10000 5.1 120 22:55 21.01.2020
3894 Clouds 16 1027 55 10000 5.1 120 22:55 21.01.2020
3895 Clouds 17 1027 55 10000 5.7 120 22:36 21.01.2020
3896 Clouds 17 1027 55 10000 5.7 120 22:18 21.01.2020
3897 Clouds 18 1027 45 10000 1.5 190 21:55 21.01.2020
3898 Clouds 19 1028 48 10000 2.1 250 21:37 21.01.2020
3899 Clouds 19 1028 48 10000 2.1 250 21:18 21.01.2020
3900 Clouds 18 1028 48 10000 2.6 180 20:55 21.01.2020
3901 Clouds 17 1029 48 10000 1 360 20:36 21.01.2020
3902 Clouds 17 1029 48 10000 1 360 20:18 21.01.2020
3903 Clouds 16 1029 59 10000 1.5 250 19:55 21.01.2020
3904 Clouds 15 1030 62 10000 1.5 310 19:36 21.01.2020
3905 Clouds 15 1030 62 10000 1.5 310 19:18 21.01.2020
3906 Clouds 15 1031 62 10000 1 330 18:54 21.01.2020
3907 Drizzle 14 1032 62 10000 2.1 220 18:36 21.01.2020
3908 Drizzle 14 1032 62 10000 2.1 220 18:18 21.01.2020
3909 Drizzle 13 1033 71 10000 3.1 310 17:42 21.01.2020
3910 Drizzle 13 1033 71 10000 3.1 310 17:19 21.01.2020
3911 Drizzle 13 1033 66 10000 4.1 290 16:55 21.01.2020
3912 Clouds 12 1033 71 10000 3.1 300 16:36 21.01.2020
3913 Clouds 12 1033 71 10000 3.1 300 16:18 21.01.2020
3914 Drizzle 12 1033 76 9000 3.6 290 15:39 21.01.2020
3915 Drizzle 12 1033 76 9000 3.6 290 15:19 21.01.2020
3916 Drizzle 11 1032 81 9000 1 0 14:40 21.01.2020
3917 Drizzle 11 1032 81 9000 1 0 14:22 21.01.2020
3918 Drizzle 11 1032 81 9000 1 270 13:58 21.01.2020
3919 Drizzle 11 1032 81 9000 0.5 0 13:38 21.01.2020
3920 Drizzle 11 1032 81 9000 0.5 0 13:18 21.01.2020
3921 Rain 10 1031 81 8000 0.68 236 12:42 21.01.2020
3922 Drizzle 10 1031 87 6000 0.5 240 12:24 21.01.2020
3923 Rain 11 1031 81 6000 1.5 260 11:56 21.01.2020
3924 Rain 11 1030 81 10000 1.5 280 11:38 21.01.2020
3925 Rain 11 1030 81 10000 1.5 280 11:19 21.01.2020
3926 Rain 11 1030 81 10000 1.5 290 10:43 21.01.2020
3927 Rain 11 1030 81 10000 1.5 290 10:23 21.01.2020
3928 Rain 11 1030 81 10000 1.5 90 09:56 21.01.2020
3929 Rain 11 1030 81 10000 1.5 90 09:56 21.01.2020
3930 Rain 11 1030 81 10000 1.5 90 09:38 21.01.2020
3931 Rain 11 1030 81 10000 1.5 90 09:20 21.01.2020
3932 Clouds 11 1030 76 10000 0.54 240 08:44 21.01.2020
3933 Clouds 11 1030 76 10000 0.54 240 08:26 21.01.2020
3934 Drizzle 11 1031 76 10000 2.1 280 07:44 21.01.2020
3935 Drizzle 11 1031 76 10000 2.1 280 07:25 21.01.2020
3936 Clouds 11 1032 76 10000 1 100 06:58 21.01.2020
3937 Clouds 11 1032 76 10000 1 100 06:38 21.01.2020
3938 Clouds 11 1032 71 10000 1 150 05:55 21.01.2020
3939 Clouds 11 1032 71 10000 1 150 05:55 21.01.2020
3940 Clouds 11 1032 71 10000 1 150 05:32 21.01.2020
3941 Clouds 11 1032 76 10000 1 110 04:38 21.01.2020
3942 Clouds 11 1031 71 10000 2.1 290 02:29 21.01.2020
3943 Clouds 14 1029 58 10000 1 90 01:36 21.01.2020
3944 Clouds 14 1029 58 10000 3.1 100 00:51 21.01.2020
3945 Clouds 15 1028 54 10000 4.1 120 00:28 21.01.2020
3946 Clouds 15 1028 54 10000 5.1 110 23:56 20.01.2020
3947 Clouds 16 1028 51 10000 4.6 110 23:36 20.01.2020
3948 Clouds 16 1028 51 10000 4.6 110 23:18 20.01.2020
3949 Clouds 17 1029 48 10000 2.1 90 22:40 20.01.2020
3950 Clouds 17 1029 48 10000 2.1 90 22:21 20.01.2020
3951 Clouds 17 1029 48 10000 2.1 0 21:58 20.01.2020
3952 Clouds 18 1030 42 10000 1.5 330 21:38 20.01.2020
3953 Clouds 18 1030 42 10000 1.5 330 21:20 20.01.2020
3954 Clouds 18 1030 48 10000 2.1 300 20:59 20.01.2020
3955 Clouds 17 1031 51 10000 3.1 300 20:41 20.01.2020
3956 Clouds 17 1031 51 10000 3.1 300 20:20 20.01.2020
3957 Clouds 16 1031 51 10000 4.1 300 19:58 20.01.2020
3958 Clouds 16 1033 48 10000 6.7 290 19:40 20.01.2020
3959 Clouds 16 1033 48 10000 6.7 290 19:19 20.01.2020
3960 Clouds 17 1033 48 10000 6.2 290 18:55 20.01.2020
3961 Clouds 18 1034 42 10000 0.5 0 18:37 20.01.2020
3962 Clouds 18 1034 42 10000 0.5 0 18:19 20.01.2020
3963 Clouds 17 1034 42 10000 1 340 17:38 20.01.2020
3964 Clouds 15 1035 47 10000 2.1 0 17:19 20.01.2020
3965 Clouds 15 1035 47 10000 2.1 0 16:46 20.01.2020
3966 Clouds 15 1035 51 10000 1.5 0 16:26 20.01.2020
3967 Clouds 15 1035 47 10000 1 220 15:59 20.01.2020
3968 Clouds 14 1035 54 10000 1.5 0 15:40 20.01.2020
3969 Clouds 14 1035 54 10000 1.5 0 15:22 20.01.2020
3970 Clouds 13 1035 58 10000 2.1 260 14:58 20.01.2020
3971 Clouds 13 1035 62 10000 0.5 90 14:39 20.01.2020
3972 Clouds 13 1035 62 10000 0.5 90 14:20 20.01.2020
3973 Clouds 12 1035 62 10000 1 0 13:44 20.01.2020
3974 Clouds 12 1034 62 10000 1 240 13:24 20.01.2020
3975 Clouds 12 1034 62 10000 1.5 250 12:58 20.01.2020
3976 Clouds 11 1033 71 10000 1.5 80 12:40 20.01.2020
3977 Clouds 11 1033 71 10000 1.5 80 12:21 20.01.2020
3978 Clouds 11 1033 71 10000 1.5 80 11:43 20.01.2020
3979 Clouds 10 1033 76 10000 1 100 11:24 20.01.2020
3980 Clouds 10 1032 76 10000 1.5 100 10:58 20.01.2020
3981 Clouds 10 1032 76 10000 1.5 100 10:40 20.01.2020
3982 Clouds 10 1032 76 10000 1.5 100 10:20 20.01.2020
3983 Clouds 11 1032 71 10000 1 110 09:41 20.01.2020
3984 Clouds 11 1032 71 10000 1 110 09:22 20.01.2020
3985 Clouds 11 1032 66 10000 1.5 100 08:54 20.01.2020
3986 Clouds 11 1032 66 10000 1.5 100 08:31 20.01.2020
3987 Clouds 12 1033 62 10000 0.96 360 07:55 20.01.2020
3988 Clouds 12 1033 62 10000 0.96 360 07:36 20.01.2020
3989 Clouds 12 1033 62 10000 0.96 360 07:18 20.01.2020
3990 Clouds 12 1033 66 10000 1.5 100 06:35 20.01.2020
3991 Clouds 12 1034 62 10000 2.1 100 05:56 20.01.2020
3992 Clouds 12 1034 62 10000 2.1 100 05:37 20.01.2020
3993 Clouds 12 1034 62 10000 2.1 100 05:18 20.01.2020
3994 Clouds 13 1033 62 10000 1.5 100 03:47 20.01.2020
3995 Clouds 16 1031 48 10000 3.6 360 01:58 20.01.2020
3996 Clouds 17 1030 45 10000 2.6 10 01:39 20.01.2020
3997 Clouds 18 1029 39 10000 1.5 60 00:46 20.01.2020
3998 Clouds 18 1028 39 10000 4.1 10 00:27 20.01.2020
3999 Clouds 19 1028 32 10000 3.1 20 23:55 19.01.2020
4000 Clouds 20 1027 30 10000 2.1 40 23:36 19.01.2020
4001 Clouds 20 1027 30 10000 2.1 40 23:18 19.01.2020
4002 Clouds 20 1027 30 10000 2.1 40 22:54 19.01.2020
4003 Clouds 21 1028 30 10000 4.6 10 22:36 19.01.2020
4004 Clouds 21 1028 30 10000 4.6 10 22:18 19.01.2020
4005 Clouds 21 1028 32 10000 2.6 60 21:55 19.01.2020
4006 Clouds 21 1028 32 10000 2.6 60 21:55 19.01.2020
4007 Clouds 21 1029 30 10000 3.1 10 21:37 19.01.2020
4008 Clouds 21 1030 30 10000 4.6 350 21:18 19.01.2020
4009 Clouds 21 1030 30 10000 4.6 350 20:55 19.01.2020
4010 Clouds 21 1031 32 10000 2.6 330 20:37 19.01.2020
4011 Clouds 21 1031 32 10000 2.6 330 20:18 19.01.2020
4012 Clouds 20 1031 32 10000 2.6 350 19:54 19.01.2020
4013 Clouds 20 1032 37 10000 5.7 20 19:36 19.01.2020
4014 Clouds 20 1032 37 10000 5.7 20 19:18 19.01.2020
4015 Clouds 19 1033 37 10000 5.1 350 18:55 19.01.2020
4016 Clouds 17 1034 42 10000 2.1 180 18:36 19.01.2020
4017 Clouds 17 1034 42 10000 2.1 180 18:18 19.01.2020
4018 Clouds 17 1034 45 10000 3.6 100 17:56 19.01.2020
4019 Clouds 16 1035 41 10000 1 170 17:38 19.01.2020
4020 Clouds 16 1035 41 10000 1 170 17:18 19.01.2020
4021 Clouds 17 1037 42 10000 2.6 110 16:55 19.01.2020
4022 Clouds 16 1036 44 10000 2.1 130 16:36 19.01.2020
4023 Clouds 16 1036 44 10000 2.1 130 16:18 19.01.2020
4024 Clouds 15 1036 47 10000 2.1 120 15:54 19.01.2020
4025 Clouds 13 1036 54 10000 2.6 170 15:36 19.01.2020
4026 Clouds 13 1036 54 10000 2.6 170 15:18 19.01.2020
4027 Clouds 13 1036 54 10000 2.6 170 15:18 19.01.2020
4028 Clouds 13 1036 54 10000 2.6 170 15:18 19.01.2020
4029 Clouds 12 1036 58 10000 1.5 40 14:40 19.01.2020
4030 Clouds 12 1036 58 10000 1.5 40 14:21 19.01.2020
4031 Clouds 12 1035 58 10000 0.5 60 13:59 19.01.2020
4032 Clouds 10 1035 71 10000 1 110 13:40 19.01.2020
4033 Clouds 10 1035 71 10000 1 110 13:22 19.01.2020
4034 Clouds 9 1035 70 10000 1.21 124 12:59 19.01.2020
4035 Clouds 6 1034 81 10000 1.5 100 12:41 19.01.2020
4036 Clouds 6 1034 81 10000 1.5 100 12:21 19.01.2020
4037 Clouds 6 1034 81 10000 2.1 100 11:57 19.01.2020
4038 Clouds 6 1034 81 10000 1.21 124 11:38 19.01.2020
4039 Rain 6 1034 81 10000 0.62 79 11:18 19.01.2020
4040 Rain 6 1033 93 10000 0.62 79 10:41 19.01.2020
4041 Rain 6 1033 93 10000 0.62 79 10:21 19.01.2020
4042 Rain 7 1033 75 10000 0.62 79 09:57 19.01.2020
4043 Rain 7 1033 75 10000 0.62 79 09:38 19.01.2020
4044 Rain 5 1033 75 10000 0.62 79 09:20 19.01.2020
4045 Rain 6 1034 75 10000 1.5 90 08:55 19.01.2020
4046 Rain 7 1034 75 10000 1.5 90 08:33 19.01.2020
4047 Clouds 7 1034 75 10000 0.95 12 07:58 19.01.2020
4048 Clouds 8 1034 75 10000 0.95 12 07:29 19.01.2020
4049 Clouds 9 1035 70 10000 0.95 12 06:55 19.01.2020
4050 Clouds 9 1035 70 10000 0.95 12 06:23 19.01.2020
4051 Clouds 10 1035 66 10000 2.6 290 04:18 19.01.2020
4052 Clouds 14 1033 44 10000 2.6 20 02:34 19.01.2020
4053 Clouds 14 1032 44 10000 3.1 20 01:43 19.01.2020
4054 Clouds 14 1031 47 10000 4.1 10 01:21 19.01.2020
4055 Clouds 15 1031 44 10000 3.6 40 00:45 19.01.2020
4056 Clouds 11 1030 44 10000 3.1 30 00:24 19.01.2020
4057 Clouds 12 1030 44 10000 3.1 30 23:55 18.01.2020
4058 Rain 12 1030 45 10000 2.1 50 23:36 18.01.2020
4059 Clouds 17 1030 45 10000 2.1 50 23:18 18.01.2020
4060 Clouds 17 1030 39 10000 2.1 80 22:42 18.01.2020
4061 Clouds 17 1030 42 10000 4.1 10 22:24 18.01.2020
4062 Clouds 17 1030 42 10000 4.1 10 22:24 18.01.2020
4063 Clouds 16 1031 44 10000 4.1 100 21:58 18.01.2020
4064 Clouds 18 1031 39 10000 5.1 90 21:39 18.01.2020
4065 Clouds 18 1031 39 10000 5.1 90 21:21 18.01.2020
4066 Clouds 18 1031 42 10000 0.5 0 20:59 18.01.2020
4067 Clouds 18 1033 42 10000 6.7 20 20:41 18.01.2020
4068 Clouds 18 1033 42 10000 6.7 20 20:19 18.01.2020
4069 Clouds 18 1033 42 10000 4.6 360 19:43 18.01.2020
4070 Clouds 18 1033 42 10000 5.7 30 19:24 18.01.2020
4071 Clouds 17 1034 42 10000 5.7 20 18:54 18.01.2020
4072 Clouds 18 1034 42 10000 5.1 20 18:36 18.01.2020
4073 Clouds 18 1034 42 10000 5.1 20 18:18 18.01.2020
4074 Clouds 17 1035 42 10000 3.6 20 17:41 18.01.2020
4075 Clouds 17 1035 42 10000 3.6 20 17:21 18.01.2020
4076 Clouds 16 1035 44 10000 4.6 20 16:57 18.01.2020
4077 Clouds 15 1035 51 10000 3.1 350 16:38 18.01.2020
4078 Clouds 15 1035 51 10000 3.1 350 16:19 18.01.2020
4079 Clouds 15 1035 51 10000 3.1 350 16:19 18.01.2020
4080 Clouds 15 1035 54 10000 1.5 190 15:47 18.01.2020
4081 Clouds 14 1035 58 10000 1 0 15:26 18.01.2020
4082 Clouds 12 1035 62 10000 1 0 15:00 18.01.2020
4083 Clouds 12 1035 62 10000 1 60 14:41 18.01.2020
4084 Clouds 12 1035 62 10000 1 60 14:19 18.01.2020
4085 Clouds 12 1035 62 10000 1 70 13:57 18.01.2020
4086 Clouds 11 1035 66 10000 1 80 13:36 18.01.2020
4087 Clouds 11 1035 66 10000 1 80 13:18 18.01.2020
4088 Clouds 11 1035 66 10000 1 80 13:18 18.01.2020
4089 Clouds 10 1034 71 10000 1.33 119 12:41 18.01.2020
4090 Clouds 10 1034 71 10000 1.33 119 12:21 18.01.2020
4091 Clouds 9 1034 76 10000 1.5 90 11:56 18.01.2020
4092 Clouds 10 1033 71 10000 1.33 119 11:38 18.01.2020
4093 Clouds 10 1033 71 10000 1.42 111 11:19 18.01.2020
4094 Clouds 10 1033 71 10000 1.5 110 10:42 18.01.2020
4095 Clouds 10 1033 71 10000 1.5 110 10:21 18.01.2020
4096 Clouds 10 1033 76 10000 2.1 100 09:54 18.01.2020
4097 Clouds 10 1033 76 10000 2.1 100 09:36 18.01.2020
4098 Clouds 6 1034 76 10000 2.1 90 08:59 18.01.2020
4099 Clouds 7 1034 76 10000 2.1 90 08:41 18.01.2020
4100 Clouds 7 1034 76 10000 2.1 90 08:41 18.01.2020
4101 Clouds 7 1034 76 10000 2.1 90 08:20 18.01.2020
4102 Clouds 7 1034 76 10000 2.1 90 08:20 18.01.2020
4103 Clouds 7 1034 76 10000 1.5 100 07:52 18.01.2020
4104 Clouds 7 1034 76 10000 1.5 100 07:34 18.01.2020
4105 Clouds 10 1035 71 10000 1.5 90 06:48 18.01.2020
4106 Clouds 10 1035 71 10000 1.5 90 06:19 18.01.2020
4107 Clouds 12 1035 58 10000 1 210 05:31 18.01.2020
4108 Clouds 12 1035 62 10000 1.5 100 03:46 18.01.2020
4109 Clouds 14 1034 50 10000 1.5 100 02:21 18.01.2020
4110 Clouds 14 1033 47 10000 3.1 100 01:36 18.01.2020
4111 Clouds 15 1032 41 10000 6.2 80 00:39 18.01.2020
4112 Clouds 15 1032 41 10000 6.2 80 00:19 18.01.2020
4113 Clouds 15 1031 38 10000 4.6 100 23:56 17.01.2020
4114 Clouds 17 1031 39 10000 3.6 70 23:38 17.01.2020
4115 Clouds 17 1031 39 10000 3.6 70 23:18 17.01.2020
4116 Clouds 18 1031 39 10000 4.1 100 22:40 17.01.2020
4117 Clouds 17 1031 42 10000 5.7 70 22:19 17.01.2020
4118 Clouds 17 1031 42 10000 5.7 70 21:43 17.01.2020
4119 Clouds 20 1031 34 10000 3.6 70 21:24 17.01.2020
4120 Clouds 18 1032 39 10000 5.7 90 20:59 17.01.2020
4121 Rain 21 1032 32 10000 4.6 100 20:41 17.01.2020
4122 Rain 21 1032 32 10000 4.6 100 20:20 17.01.2020
4123 Clouds 20 1032 30 10000 4.6 10 19:57 17.01.2020
4124 Clouds 20 1033 37 10000 4.6 10 19:38 17.01.2020
4125 Clouds 20 1033 37 10000 4.6 10 19:20 17.01.2020
4126 Clouds 18 1034 34 10000 5.1 10 18:57 17.01.2020
4127 Clouds 18 1034 39 10000 3.1 340 18:38 17.01.2020
4128 Clouds 18 1034 39 10000 3.1 340 18:20 17.01.2020
4129 Clouds 16 1035 38 10000 1.5 150 17:40 17.01.2020
4130 Clouds 16 1035 38 10000 1.5 150 17:21 17.01.2020
4131 Clouds 16 1035 41 10000 1 0 16:57 17.01.2020
4132 Clouds 16 1035 38 10000 1.5 110 16:38 17.01.2020
4133 Clouds 16 1035 38 10000 1.5 110 16:18 17.01.2020
4134 Clouds 16 1035 41 10000 2.1 240 15:44 17.01.2020
4135 Clouds 16 1036 48 10000 0.5 0 15:26 17.01.2020
4136 Clouds 13 1036 58 10000 1 90 14:44 17.01.2020
4137 Clouds 13 1036 58 10000 0.5 320 14:26 17.01.2020
4138 Clouds 13 1035 58 10000 0.5 0 13:56 17.01.2020
4139 Clouds 10 1036 66 10000 0.5 280 13:37 17.01.2020
4140 Clouds 10 1036 66 10000 0.5 280 13:18 17.01.2020
4141 Clouds 10 1036 66 10000 0.5 280 13:18 17.01.2020
4142 Clouds 8 1035 81 10000 1 110 12:42 17.01.2020
4143 Mist 5 1035 80 10000 1 300 12:21 17.01.2020
4144 Clouds 6 1034 87 10000 1.5 100 11:38 17.01.2020
4145 Clouds 6 1034 87 10000 1.5 100 11:18 17.01.2020
4146 Clouds 6 1034 81 10000 0.5 0 10:42 17.01.2020
4147 Clouds 6 1034 81 10000 0.5 0 10:23 17.01.2020
4148 Clouds 8 1034 75 10000 1.5 150 09:58 17.01.2020
4149 Clouds 8 1034 75 10000 1.5 150 09:38 17.01.2020
4150 Clouds 8 1034 75 10000 1.5 150 09:19 17.01.2020
4151 Clouds 8 1034 81 10000 1.22 28 08:43 17.01.2020
4152 Clouds 8 1034 81 10000 1.22 28 08:24 17.01.2020
4153 Clouds 9 1035 76 10000 1.51 30 07:53 17.01.2020
4154 Clouds 9 1035 76 10000 1.51 30 07:31 17.01.2020
4155 Clouds 10 1035 71 10000 1 0 06:57 17.01.2020
4156 Clouds 5 1035 71 10000 1 0 06:38 17.01.2020
4157 Clouds 5 1036 71 10000 2.1 270 05:38 17.01.2020
4158 Clouds 2 1035 83 0 2.04 31 03:39 17.01.2020
4159 Clouds 3 1035 82 0 2.04 31 02:47 17.01.2020
4160 Rain 9 1018 77 0 2.63 25 01:47 17.01.2020
4161 Rain 5 1034 80 0 2.63 25 01:28 17.01.2020
4162 Rain 5 1034 77 0 2.56 27 00:48 17.01.2020
4163 Clouds 10 1030 48 10000 3.6 150 00:23 17.01.2020
4164 Clouds 12 1030 48 10000 3.6 150 23:44 16.01.2020
4165 Clouds 12 1030 48 10000 3.6 150 23:25 16.01.2020
4166 Rain 13 1030 51 10000 2.1 250 22:56 16.01.2020
4167 Rain 14 1030 42 10000 1.5 40 22:38 16.01.2020
4168 Rain 14 1030 42 10000 1.5 40 22:19 16.01.2020
4169 Rain 15 1030 39 10000 2.6 190 21:54 16.01.2020
4170 Clouds 15 1030 42 10000 2.1 0 21:36 16.01.2020
4171 Clouds 15 1030 42 10000 2.1 0 21:36 16.01.2020
4172 Clouds 16 1030 42 10000 2.1 0 21:18 16.01.2020
4173 Drizzle 14 1031 51 10000 2.1 280 20:40 16.01.2020
4174 Drizzle 14 1031 51 10000 2.1 280 20:21 16.01.2020
4175 Rain 15 1031 42 10000 4.1 170 19:58 16.01.2020
4176 Rain 15 1031 45 10000 6.7 280 19:40 16.01.2020
4177 Rain 15 1031 45 10000 6.7 280 19:22 16.01.2020
4178 Clouds 14 1032 45 10000 2.1 300 18:57 16.01.2020
4179 Rain 13 1033 55 10000 1 0 18:37 16.01.2020
4180 Rain 14 1033 55 10000 1 0 18:18 16.01.2020
4181 Rain 13 1033 51 10000 3.1 300 17:58 16.01.2020
4182 Rain 13 1034 54 10000 5.1 290 17:39 16.01.2020
4183 Rain 13 1034 54 10000 5.1 290 17:20 16.01.2020
4184 Rain 12 1035 62 10000 2.1 80 16:41 16.01.2020
4185 Rain 12 1035 62 10000 2.1 80 16:23 16.01.2020
4186 Rain 14 1035 58 10000 3.1 100 15:57 16.01.2020
4187 Clouds 14 1035 58 10000 0.5 0 15:38 16.01.2020
4188 Clouds 14 1035 58 10000 0.5 0 15:20 16.01.2020
4189 Clouds 12 1034 66 10000 1 0 14:42 16.01.2020
4190 Clouds 12 1034 66 10000 1 0 14:24 16.01.2020
4191 Clouds 11 1034 71 10000 1.47 27 13:55 16.01.2020
4192 Clouds 11 1034 71 10000 1.47 27 13:37 16.01.2020
4193 Clouds 11 1034 71 10000 1.42 32 13:19 16.01.2020
4194 Clouds 8 1033 81 10000 1 140 12:41 16.01.2020
4195 Clouds 8 1033 81 10000 1 140 12:21 16.01.2020
4196 Mist 7 1033 87 10000 2.1 110 11:43 16.01.2020
4197 Clouds 8 1032 81 10000 2.1 120 11:24 16.01.2020
4198 Clouds 9 1032 81 10000 2.1 120 10:59 16.01.2020
4199 Clouds 9 1032 81 10000 2.1 120 10:38 16.01.2020
4200 Clouds 9 1032 81 10000 2.1 120 10:20 16.01.2020
4201 Clouds 11 1032 76 10000 0.91 28 09:54 16.01.2020
4202 Clouds 11 1032 76 10000 0.91 28 09:36 16.01.2020
4203 Clouds 11 1032 76 10000 0.91 28 09:18 16.01.2020
4204 Clouds 11 1032 76 10000 1 110 08:42 16.01.2020
4205 Clouds 11 1032 76 10000 1 110 08:22 16.01.2020
4206 Clouds 11 1033 76 10000 1.5 100 07:43 16.01.2020
4207 Clouds 11 1033 76 10000 1.5 100 07:25 16.01.2020
4208 Clouds 11 1033 71 10000 1.41 42 06:55 16.01.2020
4209 Clouds 11 1033 71 10000 1.41 42 06:35 16.01.2020
4210 Clouds 10 1034 81 10000 2.6 80 05:56 16.01.2020
4211 Clouds 10 1034 81 10000 2.6 80 05:30 16.01.2020
4212 Clouds 11 1034 76 10000 1.78 22 04:37 16.01.2020
4213 Clouds 11 1034 76 10000 1.78 22 04:37 16.01.2020
4214 Clouds 11 1033 71 10000 1.78 22 03:27 16.01.2020
4215 Clouds 11 1032 71 10000 2.6 110 02:24 16.01.2020
4216 Rain 11 1031 71 10000 2.6 90 00:45 16.01.2020
4217 Clouds 12 1030 66 10000 2.6 100 00:24 16.01.2020
4218 Clouds 12 1030 66 10000 3.1 100 23:46 15.01.2020
4219 Clouds 12 1029 71 10000 3.6 100 23:22 15.01.2020
4220 Clouds 12 1029 66 10000 1.5 190 22:57 15.01.2020
4221 Drizzle 12 1029 71 10000 2.6 0 22:39 15.01.2020
4222 Drizzle 12 1029 71 10000 2.6 0 22:19 15.01.2020
4223 Drizzle 13 1029 62 10000 3.6 0 21:57 15.01.2020
4224 Clouds 15 1029 54 10000 5.1 20 21:37 15.01.2020
4225 Clouds 15 1029 54 10000 5.1 20 21:19 15.01.2020
4226 Clouds 15 1029 58 10000 6.2 290 20:56 15.01.2020
4227 Clouds 18 1028 42 10000 6.7 20 20:38 15.01.2020
4228 Clouds 18 1028 42 10000 6.7 20 20:19 15.01.2020
4229 Rain 18 1028 42 10000 1.5 0 19:54 15.01.2020
4230 Clouds 18 1029 42 10000 1.5 160 19:36 15.01.2020
4231 Clouds 18 1029 42 10000 1.5 160 19:18 15.01.2020
4232 Clouds 18 1029 42 10000 1.5 160 19:18 15.01.2020
4233 Rain 17 1029 48 10000 4.1 260 18:56 15.01.2020
4234 Rain 18 1030 45 10000 5.7 290 18:37 15.01.2020
4235 Rain 18 1030 45 10000 5.7 290 18:19 15.01.2020
4236 Rain 18 1030 45 10000 5.7 290 18:19 15.01.2020
4237 Rain 16 1030 48 10000 5.7 280 17:55 15.01.2020
4238 Clouds 14 1031 58 10000 7.7 290 17:37 15.01.2020
4239 Clouds 14 1031 58 10000 7.7 290 17:18 15.01.2020
4240 Clouds 15 1032 51 10000 7.7 300 16:40 15.01.2020
4241 Clouds 15 1032 51 10000 7.7 300 16:21 15.01.2020
4242 Clouds 15 1032 51 10000 5.7 290 15:57 15.01.2020
4243 Clouds 14 1032 54 10000 5.1 300 15:39 15.01.2020
4244 Clouds 14 1032 54 10000 5.1 300 15:18 15.01.2020
4245 Clouds 14 1032 58 10000 3.6 270 14:43 15.01.2020
4246 Clouds 13 1032 66 10000 4.1 280 14:20 15.01.2020
4247 Rain 11 1032 71 10000 4.6 280 13:46 15.01.2020
4248 Clouds 12 1031 71 10000 2.6 270 13:26 15.01.2020
4249 Clouds 12 1031 71 10000 0.84 185 12:59 15.01.2020
4250 Clouds 11 1030 71 10000 1 90 12:40 15.01.2020
4251 Clouds 11 1030 71 10000 1 90 12:19 15.01.2020
4252 Clouds 11 1030 76 10000 1.5 100 11:57 15.01.2020
4253 Clouds 11 1029 71 10000 0.84 185 11:37 15.01.2020
4254 Clouds 11 1029 71 10000 0.67 352 11:19 15.01.2020
4255 Clouds 10 1029 81 10000 1.5 90 10:43 15.01.2020
4256 Clouds 10 1029 81 10000 1.5 90 10:25 15.01.2020
4257 Clouds 11 1029 71 10000 1 100 09:45 15.01.2020
4258 Clouds 11 1029 71 10000 1 100 09:26 15.01.2020
4259 Clouds 11 1029 71 10000 2.1 100 08:58 15.01.2020
4260 Clouds 11 1029 71 10000 2.1 100 08:39 15.01.2020
4261 Clouds 11 1029 71 10000 2.1 100 08:21 15.01.2020
4262 Clouds 12 1030 66 10000 1 20 07:51 15.01.2020
4263 Clouds 12 1030 66 10000 1 20 07:31 15.01.2020
4264 Clouds 12 1030 66 10000 2.6 110 06:46 15.01.2020
4265 Clouds 12 1030 66 10000 2.6 110 06:20 15.01.2020
4266 Clouds 14 1030 54 10000 1.5 30 04:42 15.01.2020
4267 Clouds 14 1029 54 10000 1.5 10 02:38 15.01.2020
4268 Clouds 15 1028 51 10000 3.1 360 01:28 15.01.2020
4269 Clouds 15 1027 44 10000 4.1 20 00:45 15.01.2020
4270 Clouds 16 1026 48 10000 3.1 360 00:26 15.01.2020
4271 Clouds 16 1027 51 10000 4.6 280 23:55 14.01.2020
4272 Clouds 16 1026 51 10000 5.1 280 23:36 14.01.2020
4273 Clouds 16 1026 51 10000 5.1 280 23:18 14.01.2020
4274 Clouds 17 1026 42 10000 3.1 320 22:41 14.01.2020
4275 Clouds 17 1026 42 10000 3.1 320 22:19 14.01.2020
4276 Clouds 17 1026 42 10000 3.1 320 22:19 14.01.2020
4277 Clouds 17 1026 39 10000 4.6 330 21:58 14.01.2020
4278 Clouds 17 1026 42 10000 5.1 320 21:40 14.01.2020
4279 Clouds 17 1026 42 10000 5.1 320 21:21 14.01.2020
4280 Clouds 18 1027 42 10000 6.2 290 20:58 14.01.2020
4281 Rain 17 1028 52 10000 8.2 280 20:40 14.01.2020
4282 Rain 17 1028 52 10000 8.2 280 20:19 14.01.2020
4283 Rain 17 1028 52 10000 8.2 280 19:56 14.01.2020
4284 Clouds 17 1028 45 10000 2.6 80 19:37 14.01.2020
4285 Clouds 16 1028 45 10000 2.6 80 19:18 14.01.2020
4286 Clouds 18 1030 48 10000 5.7 290 18:41 14.01.2020
4287 Clouds 18 1030 48 10000 5.7 290 18:21 14.01.2020
4288 Clouds 18 1030 48 10000 5.7 290 17:59 14.01.2020
4289 Clouds 19 1030 37 10000 2.1 50 17:37 14.01.2020
4290 Clouds 19 1030 37 10000 2.1 50 17:19 14.01.2020
4291 Clouds 18 1031 42 10000 3.1 130 16:55 14.01.2020
4292 Clouds 17 1031 45 10000 1.5 350 16:37 14.01.2020
4293 Clouds 17 1031 45 10000 1.5 350 16:18 14.01.2020
4294 Clouds 14 1032 58 10000 0.5 110 15:42 14.01.2020
4295 Clouds 14 1032 58 10000 0.5 110 15:19 14.01.2020
4296 Clouds 12 1032 66 10000 1 100 14:47 14.01.2020
4297 Clouds 12 1032 66 10000 1 100 14:23 14.01.2020
4298 Clouds 12 1032 71 10000 1 110 13:59 14.01.2020
4299 Clouds 12 1032 71 10000 1 110 13:59 14.01.2020
4300 Clouds 10 1032 76 10000 0.5 300 13:40 14.01.2020
4301 Clouds 10 1032 76 10000 0.5 300 13:19 14.01.2020
4302 Clouds 9 1032 76 10000 0.94 32 12:42 14.01.2020
4303 Clouds 8 1031 81 10000 2.1 110 12:23 14.01.2020
4304 Clouds 8 1031 81 10000 2.6 90 11:57 14.01.2020
4305 Clouds 8 1030 81 10000 1 290 11:38 14.01.2020
4306 Clouds 8 1030 81 10000 1 290 11:20 14.01.2020
4307 Clouds 8 1030 81 10000 2.1 100 10:56 14.01.2020
4308 Clouds 8 1030 81 10000 2.1 100 10:37 14.01.2020
4309 Clouds 8 1030 81 10000 2.1 100 10:19 14.01.2020
4310 Clouds 9 1030 81 10000 0.39 331 09:42 14.01.2020
4311 Clouds 9 1030 81 10000 0.39 331 09:23 14.01.2020
4312 Clouds 9 1030 81 10000 0.39 331 08:58 14.01.2020
4313 Clouds 10 1030 81 10000 0.39 331 08:39 14.01.2020
4314 Clouds 10 1030 81 10000 1.63 352 08:20 14.01.2020
4315 Clouds 11 1030 76 10000 1.63 352 07:40 14.01.2020
4316 Clouds 11 1031 71 10000 0.5 10 06:59 14.01.2020
4317 Clouds 11 1031 71 10000 0.5 10 06:59 14.01.2020
4318 Clouds 11 1031 71 10000 0.5 10 06:40 14.01.2020
4319 Clouds 13 1031 58 10000 1.63 352 05:56 14.01.2020
4320 Clouds 14 1032 58 10000 1.5 130 04:24 14.01.2020
4321 Clouds 13 1030 62 10000 2.6 110 03:45 14.01.2020
4322 Clouds 13 1030 58 10000 4.1 90 02:30 14.01.2020
4323 Clouds 13 1029 51 10000 3.1 120 01:18 14.01.2020
4324 Clouds 13 1028 51 10000 3.1 100 00:42 14.01.2020
4325 Clouds 13 1028 48 10000 4.1 10 00:21 14.01.2020
4326 Clouds 14 1027 45 10000 4.6 10 23:42 13.01.2020
4327 Clouds 16 1027 42 10000 5.7 20 23:18 13.01.2020
4328 Clouds 16 1027 42 10000 5.7 20 23:18 13.01.2020
4329 Clouds 16 1027 42 10000 4.1 10 22:55 13.01.2020
4330 Clouds 16 1027 39 10000 5.7 10 22:37 13.01.2020
4331 Clouds 17 1027 39 10000 5.7 10 22:19 13.01.2020
4332 Clouds 17 1027 36 10000 5.7 20 21:54 13.01.2020
4333 Clouds 17 1027 36 10000 7.7 20 21:36 13.01.2020
4334 Clouds 17 1027 36 10000 7.7 20 21:18 13.01.2020
4335 Clouds 16 1028 36 10000 7.2 20 20:42 13.01.2020
4336 Clouds 16 1028 36 10000 7.2 20 20:23 13.01.2020
4337 Clouds 16 1029 45 10000 6.7 40 19:59 13.01.2020
4338 Clouds 17 1029 32 10000 2.1 0 19:41 13.01.2020
4339 Clouds 17 1029 32 10000 2.1 0 19:20 13.01.2020
4340 Clouds 17 1029 32 10000 2.1 0 19:20 13.01.2020
4341 Clouds 17 1029 30 10000 1.5 0 18:58 13.01.2020
4342 Clouds 17 1029 30 10000 1.5 0 18:58 13.01.2020
4343 Clouds 17 1030 32 10000 1.5 20 18:38 13.01.2020
4344 Clouds 17 1030 32 10000 1.5 20 18:38 13.01.2020
4345 Clouds 16 1030 32 10000 1.5 20 18:19 13.01.2020
4346 Clouds 15 1031 42 10000 1.5 60 17:57 13.01.2020
4347 Clouds 18 1031 52 10000 1 40 17:38 13.01.2020
4348 Clouds 18 1031 52 10000 1 40 17:20 13.01.2020
4349 Clouds 18 1031 52 10000 1 40 17:20 13.01.2020
4350 Rain 14 1017 48 0 0.11 3 16:41 13.01.2020
4351 -273 0 0 0 0 0 16:22 13.01.2020
4352 Rain 14 1017 48 0 0.11 3 15:56 13.01.2020
4353 Rain 14 1017 48 0 0.11 3 15:38 13.01.2020
4354 Rain 14 1017 48 0 0.11 3 15:19 13.01.2020
4355 Rain 14 1017 48 0 0.11 3 14:42 13.01.2020
4356 Rain 14 1017 48 0 0.11 3 14:24 13.01.2020
4357 Clouds 8 1019 75 0 0.35 202 13:58 13.01.2020
4358 Clouds 8 1019 75 0 0.35 202 13:39 13.01.2020
4359 Clouds 8 1019 75 0 0.35 202 13:39 13.01.2020
4360 Clouds 8 1019 76 0 0.57 197 13:21 13.01.2020
4361 Clouds 6 1033 87 10000 0.5 330 12:56 13.01.2020
4362 Clouds 6 1033 87 10000 0.5 330 12:37 13.01.2020
4363 Clouds 6 1033 87 10000 0.5 330 12:37 13.01.2020
4364 Clouds 6 1033 87 10000 0.5 330 12:19 13.01.2020
4365 Clouds 6 1033 87 10000 0.5 330 12:19 13.01.2020
4366 Clouds 6 1033 87 10000 0.5 330 12:19 13.01.2020
4367 Clouds 6 1032 81 10000 1 90 11:39 13.01.2020
4368 Clouds 6 1032 81 10000 1 90 11:20 13.01.2020
4369 Clouds 6 1032 81 10000 0.29 310 10:57 13.01.2020
4370 Clouds 6 1032 81 10000 0.29 310 10:39 13.01.2020
4371 Clouds 6 1032 81 10000 0.29 310 10:20 13.01.2020
4372 Clouds 6 1031 81 10000 1.5 80 09:56 13.01.2020
4373 Clouds 6 1031 81 10000 1.5 80 09:38 13.01.2020
4374 Clouds 5 1031 81 10000 1.5 80 09:19 13.01.2020
4375 Clouds 5 1031 81 10000 1.5 90 08:39 13.01.2020
4376 Clouds 5 1031 81 10000 1.5 90 08:20 13.01.2020
4377 Clouds 5 1032 81 10000 0.5 250 07:47 13.01.2020
4378 Clouds 5 1032 81 10000 0.5 250 07:27 13.01.2020
4379 Clouds 6 1032 81 10000 2.1 100 06:43 13.01.2020
4380 Clouds 5 1032 81 10000 2.1 100 06:20 13.01.2020
4381 Clouds 6 1033 76 10000 1.33 2 05:23 13.01.2020
4382 Clouds 7 1033 71 10000 1.5 100 03:54 13.01.2020
4383 Clouds 9 1032 58 10000 0.5 210 03:24 13.01.2020
4384 Clouds 9 1032 58 10000 0.5 20 02:45 13.01.2020
4385 Clouds 9 1031 62 10000 3.1 100 02:26 13.01.2020
4386 Clouds 11 1030 47 10000 2.6 130 01:20 13.01.2020
4387 Clouds 13 1029 42 10000 2.6 130 00:41 13.01.2020
4388 Clouds 13 1029 42 10000 2.6 130 00:22 13.01.2020
4389 Clouds 15 1028 39 10000 3.1 60 23:42 12.01.2020
4390 Clouds 15 1028 39 10000 3.1 60 23:24 12.01.2020
4391 Clouds 17 1027 34 10000 4.1 20 22:58 12.01.2020
4392 Clouds 17 1027 34 10000 5.1 20 22:39 12.01.2020
4393 Clouds 17 1027 34 10000 5.1 20 22:21 12.01.2020
4394 Clouds 18 1028 34 10000 1.5 80 21:56 12.01.2020
4395 Clouds 18 1028 37 10000 5.1 100 21:38 12.01.2020
4396 Clouds 18 1028 37 10000 5.1 100 21:19 12.01.2020
4397 Clouds 17 1028 39 10000 5.7 110 20:56 12.01.2020
4398 Clouds 20 1029 37 10000 2.6 90 20:38 12.01.2020
4399 Clouds 18 1029 37 10000 2.6 90 20:19 12.01.2020
4400 Clouds 17 1029 34 10000 2.6 10 19:56 12.01.2020
4401 Clouds 17 1030 34 10000 3.6 70 19:37 12.01.2020
4402 Clouds 17 1030 34 10000 3.6 70 19:18 12.01.2020
4403 Clouds 17 1031 32 10000 2.1 150 18:57 12.01.2020
4404 Clouds 16 1031 34 10000 0.5 230 18:39 12.01.2020
4405 Clouds 16 1031 34 10000 0.5 230 18:21 12.01.2020
4406 Clouds 18 1032 36 10000 1 290 17:42 12.01.2020
4407 Clouds 19 1033 34 10000 0.5 0 17:23 12.01.2020
4408 Clouds 18 1033 39 10000 0.5 70 16:59 12.01.2020
4409 Clouds 16 1034 51 10000 1 60 16:39 12.01.2020
4410 Clouds 16 1034 51 10000 1 60 16:20 12.01.2020
4411 Clouds 15 1034 51 10000 0.5 110 15:57 12.01.2020
4412 Clouds 13 1035 58 10000 2.6 90 15:38 12.01.2020
4413 Clouds 13 1035 58 10000 2.6 90 15:20 12.01.2020
4414 Clouds 12 1034 66 10000 1 0 14:43 12.01.2020
4415 Clouds 12 1034 66 10000 1 0 14:43 12.01.2020
4416 Clouds 12 1034 62 10000 0.5 0 14:24 12.01.2020
4417 Clouds 12 1034 66 10000 1 0 13:57 12.01.2020
4418 Clouds 12 1034 66 10000 1 0 13:57 12.01.2020
4419 Clouds 11 1034 71 10000 1 120 13:39 12.01.2020
4420 Clouds 11 1034 71 10000 1 120 13:20 12.01.2020
4421 Clouds 11 1034 71 10000 1 120 13:20 12.01.2020
4422 Clouds 8 1034 81 10000 1 120 12:57 12.01.2020
4423 Clouds 7 1033 87 10000 2.1 110 12:37 12.01.2020
4424 Clouds 7 1033 87 10000 2.1 110 12:19 12.01.2020
4425 Clouds 7 1033 81 10000 1.5 90 11:42 12.01.2020
4426 Clouds 7 1032 87 10000 0.41 160 11:22 12.01.2020
4427 Clouds 8 1031 81 10000 0.73 10 10:57 12.01.2020
4428 Clouds 8 1031 81 10000 0.73 10 10:39 12.01.2020
4429 Clouds 8 1031 81 10000 0.73 10 10:39 12.01.2020
4430 Clouds 8 1031 81 10000 0.73 10 10:20 12.01.2020
4431 Clouds 8 1031 81 10000 1.5 90 09:42 12.01.2020
4432 Clouds 8 1031 81 10000 1.5 90 09:23 12.01.2020
4433 Clouds 8 1032 81 10000 1 110 08:48 12.01.2020
4434 Clouds 8 1032 81 10000 1 110 08:24 12.01.2020
4435 Clouds 8 1032 75 10000 1 80 07:56 12.01.2020
4436 Clouds 8 1032 75 10000 1 80 07:37 12.01.2020
4437 Clouds 8 1032 75 10000 1 80 07:19 12.01.2020
4438 Clouds 8 1033 75 10000 2.1 110 06:38 12.01.2020
4439 Clouds 9 1033 76 10000 0.5 100 05:55 12.01.2020
4440 Clouds 9 1033 76 10000 2.6 110 04:56 12.01.2020
4441 Clouds 9 1032 76 10000 1.5 300 03:43 12.01.2020
4442 Clouds 10 1032 71 10000 2.4 25 02:48 12.01.2020
4443 Clouds 11 1031 66 10000 1 0 02:24 12.01.2020
4444 Rain 14 1030 62 10000 2.1 290 01:34 12.01.2020
4445 Clouds 13 1029 58 10000 2.1 90 00:46 12.01.2020
4446 Clouds 16 1029 41 10000 2.6 20 00:22 12.01.2020
4447 Clouds 16 1029 41 10000 2.6 20 00:22 12.01.2020
4448 Clouds 16 1028 44 10000 3.1 20 23:59 11.01.2020
4449 Clouds 18 1028 39 10000 2.1 300 23:41 11.01.2020
4450 Rain 18 1028 39 10000 2.1 300 23:18 11.01.2020
4451 Clouds 18 1028 34 10000 1 0 22:56 11.01.2020
4452 Clouds 17 1029 42 10000 3.1 110 22:38 11.01.2020
4453 Clouds 17 1029 42 10000 3.1 110 22:19 11.01.2020
4454 Rain 18 1029 42 10000 4.6 120 21:44 11.01.2020
4455 Rain 18 1029 42 10000 4.6 120 21:19 11.01.2020
4456 Rain 19 1030 42 10000 5.7 120 20:57 11.01.2020
4457 Rain 20 1031 42 10000 5.7 120 20:39 11.01.2020
4458 Rain 20 1031 42 10000 5.7 120 20:19 11.01.2020
4459 Rain 19 1032 44 10000 5.7 110 19:57 11.01.2020
4460 Rain 18 1033 51 10000 5.1 110 19:38 11.01.2020
4461 Rain 18 1033 51 10000 5.1 110 19:38 11.01.2020
4462 Rain 19 1033 51 10000 5.1 110 19:20 11.01.2020
4463 Rain 19 1033 54 10000 5.7 110 18:55 11.01.2020
4464 Clouds 18 1033 58 10000 2.6 110 18:36 11.01.2020
4465 Clouds 18 1033 58 10000 2.6 110 18:18 11.01.2020
4466 Clouds 14 1034 58 10000 1.5 150 17:57 11.01.2020
4467 Rain 12 1034 66 10000 2.6 50 17:38 11.01.2020
4468 Rain 12 1034 66 10000 2.6 50 17:18 11.01.2020
4469 Clouds 12 1035 66 10000 1 180 16:43 11.01.2020
4470 Rain 11 1034 62 10000 1.5 110 16:24 11.01.2020
4471 Drizzle 11 1034 71 10000 1 110 15:56 11.01.2020
4472 Clouds 11 1034 71 10000 0.91 347 15:37 11.01.2020
4473 Clouds 11 1034 71 10000 0.91 347 15:19 11.01.2020
4474 Clouds 10 1034 76 10000 1.5 270 14:44 11.01.2020
4475 Clouds 10 1033 76 10000 0.91 347 14:24 11.01.2020
4476 Clouds 9 1033 81 10000 1.5 90 13:56 11.01.2020
4477 Clouds 8 1033 87 10000 0.31 195 13:37 11.01.2020
4478 Clouds 8 1033 87 10000 0.32 332 13:19 11.01.2020
4479 Clouds 8 1032 81 10000 1.5 80 12:44 11.01.2020
4480 Clouds 9 1032 76 10000 0.5 110 12:26 11.01.2020
4481 Clouds 4 1031 100 10000 0.5 0 11:56 11.01.2020
4482 Clouds 8 1031 81 10000 1 0 11:37 11.01.2020
4483 Clouds 8 1031 81 10000 1 0 11:18 11.01.2020
4484 Clouds 8 1031 81 10000 1 0 11:18 11.01.2020
4485 Clouds 9 1031 81 10000 0.5 0 10:44 11.01.2020
4486 Clouds 9 1031 81 10000 0.5 0 10:24 11.01.2020
4487 Clouds 8 1030 81 10000 1.5 0 09:40 11.01.2020
4488 Clouds 8 1030 81 10000 1.5 0 09:21 11.01.2020
4489 Clouds 8 1030 81 10000 1 0 08:43 11.01.2020
4490 Clouds 7 1030 81 10000 1 0 08:23 11.01.2020
4491 Rain 8 1031 81 10000 1.5 110 07:45 11.01.2020
4492 Rain 8 1031 81 10000 1.5 110 07:26 11.01.2020
4493 Rain 8 1031 81 10000 1.5 110 07:26 11.01.2020
4494 Rain 8 1031 81 10000 1 0 06:56 11.01.2020
4495 Rain 8 1031 81 10000 1 0 06:28 11.01.2020
4496 Rain 10 1032 76 10000 1 90 04:49 11.01.2020
4497 Rain 10 1032 76 10000 1 90 04:30 11.01.2020
4498 Rain 11 1032 66 10000 0.5 0 03:58 11.01.2020
4499 Rain 12 1030 62 10000 1.5 0 02:43 11.01.2020
4500 Clouds 12 1029 62 10000 2.1 290 01:44 11.01.2020
4501 Clouds 14 1028 54 10000 2.1 280 01:21 11.01.2020
4502 Clouds 14 1028 54 10000 2.1 280 01:21 11.01.2020
4503 Clouds 15 1028 41 10000 1.5 270 00:47 11.01.2020
4504 Clouds 16 1027 38 10000 3.6 270 00:20 11.01.2020
4505 Clouds 19 1027 42 10000 2.6 300 23:41 10.01.2020
4506 Clouds 16 1027 42 10000 2.6 300 23:23 10.01.2020
4507 Clouds 16 1027 42 10000 2.6 300 23:23 10.01.2020
4508 Clouds 17 1027 39 10000 2.6 20 22:59 10.01.2020
4509 Clouds 19 1027 32 10000 2.1 360 22:41 10.01.2020
4510 Clouds 19 1027 32 10000 2.1 360 22:21 10.01.2020
4511 Rain 20 1027 30 10000 2.1 0 21:58 10.01.2020
4512 Clouds 19 1028 34 10000 0.5 0 21:39 10.01.2020
4513 Clouds 19 1028 34 10000 0.5 0 21:20 10.01.2020
4514 Rain 18 1029 36 10000 3.6 10 20:55 10.01.2020
4515 Rain 19 1029 32 10000 2.6 40 20:37 10.01.2020
4516 Rain 19 1029 32 10000 2.6 40 20:19 10.01.2020
4517 Clouds 18 1030 42 10000 2.1 90 19:39 10.01.2020
4518 Clouds 18 1030 42 10000 2.1 90 19:20 10.01.2020
4519 Clouds 19 1030 34 10000 0.5 350 18:54 10.01.2020
4520 Drizzle 17 1031 42 9000 2.6 350 18:36 10.01.2020
4521 Drizzle 17 1031 42 9000 2.6 350 18:18 10.01.2020
4522 Clouds 18 1031 39 10000 1 270 17:55 10.01.2020
4523 Clouds 19 1032 42 10000 1.5 280 17:37 10.01.2020
4524 Clouds 14 1032 42 10000 1.5 280 17:18 10.01.2020
4525 Clouds 12 1033 51 10000 1 40 16:41 10.01.2020
4526 Clouds 16 1033 51 10000 1 40 16:21 10.01.2020
4527 Clouds 16 1033 51 10000 1 40 16:21 10.01.2020
4528 Clouds 16 1033 51 10000 1 10 15:56 10.01.2020
4529 Clouds 15 1033 58 10000 1.5 60 15:37 10.01.2020
4530 Clouds 15 1033 58 10000 1.5 60 15:19 10.01.2020
4531 Clouds 15 1033 58 10000 1.5 60 15:19 10.01.2020
4532 Clouds 14 1033 54 10000 1 160 14:57 10.01.2020
4533 Clouds 13 1033 62 10000 1 100 14:38 10.01.2020
4534 Clouds 13 1033 62 10000 1 100 14:19 10.01.2020
4535 Clouds 12 1033 66 10000 0.5 90 13:45 10.01.2020
4536 Haze 10 1033 71 10000 0.5 70 13:27 10.01.2020
4537 Haze 9 1033 76 10000 0.5 80 12:59 10.01.2020
4538 Mist 6 1032 87 10000 1 120 12:40 10.01.2020
4539 Mist 6 1032 87 10000 1 120 12:21 10.01.2020
4540 Clouds 5 1032 86 10000 0.5 300 11:58 10.01.2020
4541 Clouds 6 1031 87 10000 0.5 360 11:40 10.01.2020
4542 Clouds 6 1031 87 10000 0.5 360 11:19 10.01.2020
4543 Clouds 6 1031 87 10000 2.1 80 10:59 10.01.2020
4544 Clouds 6 1031 87 10000 2.1 80 10:38 10.01.2020
4545 Clouds 6 1031 87 10000 2.1 80 10:18 10.01.2020
4546 Clouds 7 1030 81 10000 1.5 100 09:45 10.01.2020
4547 Clouds 7 1030 81 10000 1.5 100 09:26 10.01.2020
4548 Clouds 8 1031 81 10000 1.5 80 08:56 10.01.2020
4549 Clouds 8 1031 81 10000 1.5 80 08:37 10.01.2020
4550 Clouds 8 1031 81 10000 1.5 80 08:18 10.01.2020
4551 Clouds 9 1031 81 10000 2.1 110 07:41 10.01.2020
4552 Clouds 9 1031 81 10000 2.1 110 07:21 10.01.2020
4553 Clouds 7 1032 81 10000 1 290 06:41 10.01.2020
4554 Clouds 7 1032 81 10000 1 290 06:23 10.01.2020
4555 Clouds 6 1032 81 10000 1.5 260 05:25 10.01.2020
4556 Clouds 7 1031 76 10000 1 310 03:32 10.01.2020
4557 Clouds 8 1031 71 10000 2.1 80 02:53 10.01.2020
4558 Clouds 8 1031 66 10000 1 80 02:33 10.01.2020
4559 Clouds 12 1030 66 10000 1.5 290 01:33 10.01.2020
4560 Clouds 10 1030 62 10000 2.1 250 00:53 10.01.2020
4561 Clouds 11 1029 58 10000 2.1 270 00:35 10.01.2020
4562 Clouds 11 1029 54 10000 2.1 260 23:57 09.01.2020
4563 Clouds 12 1029 51 10000 2.1 330 23:37 09.01.2020
4564 Clouds 15 1029 51 10000 2.1 330 23:19 09.01.2020
4565 Clouds 12 1029 54 10000 4.6 340 22:56 09.01.2020
4566 Clouds 13 1030 62 10000 1.5 300 22:37 09.01.2020
4567 Clouds 14 1030 62 10000 1.5 300 22:18 09.01.2020
4568 Rain 13 1030 71 10000 4.6 290 21:55 09.01.2020
4569 Drizzle 13 1030 71 10000 3.6 270 21:37 09.01.2020
4570 Drizzle 13 1030 71 10000 3.6 270 21:18 09.01.2020
4571 Thunderstorm 13 1031 66 7000 3.1 320 20:55 09.01.2020
4572 Thunderstorm 13 1031 66 7000 3.1 320 20:37 09.01.2020
4573 Rain 13 1030 66 6000 5.1 160 20:18 09.01.2020
4574 Thunderstorm 13 1029 62 10000 3.1 360 19:39 09.01.2020
4575 Clouds 17 1029 55 10000 7.7 270 19:21 09.01.2020
4576 Clouds 20 1030 42 10000 0.5 0 18:57 09.01.2020
4577 Clouds 20 1030 42 10000 0.5 0 18:39 09.01.2020
4578 Clouds 20 1030 42 10000 0.5 0 18:21 09.01.2020
4579 Clouds 20 1030 40 10000 0.5 0 17:41 09.01.2020
4580 Clouds 19 1031 42 10000 1 20 17:19 09.01.2020
4581 Clouds 18 1031 45 10000 2.1 130 16:59 09.01.2020
4582 Clouds 18 1031 45 10000 2.1 130 16:41 09.01.2020
4583 Clouds 17 1032 48 10000 2.1 110 16:21 09.01.2020
4584 Clouds 16 1032 48 10000 2.6 290 15:43 09.01.2020
4585 Clouds 16 1032 48 10000 2.6 290 15:43 09.01.2020
4586 Clouds 16 1033 48 10000 0.5 0 15:23 09.01.2020
4587 Clouds 15 1033 58 10000 2.1 210 14:58 09.01.2020
4588 Clouds 15 1033 58 10000 2.1 210 14:40 09.01.2020
4589 Clouds 13 1033 62 10000 3.1 280 14:19 09.01.2020
4590 Clouds 12 1032 66 10000 3.6 290 13:55 09.01.2020
4591 Clouds 12 1032 71 10000 3.6 280 13:37 09.01.2020
4592 Clouds 12 1032 71 10000 3.6 280 13:18 09.01.2020
4593 Clouds 12 1032 71 10000 0.5 280 12:55 09.01.2020
4594 Clouds 12 1031 66 10000 1.56 67 12:37 09.01.2020
4595 Clouds 12 1031 66 10000 1.56 67 12:18 09.01.2020
4596 Clouds 11 1031 76 10000 1.5 300 11:42 09.01.2020
4597 Clouds 10 1030 81 10000 1.5 290 11:24 09.01.2020
4598 Clouds 10 1030 76 10000 1 110 10:57 09.01.2020
4599 Clouds 10 1030 76 10000 1 110 10:57 09.01.2020
4600 Clouds 10 1030 76 10000 1 110 10:39 09.01.2020
4601 Clouds 10 1030 76 10000 1 110 10:20 09.01.2020
4602 Clouds 10 1029 76 10000 1.5 270 09:41 09.01.2020
4603 Clouds 3 1029 76 10000 1.5 270 09:23 09.01.2020
4604 Clouds 5 1030 62 10000 2.1 270 08:57 09.01.2020
4605 Clouds 5 1030 62 10000 2.1 270 08:38 09.01.2020
4606 Clouds 12 1030 62 10000 2.1 270 08:20 09.01.2020
4607 Clouds 12 1030 66 10000 1.5 270 07:46 09.01.2020
4608 Clouds 12 1030 66 10000 1.5 270 07:28 09.01.2020
4609 Clouds 12 1031 71 10000 2.1 270 06:40 09.01.2020
4610 Clouds 12 1031 71 10000 2.1 270 06:21 09.01.2020
4611 Clouds 13 1031 66 10000 2.6 260 05:51 09.01.2020
4612 Rain 13 1031 66 10000 1 110 04:54 09.01.2020
4613 Rain 13 1031 66 10000 1 110 04:36 09.01.2020
4614 Rain 7 1029 62 10000 1 0 03:26 09.01.2020
4615 Rain 7 1028 62 10000 2.6 110 02:33 09.01.2020
4616 Rain 15 1027 58 10000 2.1 90 01:41 09.01.2020
4617 Rain 18 1026 45 10000 3.6 370 00:56 09.01.2020
4618 Clouds 11 1026 32 10000 4.6 310 00:36 09.01.2020
4619 Clouds 11 1026 32 10000 4.6 310 00:18 09.01.2020
4620 Clouds 12 1025 30 10000 5.7 290 23:39 08.01.2020
4621 Clouds 21 1025 28 10000 5.7 300 23:20 08.01.2020
4622 Clouds 17 1025 33 10000 4.6 290 22:40 08.01.2020
4623 Clouds 22 1025 33 10000 4.6 290 22:21 08.01.2020
4624 Clouds 17 1025 32 10000 3.1 280 21:58 08.01.2020
4625 Clouds 17 1026 32 10000 2.6 310 21:40 08.01.2020
4626 Clouds 16 1025 32 10000 3.1 280 21:40 08.01.2020
4627 Clouds 17 1026 32 10000 2.6 310 21:20 08.01.2020
4628 Clouds 17 1026 26 10000 3.1 250 20:59 08.01.2020
4629 Clouds 17 1026 26 10000 3.1 250 20:40 08.01.2020
4630 Clouds 22 1027 28 10000 4.1 290 20:20 08.01.2020
4631 Clouds 22 1027 28 10000 4.1 290 20:20 08.01.2020
4632 Clouds 22 1028 26 10000 2.1 0 19:57 08.01.2020
4633 Clouds 21 1028 32 10000 3.6 260 19:38 08.01.2020
4634 Clouds 21 1028 32 10000 3.6 260 19:19 08.01.2020
4635 Clouds 21 1029 35 10000 2.6 260 18:57 08.01.2020
4636 Clouds 21 1029 35 10000 2.6 260 18:38 08.01.2020
4637 Clouds 20 1029 37 10000 1.5 260 18:18 08.01.2020
4638 Clouds 20 1030 37 10000 1.5 310 17:56 08.01.2020
4639 Clouds 20 1030 37 10000 1.5 310 17:56 08.01.2020
4640 Rain 16 1012 48 0 1.92 257 17:37 08.01.2020
4641 Clouds 17 1032 48 10000 2.1 310 17:18 08.01.2020
4642 Clouds 17 1032 48 10000 2.1 310 17:18 08.01.2020
4643 Clouds 17 1032 48 10000 2.1 310 16:55 08.01.2020
4644 Clouds 17 1032 48 10000 2.1 310 16:37 08.01.2020
4645 Clouds 17 1032 48 10000 2.1 310 16:18 08.01.2020
4646 Clouds 18 1032 52 10000 2.1 90 15:42 08.01.2020
4647 Clouds 16 1032 51 10000 1 270 15:21 08.01.2020
4648 Clouds 15 1032 58 10000 1 270 14:57 08.01.2020
4649 Clouds 15 1032 58 10000 1 270 14:39 08.01.2020
4650 Clouds 14 1032 62 10000 1 280 14:20 08.01.2020
4651 Haze 12 1032 71 10000 1.06 257 13:40 08.01.2020
4652 Clouds 11 1032 76 10000 0.5 360 13:19 08.01.2020
4653 Clouds 10 1032 66 10000 1 260 12:43 08.01.2020
4654 Mist 8 1032 87 10000 1 90 12:20 08.01.2020
4655 Clouds 8 1031 87 10000 1 0 11:59 08.01.2020
4656 Clouds 8 1031 87 10000 1 0 11:40 08.01.2020
4657 Clouds 8 1031 87 10000 0.5 300 11:19 08.01.2020
4658 Clouds 10 1030 76 10000 0.5 90 10:55 08.01.2020
4659 Clouds 10 1030 76 10000 0.5 90 10:37 08.01.2020
4660 Clouds 10 1030 76 10000 0.5 90 10:37 08.01.2020
4661 Clouds 10 1030 76 10000 0.5 90 10:19 08.01.2020
4662 Clouds 10 1030 81 10000 1 90 09:42 08.01.2020
4663 Clouds 10 1030 81 10000 1 90 09:19 08.01.2020
4664 Clouds 9 1030 76 10000 1 80 08:57 08.01.2020
4665 Clouds 9 1030 76 10000 1 80 08:37 08.01.2020
4666 Clouds 9 1030 76 10000 1 80 08:19 08.01.2020
4667 Clouds 10 1030 76 10000 0.5 0 07:49 08.01.2020
4668 Clouds 10 1030 76 10000 0.5 0 07:30 08.01.2020
4669 Clouds 10 1030 76 10000 0.5 0 07:30 08.01.2020
4670 Clouds 11 1030 71 10000 1.5 200 06:48 08.01.2020
4671 Clouds 11 1030 71 10000 1.5 200 06:24 08.01.2020
4672 Clouds 9 1030 76 10000 2.1 290 05:41 08.01.2020
4673 Clouds 10 1030 71 10000 2.1 90 04:57 08.01.2020
4674 Clouds 10 1030 71 10000 2.1 90 04:25 08.01.2020
4675 Clouds 12 1028 58 10000 2.6 280 02:45 08.01.2020
4676 Clouds 12 1027 66 10000 3.1 280 02:22 08.01.2020
4677 Clouds 16 1027 44 10000 1 250 01:48 08.01.2020
4678 Clouds 16 1027 44 10000 2.6 270 01:19 08.01.2020
4679 Clouds 18 1026 34 10000 5.1 350 00:28 08.01.2020
4680 Clouds 18 1026 34 10000 5.1 350 00:28 08.01.2020
4681 Clouds 19 1026 34 10000 6.7 290 23:57 07.01.2020
4682 Clouds 19 1026 34 10000 6.7 290 23:39 07.01.2020
4683 Clouds 20 1025 28 10000 6.2 320 23:20 07.01.2020
4684 Clouds 20 1025 28 10000 6.2 320 23:20 07.01.2020
4685 Clouds 20 1025 24 10000 7.2 300 22:40 07.01.2020
4686 Clouds 21 1025 26 10000 8.2 300 22:20 07.01.2020
4687 Clouds 22 1026 26 10000 8.7 300 21:56 07.01.2020
4688 Clouds 20 1026 30 10000 9.3 290 21:38 07.01.2020
4689 Clouds 20 1026 30 10000 9.3 290 21:20 07.01.2020
4690 Clouds 21 1026 32 10000 2.1 360 20:55 07.01.2020
4691 Clouds 20 1027 34 10000 4.6 180 20:36 07.01.2020
4692 Clouds 20 1027 34 10000 4.6 180 20:18 07.01.2020
4693 Clouds 21 1027 35 10000 2.1 230 19:38 07.01.2020
4694 Clouds 20 1028 34 10000 2.6 250 19:20 07.01.2020
4695 Clouds 20 1028 34 10000 2.1 230 18:58 07.01.2020
4696 Clouds 20 1028 34 10000 2.1 230 18:40 07.01.2020
4697 Clouds 20 1028 37 10000 1.5 180 18:19 07.01.2020
4698 Clouds 20 1029 37 10000 1 170 17:58 07.01.2020
4699 Clouds 20 1029 37 10000 1 170 17:39 07.01.2020
4700 Clouds 19 1029 39 10000 1.5 210 17:20 07.01.2020
4701 Clouds 18 1030 36 10000 1 280 16:56 07.01.2020
4702 Clouds 18 1030 36 10000 1 280 16:37 07.01.2020
4703 Clouds 17 1031 48 10000 1 90 16:19 07.01.2020
4704 Clouds 17 1031 45 10000 1 170 15:57 07.01.2020
4705 Clouds 15 1031 51 10000 1.5 120 15:38 07.01.2020
4706 Clouds 15 1031 51 10000 1.5 120 15:19 07.01.2020
4707 Clouds 14 1032 62 10000 1 100 14:42 07.01.2020
4708 Clouds 12 1032 66 10000 2.1 110 14:24 07.01.2020
4709 Clouds 12 1032 62 10000 1 100 13:57 07.01.2020
4710 Clouds 12 1032 62 10000 1 100 13:39 07.01.2020
4711 Clouds 11 1032 62 10000 1 100 13:18 07.01.2020
4712 Mist 8 1032 81 10000 1 280 12:41 07.01.2020
4713 Mist 5 1031 86 10000 1 290 12:19 07.01.2020
4714 Clouds 6 1031 87 10000 0.99 232 11:45 07.01.2020
4715 Clouds 7 1030 81 10000 1 120 11:24 07.01.2020
4716 Clouds 6 1029 81 10000 2.1 310 10:59 07.01.2020
4717 Clouds 6 1029 81 10000 2.1 310 10:41 07.01.2020
4718 Clouds 6 1029 81 10000 2.1 310 10:41 07.01.2020
4719 Clouds 6 1029 81 10000 2.1 310 10:23 07.01.2020
4720 Clouds 6 1029 87 10000 2.1 300 09:56 07.01.2020
4721 Clouds 6 1029 87 10000 2.1 300 09:38 07.01.2020
4722 Clouds 6 1029 87 10000 2.1 300 09:20 07.01.2020
4723 Clouds 7 1029 87 10000 1.5 110 08:42 07.01.2020
4724 Clouds 7 1029 87 10000 1.5 110 08:22 07.01.2020
4725 Clouds 8 1029 81 10000 1.5 290 07:54 07.01.2020
4726 Clouds 8 1029 81 10000 1.5 290 07:27 07.01.2020
4727 Clouds 9 1029 76 10000 1 100 06:53 07.01.2020
4728 Clouds 9 1029 76 10000 1 100 06:32 07.01.2020
4729 Clouds 9 1030 76 10000 0.5 250 05:49 07.01.2020
4730 Clouds 11 1030 66 10000 2.6 260 04:33 07.01.2020
4731 Clouds 12 1029 62 10000 1.5 270 03:26 07.01.2020
4732 Clouds 15 1029 47 10000 2.6 60 02:22 07.01.2020
4733 Clouds 16 1027 41 10000 5.1 180 01:51 07.01.2020
4734 Clouds 17 1027 39 10000 5.7 190 01:28 07.01.2020
4735 Clouds 19 1024 37 10000 5.7 300 00:37 07.01.2020
4736 Clouds 19 1024 37 10000 5.7 300 00:18 07.01.2020
4737 Clouds 20 1024 32 10000 5.1 300 23:39 06.01.2020
4738 Clouds 21 1024 30 10000 4.1 300 23:39 06.01.2020
4739 Clouds 21 1024 30 10000 4.1 300 23:21 06.01.2020
4740 Clouds 20 1024 34 10000 4.1 300 22:58 06.01.2020
4741 Clouds 20 1024 34 10000 4.1 300 22:38 06.01.2020
4742 Clouds 20 1024 34 10000 4.6 340 22:20 06.01.2020
4743 Clouds 21 1024 35 10000 4.6 300 21:56 06.01.2020
4744 Clouds 21 1024 40 10000 1.5 280 21:37 06.01.2020
4745 Clouds 21 1024 40 10000 1.5 280 21:19 06.01.2020
4746 Clouds 21 1025 32 10000 2.6 0 20:56 06.01.2020
4747 Clouds 20 1026 37 10000 2.1 0 20:37 06.01.2020
4748 Clouds 20 1026 37 10000 2.1 0 20:19 06.01.2020
4749 Clouds 20 1026 37 10000 2.1 0 19:55 06.01.2020
4750 Clouds 19 1027 39 10000 1.5 0 19:37 06.01.2020
4751 Clouds 19 1027 39 10000 1.5 0 19:18 06.01.2020
4752 Clouds 19 1027 45 10000 3.1 110 18:44 06.01.2020
4753 Clouds 17 1028 42 10000 2.1 360 18:21 06.01.2020
4754 Clouds 17 1028 45 10000 1 0 17:40 06.01.2020
4755 Clouds 17 1029 45 10000 1 0 17:40 06.01.2020
4756 Clouds 17 1029 45 10000 1 0 17:20 06.01.2020
4757 Clouds 17 1029 45 10000 0.5 0 16:58 06.01.2020
4758 Clouds 17 1029 45 10000 0.5 0 16:40 06.01.2020
4759 Clouds 16 1030 55 10000 1.5 0 16:22 06.01.2020
4760 Clouds 15 1030 54 10000 2.1 0 15:59 06.01.2020
4761 Clouds 14 1031 62 10000 1 0 15:37 06.01.2020
4762 Clouds 14 1031 62 10000 1 0 15:18 06.01.2020
4763 Clouds 14 1031 58 10000 1 0 14:42 06.01.2020
4764 Clouds 13 1031 62 8000 0.5 0 14:22 06.01.2020
4765 Clouds 13 1031 62 8000 0.5 0 14:22 06.01.2020
4766 Clouds 12 1031 71 7000 1 220 13:59 06.01.2020
4767 Clouds 12 1031 71 7000 1 220 13:39 06.01.2020
4768 Clouds 11 1031 76 5000 0.5 0 13:21 06.01.2020
4769 Clouds 9 1030 87 6000 1.5 110 12:56 06.01.2020
4770 Clouds 8 1030 87 6000 2.1 90 12:37 06.01.2020
4771 Clouds 8 1030 87 6000 2.1 90 12:19 06.01.2020
4772 Clouds 8 1030 87 6000 1.5 110 11:42 06.01.2020
4773 Clouds 8 1029 87 8000 1.31 234 11:24 06.01.2020
4774 Clouds 8 1029 87 7000 1 90 10:59 06.01.2020
4775 Clouds 8 1029 87 7000 1 90 10:40 06.01.2020
4776 Clouds 8 1029 87 7000 1 90 10:20 06.01.2020
4777 Clouds 8 1029 87 10000 0.5 100 09:39 06.01.2020
4778 Clouds 8 1029 87 10000 0.5 100 09:21 06.01.2020
4779 Clouds 9 1029 87 10000 1.5 110 08:52 06.01.2020
4780 Clouds 9 1029 87 10000 1.5 110 08:34 06.01.2020
4781 Clouds 9 1029 87 10000 1 80 07:57 06.01.2020
4782 Clouds 9 1029 87 10000 1 80 07:38 06.01.2020
4783 Clouds 10 1030 81 10000 1 300 06:49 06.01.2020
4784 Clouds 10 1030 81 10000 1 300 06:30 06.01.2020
4785 Clouds 9 1031 81 10000 1.29 225 05:48 06.01.2020
4786 Clouds 9 1031 87 10000 1 110 04:55 06.01.2020
4787 Clouds 9 1031 87 10000 1 110 04:21 06.01.2020
4788 Clouds 9 1031 87 10000 3.1 110 03:25 06.01.2020
4789 Clouds 10 1031 81 10000 1 160 02:25 06.01.2020
4790 Drizzle 10 1030 81 8000 2.1 90 01:46 06.01.2020
4791 Drizzle 10 1030 81 8000 2.6 90 01:28 06.01.2020
4792 Drizzle 10 1030 87 8000 1 320 00:44 06.01.2020
4793 Drizzle 10 1030 87 8000 1 320 00:44 06.01.2020
4794 Rain 10 1029 87 8000 0.5 0 00:24 06.01.2020
4795 Rain 10 1029 87 5000 4.1 110 23:43 05.01.2020
4796 Thunderstorm 10 1029 87 4000 2.6 170 23:23 05.01.2020
4797 Thunderstorm 11 1028 81 8000 6.7 110 22:58 05.01.2020
4798 Clouds 16 1027 51 10000 2.6 350 22:39 05.01.2020
4799 Clouds 16 1027 51 10000 2.6 350 22:20 05.01.2020
4800 Clouds 16 1026 51 10000 6.2 290 21:56 05.01.2020
4801 Clouds 16 1026 51 10000 6.2 290 21:38 05.01.2020
4802 Clouds 17 1026 48 10000 8.2 290 21:20 05.01.2020
4803 Clouds 17 1027 51 10000 7.7 290 20:56 05.01.2020
4804 Clouds 17 1027 51 10000 7.7 290 20:37 05.01.2020
4805 Clouds 17 1027 55 10000 6.2 290 20:19 05.01.2020
4806 Clouds 17 1027 51 10000 6.2 290 19:56 05.01.2020
4807 Clouds 16 1028 55 10000 4.1 300 19:37 05.01.2020
4808 Clouds 16 1028 55 10000 4.1 300 19:19 05.01.2020
4809 Clouds 15 1029 58 10000 3.1 290 18:55 05.01.2020
4810 Clouds 14 1030 58 10000 4.1 280 18:36 05.01.2020
4811 Clouds 14 1030 58 10000 4.1 280 18:18 05.01.2020
4812 Clouds 15 1030 58 10000 0.5 270 17:57 05.01.2020
4813 Clouds 15 1031 62 10000 1.5 0 17:37 05.01.2020
4814 Clouds 15 1031 62 10000 1.5 0 17:19 05.01.2020
4815 Clouds 14 1032 54 10000 1 340 16:55 05.01.2020
4816 Clouds 13 1032 62 10000 1 0 16:36 05.01.2020
4817 Clouds 13 1032 62 10000 1 0 16:18 05.01.2020
4818 Clouds 11 1033 71 10000 1.35 199 15:37 05.01.2020
4819 Clouds 11 1033 71 10000 1.35 199 15:37 05.01.2020
4820 Clouds 11 1033 71 10000 1.35 199 15:37 05.01.2020
4821 Clouds 11 1033 71 10000 1.35 199 15:18 05.01.2020
4822 Drizzle 10 1033 76 10000 0.5 0 14:54 05.01.2020
4823 Rain 8 1034 81 9000 0.5 0 14:36 05.01.2020
4824 Rain 8 1034 81 9000 0.5 0 14:36 05.01.2020
4825 Rain 8 1034 81 9000 0.5 0 14:18 05.01.2020
4826 Drizzle 8 1033 81 9000 1.82 148 13:40 05.01.2020
4827 Drizzle 8 1033 81 9000 1.82 148 13:40 05.01.2020
4828 Drizzle 8 1033 81 9000 0.5 100 13:21 05.01.2020
4829 Drizzle 7 1033 81 9000 1.99 150 12:58 05.01.2020
4830 Drizzle 7 1033 81 9000 1.99 150 12:39 05.01.2020
4831 Drizzle 7 1032 81 8000 1 90 12:21 05.01.2020
4832 Rain 7 1032 81 5000 0.5 80 11:56 05.01.2020
4833 Rain 7 1032 81 5000 1 110 11:37 05.01.2020
4834 Rain 7 1032 81 5000 1 110 11:19 05.01.2020
4835 Rain 7 1031 81 5000 1 190 10:56 05.01.2020
4836 Rain 7 1031 81 5000 1 190 10:36 05.01.2020
4837 Rain 7 1031 81 5000 1 190 10:36 05.01.2020
4838 Rain 7 1031 81 5000 1 190 10:18 05.01.2020
4839 Rain 7 1031 81 5000 1 290 09:41 05.01.2020
4840 Rain 7 1031 81 5000 1 290 09:21 05.01.2020
4841 Rain 7 1032 87 6000 2.1 290 08:46 05.01.2020
4842 Rain 7 1032 87 6000 2.1 290 08:27 05.01.2020
4843 Rain 8 1032 81 6000 3.6 290 07:55 05.01.2020
4844 Rain 8 1032 81 6000 3.6 290 07:35 05.01.2020
4845 Rain 9 1033 87 6000 2.1 270 06:59 05.01.2020
4846 Rain 9 1033 87 8000 2.1 270 05:58 05.01.2020
4847 Rain 9 1033 87 8000 2.1 270 05:30 05.01.2020
4848 Rain 9 1033 87 8000 2.1 270 05:30 05.01.2020
4849 Thunderstorm 9 1033 87 8000 2.6 270 04:34 05.01.2020
4850 Thunderstorm 10 1033 81 8000 2.1 340 03:47 05.01.2020
4851 Rain 12 1031 62 9000 3.1 160 02:45 05.01.2020
4852 Clouds 14 1030 71 10000 1 100 02:20 05.01.2020
4853 Clouds 14 1029 67 10000 1 110 01:40 05.01.2020
4854 Haze 14 1029 67 10000 3.1 100 01:18 05.01.2020
4855 Haze 15 1028 67 10000 1.5 110 00:41 05.01.2020
4856 Clouds 15 1028 62 10000 2.1 100 00:22 05.01.2020
4857 Clouds 15 1028 62 10000 2.1 110 23:59 04.01.2020
4858 Clouds 15 1028 62 10000 2.1 110 23:39 04.01.2020
4859 Clouds 16 1027 55 10000 2.1 110 23:19 04.01.2020
4860 Clouds 16 1028 55 10000 1 90 22:39 04.01.2020
4861 Clouds 15 1028 67 10000 1.5 110 22:21 04.01.2020
4862 Clouds 15 1028 67 10000 4.1 110 21:57 04.01.2020
4863 Clouds 15 1028 67 10000 4.1 110 21:38 04.01.2020
4864 Clouds 16 1029 59 10000 0.5 0 21:19 04.01.2020
4865 Clouds 18 1029 48 10000 4.1 300 20:57 04.01.2020
4866 Clouds 18 1029 48 10000 4.1 300 20:38 04.01.2020
4867 Clouds 17 1029 45 10000 1 0 20:20 04.01.2020
4868 Clouds 18 1030 45 10000 1 0 19:42 04.01.2020
4869 Clouds 18 1030 45 10000 1 0 19:42 04.01.2020
4870 Clouds 16 1031 51 10000 1.5 0 19:24 04.01.2020
4871 Clouds 16 1031 51 10000 3.1 80 18:59 04.01.2020
4872 Clouds 16 1031 51 10000 3.1 80 18:40 04.01.2020
4873 Clouds 16 1032 51 10000 1.5 240 18:22 04.01.2020
4874 Clouds 15 1033 54 10000 1 280 17:59 04.01.2020
4875 Clouds 15 1033 54 10000 1 280 17:40 04.01.2020
4876 Clouds 14 1034 58 10000 1 60 17:22 04.01.2020
4877 Clouds 12 1034 58 10000 1 350 16:54 04.01.2020
4878 Clouds 12 1035 66 10000 1.28 188 16:36 04.01.2020
4879 Clouds 12 1035 66 10000 1.28 188 16:18 04.01.2020
4880 Clouds 11 1035 71 10000 1 160 15:42 04.01.2020
4881 Clouds 11 1035 71 10000 1 160 15:42 04.01.2020
4882 Clouds 11 1035 71 10000 1.28 188 15:20 04.01.2020
4883 Clouds 11 1035 71 10000 1.28 188 14:58 04.01.2020
4884 Clouds 11 1035 71 10000 1.28 188 14:40 04.01.2020
4885 Clouds 10 1035 81 10000 1.83 191 14:20 04.01.2020
4886 Clouds 10 1035 81 10000 1 110 13:56 04.01.2020
4887 Clouds 10 1035 81 10000 1 110 13:37 04.01.2020
4888 Clouds 9 1035 87 10000 1 80 13:37 04.01.2020
4889 Clouds 9 1035 87 10000 1 80 13:19 04.01.2020
4890 Clouds 9 1034 87 10000 1.5 100 12:42 04.01.2020
4891 Drizzle 8 1034 87 10000 1 110 12:20 04.01.2020
4892 Drizzle 8 1034 87 10000 1.65 200 11:59 04.01.2020
4893 Drizzle 8 1034 87 10000 1.65 200 11:40 04.01.2020
4894 Rain 8 1033 87 10000 2.19 189 11:20 04.01.2020
4895 Rain 9 1033 81 10000 2.19 189 10:59 04.01.2020
4896 Rain 9 1033 81 10000 2.19 189 10:38 04.01.2020
4897 Rain 9 1033 81 10000 2.19 189 10:19 04.01.2020
4898 Rain 9 1034 81 10000 2.19 189 09:43 04.01.2020
4899 Rain 9 1034 81 10000 2.19 189 09:25 04.01.2020
4900 Rain 9 1034 87 10000 1 290 08:47 04.01.2020
4901 Rain 9 1034 87 10000 1 290 08:28 04.01.2020
4902 Rain 9 1035 87 10000 1 280 07:52 04.01.2020
4903 Rain 9 1035 87 10000 1 280 07:52 04.01.2020
4904 Rain 9 1035 87 10000 1 280 07:33 04.01.2020
4905 Rain 10 1036 81 10000 1 270 06:43 04.01.2020
4906 Rain 10 1036 87 10000 1.5 290 05:52 04.01.2020
4907 Rain 10 1035 87 10000 1.5 290 04:50 04.01.2020
4908 Rain 10 1035 87 10000 1.5 290 04:29 04.01.2020
4909 Rain 12 1034 81 10000 0.5 110 03:28 04.01.2020
4910 Clouds 12 1033 76 10000 1.98 22 02:46 04.01.2020
4911 Clouds 12 1032 76 10000 2.1 90 02:18 04.01.2020
4912 Clouds 12 1032 76 10000 2.1 100 01:37 04.01.2020
4913 Clouds 12 1032 76 10000 2.6 120 01:18 04.01.2020
4914 Clouds 13 1031 76 10000 2.1 90 00:29 04.01.2020
4915 Drizzle 13 1031 76 10000 3.1 100 23:57 03.01.2020
4916 Clouds 14 1030 67 10000 5.7 110 23:29 03.01.2020
4917 Drizzle 15 1030 67 10000 0.5 0 22:57 03.01.2020
4918 Drizzle 15 1030 67 10000 0.5 0 22:57 03.01.2020
4919 Drizzle 15 1030 67 10000 0.5 0 22:39 03.01.2020
4920 Drizzle 15 1029 62 10000 2.1 30 22:18 03.01.2020
4921 Drizzle 16 1029 59 10000 4.1 350 21:57 03.01.2020
4922 Clouds 18 1029 45 10000 3.1 350 21:37 03.01.2020
4923 Clouds 18 1029 45 10000 3.1 350 21:18 03.01.2020
4924 Drizzle 17 1029 48 10000 4.1 340 20:54 03.01.2020
4925 Drizzle 17 1029 48 10000 4.1 340 20:54 03.01.2020
4926 Clouds 17 1030 51 10000 5.7 10 20:36 03.01.2020
4927 Clouds 17 1030 51 10000 5.7 10 20:18 03.01.2020
4928 Clouds 18 1030 45 10000 4.1 360 19:42 03.01.2020
4929 Clouds 18 1031 45 10000 4.1 360 19:23 03.01.2020
4930 Clouds 18 1031 45 10000 3.1 330 18:54 03.01.2020
4931 Clouds 18 1032 42 10000 1.5 250 18:36 03.01.2020
4932 Clouds 18 1032 42 10000 1.5 250 18:18 03.01.2020
4933 Clouds 17 1033 48 10000 2.1 330 17:41 03.01.2020
4934 Clouds 18 1034 52 10000 1.5 100 17:21 03.01.2020
4935 Clouds 17 1034 45 10000 1.5 290 16:58 03.01.2020
4936 Clouds 17 1034 45 10000 1.5 290 16:39 03.01.2020
4937 Clouds 17 1035 51 10000 0.5 350 16:20 03.01.2020
4938 Clouds 15 1035 54 10000 0.5 170 15:41 03.01.2020
4939 Clouds 14 1035 62 10000 1 360 15:19 03.01.2020
4940 Clouds 13 1035 66 10000 1 70 14:40 03.01.2020
4941 Clouds 13 1035 66 10000 1 70 14:40 03.01.2020
4942 Clouds 12 1035 66 10000 0.5 250 14:20 03.01.2020
4943 Clouds 12 1035 71 10000 0.5 240 13:59 03.01.2020
4944 Clouds 12 1035 71 10000 0.5 240 13:40 03.01.2020
4945 Clouds 11 1034 76 10000 0.5 270 13:21 03.01.2020
4946 Clouds 11 1034 76 10000 1 270 12:41 03.01.2020
4947 Clouds 10 1034 81 10000 0.68 295 12:22 03.01.2020
4948 Clouds 10 1033 81 10000 0.68 295 11:54 03.01.2020
4949 Clouds 10 1033 81 10000 2.1 280 11:35 03.01.2020
4950 Clouds 9 1032 87 10000 1.5 290 10:58 03.01.2020
4951 Clouds 9 1032 87 10000 1.5 290 10:39 03.01.2020
4952 Clouds 9 1032 87 10000 1.5 290 10:21 03.01.2020
4953 Clouds 9 1032 87 10000 1 290 09:55 03.01.2020
4954 Clouds 9 1032 87 10000 1 290 09:37 03.01.2020
4955 Clouds 9 1032 87 10000 1 290 09:19 03.01.2020
4956 Clouds 10 1032 81 10000 1 100 08:45 03.01.2020
4957 Clouds 10 1032 81 10000 1 100 08:23 03.01.2020
4958 Rain 11 1032 76 10000 0.5 260 07:56 03.01.2020
4959 Rain 11 1032 76 10000 0.5 260 07:37 03.01.2020
4960 Rain 11 1032 76 10000 0.5 260 07:18 03.01.2020
4961 Clouds 11 1033 76 10000 1.48 348 06:42 03.01.2020
4962 Clouds 11 1033 76 10000 1.48 348 06:22 03.01.2020
4963 Clouds 11 1033 76 10000 1.48 348 06:22 03.01.2020
4964 Clouds 12 1033 66 10000 1.5 80 04:59 03.01.2020
4965 Clouds 13 1033 62 10000 1.5 40 03:38 03.01.2020
4966 Clouds 13 1032 66 10000 3.6 120 02:53 03.01.2020
4967 Clouds 14 1031 58 10000 3.1 300 01:51 03.01.2020
4968 Drizzle 14 1030 62 10000 3.6 290 01:31 03.01.2020
4969 Drizzle 15 1029 54 10000 3.1 350 00:40 03.01.2020
4970 Clouds 15 1028 54 10000 3.1 360 00:20 03.01.2020
4971 Clouds 15 1028 51 10000 4.1 20 23:39 02.01.2020
4972 Clouds 16 1027 48 10000 3.1 20 23:20 02.01.2020
4973 Clouds 16 1027 59 10000 2.1 270 22:58 02.01.2020
4974 Clouds 16 1027 59 10000 2.1 270 22:40 02.01.2020
4975 Rain 16 1027 55 10000 3.1 280 22:19 02.01.2020
4976 Clouds 17 1027 55 10000 2.6 270 21:55 02.01.2020
4977 Clouds 18 1028 52 10000 1 330 21:37 02.01.2020
4978 Clouds 18 1028 52 10000 1 330 21:18 02.01.2020
4979 Clouds 16 1028 55 10000 1 300 20:56 02.01.2020
4980 Clouds 15 1029 62 10000 2.6 90 20:37 02.01.2020
4981 Clouds 15 1029 62 10000 2.6 90 20:18 02.01.2020
4982 Clouds 15 1029 62 10000 2.6 110 19:54 02.01.2020
4983 Rain 14 1030 62 10000 3.1 90 19:36 02.01.2020
4984 Rain 14 1030 62 10000 3.1 90 19:18 02.01.2020
4985 Rain 15 1030 67 9000 2.6 110 18:42 02.01.2020
4986 Rain 14 1031 62 10000 3.1 100 18:23 02.01.2020
4987 Clouds 14 1032 58 10000 1.5 0 17:58 02.01.2020
4988 Clouds 14 1032 58 10000 1.5 0 17:58 02.01.2020
4989 Clouds 14 1032 62 10000 1 300 17:38 02.01.2020
4990 Clouds 14 1032 62 10000 1 300 17:20 02.01.2020
4991 Drizzle 13 1032 62 10000 1 300 16:58 02.01.2020
4992 Drizzle 13 1032 62 10000 1 300 16:40 02.01.2020
4993 Rain 12 1033 66 8000 0.5 0 16:20 02.01.2020
4994 Rain 12 1033 66 8000 0.5 0 16:20 02.01.2020
4995 Drizzle 12 1033 71 8000 1 0 15:57 02.01.2020
4996 Drizzle 12 1033 71 8000 1 0 15:39 02.01.2020
4997 Drizzle 12 1033 71 8000 1 0 15:20 02.01.2020
4998 Rain 10 1033 81 6000 1.52 358 14:56 02.01.2020
4999 Rain 10 1033 81 6000 1.52 358 14:36 02.01.2020
5000 Rain 10 1033 81 6000 0.16 353 14:18 02.01.2020
5001 Rain 9 1032 87 6000 0.16 353 13:48 02.01.2020
5002 Rain 9 1032 87 6000 0.16 353 13:48 02.01.2020
5003 Drizzle 9 1032 87 8000 0.96 236 13:30 02.01.2020
5004 Rain 9 1031 87 8000 0.96 236 12:46 02.01.2020
5005 Rain 9 1030 87 8000 1.5 280 12:26 02.01.2020
5006 Rain 9 1030 87 8000 1.5 280 11:58 02.01.2020
5007 Rain 10 1030 76 10000 2.1 280 11:40 02.01.2020
5008 Rain 10 1030 76 10000 2.1 280 11:19 02.01.2020
5009 Clouds 10 1029 76 10000 2.6 280 10:44 02.01.2020
5010 Clouds 10 1029 76 10000 2.6 280 10:25 02.01.2020
5011 Clouds 10 1029 76 10000 1.5 280 09:48 02.01.2020
5012 Clouds 10 1029 76 10000 1.5 280 09:29 02.01.2020
5013 Clouds 10 1029 76 10000 1.5 270 08:47 02.01.2020
5014 Clouds 10 1029 76 10000 1.5 270 08:27 02.01.2020
5015 Clouds 10 1030 81 10000 2.1 280 07:53 02.01.2020
5016 Clouds 10 1030 81 10000 2.1 280 07:30 02.01.2020
5017 Clouds 10 1031 81 10000 2.6 90 06:46 02.01.2020
5018 Clouds 10 1031 81 10000 2.6 90 06:27 02.01.2020
5019 Rain 11 1031 81 10000 3.1 120 05:29 02.01.2020
5020 Clouds 12 1031 76 10000 2.1 100 04:32 02.01.2020
5021 Clouds 12 1030 76 10000 2.6 280 02:48 02.01.2020
5022 Clouds 14 1029 67 10000 5.7 90 01:59 02.01.2020
5023 Clouds 14 1029 67 10000 5.7 90 01:38 02.01.2020
5024 Clouds 15 1027 54 10000 5.7 280 00:58 02.01.2020
5025 Clouds 15 1026 58 10000 5.1 280 00:33 02.01.2020
5026 Rain 15 1026 58 10000 6.2 280 23:52 01.01.2020
5027 Clouds 16 1025 51 10000 6.7 280 23:28 01.01.2020
5028 Rain 17 1025 48 10000 4.6 340 22:59 01.01.2020
5029 Rain 17 1025 48 10000 4.6 340 22:38 01.01.2020
5030 Rain 17 1025 45 10000 5.7 20 22:19 01.01.2020
5031 Rain 17 1025 45 10000 4.6 360 21:56 01.01.2020
5032 Drizzle 18 1025 42 10000 5.7 20 21:37 01.01.2020
5033 Drizzle 18 1025 42 10000 5.7 20 21:18 01.01.2020
5034 Rain 21 1025 32 10000 1 0 20:54 01.01.2020
5035 Rain 20 1026 42 10000 1.5 300 20:36 01.01.2020
5036 Rain 20 1026 42 10000 1.5 300 20:18 01.01.2020
5037 Rain 19 1026 39 10000 2.1 140 19:54 01.01.2020
5038 Rain 19 1026 39 10000 2.1 140 19:54 01.01.2020
5039 Clouds 19 1028 42 10000 0.5 0 19:36 01.01.2020
5040 Clouds 19 1028 42 10000 0.5 0 19:18 01.01.2020
5041 Clouds 18 1028 45 10000 2.6 360 18:54 01.01.2020
5042 Clouds 17 1029 48 10000 2.1 0 18:36 01.01.2020
5043 Clouds 17 1029 48 10000 2.1 0 18:18 01.01.2020
5044 Clouds 17 1030 45 10000 0.5 0 17:55 01.01.2020
5045 Clouds 15 1031 54 10000 0.5 0 17:36 01.01.2020
5046 Clouds 15 1031 54 10000 0.5 0 17:18 01.01.2020
5047 Clouds 14 1032 54 10000 1.5 0 16:39 01.01.2020
5048 Clouds 14 1032 54 10000 1.5 0 16:20 01.01.2020
5049 Clouds 12 1032 66 10000 2.6 110 15:57 01.01.2020
5050 Clouds 12 1032 66 10000 2.6 110 15:39 01.01.2020
5051 Clouds 13 1032 66 10000 3.1 110 15:20 01.01.2020
5052 Clouds 12 1032 71 10000 2.6 110 14:56 01.01.2020
5053 Clouds 12 1032 71 10000 2.6 110 14:38 01.01.2020
5054 Clouds 10 1032 71 10000 0.5 0 14:20 01.01.2020
5055 Clouds 10 1032 71 10000 0.5 0 13:55 01.01.2020
5056 Clouds 9 1032 81 10000 0.5 0 13:37 01.01.2020
5057 Clouds 9 1032 81 10000 0.5 0 13:37 01.01.2020
5058 Clouds 9 1032 81 10000 0.5 0 13:18 01.01.2020
5059 Clouds 9 1031 76 10000 0.5 0 12:55 01.01.2020
5060 Mist 8 1031 81 10000 1.5 120 12:37 01.01.2020
5061 Mist 8 1031 81 10000 1.5 120 12:18 01.01.2020
5062 Mist 8 1031 81 10000 0.71 152 11:43 01.01.2020
5063 Clouds 8 1030 75 10000 1.84 111 11:22 01.01.2020
5064 Drizzle 8 1030 81 10000 1 110 10:58 01.01.2020
5065 Drizzle 8 1030 81 10000 1 110 10:39 01.01.2020
5066 Drizzle 8 1030 81 10000 1 110 10:20 01.01.2020
5067 Clouds 7 1031 81 10000 1.84 111 09:55 01.01.2020
5068 Clouds 7 1031 81 10000 1.84 111 09:36 01.01.2020
5069 Clouds 7 1031 81 10000 1.84 111 09:36 01.01.2020
5070 Clouds 7 1031 81 10000 1.84 111 09:18 01.01.2020
5071 Drizzle 8 1032 75 10000 1 220 08:54 01.01.2020
5072 Drizzle 8 1032 75 10000 1 220 08:36 01.01.2020
5073 Drizzle 8 1032 75 10000 1 220 08:18 01.01.2020
5074 Rain 7 1032 87 10000 1 260 07:42 01.01.2020
5075 Rain 7 1032 87 10000 1 260 07:24 01.01.2020
5076 Rain 8 1033 93 10000 2.6 110 06:44 01.01.2020
5077 Rain 8 1033 93 10000 2.6 110 06:19 01.01.2020
5078 Rain 9 1033 81 10000 3.1 100 04:36 01.01.2020
5079 Rain 10 1033 76 10000 3.1 100 03:41 01.01.2020
5080 Rain 13 1031 58 10000 5.7 180 03:22 01.01.2020
5081 Clouds 14 1030 67 10000 1.5 120 02:54 01.01.2020
5082 Clouds 13 1029 71 10000 3.1 110 02:30 01.01.2020
5083 Clouds 13 1029 71 10000 2.1 100 01:45 01.01.2020
5084 Clouds 13 1028 71 10000 3.1 110 01:23 01.01.2020
5085 Clouds 14 1028 67 10000 3.1 100 00:54 01.01.2020
5086 Clouds 14 1027 62 10000 5.1 110 00:36 01.01.2020
5087 Clouds 14 1027 62 10000 5.1 110 00:18 01.01.2020
5088 Clouds 17 1026 48 10000 3.6 30 23:38 31.12.2019
5089 Clouds 17 1026 48 10000 3.6 30 23:19 31.12.2019
5090 Rain 17 1026 45 10000 4.1 10 22:56 31.12.2019
5091 Rain 17 1026 45 10000 4.1 10 22:37 31.12.2019
5092 Clouds 18 1025 45 10000 4.6 10 22:18 31.12.2019
5093 Clouds 18 1025 45 10000 4.6 20 21:54 31.12.2019
5094 Clouds 19 1026 45 10000 4.1 50 21:36 31.12.2019
5095 Clouds 19 1026 45 10000 4.1 50 21:18 31.12.2019
5096 Clouds 19 1026 45 10000 4.1 50 20:40 31.12.2019
5097 Clouds 18 1027 45 10000 3.6 10 20:21 31.12.2019
5098 Clouds 18 1028 45 10000 3.6 360 19:58 31.12.2019
5099 Clouds 18 1028 45 10000 3.6 360 19:40 31.12.2019
5100 Rain 18 1028 45 10000 2.6 0 19:22 31.12.2019
5101 Rain 18 1028 48 10000 5.1 290 18:57 31.12.2019
5102 Clouds 17 1029 51 10000 5.7 290 18:38 31.12.2019
5103 Clouds 17 1029 51 10000 5.7 290 18:19 31.12.2019
5104 Clouds 19 1029 42 10000 1 0 17:56 31.12.2019
5105 Clouds 18 1030 48 10000 0.5 200 17:37 31.12.2019
5106 Clouds 18 1030 48 10000 0.5 200 17:18 31.12.2019
5107 Clouds 17 1030 48 10000 1 0 16:56 31.12.2019
5108 Clouds 16 1031 55 10000 0.5 0 16:37 31.12.2019
5109 Clouds 16 1031 55 10000 0.5 0 16:19 31.12.2019
5110 Haze 15 1031 58 10000 1.62 57 15:56 31.12.2019
5111 Haze 15 1031 58 10000 1.62 57 15:38 31.12.2019
5112 Haze 14 1031 62 9000 1.62 57 15:19 31.12.2019
5113 Haze 13 1031 66 9000 0.5 50 14:55 31.12.2019
5114 Haze 13 1031 66 9000 0.5 50 14:37 31.12.2019
5115 Mist 11 1031 76 8000 2.6 90 14:19 31.12.2019
5116 Mist 11 1031 76 8000 2.1 90 13:56 31.12.2019
5117 Mist 11 1031 76 8000 2.1 120 13:38 31.12.2019
5118 Mist 11 1031 76 8000 2.1 120 13:20 31.12.2019
5119 Mist 10 1030 81 8000 2.6 90 12:55 31.12.2019
5120 Rain 10 1030 81 9000 1 140 12:37 31.12.2019
5121 Rain 10 1030 81 9000 1 140 12:19 31.12.2019
5122 Mist 10 1029 81 9000 1.5 80 11:55 31.12.2019
5123 Mist 10 1029 81 9000 1.5 80 11:55 31.12.2019
5124 Mist 10 1029 81 9000 2.1 120 11:37 31.12.2019
5125 Mist 10 1029 81 9000 2.1 120 11:37 31.12.2019
5126 Mist 10 1029 81 9000 2.1 120 11:19 31.12.2019
5127 Mist 10 1029 81 9000 2.1 120 11:19 31.12.2019
5128 Mist 10 1029 76 10000 2.1 120 10:56 31.12.2019
5129 Mist 10 1029 76 10000 2.1 120 10:37 31.12.2019
5130 Mist 10 1029 76 10000 2.1 120 10:19 31.12.2019
5131 Mist 10 1029 81 10000 1.5 110 09:57 31.12.2019
5132 Mist 10 1029 81 10000 1.5 110 09:57 31.12.2019
5133 Mist 10 1029 81 10000 1.5 110 09:38 31.12.2019
5134 Mist 10 1029 81 10000 1.5 110 09:19 31.12.2019
5135 Clouds 10 1029 76 10000 1 70 08:42 31.12.2019
5136 Clouds 10 1029 76 10000 1 70 08:23 31.12.2019
5137 Clouds 11 1029 71 10000 1 140 07:58 31.12.2019
5138 Clouds 11 1029 71 10000 1 140 07:40 31.12.2019
5139 Clouds 11 1029 71 10000 1 140 07:19 31.12.2019
5140 Mist 10 1030 81 10000 2.1 110 06:41 31.12.2019
5141 Clouds 10 1031 76 10000 2.1 100 05:28 31.12.2019
5142 Clouds 10 1030 81 10000 1 180 04:25 31.12.2019
5143 Clouds 11 1029 71 10000 2.1 100 02:59 31.12.2019
5144 Clouds 13 1028 62 10000 2.6 120 02:36 31.12.2019
5145 Clouds 13 1028 62 10000 2.1 120 01:51 31.12.2019
5146 Clouds 13 1028 58 10000 2.1 100 01:32 31.12.2019
5147 Clouds 13 1028 58 10000 3.1 90 00:54 31.12.2019
5148 Clouds 13 1028 62 10000 5.7 110 00:36 31.12.2019
5149 Clouds 13 1028 62 10000 5.7 110 00:18 31.12.2019
5150 Clouds 14 1028 58 10000 6.2 120 23:54 30.12.2019
5151 Rain 15 1028 54 10000 6.7 120 23:36 30.12.2019
5152 Rain 15 1028 54 10000 6.7 120 23:18 30.12.2019
5153 Thunderstorm 14 1027 62 10000 10.3 110 22:54 30.12.2019
5154 Rain 17 1026 51 10000 10.3 100 22:36 30.12.2019
5155 Rain 17 1026 51 10000 10.3 100 22:18 30.12.2019
5156 Clouds 21 1025 32 10000 4.1 280 21:55 30.12.2019
5157 Clouds 21 1026 37 10000 6.2 300 21:36 30.12.2019
5158 Clouds 21 1026 37 10000 6.2 300 21:18 30.12.2019
5159 Clouds 21 1026 40 10000 3.6 360 20:41 30.12.2019
5160 Clouds 20 1027 32 10000 1.5 350 20:21 30.12.2019
5161 Clouds 19 1028 34 10000 4.1 260 19:59 30.12.2019
5162 Clouds 19 1028 34 10000 4.1 260 19:40 30.12.2019
5163 Clouds 19 1029 45 10000 3.6 260 19:20 30.12.2019
5164 Clouds 19 1030 39 10000 1.81 256 18:59 30.12.2019
5165 Clouds 19 1030 39 10000 1.81 256 18:41 30.12.2019
5166 Clouds 19 1030 45 10000 1 0 18:21 30.12.2019
5167 Clouds 18 1031 42 10000 1.5 160 17:58 30.12.2019
5168 Clouds 18 1031 42 10000 1.5 160 17:40 30.12.2019
5169 Clouds 18 1031 39 10000 0.5 0 17:19 30.12.2019
5170 Clouds 17 1031 51 10000 1.5 330 16:59 30.12.2019
5171 Clouds 16 1032 51 10000 1.5 60 16:38 30.12.2019
5172 Clouds 16 1032 51 10000 1.5 60 16:20 30.12.2019
5173 Clouds 16 1032 48 10000 1.5 210 15:56 30.12.2019
5174 Clouds 14 1032 67 10000 0.5 0 15:37 30.12.2019
5175 Clouds 14 1032 67 10000 0.5 0 15:19 30.12.2019
5176 Clouds 13 1032 66 10000 0.5 100 14:43 30.12.2019
5177 Clouds 12 1032 76 10000 1.5 90 14:21 30.12.2019
5178 Clouds 11 1032 76 10000 1.5 90 13:59 30.12.2019
5179 Clouds 11 1032 76 10000 1.5 90 13:40 30.12.2019
5180 Mist 11 1032 81 10000 1.5 90 13:22 30.12.2019
5181 Mist 11 1032 81 10000 1.5 90 13:22 30.12.2019
5182 Clouds 10 1032 81 10000 1 136 12:57 30.12.2019
5183 Mist 9 1031 87 10000 0.5 110 12:37 30.12.2019
5184 Mist 9 1031 87 10000 0.5 110 12:18 30.12.2019
5185 Mist 9 1031 87 10000 1 136 11:45 30.12.2019
5186 Mist 9 1030 87 10000 0.81 141 11:22 30.12.2019
5187 Mist 9 1030 87 10000 1 100 10:59 30.12.2019
5188 Mist 9 1030 87 10000 1 100 10:40 30.12.2019
5189 Mist 9 1030 87 10000 1 100 10:19 30.12.2019
5190 Mist 9 1030 87 10000 0.5 0 09:42 30.12.2019
5191 Mist 9 1030 87 10000 0.5 0 09:21 30.12.2019
5192 Mist 9 1031 87 10000 1 0 08:56 30.12.2019
5193 Mist 9 1031 87 10000 1 0 08:38 30.12.2019
5194 Mist 9 1031 87 10000 1 0 08:19 30.12.2019
5195 Mist 9 1031 87 10000 1 120 07:44 30.12.2019
5196 Mist 9 1031 87 10000 1 120 07:18 30.12.2019
5197 Mist 10 1032 81 10000 1 80 06:29 30.12.2019
5198 Rain 9 1034 87 8000 3.05 155 04:23 30.12.2019
5199 Rain 10 1034 81 8000 2.6 110 03:42 30.12.2019
5200 Thunderstorm 12 1031 62 8000 2.1 0 02:41 30.12.2019
5201 Thunderstorm 12 1031 62 8000 2.1 0 02:20 30.12.2019
5202 Clouds 15 1028 54 10000 1 270 01:26 30.12.2019
5203 Clouds 16 1027 51 10000 2.1 340 00:47 30.12.2019
5204 Clouds 17 1027 45 10000 1.5 270 00:26 30.12.2019
5205 Clouds 19 1026 39 10000 3.1 290 23:40 29.12.2019
5206 Clouds 19 1026 39 10000 3.1 290 23:22 29.12.2019
5207 Clouds 18 1026 42 10000 3.6 0 22:57 29.12.2019
5208 Clouds 18 1026 42 10000 3.6 0 22:38 29.12.2019
5209 Clouds 18 1026 42 10000 3.6 0 22:38 29.12.2019
5210 Clouds 17 1026 48 10000 3.1 340 22:20 29.12.2019
5211 Clouds 17 1026 48 10000 3.1 0 21:54 29.12.2019
5212 Clouds 18 1027 42 10000 3.1 0 21:36 29.12.2019
5213 Clouds 18 1027 42 10000 3.1 0 21:18 29.12.2019
5214 Clouds 19 1027 39 10000 4.6 20 20:55 29.12.2019
5215 Clouds 20 1027 40 10000 4.6 50 20:36 29.12.2019
5216 Clouds 20 1027 40 10000 4.6 50 20:18 29.12.2019
5217 Clouds 21 1028 37 10000 3.6 70 19:40 29.12.2019
5218 Clouds 20 1029 37 10000 0.5 0 19:22 29.12.2019
5219 Clouds 19 1029 39 10000 1.5 0 18:59 29.12.2019
5220 Clouds 19 1029 39 10000 1.5 0 18:40 29.12.2019
5221 Clouds 20 1030 49 10000 3.6 100 18:21 29.12.2019
5222 Clouds 18 1030 48 10000 1.5 150 17:58 29.12.2019
5223 Clouds 18 1030 48 10000 1.5 150 17:39 29.12.2019
5224 Clouds 17 1031 45 10000 1 160 17:20 29.12.2019
5225 Clouds 17 1031 42 10000 1 70 16:57 29.12.2019
5226 Clouds 17 1031 42 10000 1 70 16:39 29.12.2019
5227 Clouds 16 1032 48 10000 2.1 80 16:39 29.12.2019
5228 Clouds 16 1032 48 10000 2.1 80 16:21 29.12.2019
5229 Clouds 17 1032 55 10000 1.5 0 15:59 29.12.2019
5230 Clouds 17 1032 55 10000 1.5 0 15:40 29.12.2019
5231 Clouds 16 1032 55 10000 1 110 15:20 29.12.2019
5232 Clouds 15 1032 58 10000 1 120 14:58 29.12.2019
5233 Clouds 13 1032 66 10000 1.5 80 14:39 29.12.2019
5234 Clouds 13 1032 66 10000 1.5 80 14:18 29.12.2019
5235 Clouds 13 1032 66 10000 1 130 13:58 29.12.2019
5236 Clouds 13 1032 66 10000 1 130 13:39 29.12.2019
5237 Haze 12 1032 71 10000 0.5 140 13:21 29.12.2019
5238 Haze 10 1031 81 10000 1 110 12:56 29.12.2019
5239 Haze 10 1031 81 10000 1 110 12:38 29.12.2019
5240 Mist 9 1031 81 10000 3.1 110 12:19 29.12.2019
5241 Mist 8 1031 87 10000 2.6 100 11:40 29.12.2019
5242 Mist 8 1030 87 10000 2.1 90 11:21 29.12.2019
5243 Clouds 9 1030 81 10000 2.1 100 10:56 29.12.2019
5244 Clouds 9 1030 81 10000 2.1 100 10:37 29.12.2019
5245 Clouds 9 1030 81 10000 2.1 100 10:18 29.12.2019
5246 Clouds 10 1030 81 10000 1.5 80 09:44 29.12.2019
5247 Clouds 10 1030 81 10000 1.5 80 09:26 29.12.2019
5248 Clouds 10 1031 76 10000 0.5 0 08:52 29.12.2019
5249 Clouds 10 1031 76 10000 0.5 0 08:29 29.12.2019
5250 Clouds 10 1031 76 10000 0.69 306 07:59 29.12.2019
5251 Clouds 10 1031 76 10000 0.69 306 07:32 29.12.2019
5252 Clouds 10 1032 81 10000 3.1 120 06:59 29.12.2019
5253 Clouds 10 1032 81 10000 3.1 120 06:27 29.12.2019
5254 Clouds 10 1033 81 10000 1 0 05:55 29.12.2019
5255 Clouds 10 1033 76 10000 1 0 04:47 29.12.2019
5256 Clouds 10 1033 76 10000 1 0 04:28 29.12.2019
5257 Drizzle 10 1033 76 10000 3.6 90 03:28 29.12.2019
5258 Clouds 13 1032 50 10000 3.1 0 02:27 29.12.2019
5259 Clouds 14 1031 62 10000 1 0 01:47 29.12.2019
5260 Clouds 14 1029 62 10000 2.1 100 01:28 29.12.2019
5261 Clouds 15 1029 58 10000 2.6 110 00:45 29.12.2019
5262 Clouds 16 1027 55 10000 3.1 100 00:24 29.12.2019
5263 Clouds 17 1027 48 10000 2.6 30 23:45 28.12.2019
5264 Clouds 18 1027 48 10000 3.6 350 23:19 28.12.2019
5265 Clouds 18 1027 45 10000 4.1 10 22:59 28.12.2019
5266 Clouds 18 1027 48 10000 5.7 280 22:37 28.12.2019
5267 Clouds 18 1027 48 10000 5.7 280 22:18 28.12.2019
5268 Clouds 18 1027 48 10000 3.1 310 21:55 28.12.2019
5269 Clouds 17 1028 48 10000 5.7 310 21:37 28.12.2019
5270 Clouds 17 1028 48 10000 5.7 310 21:19 28.12.2019
5271 Clouds 18 1027 45 10000 4.6 10 20:40 28.12.2019
5272 Clouds 19 1028 45 10000 4.1 20 20:22 28.12.2019
5273 Clouds 18 1028 48 10000 4.6 20 19:59 28.12.2019
5274 Clouds 18 1028 48 10000 4.6 20 19:41 28.12.2019
5275 Clouds 21 1028 43 10000 2.1 360 19:23 28.12.2019
5276 Clouds 19 1029 45 10000 2.6 360 18:59 28.12.2019
5277 Clouds 19 1029 45 10000 2.6 360 18:40 28.12.2019
5278 Clouds 19 1030 48 10000 1 0 18:20 28.12.2019
5279 Clouds 19 1030 48 10000 1.5 0 17:57 28.12.2019
5280 Clouds 19 1031 48 10000 1 0 17:38 28.12.2019
5281 Clouds 19 1031 48 10000 1 0 17:19 28.12.2019
5282 Clouds 18 1031 45 10000 1.5 0 16:47 28.12.2019
5283 Clouds 17 1031 59 10000 1.5 0 16:26 28.12.2019
5284 Clouds 16 1031 55 10000 1 70 15:57 28.12.2019
5285 Clouds 16 1031 55 10000 1 70 15:39 28.12.2019
5286 Clouds 16 1032 55 10000 1.5 110 15:20 28.12.2019
5287 Clouds 14 1032 67 10000 1.5 130 14:45 28.12.2019
5288 Clouds 13 1032 66 10000 2.1 100 14:24 28.12.2019
5289 Clouds 12 1032 71 10000 1.5 100 13:58 28.12.2019
5290 Clouds 12 1032 71 10000 1.5 100 13:38 28.12.2019
5291 Clouds 11 1032 76 10000 0.5 0 13:19 28.12.2019
5292 Clouds 11 1031 81 10000 1 140 12:44 28.12.2019
5293 Clouds 11 1031 81 10000 1 140 12:44 28.12.2019
5294 Mist 11 1031 76 10000 2.6 100 12:25 28.12.2019
5295 Mist 11 1031 76 10000 0.5 280 11:59 28.12.2019
5296 Mist 11 1031 76 10000 0.5 280 11:39 28.12.2019
5297 Clouds 11 1030 76 10000 0.5 210 11:20 28.12.2019
5298 Clouds 11 1030 76 10000 0.5 210 10:46 28.12.2019
5299 Clouds 11 1030 76 10000 0.5 210 10:23 28.12.2019
5300 Clouds 13 1029 66 10000 0.5 290 09:58 28.12.2019
5301 Clouds 13 1029 66 10000 0.5 290 09:40 28.12.2019
5302 Clouds 13 1029 66 10000 0.5 290 09:20 28.12.2019
5303 Clouds 13 1029 66 10000 0.5 290 09:20 28.12.2019
5304 Clouds 12 1029 76 10000 1.5 290 08:45 28.12.2019
5305 Clouds 12 1029 76 10000 1.5 290 08:27 28.12.2019
5306 Clouds 13 1030 66 10000 2.1 280 07:57 28.12.2019
5307 Clouds 13 1030 66 10000 2.1 280 07:39 28.12.2019
5308 Clouds 13 1030 66 10000 2.1 270 06:42 28.12.2019
5309 Clouds 13 1031 66 10000 1.5 100 05:31 28.12.2019
5310 Clouds 14 1030 62 10000 1 280 03:47 28.12.2019
5311 Clouds 15 1029 54 10000 4.1 270 02:49 28.12.2019
5312 Clouds 15 1029 51 10000 1.5 270 02:19 28.12.2019
5313 Clouds 16 1028 48 10000 1 290 01:50 28.12.2019
5314 Clouds 16 1028 48 10000 4.6 290 01:20 28.12.2019
5315 Clouds 17 1027 45 10000 4.6 290 00:41 28.12.2019
5316 Clouds 18 1027 36 10000 5.1 290 00:23 28.12.2019
5317 Clouds 19 1026 34 10000 5.7 300 23:45 27.12.2019
5318 Clouds 20 1026 34 10000 5.1 300 23:20 27.12.2019
5319 Clouds 20 1026 32 10000 5.1 300 22:58 27.12.2019
5320 Clouds 20 1026 32 10000 5.1 300 22:39 27.12.2019
5321 Clouds 21 1026 32 10000 5.7 300 22:20 27.12.2019
5322 Clouds 21 1026 32 10000 5.7 300 22:20 27.12.2019
5323 Clouds 21 1027 35 10000 6.2 300 21:59 27.12.2019
5324 Clouds 21 1027 35 10000 6.2 300 21:40 27.12.2019
5325 Clouds 20 1028 34 10000 8.2 290 21:22 27.12.2019
5326 Clouds 22 1028 33 10000 4.1 0 20:42 27.12.2019
5327 Clouds 20 1029 37 10000 5.1 300 20:23 27.12.2019
5328 Clouds 21 1029 35 10000 5.1 280 19:55 27.12.2019
5329 Clouds 22 1030 35 10000 1 70 19:36 27.12.2019
5330 Clouds 22 1030 35 10000 1 70 19:18 27.12.2019
5331 Clouds 22 1030 30 10000 0.5 130 18:42 27.12.2019
5332 Clouds 20 1031 34 10000 1 0 18:24 27.12.2019
5333 Clouds 20 1032 45 10000 2.6 0 18:00 27.12.2019
5334 Clouds 20 1032 45 10000 2.6 0 17:41 27.12.2019
5335 Clouds 19 1032 48 10000 0.5 30 17:20 27.12.2019
5336 Clouds 18 1033 42 10000 2.1 30 16:59 27.12.2019
5337 Clouds 18 1033 42 10000 2.1 30 16:59 27.12.2019
5338 Clouds 18 1033 42 10000 2.1 30 16:59 27.12.2019
5339 Clouds 18 1033 42 10000 2.1 30 16:39 27.12.2019
5340 Clouds 17 1034 48 10000 1.5 280 16:21 27.12.2019
5341 Clouds 16 1034 51 10000 1 240 15:56 27.12.2019
5342 Clouds 15 1034 54 10000 1.5 0 15:37 27.12.2019
5343 Clouds 15 1034 54 10000 1.5 0 15:18 27.12.2019
5344 Clouds 14 1034 62 10000 2.1 0 14:55 27.12.2019
5345 Clouds 13 1034 66 10000 1.5 0 14:36 27.12.2019
5346 Clouds 13 1034 66 10000 1.5 0 14:18 27.12.2019
5347 Clouds 12 1034 71 10000 1 240 13:43 27.12.2019
5348 Mist 11 1034 81 10000 0.5 0 13:22 27.12.2019
5349 Mist 9 1034 87 10000 1.5 120 12:48 27.12.2019
5350 Mist 9 1033 81 10000 1.5 80 12:29 27.12.2019
5351 Clouds 9 1033 81 10000 0.5 0 11:59 27.12.2019
5352 Clouds 9 1033 81 10000 0.5 0 11:41 27.12.2019
5353 Clouds 9 1033 87 10000 0.83 89 11:20 27.12.2019
5354 Clouds 9 1032 81 10000 1.5 120 10:46 27.12.2019
5355 Clouds 9 1032 81 10000 1.5 120 10:24 27.12.2019
5356 Clouds 9 1032 81 10000 1.5 20 09:55 27.12.2019
5357 Clouds 9 1032 81 10000 1.5 20 09:37 27.12.2019
5358 Clouds 9 1032 81 10000 1.5 20 09:19 27.12.2019
5359 Clouds 9 1032 81 10000 1.5 20 09:19 27.12.2019
5360 Clouds 9 1032 87 10000 1 100 08:43 27.12.2019
5361 Clouds 9 1032 87 10000 1 100 08:25 27.12.2019
5362 Clouds 9 1032 87 10000 1 120 07:38 27.12.2019
5363 Clouds 9 1032 87 10000 1 120 07:19 27.12.2019
5364 Clouds 9 1033 81 10000 0.5 280 06:25 27.12.2019
5365 Clouds 10 1034 76 10000 1.5 90 04:39 27.12.2019
5366 Clouds 13 1031 76 10000 1.5 300 02:29 27.12.2019
5367 Clouds 14 1031 67 10000 1.5 100 01:45 27.12.2019
5368 Clouds 14 1030 71 10000 0.5 330 01:23 27.12.2019
5369 Clouds 16 1029 55 10000 1 180 00:47 27.12.2019
5370 Clouds 16 1029 55 10000 2.6 360 00:27 27.12.2019
5371 Rain 17 1028 48 10000 2.6 50 23:56 26.12.2019
5372 Rain 18 1028 42 10000 0.5 0 23:38 26.12.2019
5373 Rain 18 1028 42 10000 0.5 0 23:19 26.12.2019
5374 Clouds 19 1028 39 10000 1.5 0 22:40 26.12.2019
5375 Clouds 17 1028 51 10000 2.6 110 22:19 26.12.2019
5376 Clouds 18 1028 42 10000 3.1 100 21:40 26.12.2019
5377 Clouds 17 1029 48 10000 4.6 100 21:21 26.12.2019
5378 Clouds 18 1029 48 10000 4.6 110 20:59 26.12.2019
5379 Clouds 18 1029 48 10000 4.6 110 20:40 26.12.2019
5380 Clouds 17 1030 59 10000 4.1 120 20:22 26.12.2019
5381 Clouds 17 1030 55 10000 3.1 100 19:56 26.12.2019
5382 Clouds 17 1030 55 10000 3.1 100 19:38 26.12.2019
5383 Rain 15 1032 67 10000 3.1 100 19:20 26.12.2019
5384 Rain 14 1033 67 10000 2.6 130 18:57 26.12.2019
5385 Clouds 13 1033 71 10000 1.5 160 18:37 26.12.2019
5386 Clouds 13 1033 71 10000 1.5 160 18:18 26.12.2019
5387 Drizzle 12 1034 76 9000 3.1 300 17:42 26.12.2019
5388 Rain 13 1034 71 8000 3.6 280 17:22 26.12.2019
5389 Rain 14 1034 71 10000 5.7 300 16:51 26.12.2019
5390 Clouds 16 1034 55 10000 1 270 16:29 26.12.2019
5391 Clouds 16 1034 51 10000 0.5 0 15:59 26.12.2019
5392 Clouds 16 1034 51 10000 0.5 0 15:40 26.12.2019
5393 Clouds 15 1034 58 10000 1.5 0 15:19 26.12.2019
5394 Clouds 15 1034 62 10000 1.5 170 14:42 26.12.2019
5395 Clouds 14 1034 58 10000 0.5 110 14:23 26.12.2019
5396 Clouds 12 1034 66 10000 0.5 0 13:58 26.12.2019
5397 Clouds 12 1034 66 10000 0.5 0 13:40 26.12.2019
5398 Clouds 12 1033 71 10000 1.5 0 13:18 26.12.2019
5399 Clouds 11 1033 81 10000 1 250 12:56 26.12.2019
5400 Clouds 10 1033 81 10000 1 360 12:36 26.12.2019
5401 Clouds 10 1033 81 10000 1 360 12:18 26.12.2019
5402 Clouds 10 1032 81 10000 0.5 260 11:42 26.12.2019
5403 Mist 10 1032 81 8000 1 220 11:23 26.12.2019
5404 Rain 10 1031 81 7000 5.1 290 10:54 26.12.2019
5405 Rain 10 1031 81 7000 5.1 290 10:36 26.12.2019
5406 Rain 10 1031 81 7000 5.1 290 10:18 26.12.2019
5407 Clouds 11 1031 81 10000 1 40 09:42 26.12.2019
5408 Clouds 11 1031 81 10000 1 40 09:24 26.12.2019
5409 Clouds 11 1031 81 10000 0.94 336 08:40 26.12.2019
5410 Clouds 11 1031 81 10000 1.72 351 08:22 26.12.2019
5411 Clouds 11 1031 81 10000 0.5 150 07:46 26.12.2019
5412 Clouds 11 1031 81 10000 0.5 150 07:26 26.12.2019
5413 Clouds 11 1032 81 10000 1 320 06:44 26.12.2019
5414 Clouds 11 1032 81 10000 1 320 06:25 26.12.2019
5415 Clouds 11 1032 87 10000 0.5 360 05:43 26.12.2019
5416 Clouds 11 1032 81 10000 1 100 04:38 26.12.2019
5417 Clouds 11 1032 81 10000 0.5 260 03:46 26.12.2019
5418 Clouds 11 1031 81 10000 1 360 02:47 26.12.2019
5419 Clouds 11 1030 81 10000 2.1 300 02:29 26.12.2019
5420 Clouds 11 1030 81 10000 1.5 280 01:44 26.12.2019
5421 Clouds 12 1029 76 10000 1 270 01:26 26.12.2019
5422 Clouds 12 1029 81 10000 1.5 330 00:47 26.12.2019
5423 Rain 12 1028 76 10000 3.1 290 00:24 26.12.2019
5424 Rain 12 1028 76 10000 3.1 280 23:58 25.12.2019
5425 Rain 12 1028 76 10000 3.1 280 23:38 25.12.2019
5426 Rain 13 1028 71 10000 3.1 260 23:19 25.12.2019
5427 Rain 14 1028 62 8000 2.6 0 22:57 25.12.2019
5428 Rain 14 1028 62 8000 2.6 0 22:37 25.12.2019
5429 Clouds 13 1026 76 8000 3.6 300 22:19 25.12.2019
5430 Rain 16 1026 59 10000 2.1 240 21:57 25.12.2019
5431 Rain 16 1026 59 10000 2.1 240 21:39 25.12.2019
5432 Rain 16 1026 63 10000 2.6 90 21:19 25.12.2019
5433 Rain 18 1026 48 10000 1 100 20:41 25.12.2019
5434 Rain 18 1026 48 10000 1 100 20:41 25.12.2019
5435 Clouds 20 1026 40 10000 2.1 0 20:21 25.12.2019
5436 Clouds 20 1027 45 10000 2.03 331 19:59 25.12.2019
5437 Clouds 20 1027 45 10000 2.03 331 19:41 25.12.2019
5438 Clouds 16 1028 59 10000 2.6 260 19:22 25.12.2019
5439 Rain 14 1029 67 10000 4.1 340 18:41 25.12.2019
5440 Rain 14 1029 67 10000 4.1 340 18:21 25.12.2019
5441 Rain 18 1029 48 10000 1.5 20 17:59 25.12.2019
5442 Clouds 18 1030 45 10000 0.5 320 17:39 25.12.2019
5443 Clouds 18 1030 45 10000 0.5 320 17:18 25.12.2019
5444 Clouds 18 1031 48 10000 1.5 50 16:55 25.12.2019
5445 Clouds 16 1031 59 10000 0.5 0 16:36 25.12.2019
5446 Clouds 16 1031 59 10000 0.5 0 16:18 25.12.2019
5447 Clouds 15 1032 62 10000 1.5 360 15:56 25.12.2019
5448 Clouds 14 1032 67 10000 1 130 15:37 25.12.2019
5449 Clouds 14 1032 67 10000 1 130 15:18 25.12.2019
5450 Clouds 14 1032 62 10000 0.5 0 14:54 25.12.2019
5451 Clouds 13 1032 66 8000 1.5 190 14:36 25.12.2019
5452 Clouds 13 1032 66 8000 1.5 190 14:18 25.12.2019
5453 Clouds 12 1032 71 7000 1.5 100 13:41 25.12.2019
5454 Clouds 11 1032 81 7000 1.5 90 13:20 25.12.2019
5455 Clouds 11 1032 81 7000 1.5 80 12:44 25.12.2019
5456 Mist 10 1031 87 6000 1 120 12:22 25.12.2019
5457 Mist 10 1031 87 5000 1.5 100 11:58 25.12.2019
5458 Mist 10 1031 87 5000 1.5 100 11:40 25.12.2019
5459 Mist 10 1031 87 8000 1.5 110 11:21 25.12.2019
5460 Mist 10 1030 87 8000 1.5 90 10:39 25.12.2019
5461 Mist 10 1030 87 8000 1.5 90 10:21 25.12.2019
5462 Mist 10 1030 87 10000 1 90 09:59 25.12.2019
5463 Mist 10 1030 87 10000 1 90 09:40 25.12.2019
5464 Mist 10 1030 87 10000 1 90 09:22 25.12.2019
5465 Mist 9 1030 87 10000 2.1 100 08:43 25.12.2019
5466 Mist 9 1030 87 10000 2.1 100 08:24 25.12.2019
5467 Mist 9 1030 87 10000 2.1 100 08:24 25.12.2019
5468 Mist 10 1031 87 10000 0.5 170 07:44 25.12.2019
5469 Mist 10 1031 87 10000 0.5 170 07:23 25.12.2019
5470 Mist 10 1032 87 10000 1.19 341 06:24 25.12.2019
5471 Mist 10 1032 87 10000 1.19 341 05:51 25.12.2019
5472 Mist 10 1032 87 10000 2.1 100 04:46 25.12.2019
5473 Mist 10 1032 87 10000 2.1 100 04:24 25.12.2019
5474 Mist 10 1032 87 10000 1.5 90 03:46 25.12.2019
5475 Mist 11 1032 81 10000 1.77 13 03:18 25.12.2019
5476 Mist 11 1031 81 10000 1.77 13 02:30 25.12.2019
5477 Drizzle 11 1031 81 9000 2 1 01:53 25.12.2019
5478 Rain 11 1030 81 8000 0.5 0 01:22 25.12.2019
5479 Rain 11 1030 81 8000 3.6 110 00:45 25.12.2019
5480 Rain 11 1029 81 9000 4.1 120 00:26 25.12.2019
5481 Clouds 12 1029 76 10000 6.2 110 23:40 24.12.2019
5482 Clouds 12 1029 76 10000 6.2 110 23:21 24.12.2019
5483 Clouds 12 1028 76 10000 5.7 120 22:58 24.12.2019
5484 Clouds 12 1028 76 10000 5.7 120 22:37 24.12.2019
5485 Drizzle 12 1028 81 7000 3.1 110 22:19 24.12.2019
5486 Drizzle 11 1029 81 7000 5.1 110 21:41 24.12.2019
5487 Drizzle 11 1029 81 7000 5.1 110 21:41 24.12.2019
5488 Drizzle 12 1029 81 7000 4.1 110 21:22 24.12.2019
5489 Rain 11 1029 81 6000 5.1 110 20:43 24.12.2019
5490 Rain 12 1029 76 5000 3.6 100 20:24 24.12.2019
5491 Clouds 16 1030 63 10000 2.1 0 19:57 24.12.2019
5492 Drizzle 14 1031 67 8000 0.5 0 19:37 24.12.2019
5493 Drizzle 14 1031 67 8000 0.5 0 19:18 24.12.2019
5494 Drizzle 14 1031 67 10000 2.6 100 18:42 24.12.2019
5495 Drizzle 14 1031 71 9000 3.1 100 18:19 24.12.2019
5496 Rain 15 1032 58 10000 2.6 100 17:45 24.12.2019
5497 Drizzle 14 1032 67 9000 2.6 100 17:24 24.12.2019
5498 Drizzle 14 1033 62 9000 1.5 40 16:59 24.12.2019
5499 Drizzle 14 1033 62 9000 1.5 40 16:40 24.12.2019
5500 Rain 13 1033 66 10000 1 350 16:22 24.12.2019
5501 Rain 13 1034 62 10000 1 20 15:58 24.12.2019
5502 Rain 13 1034 62 10000 1 20 15:58 24.12.2019
5503 Rain 13 1034 62 10000 1 20 15:38 24.12.2019
5504 Clouds 12 1033 62 10000 1 70 15:20 24.12.2019
5505 Clouds 12 1033 71 10000 1 100 14:59 24.12.2019
5506 Clouds 12 1033 71 10000 1 100 14:40 24.12.2019
5507 Clouds 12 1033 66 10000 1.5 110 14:22 24.12.2019
5508 Clouds 11 1033 71 10000 2.1 110 13:57 24.12.2019
5509 Clouds 11 1033 71 10000 2.1 110 13:39 24.12.2019
5510 Clouds 11 1033 76 10000 2.1 90 13:20 24.12.2019
5511 Clouds 11 1033 76 10000 2.1 90 13:20 24.12.2019
5512 Mist 10 1033 81 10000 1.5 90 12:57 24.12.2019
5513 Mist 10 1033 81 10000 1.5 90 12:38 24.12.2019
5514 Mist 9 1032 87 10000 1.5 110 12:19 24.12.2019
5515 Mist 9 1032 87 10000 1.5 110 12:19 24.12.2019
5516 Mist 9 1032 87 9000 1.5 110 11:58 24.12.2019
5517 Drizzle 9 1032 87 9000 1.5 110 11:38 24.12.2019
5518 Drizzle 9 1032 87 9000 1.5 110 11:38 24.12.2019
5519 Drizzle 9 1032 87 9000 1.5 110 11:20 24.12.2019
5520 Drizzle 9 1031 87 9000 1.85 208 10:57 24.12.2019
5521 Drizzle 9 1031 87 9000 1.85 208 10:38 24.12.2019
5522 Drizzle 9 1031 87 9000 1.85 208 10:20 24.12.2019
5523 Rain 9 1032 81 9000 1.85 208 09:59 24.12.2019
5524 Rain 9 1032 81 9000 1.85 208 09:41 24.12.2019
5525 Rain 9 1032 81 9000 1.85 208 09:22 24.12.2019
5526 Rain 9 1032 81 10000 1 270 08:56 24.12.2019
5527 Rain 9 1032 81 10000 1 270 08:37 24.12.2019
5528 Rain 9 1032 81 10000 1 270 08:18 24.12.2019
5529 Rain 10 1033 81 10000 2.1 280 07:43 24.12.2019
5530 Rain 10 1033 81 10000 2.1 280 07:21 24.12.2019
5531 Rain 10 1033 81 10000 3.1 300 06:41 24.12.2019
5532 Rain 10 1033 81 10000 3.1 300 06:22 24.12.2019
5533 Rain 13 1033 62 10000 1.5 130 05:55 24.12.2019
5534 Rain 13 1033 62 10000 1.5 130 05:19 24.12.2019
5535 Clouds 13 1033 66 10000 2.6 110 04:21 24.12.2019
5536 Clouds 13 1032 66 10000 3.6 110 03:48 24.12.2019
5537 Clouds 14 1031 62 10000 2.1 110 02:37 24.12.2019
5538 Clouds 14 1031 62 10000 2.1 110 02:18 24.12.2019
5539 Clouds 14 1031 62 10000 2.6 120 01:42 24.12.2019
5540 Clouds 15 1030 58 10000 1.5 100 01:19 24.12.2019
5541 Clouds 15 1030 58 10000 1 0 00:40 24.12.2019
5542 Clouds 15 1029 54 10000 2.1 20 00:20 24.12.2019
5543 Clouds 16 1028 51 10000 1 40 23:43 23.12.2019
5544 Clouds 17 1028 48 10000 1.5 70 23:24 23.12.2019
5545 Clouds 17 1028 45 10000 2.6 50 22:58 23.12.2019
5546 Clouds 17 1028 45 10000 2.6 50 22:38 23.12.2019
5547 Clouds 17 1028 51 10000 3.1 10 22:20 23.12.2019
5548 Clouds 17 1028 51 10000 3.1 10 22:20 23.12.2019
5549 Clouds 17 1028 45 10000 3.1 50 21:57 23.12.2019
5550 Clouds 17 1028 45 10000 3.1 50 21:37 23.12.2019
5551 Clouds 17 1028 48 10000 4.6 30 21:19 23.12.2019
5552 Clouds 17 1029 48 10000 3.6 40 20:59 23.12.2019
5553 Clouds 17 1029 48 10000 3.6 40 20:41 23.12.2019
5554 Clouds 17 1029 55 10000 1 130 20:19 23.12.2019
5555 Clouds 15 1030 54 10000 1 130 19:59 23.12.2019
5556 Clouds 15 1030 54 10000 1 130 19:41 23.12.2019
5557 Rain 15 1031 58 10000 5.7 110 19:22 23.12.2019
5558 Clouds 17 1031 51 10000 1.5 140 18:59 23.12.2019
5559 Clouds 16 1032 59 10000 3.6 350 18:39 23.12.2019
5560 Clouds 16 1032 59 10000 3.6 350 18:21 23.12.2019
5561 Rain 14 1032 62 10000 5.7 20 17:59 23.12.2019
5562 Rain 14 1032 62 10000 5.7 20 17:41 23.12.2019
5563 Clouds 17 1032 48 10000 1.5 0 17:20 23.12.2019
5564 Clouds 16 1032 55 10000 1.5 0 16:59 23.12.2019
5565 Clouds 16 1033 51 10000 1 0 16:40 23.12.2019
5566 Clouds 16 1033 51 10000 1 0 16:19 23.12.2019
5567 Clouds 16 1033 48 10000 2.6 270 15:58 23.12.2019
5568 Clouds 16 1033 51 10000 0.5 20 15:37 23.12.2019
5569 Clouds 16 1033 51 10000 0.5 20 15:19 23.12.2019
5570 Clouds 15 1033 58 10000 1.5 340 14:57 23.12.2019
5571 Clouds 15 1033 58 10000 1.5 340 14:39 23.12.2019
5572 Clouds 15 1033 58 10000 1.5 340 14:39 23.12.2019
5573 Clouds 14 1033 58 10000 1.5 280 14:19 23.12.2019
5574 Clouds 15 1033 58 10000 1.5 310 13:57 23.12.2019
5575 Clouds 15 1033 58 10000 1.5 310 13:39 23.12.2019
5576 Clouds 13 1032 62 10000 0.5 0 13:20 23.12.2019
5577 Clouds 12 1032 66 10000 0.5 0 12:55 23.12.2019
5578 Clouds 11 1032 71 10000 0.5 290 12:37 23.12.2019
5579 Clouds 11 1032 71 10000 0.5 290 12:37 23.12.2019
5580 Clouds 11 1032 71 10000 0.5 290 12:18 23.12.2019
5581 Rain 11 1032 71 10000 1.5 270 11:42 23.12.2019
5582 Clouds 11 1031 71 10000 1 260 11:24 23.12.2019
5583 Clouds 11 1031 71 10000 1.5 210 10:56 23.12.2019
5584 Clouds 11 1031 71 10000 1.5 210 10:38 23.12.2019
5585 Clouds 11 1031 71 10000 1.5 210 10:38 23.12.2019
5586 Clouds 11 1031 71 10000 1.5 210 10:20 23.12.2019
5587 Clouds 11 1031 66 10000 1.5 240 09:58 23.12.2019
5588 Clouds 11 1031 66 10000 1.5 240 09:39 23.12.2019
5589 Clouds 11 1031 66 10000 1.5 240 09:39 23.12.2019
5590 Clouds 11 1031 66 10000 1.5 240 09:19 23.12.2019
5591 Clouds 12 1031 62 10000 3.1 290 08:55 23.12.2019
5592 Clouds 12 1031 62 10000 3.1 290 08:37 23.12.2019
5593 Clouds 12 1031 62 10000 3.1 290 08:18 23.12.2019
5594 Clouds 12 1032 62 10000 4.6 300 07:43 23.12.2019
5595 Clouds 12 1032 62 10000 4.6 300 07:19 23.12.2019
5596 Clouds 12 1032 62 10000 4.6 280 06:45 23.12.2019
5597 Clouds 12 1032 62 10000 4.6 280 06:23 23.12.2019
5598 Clouds 12 1033 62 10000 4.6 280 05:47 23.12.2019
5599 Clouds 12 1033 62 10000 4.6 280 05:18 23.12.2019
5600 Clouds 12 1033 62 10000 5.1 290 04:19 23.12.2019
5601 Clouds 14 1032 62 10000 1 110 02:48 23.12.2019
5602 Thunderstorm 14 1031 54 10000 0.5 0 02:23 23.12.2019
5603 Thunderstorm 15 1030 51 10000 1.5 60 01:51 23.12.2019
5604 Clouds 15 1029 51 10000 1 0 01:32 23.12.2019
5605 Clouds 15 1029 54 10000 2.1 120 00:54 23.12.2019
5606 Clouds 16 1028 51 10000 2.1 80 00:35 23.12.2019
5607 Clouds 17 1027 48 10000 2.1 20 23:57 22.12.2019
5608 Clouds 17 1027 48 10000 2.1 20 23:39 22.12.2019
5609 Clouds 17 1027 55 10000 3.1 110 23:20 22.12.2019
5610 Clouds 17 1027 48 10000 3.6 40 22:57 22.12.2019
5611 Clouds 17 1027 48 10000 3.6 40 22:38 22.12.2019
5612 Clouds 17 1027 48 10000 3.6 40 22:38 22.12.2019
5613 Rain 19 1027 45 10000 3.1 40 22:19 22.12.2019
5614 Rain 19 1027 45 10000 3.1 10 21:56 22.12.2019
5615 Rain 19 1027 45 10000 3.1 10 21:38 22.12.2019
5616 Clouds 19 1027 42 10000 3.1 20 21:20 22.12.2019
5617 Clouds 19 1028 45 10000 5.1 20 20:43 22.12.2019
5618 Clouds 19 1028 45 10000 4.1 20 20:20 22.12.2019
5619 Clouds 20 1029 40 10000 2.6 110 19:58 22.12.2019
5620 Clouds 20 1029 40 10000 2.6 110 19:40 22.12.2019
5621 Clouds 19 1030 48 10000 1.5 110 19:21 22.12.2019
5622 Clouds 18 1030 42 10000 2.1 250 18:58 22.12.2019
5623 Clouds 18 1030 42 10000 2.1 250 18:38 22.12.2019
5624 Clouds 19 1031 45 10000 2.6 120 18:19 22.12.2019
5625 Clouds 18 1032 45 10000 1.5 0 17:55 22.12.2019
5626 Clouds 17 1032 51 10000 2.1 110 17:37 22.12.2019
5627 Clouds 17 1032 51 10000 2.1 110 17:18 22.12.2019
5628 Clouds 16 1033 55 10000 2.1 100 16:43 22.12.2019
5629 Clouds 16 1033 55 10000 2.1 100 16:23 22.12.2019
5630 Clouds 15 1034 58 10000 2.1 70 15:59 22.12.2019
5631 Clouds 13 1034 58 10000 1 330 15:39 22.12.2019
5632 Clouds 13 1034 58 10000 1 330 15:21 22.12.2019
5633 Clouds 13 1034 58 10000 1 330 15:21 22.12.2019
5634 Clouds 14 1034 58 10000 1.5 200 14:59 22.12.2019
5635 Clouds 12 1034 62 10000 0.5 20 14:38 22.12.2019
5636 Clouds 12 1034 62 10000 0.5 20 14:19 22.12.2019
5637 Clouds 11 1034 66 10000 1 120 13:56 22.12.2019
5638 Clouds 11 1034 66 10000 1 120 13:38 22.12.2019
5639 Clouds 10 1033 71 10000 1.26 281 13:19 22.12.2019
5640 Clouds 10 1033 76 10000 0.5 280 12:57 22.12.2019
5641 Drizzle 9 1032 76 10000 1.5 290 12:39 22.12.2019
5642 Drizzle 9 1032 76 10000 1.5 290 12:19 22.12.2019
5643 Drizzle 9 1032 76 10000 1.5 290 12:19 22.12.2019
5644 Drizzle 9 1032 76 10000 1.5 290 12:19 22.12.2019
5645 Clouds 9 1031 76 10000 3.1 280 11:59 22.12.2019
5646 Clouds 9 1031 76 10000 3.1 280 11:39 22.12.2019
5647 Clouds 9 1031 76 10000 2.6 290 11:20 22.12.2019
5648 Clouds 9 1031 76 10000 4.1 300 10:57 22.12.2019
5649 Clouds 9 1031 76 10000 4.1 300 10:39 22.12.2019
5650 Clouds 9 1031 76 10000 4.1 300 10:19 22.12.2019
5651 Rain 9 1031 87 10000 0.5 110 09:58 22.12.2019
5652 Rain 9 1031 87 10000 0.5 110 09:39 22.12.2019
5653 Rain 9 1031 87 10000 0.5 110 09:21 22.12.2019
5654 Rain 10 1031 81 10000 2.18 271 08:45 22.12.2019
5655 Rain 10 1031 81 10000 1.66 291 08:23 22.12.2019
5656 Rain 9 1032 87 10000 1.03 193 07:50 22.12.2019
5657 Rain 9 1032 87 10000 1.03 193 07:22 22.12.2019
5658 Rain 9 1033 87 10000 0.5 260 06:56 22.12.2019
5659 Rain 9 1033 87 10000 0.5 260 06:27 22.12.2019
5660 Rain 9 1034 81 10000 1.5 270 05:43 22.12.2019
5661 Rain 9 1034 81 10000 1.5 270 05:21 22.12.2019
5662 Thunderstorm 10 1032 71 10000 2.6 320 04:26 22.12.2019
5663 Clouds 15 1030 58 10000 2.6 290 03:24 22.12.2019
5664 Clouds 15 1029 58 10000 1.16 331 02:34 22.12.2019
5665 Clouds 16 1028 55 10000 2.6 350 01:32 22.12.2019
5666 Clouds 17 1027 48 10000 3.1 0 00:58 22.12.2019
5667 Clouds 17 1027 48 10000 3.1 0 00:39 22.12.2019
5668 Clouds 18 1027 42 10000 2.6 10 00:20 22.12.2019
5669 Clouds 18 1026 45 10000 2.1 20 23:42 21.12.2019
5670 Clouds 19 1026 45 10000 3.1 20 23:24 21.12.2019
5671 Clouds 18 1026 42 10000 2.6 10 22:57 21.12.2019
5672 Clouds 18 1026 42 10000 2.6 10 22:39 21.12.2019
5673 Clouds 19 1026 45 10000 4.1 300 22:18 21.12.2019
5674 Clouds 20 1026 40 10000 5.1 310 21:56 21.12.2019
5675 Clouds 20 1026 40 10000 5.1 310 21:56 21.12.2019
5676 Clouds 20 1026 37 10000 6.2 290 21:37 21.12.2019
5677 Clouds 20 1026 37 10000 6.2 290 21:18 21.12.2019
5678 Clouds 20 1027 37 10000 6.2 280 20:57 21.12.2019
5679 Clouds 20 1027 37 10000 6.2 280 20:57 21.12.2019
5680 Clouds 20 1027 37 10000 6.2 280 20:37 21.12.2019
5681 Clouds 20 1027 37 10000 6.2 280 20:37 21.12.2019
5682 Clouds 19 1027 42 10000 3.1 110 20:19 21.12.2019
5683 Clouds 19 1028 42 10000 2.6 0 19:56 21.12.2019
5684 Clouds 18 1029 42 10000 3.1 100 19:36 21.12.2019
5685 Clouds 18 1029 42 10000 3.1 100 19:36 21.12.2019
5686 Clouds 18 1029 42 10000 3.1 100 19:18 21.12.2019
5687 Clouds 19 1029 37 10000 1 340 18:42 21.12.2019
5688 Clouds 19 1029 37 10000 1 340 18:42 21.12.2019
5689 Clouds 19 1030 39 10000 0.5 90 18:23 21.12.2019
5690 Clouds 18 1030 36 10000 1.5 90 17:57 21.12.2019
5691 Clouds 18 1030 36 10000 1.5 90 17:39 21.12.2019
5692 Clouds 17 1031 48 10000 1 60 17:20 21.12.2019
5693 Clouds 16 1032 55 10000 0.5 340 16:57 21.12.2019
5694 Clouds 16 1032 55 10000 0.5 340 16:39 21.12.2019
5695 Clouds 15 1032 54 10000 1.5 80 16:18 21.12.2019
5696 Clouds 14 1033 62 10000 1.5 90 15:56 21.12.2019
5697 Clouds 14 1033 62 10000 1.5 90 15:37 21.12.2019
5698 Clouds 13 1033 58 10000 1 0 15:18 21.12.2019
5699 Clouds 11 1033 71 10000 0.5 0 14:42 21.12.2019
5700 Clouds 11 1033 71 10000 0.5 0 14:23 21.12.2019
5701 Clouds 11 1033 71 8000 1 0 13:58 21.12.2019
5702 Clouds 11 1033 71 8000 1 0 13:40 21.12.2019
5703 Mist 9 1032 81 9000 1.5 100 13:20 21.12.2019
5704 Mist 9 1032 81 9000 1.5 100 13:20 21.12.2019
5705 Mist 9 1032 87 8000 1.14 237 12:57 21.12.2019
5706 Mist 9 1032 87 8000 1.14 237 12:39 21.12.2019
5707 Mist 8 1031 87 7000 2.1 90 12:20 21.12.2019
5708 Mist 8 1031 87 5000 2.6 100 11:55 21.12.2019
5709 Mist 8 1031 87 5000 2.1 120 11:37 21.12.2019
5710 Mist 8 1031 87 5000 2.1 120 11:19 21.12.2019
5711 Mist 8 1030 87 6000 2.1 100 10:41 21.12.2019
5712 Mist 8 1030 87 6000 2.1 100 10:23 21.12.2019
5713 Rain 8 1031 87 6000 1 260 09:58 21.12.2019
5714 Rain 8 1031 87 6000 1 260 09:40 21.12.2019
5715 Rain 8 1031 87 6000 1 260 09:20 21.12.2019
5716 Rain 8 1032 87 6000 1.5 280 08:52 21.12.2019
5717 Rain 8 1032 87 6000 1.5 280 08:27 21.12.2019
5718 Rain 8 1033 87 6000 0.5 290 07:58 21.12.2019
5719 Rain 8 1033 87 6000 0.5 290 07:40 21.12.2019
5720 Rain 8 1033 87 6000 0.5 290 07:21 21.12.2019
5721 Rain 8 1033 87 6000 1 240 06:41 21.12.2019
5722 Rain 8 1033 87 6000 1 240 06:23 21.12.2019
5723 Rain 8 1034 87 7000 1 280 05:37 21.12.2019
5724 Drizzle 9 1034 81 9000 3.1 160 04:55 21.12.2019
5725 Drizzle 10 1033 71 9000 6.2 110 03:56 21.12.2019
5726 Rain 12 1029 81 9000 6.7 300 02:26 21.12.2019
5727 Thunderstorm 11 1029 87 9000 4.1 300 01:50 21.12.2019
5728 Thunderstorm 11 1028 76 7000 4.1 270 01:25 21.12.2019
5729 Thunderstorm 11 1028 76 10000 2.6 260 00:49 21.12.2019
5730 Clouds 11 1027 76 7000 3.1 340 00:28 21.12.2019
5731 Rain 18 1025 48 10000 5.1 20 23:39 20.12.2019
5732 Rain 18 1025 48 10000 5.1 20 23:39 20.12.2019
5733 Clouds 18 1025 48 10000 4.1 20 23:21 20.12.2019
5734 Clouds 17 1025 59 10000 4.6 30 22:59 20.12.2019
5735 Clouds 17 1025 59 10000 4.6 30 22:39 20.12.2019
5736 Thunderstorm 21 1025 35 10000 6.2 300 22:19 20.12.2019
5737 Clouds 21 1024 37 10000 5.7 290 21:56 20.12.2019
5738 Clouds 21 1024 37 10000 5.7 290 21:38 20.12.2019
5739 Clouds 21 1025 32 10000 4.6 290 21:18 20.12.2019
5740 Clouds 21 1025 32 10000 4.6 290 21:18 20.12.2019
5741 Clouds 21 1025 32 10000 4.6 290 21:18 20.12.2019
5742 Clouds 21 1026 37 10000 4.6 300 20:39 20.12.2019
5743 Clouds 21 1026 40 10000 3.1 290 20:19 20.12.2019
5744 Clouds 20 1027 40 10000 1.5 0 19:57 20.12.2019
5745 Clouds 20 1027 40 10000 1.5 0 19:38 20.12.2019
5746 Clouds 20 1028 37 10000 1.5 80 19:19 20.12.2019
5747 Clouds 20 1020 42 10000 1 0 18:42 20.12.2019
5748 Clouds 18 1030 42 10000 1 250 18:23 20.12.2019
5749 Clouds 17 1031 51 10000 1.5 50 17:58 20.12.2019
5750 Clouds 17 1031 51 10000 1.5 50 17:40 20.12.2019
5751 Clouds 17 1031 51 10000 1.5 50 17:20 20.12.2019
5752 Clouds 16 1032 55 10000 0.5 0 16:57 20.12.2019
5753 Clouds 15 1032 58 10000 0.5 0 16:38 20.12.2019
5754 Clouds 15 1032 58 10000 0.5 0 16:19 20.12.2019
5755 Clouds 14 1032 58 10000 1.5 40 15:55 20.12.2019
5756 Clouds 14 1033 58 10000 1 150 15:37 20.12.2019
5757 Clouds 14 1033 58 10000 1 150 15:19 20.12.2019
5758 Clouds 13 1033 62 10000 1 350 14:43 20.12.2019
5759 Clouds 12 1033 71 10000 1 0 14:24 20.12.2019
5760 Clouds 12 1033 71 10000 0.5 310 13:57 20.12.2019
5761 Clouds 11 1032 76 10000 1 120 13:38 20.12.2019
5762 Clouds 11 1032 76 10000 1 120 13:19 20.12.2019
5763 Clouds 10 1032 87 10000 2.1 90 12:57 20.12.2019
5764 Mist 9 1031 87 10000 2.6 100 12:37 20.12.2019
5765 Mist 9 1031 87 10000 2.6 100 12:18 20.12.2019
5766 Mist 10 1031 87 10000 1.5 110 11:57 20.12.2019
5767 Clouds 10 1030 87 10000 0.5 110 11:39 20.12.2019
5768 Clouds 10 1030 87 10000 0.5 110 11:18 20.12.2019
5769 Clouds 10 1030 87 10000 0.5 110 11:18 20.12.2019
5770 Clouds 9 1030 87 10000 2.1 100 10:56 20.12.2019
5771 Clouds 9 1030 87 10000 2.1 100 10:38 20.12.2019
5772 Clouds 9 1030 87 10000 2.1 100 10:19 20.12.2019
5773 Rain 10 1031 81 10000 0.5 220 09:43 20.12.2019
5774 Rain 10 1031 81 10000 0.5 220 09:21 20.12.2019
5775 Clouds 10 1031 81 10000 0.14 172 08:58 20.12.2019
5776 Clouds 10 1031 81 10000 0.14 172 08:40 20.12.2019
5777 Clouds 10 1031 81 10000 1.3 359 08:21 20.12.2019
5778 Clouds 10 1031 87 10000 1.43 353 07:57 20.12.2019
5779 Clouds 10 1031 87 10000 1.43 353 07:57 20.12.2019
5780 Clouds 10 1031 87 10000 1.43 353 07:38 20.12.2019
5781 Clouds 10 1031 87 10000 1.43 353 07:18 20.12.2019
5782 Clouds 11 1031 81 10000 1.5 80 06:46 20.12.2019
5783 Clouds 11 1031 81 10000 1.5 80 06:28 20.12.2019
5784 Clouds 12 1032 71 10000 0.5 190 05:48 20.12.2019
5785 Clouds 12 1032 71 10000 0.5 190 05:20 20.12.2019
5786 Clouds 11 1031 81 10000 1 270 03:50 20.12.2019
5787 Clouds 11 1031 87 10000 0.5 100 03:21 20.12.2019
5788 Clouds 11 1031 76 10000 2.1 90 02:30 20.12.2019
5789 Clouds 12 1029 71 10000 2.1 290 01:36 20.12.2019
5790 Rain 13 1028 62 10000 4.6 300 00:58 20.12.2019
5791 Clouds 13 1028 62 10000 4.6 290 00:36 20.12.2019
5792 Clouds 14 1028 67 10000 2.48 3 23:58 19.12.2019
5793 Clouds 14 1028 62 10000 1.5 0 23:40 19.12.2019
5794 Clouds 14 1028 62 10000 1.5 0 23:21 19.12.2019
5795 Clouds 14 1028 62 10000 1.5 0 23:21 19.12.2019
5796 Clouds 14 1028 62 10000 0.5 0 22:40 19.12.2019
5797 Clouds 14 1028 62 10000 0.5 0 22:22 19.12.2019
5798 Clouds 14 1028 62 10000 0.5 0 21:59 19.12.2019
5799 Clouds 14 1028 62 10000 0.5 0 21:59 19.12.2019
5800 Drizzle 12 1029 66 10000 0.5 0 21:41 19.12.2019
5801 Drizzle 12 1029 66 10000 0.5 0 21:19 19.12.2019
5802 Clouds 12 1029 71 10000 0.5 0 20:58 19.12.2019
5803 Drizzle 12 1029 76 9000 1.5 70 20:38 19.12.2019
5804 Drizzle 12 1029 76 9000 1.5 70 20:20 19.12.2019
5805 Drizzle 12 1029 76 9000 1.5 70 20:20 19.12.2019
5806 Clouds 12 1029 71 10000 4.6 20 19:58 19.12.2019
5807 Clouds 17 1029 48 10000 2.1 90 19:40 19.12.2019
5808 Clouds 17 1029 48 10000 2.1 90 19:19 19.12.2019
5809 Clouds 17 1029 48 10000 2.1 90 19:19 19.12.2019
5810 Clouds 17 1029 48 10000 2.1 90 19:19 19.12.2019
5811 Clouds 17 1029 48 10000 2.1 90 19:19 19.12.2019
5812 Clouds 17 1029 48 10000 2.1 90 18:58 19.12.2019
5813 Clouds 17 1030 45 10000 3.1 270 18:40 19.12.2019
5814 Clouds 17 1030 45 10000 3.1 270 18:20 19.12.2019
5815 Clouds 17 1030 48 10000 2.1 40 17:56 19.12.2019
5816 Clouds 16 1030 48 10000 2.6 100 17:38 19.12.2019
5817 Clouds 16 1030 48 10000 2.6 100 17:18 19.12.2019
5818 Clouds 17 1031 45 10000 1.5 80 16:56 19.12.2019
5819 Clouds 17 1031 51 10000 3.1 70 16:38 19.12.2019
5820 Clouds 17 1031 51 10000 3.1 70 16:19 19.12.2019
5821 Clouds 15 1032 58 10000 3.1 110 15:58 19.12.2019
5822 Clouds 15 1032 54 10000 2.1 90 15:38 19.12.2019
5823 Clouds 15 1032 54 10000 2.1 90 15:19 19.12.2019
5824 Clouds 14 1032 58 10000 1.5 20 14:57 19.12.2019
5825 Clouds 13 1032 62 10000 1.5 80 14:38 19.12.2019
5826 Clouds 13 1032 62 10000 1.5 80 14:18 19.12.2019
5827 Clouds 12 1031 66 10000 0.59 225 13:38 19.12.2019
5828 Clouds 12 1031 66 10000 0.59 225 13:20 19.12.2019
5829 Clouds 10 1031 76 10000 0.5 230 12:58 19.12.2019
5830 Clouds 9 1031 81 10000 0.5 0 12:40 19.12.2019
5831 Clouds 9 1031 81 10000 0.5 0 12:19 19.12.2019
5832 Clouds 9 1031 81 10000 0.5 0 12:19 19.12.2019
5833 Clouds 9 1030 81 10000 2.1 80 11:59 19.12.2019
5834 Clouds 10 1030 71 10000 1 0 11:40 19.12.2019
5835 Clouds 10 1030 71 10000 1 0 11:18 19.12.2019
5836 Clouds 9 1029 81 10000 1 280 10:59 19.12.2019
5837 Clouds 9 1029 81 10000 1 280 10:38 19.12.2019
5838 Clouds 9 1029 81 10000 1 280 10:38 19.12.2019
5839 Clouds 9 1029 76 10000 2.1 280 10:20 19.12.2019
5840 Clouds 9 1029 76 10000 2.1 280 09:56 19.12.2019
5841 Clouds 9 1029 76 10000 2.1 280 09:37 19.12.2019
5842 Clouds 9 1029 76 10000 2.1 280 09:37 19.12.2019
5843 Clouds 9 1029 76 10000 2.1 280 09:19 19.12.2019
5844 Drizzle 9 1030 81 10000 2.1 290 08:55 19.12.2019
5845 Drizzle 9 1030 81 10000 2.1 290 08:55 19.12.2019
5846 Drizzle 9 1030 81 10000 2.1 290 08:36 19.12.2019
5847 Drizzle 9 1030 81 10000 2.1 290 08:18 19.12.2019
5848 Rain 9 1031 81 10000 3.1 290 07:41 19.12.2019
5849 Rain 9 1031 81 10000 3.1 290 07:23 19.12.2019
5850 Rain 9 1031 87 10000 2.1 280 06:58 19.12.2019
5851 Rain 9 1031 87 10000 2.1 280 06:39 19.12.2019
5852 Rain 9 1031 87 10000 2.1 280 06:21 19.12.2019
5853 Rain 10 1032 76 10000 3.1 290 05:42 19.12.2019
5854 Rain 10 1032 76 10000 3.1 290 05:19 19.12.2019
5855 Rain 10 1032 81 10000 2.6 310 03:53 19.12.2019
5856 Rain 13 1030 62 10000 2.1 150 02:28 19.12.2019
5857 Clouds 13 1028 58 10000 1.5 110 01:25 19.12.2019
5858 Clouds 14 1028 58 10000 2.1 90 00:57 19.12.2019
5859 Clouds 15 1027 54 10000 4.1 120 00:38 19.12.2019
5860 Clouds 15 1027 54 10000 4.1 120 00:19 19.12.2019
5861 Clouds 16 1026 51 10000 3.6 110 23:44 18.12.2019
5862 Clouds 16 1026 51 10000 3.6 110 23:19 18.12.2019
5863 Clouds 16 1026 51 10000 2.1 130 22:57 18.12.2019
5864 Clouds 16 1026 51 10000 1.5 70 22:39 18.12.2019
5865 Clouds 16 1026 51 10000 1.5 70 22:21 18.12.2019
5866 Clouds 16 1026 55 10000 1.5 70 21:59 18.12.2019
5867 Clouds 15 1026 54 10000 2.6 210 21:40 18.12.2019
5868 Clouds 15 1026 54 10000 2.6 210 21:20 18.12.2019
5869 Rain 14 1026 62 10000 5.1 290 20:57 18.12.2019
5870 Drizzle 15 1027 58 9000 4.1 260 20:38 18.12.2019
5871 Drizzle 15 1027 58 9000 4.1 260 20:20 18.12.2019
5872 Rain 15 1027 58 9000 2.1 190 19:57 18.12.2019
5873 Clouds 17 1027 45 10000 4.1 40 19:39 18.12.2019
5874 Clouds 17 1027 45 10000 4.1 40 19:19 18.12.2019
5875 Clouds 17 1027 51 10000 5.1 20 18:55 18.12.2019
5876 Clouds 18 1028 48 10000 1 320 18:37 18.12.2019
5877 Clouds 18 1028 48 10000 1 320 18:18 18.12.2019
5878 Clouds 17 1028 42 10000 3.1 80 17:55 18.12.2019
5879 Clouds 18 1029 42 10000 1 0 17:37 18.12.2019
5880 Clouds 18 1029 42 10000 1 0 17:18 18.12.2019
5881 Clouds 16 1029 51 10000 2.6 280 16:42 18.12.2019
5882 Clouds 16 1030 55 10000 1 80 16:23 18.12.2019
5883 Clouds 16 1030 55 10000 2.1 200 15:57 18.12.2019
5884 Clouds 16 1030 55 10000 2.1 200 15:39 18.12.2019
5885 Clouds 14 1031 58 10000 1 300 15:21 18.12.2019
5886 Clouds 13 1031 62 10000 2.6 280 14:56 18.12.2019
5887 Clouds 12 1030 66 10000 3.6 290 14:38 18.12.2019
5888 Clouds 12 1030 66 10000 3.6 290 14:19 18.12.2019
5889 Clouds 12 1030 71 10000 3.6 290 13:55 18.12.2019
5890 Clouds 10 1030 76 10000 2.6 330 13:36 18.12.2019
5891 Clouds 10 1030 76 10000 2.6 330 13:18 18.12.2019
5892 Rain 11 1029 71 10000 3.1 300 12:40 18.12.2019
5893 Rain 11 1029 71 10000 3.1 300 12:21 18.12.2019
5894 Clouds 11 1029 76 10000 3.1 290 11:57 18.12.2019
5895 Drizzle 10 1028 87 10000 2.6 280 11:39 18.12.2019
5896 Drizzle 10 1028 87 10000 2.6 280 11:20 18.12.2019
5897 Clouds 10 1027 87 10000 2.1 100 10:58 18.12.2019
5898 Clouds 10 1027 87 10000 2.1 100 10:39 18.12.2019
5899 Clouds 10 1027 87 10000 2.1 100 10:39 18.12.2019
5900 Clouds 10 1027 87 10000 2.1 100 10:20 18.12.2019
5901 Rain 10 1028 81 8000 1.5 170 09:58 18.12.2019
5902 Rain 10 1028 81 8000 1.5 170 09:20 18.12.2019
5903 Rain 10 1028 87 10000 2.6 290 08:43 18.12.2019
5904 Rain 10 1028 87 10000 2.6 290 08:25 18.12.2019
5905 Rain 12 1028 71 10000 3.1 290 07:57 18.12.2019
5906 Rain 12 1028 71 10000 3.1 290 07:39 18.12.2019
5907 Rain 12 1028 71 10000 3.1 290 07:20 18.12.2019
5908 Clouds 11 1029 71 10000 2.6 110 06:52 18.12.2019
5909 Clouds 11 1029 71 10000 2.6 110 06:25 18.12.2019
5910 Clouds 13 1029 62 10000 1.5 180 05:36 18.12.2019
5911 Clouds 12 1029 66 10000 1.5 290 04:31 18.12.2019
5912 Clouds 12 1028 66 10000 1 120 02:47 18.12.2019
5913 Clouds 13 1028 62 10000 2.1 120 02:28 18.12.2019
5914 Clouds 13 1027 62 10000 2.6 100 01:45 18.12.2019
5915 Clouds 14 1027 54 10000 3.1 110 01:27 18.12.2019
5916 Clouds 14 1027 58 10000 3.1 110 00:55 18.12.2019
5917 Clouds 15 1026 54 10000 4.6 120 00:37 18.12.2019
5918 Clouds 15 1026 54 10000 4.6 120 00:19 18.12.2019
5919 Clouds 15 1025 54 10000 5.7 110 23:43 17.12.2019
5920 Clouds 17 1025 42 10000 2.1 20 23:24 17.12.2019
5921 Clouds 16 1025 51 10000 2.6 280 22:57 17.12.2019
5922 Clouds 17 1025 45 10000 3.6 280 22:39 17.12.2019
5923 Clouds 17 1025 45 10000 3.6 280 22:20 17.12.2019
5924 Clouds 17 1025 48 10000 5.1 270 21:57 17.12.2019
5925 Clouds 17 1025 48 10000 5.1 270 21:39 17.12.2019
5926 Rain 17 1025 45 10000 8.7 290 21:20 17.12.2019
5927 Rain 17 1025 45 10000 8.7 290 21:20 17.12.2019
5928 Rain 18 1025 42 10000 6.7 20 20:59 17.12.2019
5929 Rain 18 1025 42 10000 6.7 20 20:40 17.12.2019
5930 Rain 18 1025 42 10000 6.7 20 20:19 17.12.2019
5931 Clouds 21 1026 28 10000 1.5 100 19:57 17.12.2019
5932 Clouds 21 1026 28 10000 1.5 100 19:39 17.12.2019
5933 Clouds 21 1026 28 10000 1.5 100 19:20 17.12.2019
5934 Clouds 20 1026 32 10000 1.5 120 18:57 17.12.2019
5935 Clouds 19 1028 34 10000 1.5 230 18:38 17.12.2019
5936 Clouds 19 1028 34 10000 1.5 230 18:20 17.12.2019
5937 Clouds 19 1028 48 10000 1 0 17:55 17.12.2019
5938 Clouds 17 1029 55 10000 1.5 0 17:37 17.12.2019
5939 Clouds 17 1029 55 10000 1.5 0 17:18 17.12.2019
5940 Clouds 17 1029 55 10000 2.1 100 16:55 17.12.2019
5941 Clouds 15 1030 54 10000 1 270 16:36 17.12.2019
5942 Clouds 15 1030 54 10000 1 270 16:18 17.12.2019
5943 Clouds 15 1030 54 10000 1 270 16:18 17.12.2019
5944 Clouds 15 1030 54 10000 1 270 16:18 17.12.2019
5945 Clouds 12 1031 62 10000 1.5 60 15:38 17.12.2019
5946 Clouds 12 1031 62 10000 1.5 60 15:20 17.12.2019
5947 Clouds 11 1031 71 10000 1 0 14:57 17.12.2019
5948 Clouds 11 1031 71 10000 1 0 14:38 17.12.2019
5949 Clouds 10 1031 76 9000 0.5 0 14:19 17.12.2019
5950 Clouds 10 1031 76 9000 2.1 90 13:58 17.12.2019
5951 Clouds 10 1031 76 9000 2.1 90 13:40 17.12.2019
5952 Clouds 10 1031 71 9000 1.5 110 13:19 17.12.2019
5953 Mist 9 1030 81 9000 1.5 100 12:59 17.12.2019
5954 Mist 9 1030 81 9000 2.1 90 12:38 17.12.2019
5955 Mist 9 1030 81 9000 2.1 90 12:18 17.12.2019
5956 Clouds 9 1030 81 10000 1 110 11:57 17.12.2019
5957 Clouds 8 1029 87 10000 2.1 110 11:37 17.12.2019
5958 Clouds 8 1029 87 10000 2.1 110 11:18 17.12.2019
5959 Clouds 8 1029 87 10000 2.1 140 10:57 17.12.2019
5960 Clouds 8 1029 87 10000 2.1 140 10:38 17.12.2019
5961 Clouds 8 1029 87 10000 2.1 140 10:19 17.12.2019
5962 Clouds 8 1029 87 10000 2.1 140 10:19 17.12.2019
5963 Clouds 8 1029 87 10000 2.1 100 09:55 17.12.2019
5964 Clouds 8 1029 87 10000 2.1 100 09:37 17.12.2019
5965 Clouds 8 1029 87 10000 2.1 100 09:18 17.12.2019
5966 Clouds 9 1029 87 10000 0.5 300 08:40 17.12.2019
5967 Clouds 9 1029 87 10000 0.5 300 08:22 17.12.2019
5968 Clouds 9 1029 87 10000 1.5 140 07:59 17.12.2019
5969 Clouds 9 1029 87 10000 1.5 140 07:41 17.12.2019
5970 Clouds 9 1029 87 10000 1.5 140 07:22 17.12.2019
5971 Clouds 10 1030 76 10000 1 270 06:43 17.12.2019
5972 Clouds 10 1030 76 10000 1 270 06:24 17.12.2019
5973 Clouds 10 1032 81 10000 1 90 05:42 17.12.2019
5974 Rain 9 1032 81 10000 1.5 100 04:58 17.12.2019
5975 Drizzle 10 1032 76 10000 3.64 191 03:55 17.12.2019
5976 Drizzle 10 1030 81 10000 0.5 170 02:26 17.12.2019
5977 Rain 10 1029 87 10000 2.1 60 01:22 17.12.2019
5978 Rain 10 1028 87 10000 3.1 110 00:47 17.12.2019
5979 Drizzle 12 1028 76 10000 4.6 90 00:22 17.12.2019
5980 Thunderstorm 12 1027 76 9000 3.1 110 23:57 16.12.2019
5981 Thunderstorm 14 1027 62 9000 0.5 110 23:38 16.12.2019
5982 Thunderstorm 14 1027 62 9000 0.5 110 23:18 16.12.2019
5983 Thunderstorm 15 1026 58 10000 2.6 0 22:54 16.12.2019
5984 Thunderstorm 17 1025 45 10000 5.7 10 22:36 16.12.2019
5985 Thunderstorm 17 1025 45 10000 5.7 10 22:18 16.12.2019
5986 Clouds 18 1025 42 10000 5.7 30 21:54 16.12.2019
5987 Clouds 21 1025 35 10000 1 270 21:36 16.12.2019
5988 Clouds 21 1025 35 10000 1 270 21:18 16.12.2019
5989 Clouds 19 1026 37 10000 1.5 0 20:54 16.12.2019
5990 Clouds 18 1027 42 10000 2.1 360 20:36 16.12.2019
5991 Clouds 18 1027 42 10000 2.1 360 20:18 16.12.2019
5992 Clouds 18 1027 42 10000 2.6 320 19:54 16.12.2019
5993 Clouds 17 1028 48 10000 3.1 340 19:36 16.12.2019
5994 Clouds 17 1028 48 10000 3.1 340 19:18 16.12.2019
5995 Clouds 17 1028 48 10000 3.1 340 19:18 16.12.2019
5996 Clouds 18 1029 45 10000 2.6 300 18:42 16.12.2019
5997 Clouds 18 1029 45 10000 2.6 300 18:42 16.12.2019
5998 Clouds 18 1029 45 10000 2.6 300 18:20 16.12.2019
5999 Clouds 18 1029 45 10000 2.6 300 18:20 16.12.2019
6000 Clouds 17 1030 45 10000 3.1 280 17:59 16.12.2019
6001 Clouds 16 1031 48 10000 2.1 240 17:40 16.12.2019
6002 Clouds 16 1031 48 10000 2.1 240 17:22 16.12.2019
6003 Clouds 15 1031 54 10000 1 200 16:58 16.12.2019
6004 Clouds 14 1031 54 10000 1.5 100 16:39 16.12.2019
6005 Clouds 14 1031 54 10000 1.5 100 16:20 16.12.2019
6006 Clouds 14 1032 58 10000 0.5 0 15:59 16.12.2019
6007 Clouds 13 1032 58 10000 1 0 15:39 16.12.2019
6008 Clouds 13 1032 58 10000 1 0 15:21 16.12.2019
6009 Clouds 13 1033 58 10000 1 80 14:57 16.12.2019
6010 Clouds 13 1032 58 10000 1 40 14:37 16.12.2019
6011 Clouds 13 1032 58 10000 1 40 14:37 16.12.2019
6012 Clouds 13 1032 58 10000 1 40 14:37 16.12.2019
6013 Clouds 13 1032 58 10000 1 40 14:19 16.12.2019
6014 Clouds 12 1032 66 10000 1 100 13:56 16.12.2019
6015 Clouds 11 1032 66 10000 0.5 0 13:38 16.12.2019
6016 Clouds 11 1032 66 10000 0.5 0 13:38 16.12.2019
6017 Clouds 11 1032 66 10000 0.5 0 13:19 16.12.2019
6018 Clouds 11 1032 66 10000 0.5 0 13:19 16.12.2019
6019 Clouds 10 1032 76 10000 1 100 12:58 16.12.2019
6020 Clouds 8 1032 81 10000 1 110 12:39 16.12.2019
6021 Clouds 8 1032 81 10000 1 110 12:19 16.12.2019
6022 Clouds 8 1031 81 10000 1.5 110 11:58 16.12.2019
6023 Clouds 9 1031 81 10000 1 170 11:40 16.12.2019
6024 Clouds 9 1031 81 10000 1 170 11:20 16.12.2019
6025 Clouds 8 1030 87 10000 1.5 110 10:57 16.12.2019
6026 Clouds 8 1030 87 10000 1.5 110 10:39 16.12.2019
6027 Clouds 8 1030 87 10000 1.5 110 10:39 16.12.2019
6028 Clouds 8 1030 87 10000 1.5 110 10:19 16.12.2019
6029 Drizzle 9 1030 81 9000 1 300 09:45 16.12.2019
6030 Drizzle 9 1030 81 9000 1 300 09:27 16.12.2019
6031 Drizzle 9 1030 81 9000 1 300 09:27 16.12.2019
6032 Drizzle 9 1031 81 9000 1 290 08:56 16.12.2019
6033 Drizzle 9 1031 81 9000 1 290 08:37 16.12.2019
6034 Drizzle 9 1031 81 9000 1 290 08:18 16.12.2019
6035 Drizzle 9 1032 81 9000 2.6 280 07:44 16.12.2019
6036 Drizzle 9 1032 81 9000 2.6 280 07:22 16.12.2019
6037 Drizzle 9 1033 81 9000 3.1 280 06:45 16.12.2019
6038 Drizzle 9 1033 81 9000 3.1 280 06:25 16.12.2019
6039 Rain 10 1034 71 9000 2.6 320 05:50 16.12.2019
6040 Rain 10 1034 71 9000 2.6 320 05:31 16.12.2019
6041 Clouds 13 1032 66 10000 2.1 250 04:22 16.12.2019
6042 Clouds 13 1031 62 10000 2.1 310 02:31 16.12.2019
6043 Clouds 14 1030 58 10000 2.6 340 01:45 16.12.2019
6044 Clouds 14 1029 62 10000 4.1 290 00:43 16.12.2019
6045 Clouds 15 1029 58 10000 2.1 280 00:25 16.12.2019
6046 Clouds 15 1029 54 10000 2.6 120 23:59 15.12.2019
6047 Clouds 15 1029 54 10000 2.6 120 23:59 15.12.2019
6048 Clouds 15 1028 54 10000 4.6 290 23:39 15.12.2019
6049 Clouds 15 1028 54 10000 4.6 290 23:20 15.12.2019
6050 Clouds 15 1028 54 10000 6.2 290 22:56 15.12.2019
6051 Clouds 15 1028 54 10000 6.2 290 22:56 15.12.2019
6052 Clouds 16 1028 55 10000 5.7 280 22:37 15.12.2019
6053 Clouds 16 1028 55 10000 5.7 280 22:18 15.12.2019
6054 Clouds 16 1028 51 10000 5.7 270 21:56 15.12.2019
6055 Clouds 17 1028 48 10000 4.6 10 21:37 15.12.2019
6056 Clouds 17 1028 48 10000 4.6 10 21:19 15.12.2019
6057 Rain 17 1029 48 10000 4.1 10 20:56 15.12.2019
6058 Rain 17 1029 45 10000 4.1 30 20:37 15.12.2019
6059 Rain 17 1029 45 10000 4.1 30 20:19 15.12.2019
6060 Rain 16 1029 51 10000 5.7 40 19:57 15.12.2019
6061 Rain 16 1029 51 10000 5.7 40 19:57 15.12.2019
6062 Rain 20 1029 40 10000 2.1 100 19:38 15.12.2019
6063 Rain 20 1029 40 10000 2.1 100 19:18 15.12.2019
6064 Rain 20 1029 40 10000 2.1 100 19:18 15.12.2019
6065 Clouds 20 1029 32 10000 2.6 0 18:56 15.12.2019
6066 Clouds 20 1029 32 10000 2.6 0 18:56 15.12.2019
6067 Clouds 20 1030 37 10000 2.6 200 18:38 15.12.2019
6068 Clouds 20 1030 37 10000 2.6 200 18:18 15.12.2019
6069 Clouds 20 1030 37 10000 2.6 200 18:18 15.12.2019
6070 Clouds 19 1030 39 10000 3.1 90 17:56 15.12.2019
6071 Clouds 18 1031 45 10000 4.6 80 17:37 15.12.2019
6072 Clouds 18 1031 45 10000 4.6 80 17:18 15.12.2019
6073 Clouds 17 1031 51 10000 3.6 110 16:54 15.12.2019
6074 Clouds 17 1032 55 10000 4.6 100 16:36 15.12.2019
6075 Clouds 17 1032 55 10000 4.6 100 16:18 15.12.2019
6076 Clouds 15 1032 58 10000 2.1 100 15:54 15.12.2019
6077 Clouds 15 1033 51 10000 3.6 80 15:36 15.12.2019
6078 Clouds 15 1033 51 10000 3.6 80 15:18 15.12.2019
6079 Clouds 13 1033 58 10000 2.1 110 14:54 15.12.2019
6080 Clouds 12 1033 71 10000 1.5 90 14:36 15.12.2019
6081 Clouds 12 1033 71 10000 1.5 90 14:18 15.12.2019
6082 Clouds 12 1033 71 10000 1.5 90 14:18 15.12.2019
6083 Clouds 11 1033 71 10000 2.1 100 13:54 15.12.2019
6084 Clouds 10 1033 81 10000 2.1 110 13:36 15.12.2019
6085 Clouds 10 1033 81 10000 2.1 110 13:18 15.12.2019
6086 Clouds 10 1033 81 10000 2.6 110 12:55 15.12.2019
6087 Clouds 9 1032 87 10000 3.6 110 12:36 15.12.2019
6088 Clouds 9 1032 87 10000 3.6 110 12:18 15.12.2019
6089 Drizzle 10 1031 87 10000 2.6 120 11:38 15.12.2019
6090 Drizzle 10 1031 87 10000 2.6 120 11:38 15.12.2019
6091 Drizzle 10 1031 87 10000 2.6 120 11:38 15.12.2019
6092 Drizzle 10 1031 87 10000 2.6 120 11:19 15.12.2019
6093 Drizzle 10 1031 81 10000 1.62 184 10:56 15.12.2019
6094 Drizzle 10 1031 81 10000 1.62 184 10:38 15.12.2019
6095 Drizzle 10 1031 81 10000 1.62 184 10:38 15.12.2019
6096 Drizzle 10 1031 81 10000 1.62 184 10:19 15.12.2019
6097 Drizzle 10 1030 81 10000 1 270 09:57 15.12.2019
6098 Drizzle 10 1030 81 10000 1 270 09:37 15.12.2019
6099 Drizzle 10 1030 81 10000 1 270 09:19 15.12.2019
6100 Rain 10 1031 81 10000 2.1 90 08:42 15.12.2019
6101 Rain 10 1031 81 10000 2.1 90 08:23 15.12.2019
6102 Clouds 13 1031 58 10000 2.1 230 07:59 15.12.2019
6103 Clouds 13 1031 58 10000 2.1 230 07:38 15.12.2019
6104 Clouds 13 1031 58 10000 2.1 230 07:19 15.12.2019
6105 Clouds 12 1031 66 10000 1.5 90 06:24 15.12.2019
6106 Clouds 12 1032 66 10000 1.5 110 05:42 15.12.2019
6107 Clouds 12 1032 66 10000 1.5 110 05:20 15.12.2019
6108 Clouds 13 1031 58 10000 2.1 10 04:19 15.12.2019
6109 Clouds 13 1030 58 10000 1.82 34 02:49 15.12.2019
6110 Clouds 13 1030 58 10000 2.1 90 02:30 15.12.2019
6111 Clouds 13 1029 58 10000 2.1 90 01:40 15.12.2019
6112 Clouds 14 1029 54 10000 1.5 160 01:18 15.12.2019
6113 Clouds 14 1028 54 10000 2.1 70 00:47 15.12.2019
6114 Clouds 15 1027 47 10000 4.1 30 00:29 15.12.2019
6115 Clouds 17 1027 42 10000 4.6 20 23:41 14.12.2019
6116 Clouds 17 1027 42 10000 4.6 20 23:22 14.12.2019
6117 Clouds 18 1026 36 10000 5.1 20 22:59 14.12.2019
6118 Clouds 18 1026 36 10000 5.1 20 22:41 14.12.2019
6119 Clouds 19 1026 37 10000 6.2 10 22:22 14.12.2019
6120 Clouds 19 1027 37 10000 6.2 360 21:56 14.12.2019
6121 Clouds 20 1027 34 10000 6.2 10 21:38 14.12.2019
6122 Clouds 20 1027 34 10000 6.2 10 21:19 14.12.2019
6123 Clouds 19 1027 34 10000 4.1 20 20:58 14.12.2019
6124 Clouds 19 1027 34 10000 4.1 20 20:39 14.12.2019
6125 Clouds 18 1028 36 10000 5.1 10 20:20 14.12.2019
6126 Clouds 19 1028 37 10000 5.7 20 19:57 14.12.2019
6127 Clouds 19 1028 37 10000 5.7 20 19:57 14.12.2019
6128 Clouds 19 1029 37 10000 5.1 360 19:37 14.12.2019
6129 Clouds 19 1029 37 10000 5.1 360 19:19 14.12.2019
6130 Clouds 19 1029 39 10000 3.6 350 18:56 14.12.2019
6131 Clouds 18 1030 36 10000 3.1 360 18:37 14.12.2019
6132 Clouds 18 1030 36 10000 3.1 360 18:19 14.12.2019
6133 Clouds 17 1031 42 10000 2.6 200 17:44 14.12.2019
6134 Clouds 17 1031 42 10000 2.6 200 17:24 14.12.2019
6135 Clouds 18 1031 36 10000 1.5 150 16:58 14.12.2019
6136 Clouds 17 1031 42 10000 2.1 80 16:39 14.12.2019
6137 Clouds 17 1031 42 10000 2.1 80 16:18 14.12.2019
6138 Clouds 16 1031 48 10000 1.5 340 15:43 14.12.2019
6139 Clouds 16 1031 48 10000 1.5 340 15:43 14.12.2019
6140 Clouds 16 1032 44 10000 1.5 50 15:22 14.12.2019
6141 Clouds 15 1032 47 10000 1 160 14:59 14.12.2019
6142 Clouds 15 1032 47 10000 1 160 14:39 14.12.2019
6143 Clouds 14 1032 54 10000 1.5 130 14:20 14.12.2019
6144 Clouds 12 1032 62 10000 1.5 100 13:57 14.12.2019
6145 Clouds 11 1032 66 10000 0.69 306 13:38 14.12.2019
6146 Clouds 11 1032 66 10000 1.58 354 13:18 14.12.2019
6147 Clouds 10 1032 76 10000 1.5 90 12:55 14.12.2019
6148 Clouds 9 1031 81 10000 1.5 90 12:37 14.12.2019
6149 Clouds 9 1031 81 10000 1.5 90 12:18 14.12.2019
6150 Clouds 10 1031 71 10000 0.5 0 11:55 14.12.2019
6151 Clouds 10 1030 76 10000 1 0 11:36 14.12.2019
6152 Clouds 10 1030 76 10000 1 0 11:36 14.12.2019
6153 Clouds 10 1030 76 10000 1 0 11:18 14.12.2019
6154 Clouds 10 1030 76 10000 1 0 10:55 14.12.2019
6155 Clouds 10 1030 76 10000 1 0 10:37 14.12.2019
6156 Clouds 10 1030 76 10000 1 0 10:18 14.12.2019
6157 Clouds 10 1029 76 10000 1.5 270 09:40 14.12.2019
6158 Clouds 10 1029 76 10000 1.5 270 09:40 14.12.2019
6159 Clouds 10 1029 76 10000 1.5 270 09:20 14.12.2019
6160 Clouds 10 1029 76 10000 1.5 270 09:20 14.12.2019
6161 Clouds 10 1030 76 10000 1 100 08:44 14.12.2019
6162 Clouds 10 1030 76 10000 1 100 08:20 14.12.2019
6163 Clouds 10 1030 76 10000 1.5 150 07:57 14.12.2019
6164 Clouds 10 1030 76 10000 1.5 150 07:38 14.12.2019
6165 Clouds 10 1030 76 10000 1.5 150 07:19 14.12.2019
6166 Clouds 11 1030 71 10000 1.4 225 06:41 14.12.2019
6167 Clouds 11 1030 71 10000 1.4 225 06:22 14.12.2019
6168 Clouds 11 1031 76 10000 1 0 05:22 14.12.2019
6169 Drizzle 11 1030 76 10000 0.5 0 02:49 14.12.2019
6170 Drizzle 11 1030 76 10000 3.1 110 02:22 14.12.2019
6171 Rain 10 1029 81 10000 2.6 100 01:43 14.12.2019
6172 Clouds 12 1028 66 10000 3.1 100 00:54 14.12.2019
6173 Rain 14 1027 54 10000 5.7 120 00:36 14.12.2019
6174 Rain 14 1027 54 10000 5.7 120 00:18 14.12.2019
6175 Haze 16 1025 44 10000 6.7 20 23:39 13.12.2019
6176 Haze 16 1025 44 10000 6.7 20 23:19 13.12.2019
6177 Clouds 18 1024 42 10000 4.6 30 22:55 13.12.2019
6178 Clouds 19 1024 37 10000 4.6 20 22:36 13.12.2019
6179 Clouds 19 1024 37 10000 4.6 20 22:18 13.12.2019
6180 Clouds 20 1024 37 10000 5.1 20 21:40 13.12.2019
6181 Clouds 20 1025 32 10000 1.5 140 21:21 13.12.2019
6182 Clouds 19 1026 37 10000 2.1 180 20:57 13.12.2019
6183 Clouds 17 1027 45 10000 2.6 40 20:38 13.12.2019
6184 Clouds 17 1027 45 10000 2.6 40 20:19 13.12.2019
6185 Clouds 17 1027 45 10000 2.6 40 19:56 13.12.2019
6186 Clouds 17 1028 42 10000 3.6 360 19:36 13.12.2019
6187 Clouds 17 1028 42 10000 3.6 360 19:18 13.12.2019
6188 Clouds 17 1029 42 10000 1.5 120 18:41 13.12.2019
6189 Clouds 17 1029 42 10000 1.5 120 18:19 13.12.2019
6190 Clouds 17 1029 42 10000 1.5 120 17:58 13.12.2019
6191 Clouds 15 1030 47 10000 1 110 17:39 13.12.2019
6192 Clouds 15 1030 47 10000 1 110 17:18 13.12.2019
6193 Clouds 15 1030 47 10000 1 110 17:18 13.12.2019
6194 Clouds 15 1030 51 10000 2.6 110 16:55 13.12.2019
6195 Clouds 14 1030 54 10000 3.1 100 16:36 13.12.2019
6196 Clouds 14 1030 54 10000 3.1 100 16:18 13.12.2019
6197 Clouds 13 1031 58 10000 1.5 330 15:41 13.12.2019
6198 Clouds 13 1031 58 10000 1.5 330 15:21 13.12.2019
6199 Clouds 12 1031 66 10000 0.5 50 14:56 13.12.2019
6200 Clouds 10 1031 71 10000 0.77 163 14:36 13.12.2019
6201 Clouds 10 1031 71 10000 1.33 211 14:18 13.12.2019
6202 Mist 8 1031 81 10000 1.5 90 13:43 13.12.2019
6203 Mist 8 1031 81 10000 1.5 90 13:23 13.12.2019
6204 Clouds 8 1030 81 10000 2.1 110 12:54 13.12.2019
6205 Clouds 7 1030 81 10000 1 110 12:36 13.12.2019
6206 Clouds 7 1030 81 10000 1 110 12:18 13.12.2019
6207 Clouds 7 1029 81 10000 1 110 11:42 13.12.2019
6208 Clouds 7 1029 81 10000 1 110 11:24 13.12.2019
6209 Clouds 7 1029 81 10000 2.1 80 10:56 13.12.2019
6210 Clouds 7 1029 81 10000 2.1 80 10:38 13.12.2019
6211 Clouds 7 1029 81 10000 1.69 193 10:19 13.12.2019
6212 Clouds 7 1029 81 10000 1.69 193 09:41 13.12.2019
6213 Clouds 5 1029 81 10000 1.69 193 09:20 13.12.2019
6214 Clouds 6 1029 81 10000 1.69 193 08:44 13.12.2019
6215 Rain 6 1029 81 10000 1.69 193 08:26 13.12.2019
6216 Rain 6 1030 81 10000 1.58 207 07:48 13.12.2019
6217 Clouds 6 1030 81 10000 1.58 207 07:25 13.12.2019
6218 Clouds 6 1031 81 10000 0.5 100 06:57 13.12.2019
6219 Clouds 6 1031 81 10000 0.5 100 06:31 13.12.2019
6220 Rain 6 1031 81 10000 2.6 90 05:51 13.12.2019
6221 Rain 6 1031 81 10000 2.6 90 05:31 13.12.2019
6222 Clouds 10 1031 71 10000 1 120 04:53 13.12.2019
6223 Clouds 10 1031 71 10000 2.6 100 03:50 13.12.2019
6224 Clouds 11 1029 66 10000 0.5 100 02:35 13.12.2019
6225 Clouds 11 1029 66 10000 2.1 100 01:51 13.12.2019
6226 Clouds 11 1029 66 10000 2.1 100 01:25 13.12.2019
6227 Clouds 12 1028 62 10000 0.5 90 00:46 13.12.2019
6228 Clouds 12 1027 58 10000 1.5 140 00:24 13.12.2019
6229 Drizzle 7 1028 62 10000 5.1 120 23:42 12.12.2019
6230 Drizzle 7 1028 62 10000 5.1 120 23:24 12.12.2019
6231 Rain 13 1027 58 10000 9.8 110 22:56 12.12.2019
6232 Drizzle 15 1026 62 10000 5.1 110 22:38 12.12.2019
6233 Drizzle 15 1026 62 10000 5.1 110 22:19 12.12.2019
6234 Clouds 16 1025 55 10000 4.6 150 21:55 12.12.2019
6235 Clouds 17 1025 48 10000 4.6 140 21:37 12.12.2019
6236 Clouds 13 1025 48 10000 4.6 140 21:19 12.12.2019
6237 Clouds 13 1024 42 10000 5.1 110 20:58 12.12.2019
6238 Clouds 14 1024 37 10000 4.1 80 20:39 12.12.2019
6239 Clouds 19 1024 37 10000 4.1 80 20:21 12.12.2019
6240 Clouds 20 1024 34 10000 5.1 90 19:55 12.12.2019
6241 Clouds 20 1025 34 10000 4.1 20 19:37 12.12.2019
6242 Clouds 20 1025 34 10000 4.1 20 19:18 12.12.2019
6243 Rain 16 1008 49 0 1.53 353 18:55 12.12.2019
6244 Clouds 21 1026 40 10000 1.5 0 18:36 12.12.2019
6245 Clouds 21 1026 40 10000 1.5 0 18:18 12.12.2019
6246 Clouds 21 1026 32 10000 2.1 160 17:55 12.12.2019
6247 Clouds 20 1027 32 10000 0.5 0 17:37 12.12.2019
6248 Clouds 20 1027 32 10000 0.5 0 17:19 12.12.2019
6249 Clouds 19 1028 34 10000 1.5 40 16:54 12.12.2019
6250 Clouds 18 1028 42 10000 1.5 300 16:36 12.12.2019
6251 Clouds 18 1029 42 10000 0.45 232 16:18 12.12.2019
6252 Clouds 17 1029 45 10000 2.1 230 15:42 12.12.2019
6253 Clouds 17 1029 45 10000 2.1 230 15:19 12.12.2019
6254 Clouds 16 1029 51 10000 2.6 280 14:57 12.12.2019
6255 Clouds 15 1029 54 10000 1 0 14:36 12.12.2019
6256 Clouds 14 1029 62 10000 1 0 14:18 12.12.2019
6257 Clouds 14 1029 62 10000 1 0 13:54 12.12.2019
6258 Clouds 13 1029 62 10000 0.61 219 13:36 12.12.2019
6259 Clouds 13 1029 62 10000 0.61 219 13:18 12.12.2019
6260 Clouds 9 1029 76 10000 1.08 216 12:41 12.12.2019
6261 Clouds 9 1029 76 10000 1.08 216 12:22 12.12.2019
6262 Clouds 8 1028 81 10000 1.08 216 11:59 12.12.2019
6263 Clouds 8 1028 75 10000 1.5 280 11:40 12.12.2019
6264 Clouds 8 1028 75 10000 1.5 280 11:21 12.12.2019
6265 Clouds 9 1029 76 10000 0.5 360 10:58 12.12.2019
6266 Clouds 9 1029 76 10000 0.5 360 10:40 12.12.2019
6267 Clouds 9 1029 76 10000 0.5 360 10:22 12.12.2019
6268 Clouds 10 1027 76 10000 0.25 25 09:56 12.12.2019
6269 Clouds 10 1027 76 10000 0.25 25 09:38 12.12.2019
6270 Clouds 10 1027 76 10000 0.25 25 09:20 12.12.2019
6271 Clouds 11 1027 66 10000 0.25 25 08:47 12.12.2019
6272 Clouds 11 1027 66 10000 0.25 25 08:29 12.12.2019
6273 Clouds 12 1028 62 10000 1.26 343 07:55 12.12.2019
6274 Clouds 12 1028 62 10000 1.26 343 07:36 12.12.2019
6275 Clouds 12 1028 62 10000 1.26 343 07:18 12.12.2019
6276 Clouds 11 1028 66 10000 1 120 06:41 12.12.2019
6277 Clouds 11 1028 66 10000 1 120 06:21 12.12.2019
6278 Clouds 11 1028 66 10000 2.1 300 05:28 12.12.2019
6279 Clouds 12 1028 62 10000 2.6 280 04:46 12.12.2019
6280 Clouds 14 1027 54 10000 1.5 350 02:42 12.12.2019
6281 Clouds 14 1027 54 10000 1.5 350 02:24 12.12.2019
6282 Clouds 16 1026 41 10000 1.5 210 01:59 12.12.2019
6283 Clouds 16 1026 41 10000 1.5 210 01:59 12.12.2019
6284 Clouds 16 1025 41 10000 2.6 350 01:36 12.12.2019
6285 Clouds 15 1026 47 10000 3.1 300 00:49 12.12.2019
6286 Clouds 18 1025 42 10000 5.1 210 00:22 12.12.2019
6287 Clouds 19 1025 39 10000 4.6 260 23:58 11.12.2019
6288 Clouds 19 1024 37 10000 1.5 0 23:38 11.12.2019
6289 Clouds 19 1024 37 10000 1.5 0 23:18 11.12.2019
6290 Clouds 19 1024 37 10000 3.6 110 22:56 11.12.2019
6291 Clouds 19 1024 37 10000 3.6 110 22:56 11.12.2019
6292 Clouds 22 1024 28 10000 1 100 22:38 11.12.2019
6293 Clouds 22 1024 28 10000 1 100 22:18 11.12.2019
6294 Clouds 21 1024 30 10000 1 0 21:54 11.12.2019
6295 Clouds 21 1025 32 10000 1.5 0 21:36 11.12.2019
6296 Clouds 21 1025 32 10000 1.5 0 21:18 11.12.2019
6297 Clouds 21 1026 32 10000 2.1 130 20:55 11.12.2019
6298 Clouds 20 1027 37 10000 1 0 20:36 11.12.2019
6299 Clouds 20 1027 37 10000 1 0 20:18 11.12.2019
6300 Clouds 18 1029 45 10000 1 0 19:42 11.12.2019
6301 Clouds 18 1029 45 10000 1 0 19:23 11.12.2019
6302 Clouds 18 1029 45 10000 2.1 0 18:59 11.12.2019
6303 Clouds 17 1030 48 10000 3.1 0 18:40 11.12.2019
6304 Clouds 17 1030 48 10000 3.1 0 18:19 11.12.2019
6305 Clouds 17 1030 45 10000 1.5 130 17:56 11.12.2019
6306 Clouds 16 1031 48 10000 0.5 0 17:38 11.12.2019
6307 Clouds 16 1031 48 10000 0.5 0 17:18 11.12.2019
6308 Clouds 15 1031 51 10000 1 0 16:55 11.12.2019
6309 Clouds 14 1032 54 10000 2.1 80 16:37 11.12.2019
6310 Clouds 14 1032 54 10000 2.1 80 16:18 11.12.2019
6311 Clouds 13 1032 62 10000 1.5 120 15:56 11.12.2019
6312 Clouds 12 1032 71 10000 1 120 15:37 11.12.2019
6313 Clouds 11 1032 71 10000 1 120 15:18 11.12.2019
6314 Clouds 11 1032 71 10000 1 120 14:54 11.12.2019
6315 Clouds 11 1032 71 10000 1 120 14:36 11.12.2019
6316 Clouds 11 1032 71 10000 1 120 14:36 11.12.2019
6317 Clouds 10 1031 71 10000 1 120 14:18 11.12.2019
6318 Clouds 10 1031 71 10000 1 120 13:42 11.12.2019
6319 Clouds 10 1031 71 10000 1 120 13:42 11.12.2019
6320 Clouds 10 1031 71 10000 1 120 13:22 11.12.2019
6321 Clouds 9 1030 76 10000 2.1 110 12:58 11.12.2019
6322 Clouds 9 1030 76 10000 2.1 110 12:39 11.12.2019
6323 Clouds 9 1030 76 10000 2.1 110 12:21 11.12.2019
6324 Clouds 9 1029 76 10000 0.5 270 11:58 11.12.2019
6325 Clouds 9 1029 76 10000 0.5 270 11:58 11.12.2019
6326 Clouds 9 1029 76 10000 0.5 270 11:39 11.12.2019
6327 Clouds 9 1029 76 10000 0.5 270 11:19 11.12.2019
6328 Clouds 9 1029 81 10000 1.5 280 10:57 11.12.2019
6329 Clouds 9 1029 81 10000 1.5 280 10:39 11.12.2019
6330 Clouds 9 1029 81 10000 1.5 280 10:39 11.12.2019
6331 Clouds 9 1029 81 10000 1.5 280 10:20 11.12.2019
6332 Clouds 9 1029 81 10000 1.5 280 10:20 11.12.2019
6333 Clouds 9 1029 76 10000 3.1 280 09:44 11.12.2019
6334 Clouds 9 1029 76 10000 3.1 280 09:44 11.12.2019
6335 Clouds 9 1029 76 10000 3.1 280 09:21 11.12.2019
6336 Clouds 10 1028 76 10000 3.1 280 08:58 11.12.2019
6337 Clouds 10 1028 76 10000 3.1 280 08:40 11.12.2019
6338 Clouds 10 1028 76 10000 3.1 280 08:20 11.12.2019
6339 Clouds 10 1031 76 10000 1.49 200 07:59 11.12.2019
6340 Clouds 10 1031 76 10000 1.49 200 07:41 11.12.2019
6341 Clouds 10 1031 76 10000 1.49 200 07:22 11.12.2019
6342 Clouds 11 1031 71 10000 2.1 280 06:44 11.12.2019
6343 Clouds 11 1031 71 10000 2.1 280 06:23 11.12.2019
6344 Clouds 13 1032 58 10000 1.5 270 05:46 11.12.2019
6345 Clouds 13 1032 58 10000 1.5 270 05:27 11.12.2019
6346 Rain 13 1032 58 10000 1.5 270 04:41 11.12.2019
6347 Clouds 15 1029 51 10000 1 0 02:49 11.12.2019
6348 Clouds 14 1028 54 10000 2.6 90 01:26 11.12.2019
6349 Clouds 15 1027 51 10000 2.6 130 00:56 11.12.2019
6350 Clouds 15 1027 51 10000 2.6 130 00:25 11.12.2019
6351 Clouds 15 1027 51 10000 2.6 130 00:25 11.12.2019
6352 Clouds 16 1025 51 10000 3.1 110 23:59 10.12.2019
6353 Clouds 16 1025 51 10000 3.1 110 23:40 10.12.2019
6354 Clouds 16 1025 51 10000 3.1 110 23:21 10.12.2019
6355 Rain 16 1024 48 10000 3.1 0 22:41 10.12.2019
6356 Rain 16 1024 48 10000 3.1 0 22:22 10.12.2019
6357 Clouds 20 1024 37 10000 4.1 290 21:57 10.12.2019
6358 Clouds 20 1024 37 10000 4.1 290 21:39 10.12.2019
6359 Clouds 20 1024 37 10000 4.1 290 21:21 10.12.2019
6360 Clouds 21 1024 35 10000 2.6 320 20:57 10.12.2019
6361 Clouds 22 1025 30 10000 3.1 390 20:38 10.12.2019
6362 Clouds 22 1025 30 10000 3.1 390 20:19 10.12.2019
6363 Clouds 22 1025 30 10000 3.1 390 20:19 10.12.2019
6364 Clouds 22 1025 30 10000 3.1 390 20:19 10.12.2019
6365 Clouds 22 1026 30 10000 1 0 19:56 10.12.2019
6366 Clouds 21 1026 30 10000 3.1 350 19:37 10.12.2019
6367 Clouds 21 1026 30 10000 3.1 350 19:19 10.12.2019
6368 Clouds 19 1029 42 10000 3.1 300 18:42 10.12.2019
6369 Clouds 18 1029 39 10000 0.5 0 18:21 10.12.2019
6370 Clouds 18 1029 39 10000 0.5 0 17:59 10.12.2019
6371 Clouds 18 1030 48 10000 2.6 270 17:41 10.12.2019
6372 Clouds 18 1030 48 10000 2.6 270 17:22 10.12.2019
6373 Clouds 16 1031 48 10000 1.5 350 16:55 10.12.2019
6374 Rain 12 1032 51 10000 1.5 340 16:36 10.12.2019
6375 Rain 12 1032 51 10000 1.5 340 16:18 10.12.2019
6376 Clouds 13 1032 54 10000 1 230 15:38 10.12.2019
6377 Rain 12 1032 58 10000 1 310 15:18 10.12.2019
6378 Rain 12 1032 58 10000 1 310 14:56 10.12.2019
6379 Rain 12 1032 58 10000 0.5 0 14:38 10.12.2019
6380 Rain 12 1032 58 10000 0.5 0 14:20 10.12.2019
6381 Rain 12 1032 58 10000 1 70 13:57 10.12.2019
6382 Rain 12 1031 62 10000 1.5 100 13:39 10.12.2019
6383 Rain 12 1031 62 10000 1.5 100 13:20 10.12.2019
6384 Rain 11 1031 71 10000 0.5 200 12:48 10.12.2019
6385 Rain 11 1031 71 10000 0.5 200 12:48 10.12.2019
6386 Rain 10 1031 75 10000 1.5 270 12:28 10.12.2019
6387 Rain 9 1030 81 10000 1.5 300 11:56 10.12.2019
6388 Rain 12 1012 95 0 1.13 220 11:38 10.12.2019
6389 Rain 10 1030 81 10000 1 90 11:19 10.12.2019
6390 Rain 10 1030 81 10000 1 90 11:19 10.12.2019
6391 Clouds 8 1030 81 10000 1 90 10:43 10.12.2019
6392 Clouds 8 1030 81 10000 1 90 10:24 10.12.2019
6393 Clouds 9 1029 76 10000 2.1 90 09:57 10.12.2019
6394 Clouds 9 1029 76 10000 2.1 90 09:39 10.12.2019
6395 Clouds 9 1029 76 10000 2.1 90 09:20 10.12.2019
6396 Clouds 11 1029 66 10000 4.1 290 08:58 10.12.2019
6397 Clouds 11 1029 66 10000 4.1 290 08:39 10.12.2019
6398 Clouds 11 1029 66 10000 4.1 290 08:20 10.12.2019
6399 Clouds 11 1030 66 10000 3.6 280 07:45 10.12.2019
6400 Clouds 11 1030 66 10000 3.6 280 07:27 10.12.2019
6401 Clouds 12 1031 62 10000 1.95 311 06:50 10.12.2019
6402 Clouds 12 1031 62 10000 1.95 311 06:25 10.12.2019
6403 Clouds 12 1032 58 10000 1.95 311 05:57 10.12.2019
6404 Clouds 12 1032 58 10000 1.95 311 05:38 10.12.2019
6405 Clouds 13 1031 58 10000 2.6 260 03:55 10.12.2019
6406 Clouds 13 1031 58 10000 2.6 260 03:24 10.12.2019
6407 Clouds 15 1029 54 10000 2.6 150 01:56 10.12.2019
6408 Thunderstorm 15 1028 62 10000 1 0 01:28 10.12.2019
6409 Thunderstorm 15 1028 62 10000 1 0 01:28 10.12.2019
6410 Clouds 15 1027 58 10000 2.6 110 00:58 10.12.2019
6411 Rain 15 1027 51 10000 1.5 0 00:26 10.12.2019
6412 Rain 16 1026 44 10000 3.1 0 23:57 09.12.2019
6413 Clouds 15 1025 44 10000 2.6 80 23:37 09.12.2019
6414 Clouds 15 1025 44 10000 2.6 80 23:18 09.12.2019
6415 Clouds 15 1025 44 10000 3.6 90 22:55 09.12.2019
6416 Clouds 15 1025 41 10000 4.6 350 22:37 09.12.2019
6417 Clouds 16 1025 41 10000 4.6 350 22:18 09.12.2019
6418 Clouds 15 1025 48 10000 2.1 320 21:54 09.12.2019
6419 Rain 16 1025 48 10000 5.1 120 21:36 09.12.2019
6420 Rain 16 1025 48 10000 5.1 120 21:18 09.12.2019
6421 Rain 16 1025 55 10000 5.1 100 20:55 09.12.2019
6422 Clouds 17 1025 39 10000 3.1 360 20:37 09.12.2019
6423 Clouds 16 1025 39 10000 3.1 360 20:18 09.12.2019
6424 Clouds 16 1026 39 10000 3.6 330 19:54 09.12.2019
6425 Clouds 15 1026 45 10000 5.7 360 19:36 09.12.2019
6426 Clouds 14 1026 45 10000 5.7 360 19:18 09.12.2019
6427 Clouds 18 1026 45 10000 5.7 20 18:54 09.12.2019
6428 Clouds 18 1026 45 10000 5.7 20 18:54 09.12.2019
6429 Clouds 21 1026 30 10000 1.5 0 18:36 09.12.2019
6430 Clouds 21 1026 30 10000 1.5 0 18:18 09.12.2019
6431 Clouds 20 1027 34 10000 2.1 290 17:54 09.12.2019
6432 Clouds 20 1028 37 10000 0.5 360 17:36 09.12.2019
6433 Clouds 20 1028 37 10000 0.5 360 17:18 09.12.2019
6434 Clouds 19 1028 39 10000 0.5 0 16:54 09.12.2019
6435 Clouds 18 1029 48 10000 1.5 0 16:36 09.12.2019
6436 Clouds 18 1029 48 10000 1.5 0 16:18 09.12.2019
6437 Clouds 18 1029 52 10000 0.5 110 15:54 09.12.2019
6438 Clouds 15 1030 54 10000 1 0 15:36 09.12.2019
6439 Clouds 15 1030 54 10000 1 0 15:18 09.12.2019
6440 Clouds 14 1030 58 10000 1.5 0 14:41 09.12.2019
6441 Clouds 11 1030 58 10000 1.5 0 14:18 09.12.2019
6442 Haze 10 1030 66 10000 1 100 13:56 09.12.2019
6443 Haze 9 1030 76 10000 1.34 195 13:37 09.12.2019
6444 Haze 9 1030 76 10000 1.15 213 13:19 09.12.2019
6445 Mist 9 1030 81 10000 1.15 213 12:55 09.12.2019
6446 Mist 8 1028 87 10000 1.15 213 12:37 09.12.2019
6447 Mist 8 1028 87 10000 1.15 213 12:18 09.12.2019
6448 Rain 8 1028 87 10000 1.5 80 11:41 09.12.2019
6449 Rain 8 1028 87 10000 1.5 80 11:22 09.12.2019
6450 Rain 8 1028 87 10000 1.5 80 11:22 09.12.2019
6451 Rain 8 1028 87 10000 0.5 0 10:59 09.12.2019
6452 Rain 8 1028 87 10000 0.5 0 10:39 09.12.2019
6453 Rain 8 1028 87 10000 0.5 0 10:20 09.12.2019
6454 Rain 8 1028 81 10000 1.5 300 09:55 09.12.2019
6455 Rain 8 1028 81 10000 1.5 300 09:36 09.12.2019
6456 Rain 8 1028 81 10000 1.5 300 09:18 09.12.2019
6457 Rain 9 1028 81 10000 2.1 100 08:40 09.12.2019
6458 Rain 9 1028 81 10000 2.1 100 08:22 09.12.2019
6459 Rain 10 1028 76 10000 1.95 266 07:52 09.12.2019
6460 Rain 10 1028 76 10000 1.95 266 07:34 09.12.2019
6461 Clouds 10 1029 76 10000 1.5 260 06:59 09.12.2019
6462 Clouds 10 1029 76 10000 1.5 260 06:33 09.12.2019
6463 Clouds 10 1030 71 10000 2.1 170 05:51 09.12.2019
6464 Clouds 10 1030 71 10000 2.1 170 05:25 09.12.2019
6465 Clouds 10 1030 71 10000 1.5 260 04:28 09.12.2019
6466 Clouds 10 1029 76 10000 1.36 143 03:18 09.12.2019
6467 Clouds 11 1028 62 10000 2.6 280 01:48 09.12.2019
6468 Clouds 11 1027 66 10000 3.6 290 01:28 09.12.2019
6469 Clouds 12 1026 54 10000 2.6 280 00:39 09.12.2019
6470 Clouds 12 1026 54 10000 2.6 280 00:19 09.12.2019
6471 Clouds 13 1025 51 10000 4.6 270 23:39 08.12.2019
6472 Clouds 13 1025 51 10000 4.6 270 23:20 08.12.2019
6473 Clouds 15 1025 48 10000 5.7 280 22:56 08.12.2019
6474 Clouds 16 1025 48 10000 1.5 0 22:38 08.12.2019
6475 Clouds 16 1025 48 10000 1.5 0 22:18 08.12.2019
6476 Clouds 16 1025 45 10000 2.1 0 21:57 08.12.2019
6477 Clouds 16 1026 45 10000 3.6 10 21:38 08.12.2019
6478 Clouds 16 1026 45 10000 3.6 10 21:19 08.12.2019
6479 Clouds 16 1026 48 10000 3.6 10 20:56 08.12.2019
6480 Clouds 16 1026 36 10000 1 0 20:37 08.12.2019
6481 Clouds 16 1026 36 10000 1 0 20:19 08.12.2019
6482 Clouds 16 1027 39 10000 1.5 260 19:55 08.12.2019
6483 Clouds 16 1027 42 10000 2.1 0 19:37 08.12.2019
6484 Clouds 16 1027 42 10000 2.1 0 19:19 08.12.2019
6485 Clouds 16 1027 39 10000 1 0 18:55 08.12.2019
6486 Rain 19 1028 39 10000 2.1 280 18:36 08.12.2019
6487 Rain 19 1028 39 10000 2.1 280 18:36 08.12.2019
6488 Rain 19 1028 39 10000 2.1 280 18:18 08.12.2019
6489 Clouds 19 1029 39 10000 2.1 0 17:55 08.12.2019
6490 Clouds 18 1029 52 10000 1.5 240 17:36 08.12.2019
6491 Clouds 16 1030 51 10000 1 0 17:18 08.12.2019
6492 Clouds 16 1030 51 10000 1 0 16:55 08.12.2019
6493 Rain 16 1030 51 10000 1.5 110 16:37 08.12.2019
6494 Rain 16 1030 51 10000 1.5 110 16:18 08.12.2019
6495 Rain 13 1031 62 10000 0.5 0 15:38 08.12.2019
6496 Rain 13 1031 62 10000 0.5 0 15:19 08.12.2019
6497 Rain 13 1031 66 10000 0.5 10 14:58 08.12.2019
6498 Rain 11 1031 76 10000 1.5 0 14:38 08.12.2019
6499 Rain 11 1031 76 10000 1.5 0 14:20 08.12.2019
6500 Clouds 9 1030 87 10000 1.5 110 13:42 08.12.2019
6501 Clouds 9 1030 87 10000 1.5 110 13:23 08.12.2019
6502 Clouds 9 1030 87 10000 1 60 12:59 08.12.2019
6503 Mist 8 1030 87 10000 0.8 250 12:41 08.12.2019
6504 Mist 8 1030 87 10000 0.8 250 12:23 08.12.2019
6505 Mist 8 1029 87 10000 1.5 120 11:59 08.12.2019
6506 Mist 8 1029 87 10000 0.8 250 11:38 08.12.2019
6507 Mist 8 1029 87 10000 0.4 169 11:19 08.12.2019
6508 Mist 8 1029 87 10000 2.1 110 10:57 08.12.2019
6509 Mist 8 1029 87 10000 2.1 110 10:38 08.12.2019
6510 Clouds 9 1029 87 10000 1.5 90 10:19 08.12.2019
6511 Clouds 9 1029 87 10000 1.5 90 10:19 08.12.2019
6512 Clouds 9 1029 87 10000 1.5 90 09:55 08.12.2019
6513 Clouds 9 1029 87 10000 1.5 90 09:37 08.12.2019
6514 Clouds 9 1029 87 10000 1.5 90 09:19 08.12.2019
6515 Clouds 10 1029 76 10000 1 110 08:57 08.12.2019
6516 Clouds 10 1029 76 10000 1 110 08:36 08.12.2019
6517 Clouds 10 1029 76 10000 1 110 08:18 08.12.2019
6518 Clouds 10 1030 81 10000 1.5 270 07:41 08.12.2019
6519 Clouds 10 1030 81 10000 1.5 270 07:19 08.12.2019
6520 Drizzle 10 1031 81 10000 3.1 300 06:43 08.12.2019
6521 Drizzle 10 1031 81 10000 3.1 300 06:21 08.12.2019
6522 Rain 10 1032 81 10000 2.1 270 05:30 08.12.2019
6523 Rain 10 1032 81 9000 1.5 290 04:57 08.12.2019
6524 Rain 6 1032 81 9000 2.28 1 03:41 08.12.2019
6525 Rain 6 1031 81 9000 1 0 02:52 08.12.2019
6526 Rain 7 1031 71 9000 1 0 02:28 08.12.2019
6527 Thunderstorm 11 1030 71 9000 2.1 0 01:48 08.12.2019
6528 Rain 16 1027 48 10000 1 0 00:56 08.12.2019
6529 Clouds 10 1026 51 10000 3.1 270 00:38 08.12.2019
6530 Clouds 10 1026 51 10000 3.1 270 00:19 08.12.2019
6531 Clouds 13 1026 45 10000 1 0 23:40 07.12.2019
6532 Clouds 13 1026 45 10000 1 0 23:40 07.12.2019
6533 Clouds 18 1026 45 10000 1 0 23:20 07.12.2019
6534 Clouds 14 1026 45 10000 1 0 22:56 07.12.2019
6535 Clouds 15 1026 45 10000 1 0 22:38 07.12.2019
6536 Clouds 15 1026 45 10000 1 0 22:19 07.12.2019
6537 Clouds 15 1026 45 10000 1 0 22:19 07.12.2019
6538 Clouds 14 1026 55 10000 4.1 20 21:56 07.12.2019
6539 Clouds 15 1027 51 10000 3.1 10 21:38 07.12.2019
6540 Clouds 15 1027 51 10000 3.1 10 21:19 07.12.2019
6541 Clouds 15 1027 48 10000 2.1 310 20:54 07.12.2019
6542 Clouds 15 1028 48 10000 2.6 300 20:36 07.12.2019
6543 Clouds 15 1028 48 10000 2.6 300 20:18 07.12.2019
6544 Clouds 16 1028 39 10000 3.1 230 19:55 07.12.2019
6545 Clouds 16 1029 48 10000 1 340 19:36 07.12.2019
6546 Clouds 15 1029 48 10000 1 340 19:18 07.12.2019
6547 Clouds 15 1030 48 10000 1 90 18:43 07.12.2019
6548 Clouds 14 1030 48 10000 1 90 18:19 07.12.2019
6549 Clouds 14 1031 51 10000 1.5 260 17:57 07.12.2019
6550 Clouds 16 1032 63 10000 1 270 17:38 07.12.2019
6551 Clouds 13 1032 63 10000 1 270 17:20 07.12.2019
6552 Clouds 12 1032 54 10000 1.5 0 16:56 07.12.2019
6553 Clouds 12 1033 54 10000 1 120 16:37 07.12.2019
6554 Clouds 15 1033 54 10000 1 120 16:18 07.12.2019
6555 Clouds 14 1034 58 10000 0.5 90 15:41 07.12.2019
6556 Clouds 14 1034 58 10000 0.5 90 15:41 07.12.2019
6557 Clouds 14 1034 58 10000 0.5 90 15:23 07.12.2019
6558 Clouds 10 1034 66 10000 1 0 14:57 07.12.2019
6559 Clouds 9 1034 76 10000 2.6 120 14:39 07.12.2019
6560 Clouds 9 1034 76 10000 2.6 120 14:18 07.12.2019
6561 Mist 8 1034 81 9000 2.6 90 13:41 07.12.2019
6562 Mist 8 1034 81 9000 2.6 90 13:21 07.12.2019
6563 Mist 8 1034 81 9000 2.6 100 12:56 07.12.2019
6564 Clouds 7 1033 87 10000 3.6 100 12:38 07.12.2019
6565 Clouds 7 1033 87 10000 3.6 100 12:20 07.12.2019
6566 Clouds 7 1033 87 10000 3.6 110 11:56 07.12.2019
6567 Rain 7 1033 87 7000 3.6 110 11:37 07.12.2019
6568 Rain 6 1032 87 7000 2.6 110 11:19 07.12.2019
6569 Rain 5 1032 87 7000 2.6 110 10:37 07.12.2019
6570 Rain 5 1032 87 7000 2.6 110 10:19 07.12.2019
6571 Rain 6 1032 81 8000 1.71 208 09:41 07.12.2019
6572 Rain 6 1032 81 8000 1.71 208 09:22 07.12.2019
6573 Clouds 6 1032 76 10000 1.71 208 08:47 07.12.2019
6574 Clouds 6 1032 76 10000 1.71 208 08:26 07.12.2019
6575 Clouds 7 1032 76 10000 1.62 311 07:58 07.12.2019
6576 Clouds 7 1032 76 10000 1.62 311 07:39 07.12.2019
6577 Clouds 7 1032 76 10000 1.62 311 07:21 07.12.2019
6578 Clouds 7 1032 76 10000 1.62 311 07:21 07.12.2019
6579 Clouds 7 1033 71 10000 4.1 100 06:45 07.12.2019
6580 Clouds 7 1033 71 10000 4.1 100 06:24 07.12.2019
6581 Clouds 9 1032 66 10000 1.88 359 04:52 07.12.2019
6582 Clouds 9 1032 71 10000 0.5 0 03:54 07.12.2019
6583 Clouds 9 1031 71 10000 2.1 290 02:50 07.12.2019
6584 Clouds 9 1031 71 10000 2.1 290 02:19 07.12.2019
6585 Clouds 9 1029 76 10000 1.5 100 01:31 07.12.2019
6586 Clouds 10 1028 62 10000 1.5 90 00:43 07.12.2019
6587 Clouds 10 1028 62 10000 2.1 290 00:19 07.12.2019
6588 Clouds 10 1028 66 10000 1 0 23:47 06.12.2019
6589 Clouds 10 1028 66 10000 1 0 23:47 06.12.2019
6590 Clouds 11 1028 62 10000 1 0 23:24 06.12.2019
6591 Rain 14 1028 58 10000 2.6 340 22:58 06.12.2019
6592 Rain 16 1027 55 10000 6.7 300 22:37 06.12.2019
6593 Rain 16 1027 55 10000 6.7 300 22:18 06.12.2019
6594 Rain 17 1027 48 10000 3.1 360 21:56 06.12.2019
6595 Rain 13 1027 42 10000 3.6 350 21:38 06.12.2019
6596 Rain 13 1027 42 10000 3.6 350 21:19 06.12.2019
6597 Clouds 21 1027 28 10000 1.5 0 20:42 06.12.2019
6598 Clouds 21 1027 28 10000 1.5 0 20:22 06.12.2019
6599 Clouds 20 1028 34 10000 2.6 110 19:57 06.12.2019
6600 Clouds 20 1028 34 10000 2.6 110 19:57 06.12.2019
6601 Clouds 19 1029 34 10000 1 110 19:39 06.12.2019
6602 Clouds 19 1029 34 10000 1 110 19:21 06.12.2019
6603 Clouds 19 1029 42 10000 2.43 324 18:45 06.12.2019
6604 Clouds 17 1030 48 10000 1.5 0 18:23 06.12.2019
6605 Clouds 17 1031 42 10000 0.5 210 17:58 06.12.2019
6606 Clouds 15 1032 54 10000 2.6 270 17:40 06.12.2019
6607 Clouds 12 1032 54 10000 2.6 270 17:22 06.12.2019
6608 Clouds 11 1032 51 10000 3.6 270 16:59 06.12.2019
6609 Clouds 14 1033 50 10000 2.6 270 16:40 06.12.2019
6610 Clouds 14 1033 50 10000 2.6 270 16:21 06.12.2019
6611 Clouds 14 1033 54 10000 2.1 270 15:56 06.12.2019
6612 Clouds 14 1033 58 10000 1.5 300 15:38 06.12.2019
6613 Clouds 14 1033 58 10000 1.5 300 15:38 06.12.2019
6614 Clouds 14 1033 58 10000 1.5 300 15:18 06.12.2019
6615 Clouds 14 1033 58 10000 1.5 300 15:18 06.12.2019
6616 Clouds 14 1033 58 10000 0.5 80 14:41 06.12.2019
6617 Clouds 14 1033 58 10000 0.5 80 14:20 06.12.2019
6618 Mist 13 1033 66 10000 0.5 150 13:58 06.12.2019
6619 Clouds 11 1033 76 10000 1.78 215 13:40 06.12.2019
6620 Clouds 11 1033 76 10000 1.31 197 13:22 06.12.2019
6621 Mist 9 1033 87 10000 1 0 12:41 06.12.2019
6622 Mist 9 1033 87 10000 1 0 12:22 06.12.2019
6623 Mist 9 1032 87 10000 1 0 11:55 06.12.2019
6624 Mist 9 1032 87 10000 2.1 100 11:37 06.12.2019
6625 Mist 9 1032 87 10000 2.1 100 11:19 06.12.2019
6626 Clouds 9 1031 87 10000 1 100 10:42 06.12.2019
6627 Clouds 9 1031 87 10000 1 100 10:21 06.12.2019
6628 Clouds 9 1031 87 10000 1.5 110 09:57 06.12.2019
6629 Clouds 9 1031 87 10000 1.5 110 09:37 06.12.2019
6630 Clouds 9 1031 87 10000 1.5 110 09:19 06.12.2019
6631 Drizzle 10 1031 76 10000 1 0 08:44 06.12.2019
6632 Drizzle 10 1031 76 10000 1 0 08:26 06.12.2019
6633 Drizzle 10 1032 76 10000 2.1 360 07:44 06.12.2019
6634 Drizzle 10 1032 76 10000 2.1 360 07:23 06.12.2019
6635 Rain 10 1033 81 8000 5.1 310 06:57 06.12.2019
6636 Rain 10 1033 81 8000 5.1 310 06:26 06.12.2019
6637 Drizzle 12 1033 76 10000 1.45 261 05:52 06.12.2019
6638 Drizzle 12 1033 71 10000 2 5 04:52 06.12.2019
6639 Clouds 13 1031 66 10000 3.1 290 01:49 06.12.2019
6640 Clouds 14 1030 58 10000 2.6 300 01:22 06.12.2019
6641 Clouds 14 1029 58 10000 3.6 280 00:39 06.12.2019
6642 Clouds 14 1029 58 10000 3.6 280 00:19 06.12.2019
6643 Rain 10 1028 54 10000 4.6 280 23:38 05.12.2019
6644 Rain 15 1028 54 10000 4.6 280 23:18 05.12.2019
6645 Rain 16 1028 51 10000 3.1 310 22:55 05.12.2019
6646 Rain 13 1027 51 10000 4.1 120 22:37 05.12.2019
6647 Rain 14 1027 51 10000 4.1 120 22:18 05.12.2019
6648 Clouds 16 1028 36 10000 3.1 120 21:42 05.12.2019
6649 Clouds 16 1028 36 10000 3.1 120 21:24 05.12.2019
6650 Clouds 16 1028 48 10000 2.6 260 20:59 05.12.2019
6651 Clouds 15 1028 48 10000 2.6 260 20:40 05.12.2019
6652 Clouds 14 1029 51 10000 4.1 250 20:20 05.12.2019
6653 Rain 15 1020 51 10000 3.1 350 19:55 05.12.2019
6654 Rain 15 1029 48 10000 5.7 20 19:36 05.12.2019
6655 Rain 15 1029 48 10000 5.7 20 19:36 05.12.2019
6656 Rain 15 1029 48 10000 5.7 20 19:18 05.12.2019
6657 Clouds 15 1030 45 10000 1.5 120 18:39 05.12.2019
6658 Clouds 15 1030 45 10000 1.5 120 18:39 05.12.2019
6659 Clouds 15 1030 45 10000 2.1 310 18:21 05.12.2019
6660 Clouds 17 1031 48 10000 1.5 270 17:59 05.12.2019
6661 Clouds 17 1031 48 10000 1.5 270 17:39 05.12.2019
6662 Clouds 17 1031 48 10000 1.5 270 17:39 05.12.2019
6663 Clouds 16 1032 48 10000 1 310 17:19 05.12.2019
6664 Clouds 16 1032 55 10000 1.5 70 16:55 05.12.2019
6665 Clouds 15 1033 51 10000 0.5 360 16:37 05.12.2019
6666 Clouds 15 1033 51 10000 0.5 360 16:19 05.12.2019
6667 Clouds 14 1033 54 10000 1 260 15:56 05.12.2019
6668 Clouds 13 1033 58 10000 2.1 310 15:37 05.12.2019
6669 Clouds 13 1033 58 10000 2.1 310 15:18 05.12.2019
6670 Clouds 12 1033 62 10000 1 180 14:55 05.12.2019
6671 Clouds 11 1033 66 10000 1.21 192 14:36 05.12.2019
6672 Clouds 11 1033 66 10000 2.32 207 14:18 05.12.2019
6673 Clouds 11 1033 71 10000 1.5 260 13:55 05.12.2019
6674 Mist 10 1033 71 10000 1 130 13:37 05.12.2019
6675 Mist 10 1033 71 10000 1 130 13:18 05.12.2019
6676 Mist 9 1033 76 10000 1 140 12:43 05.12.2019
6677 Mist 9 1032 81 10000 1.5 80 12:23 05.12.2019
6678 Mist 9 1032 76 10000 2.1 130 11:56 05.12.2019
6679 Mist 9 1031 76 10000 2.1 120 11:38 05.12.2019
6680 Mist 9 1031 76 10000 2.1 120 11:20 05.12.2019
6681 Mist 8 1031 87 10000 3.1 90 10:56 05.12.2019
6682 Mist 8 1031 87 10000 3.1 90 10:38 05.12.2019
6683 Mist 8 1031 87 10000 3.1 90 10:18 05.12.2019
6684 Drizzle 9 1030 81 10000 2.1 100 09:45 05.12.2019
6685 Drizzle 9 1030 81 10000 2.1 100 09:23 05.12.2019
6686 Rain 8 1017 84 0 1.36 238 08:59 05.12.2019
6687 Drizzle 9 1031 81 10000 0.5 270 08:38 05.12.2019
6688 Drizzle 9 1031 81 10000 0.5 270 08:20 05.12.2019
6689 Drizzle 9 1031 81 10000 0.5 270 07:50 05.12.2019
6690 Drizzle 9 1031 81 10000 0.5 270 07:32 05.12.2019
6691 Rain 9 1032 81 9000 2.1 130 06:58 05.12.2019
6692 Rain 9 1032 81 9000 2.1 130 06:40 05.12.2019
6693 Rain 9 1032 81 9000 2.1 130 06:19 05.12.2019
6694 Rain 10 1031 81 10000 4.1 110 05:47 05.12.2019
6695 Rain 10 1031 81 10000 4.1 110 05:23 05.12.2019
6696 Mist 11 1031 87 10000 2.6 110 04:20 05.12.2019
6697 Mist 11 1030 87 10000 1.5 100 02:43 05.12.2019
6698 Mist 12 1029 81 10000 2.1 90 02:24 05.12.2019
6699 Mist 12 1029 81 10000 2.6 90 01:52 05.12.2019
6700 Mist 12 1028 81 10000 2.6 120 01:24 05.12.2019
6701 Mist 9 1028 81 10000 2.6 110 00:51 05.12.2019
6702 Drizzle 9 1028 76 7000 1 160 00:31 05.12.2019
6703 Drizzle 10 1027 71 10000 1.5 360 23:57 04.12.2019
6704 Drizzle 10 1027 71 10000 1.5 360 23:39 04.12.2019
6705 Drizzle 12 1027 76 10000 1.5 290 23:21 04.12.2019
6706 Dr